<?xml version="1.0" encoding="utf-8"?>
<gpx xmlns:xsi="http://www.w3.org/2001/XMLSchema-instance" xmlns:xsd="http://www.w3.org/2001/XMLSchema" version="1.1" creator="Shapelink.com" xmlns="http://www.topografix.com/GPX/1/1" xmlns:gpxtpx="http://www.garmin.com/xmlschemas/TrackPointExtension/v1">
  <metadata>
    <name>Sykling 29.48 km, 2013-05-09</name>
    <desc></desc>
    <author><name>Mikael Blom</name></author> 
    <time>2013-05-09T11:16:54Z</time>
  </metadata>
  <trk>
    <name>Sykling 29.48 km, 2013-05-09</name>
    <trkseg>
      <trkpt lat="59.9789621" lon="17.7393228">
        <ele>42.916</ele>
        <time>2013-05-09T11:16:54Z</time>
      </trkpt>
      <trkpt lat="59.9789774" lon="17.7393169">
        <ele>42.916</ele>
        <time>2013-05-09T11:16:55Z</time>
      </trkpt>
      <trkpt lat="59.9789991" lon="17.7393047">
        <ele>42.916</ele>
        <time>2013-05-09T11:16:56Z</time>
      </trkpt>
      <trkpt lat="59.9790221" lon="17.7392964">
        <ele>42.4354</ele>
        <time>2013-05-09T11:16:57Z</time>
      </trkpt>
      <trkpt lat="59.979049" lon="17.7392869">
        <ele>42.4354</ele>
        <time>2013-05-09T11:16:58Z</time>
      </trkpt>
      <trkpt lat="59.979079" lon="17.7392657">
        <ele>42.916</ele>
        <time>2013-05-09T11:16:59Z</time>
      </trkpt>
      <trkpt lat="59.9791092" lon="17.7392404">
        <ele>42.916</ele>
        <time>2013-05-09T11:17:00Z</time>
      </trkpt>
      <trkpt lat="59.979142" lon="17.7392184">
        <ele>43.3966</ele>
        <time>2013-05-09T11:17:01Z</time>
      </trkpt>
      <trkpt lat="59.9791764" lon="17.7392011">
        <ele>43.3966</ele>
        <time>2013-05-09T11:17:02Z</time>
      </trkpt>
      <trkpt lat="59.9792117" lon="17.7391814">
        <ele>43.8773</ele>
        <time>2013-05-09T11:17:03Z</time>
      </trkpt>
      <trkpt lat="59.9792459" lon="17.7391559">
        <ele>43.8773</ele>
        <time>2013-05-09T11:17:04Z</time>
      </trkpt>
      <trkpt lat="59.9792784" lon="17.7391334">
        <ele>44.358</ele>
        <time>2013-05-09T11:17:05Z</time>
      </trkpt>
      <trkpt lat="59.9793122" lon="17.7391076">
        <ele>44.358</ele>
        <time>2013-05-09T11:17:06Z</time>
      </trkpt>
      <trkpt lat="59.9793435" lon="17.7390849">
        <ele>44.358</ele>
        <time>2013-05-09T11:17:07Z</time>
      </trkpt>
      <trkpt lat="59.9793751" lon="17.7390654">
        <ele>43.3966</ele>
        <time>2013-05-09T11:17:08Z</time>
      </trkpt>
      <trkpt lat="59.9794104" lon="17.7390464">
        <ele>43.3966</ele>
        <time>2013-05-09T11:17:09Z</time>
      </trkpt>
      <trkpt lat="59.9794461" lon="17.7390351">
        <ele>43.3966</ele>
        <time>2013-05-09T11:17:10Z</time>
      </trkpt>
      <trkpt lat="59.9794754" lon="17.7390223">
        <ele>42.916</ele>
        <time>2013-05-09T11:17:11Z</time>
      </trkpt>
      <trkpt lat="59.9795027" lon="17.7390031">
        <ele>42.916</ele>
        <time>2013-05-09T11:17:12Z</time>
      </trkpt>
      <trkpt lat="59.979529" lon="17.7389875">
        <ele>42.916</ele>
        <time>2013-05-09T11:17:13Z</time>
      </trkpt>
      <trkpt lat="59.9795587" lon="17.7389754">
        <ele>42.916</ele>
        <time>2013-05-09T11:17:14Z</time>
      </trkpt>
      <trkpt lat="59.9795893" lon="17.738956">
        <ele>42.916</ele>
        <time>2013-05-09T11:17:15Z</time>
      </trkpt>
      <trkpt lat="59.9796152" lon="17.7389393">
        <ele>42.916</ele>
        <time>2013-05-09T11:17:16Z</time>
      </trkpt>
      <trkpt lat="59.9796388" lon="17.7389253">
        <ele>43.3966</ele>
        <time>2013-05-09T11:17:17Z</time>
      </trkpt>
      <trkpt lat="59.9796587" lon="17.7389148">
        <ele>43.3966</ele>
        <time>2013-05-09T11:17:18Z</time>
      </trkpt>
      <trkpt lat="59.9796824" lon="17.7389025">
        <ele>43.3966</ele>
        <time>2013-05-09T11:17:19Z</time>
      </trkpt>
      <trkpt lat="59.9797027" lon="17.738896">
        <ele>43.3966</ele>
        <time>2013-05-09T11:17:20Z</time>
      </trkpt>
      <trkpt lat="59.9797285" lon="17.7388876">
        <ele>43.8773</ele>
        <time>2013-05-09T11:17:21Z</time>
      </trkpt>
      <trkpt lat="59.9797566" lon="17.7388762">
        <ele>44.358</ele>
        <time>2013-05-09T11:17:22Z</time>
      </trkpt>
      <trkpt lat="59.9797883" lon="17.738861">
        <ele>44.8386</ele>
        <time>2013-05-09T11:17:23Z</time>
      </trkpt>
      <trkpt lat="59.9798214" lon="17.7388488">
        <ele>45.3192</ele>
        <time>2013-05-09T11:17:24Z</time>
      </trkpt>
      <trkpt lat="59.9798587" lon="17.7388425">
        <ele>45.3192</ele>
        <time>2013-05-09T11:17:25Z</time>
      </trkpt>
      <trkpt lat="59.9798985" lon="17.7388419">
        <ele>45.7999</ele>
        <time>2013-05-09T11:17:26Z</time>
      </trkpt>
      <trkpt lat="59.9799497" lon="17.7388328">
        <ele>46.2806</ele>
        <time>2013-05-09T11:17:27Z</time>
      </trkpt>
      <trkpt lat="59.9799999" lon="17.7388238">
        <ele>47.2418</ele>
        <time>2013-05-09T11:17:28Z</time>
      </trkpt>
      <trkpt lat="59.9800555" lon="17.7388051">
        <ele>47.7225</ele>
        <time>2013-05-09T11:17:29Z</time>
      </trkpt>
      <trkpt lat="59.9801057" lon="17.7387918">
        <ele>48.2034</ele>
        <time>2013-05-09T11:17:30Z</time>
      </trkpt>
      <trkpt lat="59.9801544" lon="17.7387854">
        <ele>47.7225</ele>
        <time>2013-05-09T11:17:31Z</time>
      </trkpt>
      <trkpt lat="59.9801985" lon="17.7387771">
        <ele>48.2034</ele>
        <time>2013-05-09T11:17:32Z</time>
      </trkpt>
      <trkpt lat="59.9802366" lon="17.7387802">
        <ele>48.2034</ele>
        <time>2013-05-09T11:17:33Z</time>
      </trkpt>
      <trkpt lat="59.9802674" lon="17.7387918">
        <ele>48.2034</ele>
        <time>2013-05-09T11:17:34Z</time>
      </trkpt>
      <trkpt lat="59.9803062" lon="17.7387887">
        <ele>48.684</ele>
        <time>2013-05-09T11:17:35Z</time>
      </trkpt>
      <trkpt lat="59.9803337" lon="17.7387976">
        <ele>48.684</ele>
        <time>2013-05-09T11:17:36Z</time>
      </trkpt>
      <trkpt lat="59.9803671" lon="17.7388004">
        <ele>48.684</ele>
        <time>2013-05-09T11:17:37Z</time>
      </trkpt>
      <trkpt lat="59.9804041" lon="17.7387938">
        <ele>50.126</ele>
        <time>2013-05-09T11:17:38Z</time>
      </trkpt>
      <trkpt lat="59.9804346" lon="17.738796">
        <ele>50.6066</ele>
        <time>2013-05-09T11:17:39Z</time>
      </trkpt>
      <trkpt lat="59.9804714" lon="17.7387923">
        <ele>51.0872</ele>
        <time>2013-05-09T11:17:40Z</time>
      </trkpt>
      <trkpt lat="59.9805099" lon="17.7387881">
        <ele>50.6066</ele>
        <time>2013-05-09T11:17:41Z</time>
      </trkpt>
      <trkpt lat="59.9805475" lon="17.7387823">
        <ele>51.0872</ele>
        <time>2013-05-09T11:17:42Z</time>
      </trkpt>
      <trkpt lat="59.9805866" lon="17.7387755">
        <ele>51.0872</ele>
        <time>2013-05-09T11:17:43Z</time>
      </trkpt>
      <trkpt lat="59.980629" lon="17.7387648">
        <ele>51.5679</ele>
        <time>2013-05-09T11:17:44Z</time>
      </trkpt>
      <trkpt lat="59.9806725" lon="17.7387539">
        <ele>51.5679</ele>
        <time>2013-05-09T11:17:45Z</time>
      </trkpt>
      <trkpt lat="59.9807142" lon="17.7387468">
        <ele>52.0486</ele>
        <time>2013-05-09T11:17:46Z</time>
      </trkpt>
      <trkpt lat="59.9807553" lon="17.7387362">
        <ele>51.5679</ele>
        <time>2013-05-09T11:17:47Z</time>
      </trkpt>
      <trkpt lat="59.9807968" lon="17.7387254">
        <ele>52.0486</ele>
        <time>2013-05-09T11:17:48Z</time>
      </trkpt>
      <trkpt lat="59.9808402" lon="17.7387157">
        <ele>52.5292</ele>
        <time>2013-05-09T11:17:49Z</time>
      </trkpt>
      <trkpt lat="59.9808836" lon="17.7387089">
        <ele>53.0098</ele>
        <time>2013-05-09T11:17:50Z</time>
      </trkpt>
      <trkpt lat="59.9809276" lon="17.7386983">
        <ele>53.4905</ele>
        <time>2013-05-09T11:17:51Z</time>
      </trkpt>
      <trkpt lat="59.9809713" lon="17.7386867">
        <ele>53.9712</ele>
        <time>2013-05-09T11:17:52Z</time>
      </trkpt>
      <trkpt lat="59.9810164" lon="17.7386735">
        <ele>54.4518</ele>
        <time>2013-05-09T11:17:53Z</time>
      </trkpt>
      <trkpt lat="59.981062" lon="17.7386585">
        <ele>54.4518</ele>
        <time>2013-05-09T11:17:54Z</time>
      </trkpt>
      <trkpt lat="59.9811066" lon="17.7386444">
        <ele>54.4518</ele>
        <time>2013-05-09T11:17:55Z</time>
      </trkpt>
      <trkpt lat="59.9811457" lon="17.7386378">
        <ele>54.9324</ele>
        <time>2013-05-09T11:17:56Z</time>
      </trkpt>
      <trkpt lat="59.9811918" lon="17.738625">
        <ele>55.4131</ele>
        <time>2013-05-09T11:17:57Z</time>
      </trkpt>
      <trkpt lat="59.9812363" lon="17.7386131">
        <ele>55.8938</ele>
        <time>2013-05-09T11:17:58Z</time>
      </trkpt>
      <trkpt lat="59.9812816" lon="17.7385976">
        <ele>56.3745</ele>
        <time>2013-05-09T11:17:59Z</time>
      </trkpt>
      <trkpt lat="59.9813425" lon="17.7385725">
        <ele>55.8938</ele>
        <time>2013-05-09T11:18:00Z</time>
      </trkpt>
      <trkpt lat="59.981399" lon="17.7385456">
        <ele>55.8938</ele>
        <time>2013-05-09T11:18:01Z</time>
      </trkpt>
      <trkpt lat="59.9814509" lon="17.738526">
        <ele>55.8938</ele>
        <time>2013-05-09T11:18:02Z</time>
      </trkpt>
      <trkpt lat="59.9814946" lon="17.7385084">
        <ele>56.3745</ele>
        <time>2013-05-09T11:18:03Z</time>
      </trkpt>
      <trkpt lat="59.9815321" lon="17.738497">
        <ele>56.3745</ele>
        <time>2013-05-09T11:18:04Z</time>
      </trkpt>
      <trkpt lat="59.981563" lon="17.738496">
        <ele>56.8551</ele>
        <time>2013-05-09T11:18:05Z</time>
      </trkpt>
      <trkpt lat="59.9815944" lon="17.7384985">
        <ele>57.3358</ele>
        <time>2013-05-09T11:18:06Z</time>
      </trkpt>
      <trkpt lat="59.9816265" lon="17.7384929">
        <ele>57.8165</ele>
        <time>2013-05-09T11:18:07Z</time>
      </trkpt>
      <trkpt lat="59.981656" lon="17.738485">
        <ele>58.2971</ele>
        <time>2013-05-09T11:18:08Z</time>
      </trkpt>
      <trkpt lat="59.9816839" lon="17.738473">
        <ele>58.2971</ele>
        <time>2013-05-09T11:18:09Z</time>
      </trkpt>
      <trkpt lat="59.9817162" lon="17.7384566">
        <ele>59.2584</ele>
        <time>2013-05-09T11:18:10Z</time>
      </trkpt>
      <trkpt lat="59.9817426" lon="17.7384375">
        <ele>59.7391</ele>
        <time>2013-05-09T11:18:11Z</time>
      </trkpt>
      <trkpt lat="59.9817617" lon="17.7384276">
        <ele>59.7391</ele>
        <time>2013-05-09T11:18:12Z</time>
      </trkpt>
      <trkpt lat="59.9817834" lon="17.738422">
        <ele>59.7391</ele>
        <time>2013-05-09T11:18:13Z</time>
      </trkpt>
      <trkpt lat="59.9818069" lon="17.7384178">
        <ele>59.7391</ele>
        <time>2013-05-09T11:18:14Z</time>
      </trkpt>
      <trkpt lat="59.9818447" lon="17.7384058">
        <ele>59.7391</ele>
        <time>2013-05-09T11:18:15Z</time>
      </trkpt>
      <trkpt lat="59.9818833" lon="17.7383913">
        <ele>59.2584</ele>
        <time>2013-05-09T11:18:16Z</time>
      </trkpt>
      <trkpt lat="59.9819271" lon="17.7383769">
        <ele>58.2971</ele>
        <time>2013-05-09T11:18:17Z</time>
      </trkpt>
      <trkpt lat="59.981979" lon="17.7383562">
        <ele>57.3358</ele>
        <time>2013-05-09T11:18:18Z</time>
      </trkpt>
      <trkpt lat="59.9820318" lon="17.7383321">
        <ele>56.8551</ele>
        <time>2013-05-09T11:18:19Z</time>
      </trkpt>
      <trkpt lat="59.9820772" lon="17.7383126">
        <ele>56.3745</ele>
        <time>2013-05-09T11:18:20Z</time>
      </trkpt>
      <trkpt lat="59.982133" lon="17.7382884">
        <ele>56.3745</ele>
        <time>2013-05-09T11:18:21Z</time>
      </trkpt>
      <trkpt lat="59.9821893" lon="17.7382647">
        <ele>56.3745</ele>
        <time>2013-05-09T11:18:22Z</time>
      </trkpt>
      <trkpt lat="59.9822388" lon="17.7382483">
        <ele>55.8938</ele>
        <time>2013-05-09T11:18:23Z</time>
      </trkpt>
      <trkpt lat="59.9822846" lon="17.7382363">
        <ele>55.8938</ele>
        <time>2013-05-09T11:18:24Z</time>
      </trkpt>
      <trkpt lat="59.9823347" lon="17.7382244">
        <ele>54.9324</ele>
        <time>2013-05-09T11:18:25Z</time>
      </trkpt>
      <trkpt lat="59.9823877" lon="17.7382131">
        <ele>54.4518</ele>
        <time>2013-05-09T11:18:26Z</time>
      </trkpt>
      <trkpt lat="59.9824438" lon="17.7382002">
        <ele>54.4518</ele>
        <time>2013-05-09T11:18:27Z</time>
      </trkpt>
      <trkpt lat="59.9824993" lon="17.738187">
        <ele>53.9712</ele>
        <time>2013-05-09T11:18:28Z</time>
      </trkpt>
      <trkpt lat="59.9825558" lon="17.7381884">
        <ele>53.9712</ele>
        <time>2013-05-09T11:18:29Z</time>
      </trkpt>
      <trkpt lat="59.9826124" lon="17.7381914">
        <ele>53.4905</ele>
        <time>2013-05-09T11:18:30Z</time>
      </trkpt>
      <trkpt lat="59.9826792" lon="17.7381866">
        <ele>53.4905</ele>
        <time>2013-05-09T11:18:31Z</time>
      </trkpt>
      <trkpt lat="59.9827446" lon="17.7381839">
        <ele>53.9712</ele>
        <time>2013-05-09T11:18:32Z</time>
      </trkpt>
      <trkpt lat="59.9828064" lon="17.7381806">
        <ele>53.9712</ele>
        <time>2013-05-09T11:18:33Z</time>
      </trkpt>
      <trkpt lat="59.9828665" lon="17.738179">
        <ele>53.9712</ele>
        <time>2013-05-09T11:18:34Z</time>
      </trkpt>
      <trkpt lat="59.9829216" lon="17.7381789">
        <ele>53.0098</ele>
        <time>2013-05-09T11:18:35Z</time>
      </trkpt>
      <trkpt lat="59.982975" lon="17.7381848">
        <ele>53.0098</ele>
        <time>2013-05-09T11:18:36Z</time>
      </trkpt>
      <trkpt lat="59.9830225" lon="17.738197">
        <ele>52.5292</ele>
        <time>2013-05-09T11:18:37Z</time>
      </trkpt>
      <trkpt lat="59.9830864" lon="17.7381718">
        <ele>53.0098</ele>
        <time>2013-05-09T11:18:38Z</time>
      </trkpt>
      <trkpt lat="59.9831517" lon="17.7381489">
        <ele>53.0098</ele>
        <time>2013-05-09T11:18:39Z</time>
      </trkpt>
      <trkpt lat="59.9832158" lon="17.7381254">
        <ele>53.4905</ele>
        <time>2013-05-09T11:18:40Z</time>
      </trkpt>
      <trkpt lat="59.9832778" lon="17.7381132">
        <ele>53.9712</ele>
        <time>2013-05-09T11:18:41Z</time>
      </trkpt>
      <trkpt lat="59.9833257" lon="17.7381188">
        <ele>54.4518</ele>
        <time>2013-05-09T11:18:42Z</time>
      </trkpt>
      <trkpt lat="59.9833796" lon="17.7381208">
        <ele>54.4518</ele>
        <time>2013-05-09T11:18:43Z</time>
      </trkpt>
      <trkpt lat="59.9834277" lon="17.7381204">
        <ele>54.4518</ele>
        <time>2013-05-09T11:18:44Z</time>
      </trkpt>
      <trkpt lat="59.9834914" lon="17.7381452">
        <ele>54.4518</ele>
        <time>2013-05-09T11:18:45Z</time>
      </trkpt>
      <trkpt lat="59.9835588" lon="17.7381451">
        <ele>54.4518</ele>
        <time>2013-05-09T11:18:46Z</time>
      </trkpt>
      <trkpt lat="59.9836298" lon="17.7381151">
        <ele>54.4518</ele>
        <time>2013-05-09T11:18:47Z</time>
      </trkpt>
      <trkpt lat="59.983699" lon="17.7381023">
        <ele>54.4518</ele>
        <time>2013-05-09T11:18:48Z</time>
      </trkpt>
      <trkpt lat="59.9837708" lon="17.7380822">
        <ele>54.9324</ele>
        <time>2013-05-09T11:18:49Z</time>
      </trkpt>
      <trkpt lat="59.9838564" lon="17.7380494">
        <ele>54.4518</ele>
        <time>2013-05-09T11:18:50Z</time>
      </trkpt>
      <trkpt lat="59.9839259" lon="17.7380282">
        <ele>53.9712</ele>
        <time>2013-05-09T11:18:51Z</time>
      </trkpt>
      <trkpt lat="59.9839856" lon="17.7380246">
        <ele>53.4905</ele>
        <time>2013-05-09T11:18:52Z</time>
      </trkpt>
      <trkpt lat="59.98405" lon="17.7380053">
        <ele>53.4905</ele>
        <time>2013-05-09T11:18:53Z</time>
      </trkpt>
      <trkpt lat="59.984113" lon="17.7379893">
        <ele>53.0098</ele>
        <time>2013-05-09T11:18:54Z</time>
      </trkpt>
      <trkpt lat="59.9841652" lon="17.7379741">
        <ele>53.9712</ele>
        <time>2013-05-09T11:18:55Z</time>
      </trkpt>
      <trkpt lat="59.9842082" lon="17.7379768">
        <ele>54.4518</ele>
        <time>2013-05-09T11:18:56Z</time>
      </trkpt>
      <trkpt lat="59.9842513" lon="17.7379883">
        <ele>54.9324</ele>
        <time>2013-05-09T11:18:57Z</time>
      </trkpt>
      <trkpt lat="59.9843019" lon="17.7380008">
        <ele>55.4131</ele>
        <time>2013-05-09T11:18:58Z</time>
      </trkpt>
      <trkpt lat="59.9843513" lon="17.7380233">
        <ele>55.8938</ele>
        <time>2013-05-09T11:18:59Z</time>
      </trkpt>
      <trkpt lat="59.9844017" lon="17.7380375">
        <ele>56.3745</ele>
        <time>2013-05-09T11:19:00Z</time>
      </trkpt>
      <trkpt lat="59.9844596" lon="17.7380435">
        <ele>56.8551</ele>
        <time>2013-05-09T11:19:01Z</time>
      </trkpt>
      <trkpt lat="59.9845186" lon="17.7380458">
        <ele>57.3358</ele>
        <time>2013-05-09T11:19:02Z</time>
      </trkpt>
      <trkpt lat="59.9845848" lon="17.7380582">
        <ele>57.3358</ele>
        <time>2013-05-09T11:19:03Z</time>
      </trkpt>
      <trkpt lat="59.9846471" lon="17.7380612">
        <ele>57.8165</ele>
        <time>2013-05-09T11:19:04Z</time>
      </trkpt>
      <trkpt lat="59.9847072" lon="17.7380603">
        <ele>58.2971</ele>
        <time>2013-05-09T11:19:05Z</time>
      </trkpt>
      <trkpt lat="59.9847683" lon="17.7380592">
        <ele>58.7777</ele>
        <time>2013-05-09T11:19:06Z</time>
      </trkpt>
      <trkpt lat="59.9848301" lon="17.7380551">
        <ele>59.7391</ele>
        <time>2013-05-09T11:19:07Z</time>
      </trkpt>
      <trkpt lat="59.9848987" lon="17.7380379">
        <ele>61.181</ele>
        <time>2013-05-09T11:19:08Z</time>
      </trkpt>
      <trkpt lat="59.9849568" lon="17.7380287">
        <ele>62.6229</ele>
        <time>2013-05-09T11:19:09Z</time>
      </trkpt>
      <trkpt lat="59.9850092" lon="17.7380242">
        <ele>63.1036</ele>
        <time>2013-05-09T11:19:10Z</time>
      </trkpt>
      <trkpt lat="59.9850557" lon="17.7380355">
        <ele>63.1036</ele>
        <time>2013-05-09T11:19:11Z</time>
      </trkpt>
      <trkpt lat="59.9851129" lon="17.7380298">
        <ele>63.5844</ele>
        <time>2013-05-09T11:19:12Z</time>
      </trkpt>
      <trkpt lat="59.9851636" lon="17.7380322">
        <ele>63.5844</ele>
        <time>2013-05-09T11:19:13Z</time>
      </trkpt>
      <trkpt lat="59.9852067" lon="17.7380438">
        <ele>64.0651</ele>
        <time>2013-05-09T11:19:14Z</time>
      </trkpt>
      <trkpt lat="59.9852527" lon="17.7380441">
        <ele>65.0264</ele>
        <time>2013-05-09T11:19:15Z</time>
      </trkpt>
      <trkpt lat="59.9852953" lon="17.7380701">
        <ele>65.0264</ele>
        <time>2013-05-09T11:19:16Z</time>
      </trkpt>
      <trkpt lat="59.9853432" lon="17.7380896">
        <ele>64.5457</ele>
        <time>2013-05-09T11:19:17Z</time>
      </trkpt>
      <trkpt lat="59.985395" lon="17.7381064">
        <ele>64.0651</ele>
        <time>2013-05-09T11:19:18Z</time>
      </trkpt>
      <trkpt lat="59.9854526" lon="17.7381311">
        <ele>64.0651</ele>
        <time>2013-05-09T11:19:19Z</time>
      </trkpt>
      <trkpt lat="59.9855084" lon="17.7381585">
        <ele>63.1036</ele>
        <time>2013-05-09T11:19:20Z</time>
      </trkpt>
      <trkpt lat="59.9855625" lon="17.7381857">
        <ele>63.1036</ele>
        <time>2013-05-09T11:19:21Z</time>
      </trkpt>
      <trkpt lat="59.9856152" lon="17.7382177">
        <ele>61.6617</ele>
        <time>2013-05-09T11:19:22Z</time>
      </trkpt>
      <trkpt lat="59.9856888" lon="17.7382287">
        <ele>61.6617</ele>
        <time>2013-05-09T11:19:23Z</time>
      </trkpt>
      <trkpt lat="59.9857562" lon="17.7382485">
        <ele>61.181</ele>
        <time>2013-05-09T11:19:24Z</time>
      </trkpt>
      <trkpt lat="59.9858168" lon="17.7382722">
        <ele>61.181</ele>
        <time>2013-05-09T11:19:25Z</time>
      </trkpt>
      <trkpt lat="59.9858791" lon="17.738293">
        <ele>61.181</ele>
        <time>2013-05-09T11:19:26Z</time>
      </trkpt>
      <trkpt lat="59.985953" lon="17.7382986">
        <ele>62.1423</ele>
        <time>2013-05-09T11:19:27Z</time>
      </trkpt>
      <trkpt lat="59.9860058" lon="17.7383582">
        <ele>60.2197</ele>
        <time>2013-05-09T11:19:28Z</time>
      </trkpt>
      <trkpt lat="59.9860566" lon="17.7384098">
        <ele>58.7777</ele>
        <time>2013-05-09T11:19:29Z</time>
      </trkpt>
      <trkpt lat="59.9861015" lon="17.7384592">
        <ele>57.3358</ele>
        <time>2013-05-09T11:19:30Z</time>
      </trkpt>
      <trkpt lat="59.9861633" lon="17.7384809">
        <ele>57.8165</ele>
        <time>2013-05-09T11:19:31Z</time>
      </trkpt>
      <trkpt lat="59.986211" lon="17.7385312">
        <ele>56.8551</ele>
        <time>2013-05-09T11:19:32Z</time>
      </trkpt>
      <trkpt lat="59.9862591" lon="17.738585">
        <ele>55.8938</ele>
        <time>2013-05-09T11:19:33Z</time>
      </trkpt>
      <trkpt lat="59.9863032" lon="17.7386447">
        <ele>54.9324</ele>
        <time>2013-05-09T11:19:34Z</time>
      </trkpt>
      <trkpt lat="59.9863615" lon="17.7386717">
        <ele>56.3745</ele>
        <time>2013-05-09T11:19:35Z</time>
      </trkpt>
      <trkpt lat="59.9864249" lon="17.7386921">
        <ele>57.8165</ele>
        <time>2013-05-09T11:19:36Z</time>
      </trkpt>
      <trkpt lat="59.9864736" lon="17.7387266">
        <ele>57.8165</ele>
        <time>2013-05-09T11:19:37Z</time>
      </trkpt>
      <trkpt lat="59.9865187" lon="17.7387602">
        <ele>57.8165</ele>
        <time>2013-05-09T11:19:38Z</time>
      </trkpt>
      <trkpt lat="59.9865626" lon="17.7388046">
        <ele>57.8165</ele>
        <time>2013-05-09T11:19:39Z</time>
      </trkpt>
      <trkpt lat="59.9866063" lon="17.7388447">
        <ele>57.8165</ele>
        <time>2013-05-09T11:19:40Z</time>
      </trkpt>
      <trkpt lat="59.9866502" lon="17.7388771">
        <ele>57.8165</ele>
        <time>2013-05-09T11:19:41Z</time>
      </trkpt>
      <trkpt lat="59.9866995" lon="17.7389005">
        <ele>58.7777</ele>
        <time>2013-05-09T11:19:42Z</time>
      </trkpt>
      <trkpt lat="59.9867435" lon="17.7389394">
        <ele>59.2584</ele>
        <time>2013-05-09T11:19:43Z</time>
      </trkpt>
      <trkpt lat="59.986786" lon="17.7389906">
        <ele>58.7777</ele>
        <time>2013-05-09T11:19:44Z</time>
      </trkpt>
      <trkpt lat="59.98683" lon="17.7390267">
        <ele>59.2584</ele>
        <time>2013-05-09T11:19:45Z</time>
      </trkpt>
      <trkpt lat="59.9868676" lon="17.7390702">
        <ele>58.7777</ele>
        <time>2013-05-09T11:19:46Z</time>
      </trkpt>
      <trkpt lat="59.9868964" lon="17.7391165">
        <ele>57.3358</ele>
        <time>2013-05-09T11:19:47Z</time>
      </trkpt>
      <trkpt lat="59.9869252" lon="17.7391575">
        <ele>57.3358</ele>
        <time>2013-05-09T11:19:48Z</time>
      </trkpt>
      <trkpt lat="59.9869534" lon="17.7392031">
        <ele>56.8551</ele>
        <time>2013-05-09T11:19:49Z</time>
      </trkpt>
      <trkpt lat="59.986986" lon="17.739243">
        <ele>56.8551</ele>
        <time>2013-05-09T11:19:50Z</time>
      </trkpt>
      <trkpt lat="59.9870238" lon="17.7392681">
        <ele>56.3745</ele>
        <time>2013-05-09T11:19:51Z</time>
      </trkpt>
      <trkpt lat="59.9870588" lon="17.7392922">
        <ele>55.4131</ele>
        <time>2013-05-09T11:19:52Z</time>
      </trkpt>
      <trkpt lat="59.9871016" lon="17.7393057">
        <ele>54.4518</ele>
        <time>2013-05-09T11:19:53Z</time>
      </trkpt>
      <trkpt lat="59.9871491" lon="17.7393171">
        <ele>53.9712</ele>
        <time>2013-05-09T11:19:54Z</time>
      </trkpt>
      <trkpt lat="59.9871999" lon="17.7393341">
        <ele>53.4905</ele>
        <time>2013-05-09T11:19:55Z</time>
      </trkpt>
      <trkpt lat="59.9872494" lon="17.7393449">
        <ele>53.0098</ele>
        <time>2013-05-09T11:19:56Z</time>
      </trkpt>
      <trkpt lat="59.9872991" lon="17.7393497">
        <ele>52.5292</ele>
        <time>2013-05-09T11:19:57Z</time>
      </trkpt>
      <trkpt lat="59.9873506" lon="17.7393476">
        <ele>53.0098</ele>
        <time>2013-05-09T11:19:58Z</time>
      </trkpt>
      <trkpt lat="59.9874029" lon="17.7393477">
        <ele>52.0486</ele>
        <time>2013-05-09T11:19:59Z</time>
      </trkpt>
      <trkpt lat="59.987458" lon="17.739336">
        <ele>52.0486</ele>
        <time>2013-05-09T11:20:00Z</time>
      </trkpt>
      <trkpt lat="59.9875122" lon="17.7393254">
        <ele>52.5292</ele>
        <time>2013-05-09T11:20:01Z</time>
      </trkpt>
      <trkpt lat="59.9875578" lon="17.7393204">
        <ele>52.5292</ele>
        <time>2013-05-09T11:20:02Z</time>
      </trkpt>
      <trkpt lat="59.9876013" lon="17.7393197">
        <ele>52.5292</ele>
        <time>2013-05-09T11:20:03Z</time>
      </trkpt>
      <trkpt lat="59.9876437" lon="17.7393233">
        <ele>53.0098</ele>
        <time>2013-05-09T11:20:04Z</time>
      </trkpt>
      <trkpt lat="59.9876873" lon="17.7393342">
        <ele>52.5292</ele>
        <time>2013-05-09T11:20:05Z</time>
      </trkpt>
      <trkpt lat="59.9877334" lon="17.7393368">
        <ele>52.5292</ele>
        <time>2013-05-09T11:20:06Z</time>
      </trkpt>
      <trkpt lat="59.987783" lon="17.7393294">
        <ele>52.5292</ele>
        <time>2013-05-09T11:20:07Z</time>
      </trkpt>
      <trkpt lat="59.9878353" lon="17.7393237">
        <ele>53.0098</ele>
        <time>2013-05-09T11:20:08Z</time>
      </trkpt>
      <trkpt lat="59.9878888" lon="17.7393125">
        <ele>53.0098</ele>
        <time>2013-05-09T11:20:09Z</time>
      </trkpt>
      <trkpt lat="59.987942" lon="17.7393023">
        <ele>52.5292</ele>
        <time>2013-05-09T11:20:10Z</time>
      </trkpt>
      <trkpt lat="59.9880002" lon="17.7392928">
        <ele>53.4905</ele>
        <time>2013-05-09T11:20:11Z</time>
      </trkpt>
      <trkpt lat="59.9880581" lon="17.7392678">
        <ele>54.4518</ele>
        <time>2013-05-09T11:20:12Z</time>
      </trkpt>
      <trkpt lat="59.9881015" lon="17.7392581">
        <ele>55.4131</ele>
        <time>2013-05-09T11:20:13Z</time>
      </trkpt>
      <trkpt lat="59.9881419" lon="17.7392505">
        <ele>54.9324</ele>
        <time>2013-05-09T11:20:14Z</time>
      </trkpt>
      <trkpt lat="59.9881743" lon="17.7392445">
        <ele>55.4131</ele>
        <time>2013-05-09T11:20:15Z</time>
      </trkpt>
      <trkpt lat="59.9882157" lon="17.7392308">
        <ele>54.9324</ele>
        <time>2013-05-09T11:20:16Z</time>
      </trkpt>
      <trkpt lat="59.9882601" lon="17.7392138">
        <ele>55.4131</ele>
        <time>2013-05-09T11:20:17Z</time>
      </trkpt>
      <trkpt lat="59.9883063" lon="17.7391958">
        <ele>56.3745</ele>
        <time>2013-05-09T11:20:18Z</time>
      </trkpt>
      <trkpt lat="59.9883528" lon="17.7391781">
        <ele>56.8551</ele>
        <time>2013-05-09T11:20:19Z</time>
      </trkpt>
      <trkpt lat="59.9884005" lon="17.7391599">
        <ele>57.8165</ele>
        <time>2013-05-09T11:20:20Z</time>
      </trkpt>
      <trkpt lat="59.9884461" lon="17.7391491">
        <ele>57.8165</ele>
        <time>2013-05-09T11:20:21Z</time>
      </trkpt>
      <trkpt lat="59.9884872" lon="17.7391362">
        <ele>58.2971</ele>
        <time>2013-05-09T11:20:22Z</time>
      </trkpt>
      <trkpt lat="59.9885317" lon="17.7391161">
        <ele>59.2584</ele>
        <time>2013-05-09T11:20:23Z</time>
      </trkpt>
      <trkpt lat="59.9885773" lon="17.739089">
        <ele>60.2197</ele>
        <time>2013-05-09T11:20:24Z</time>
      </trkpt>
      <trkpt lat="59.9886249" lon="17.7390564">
        <ele>61.6617</ele>
        <time>2013-05-09T11:20:25Z</time>
      </trkpt>
      <trkpt lat="59.9886662" lon="17.7390242">
        <ele>61.6617</ele>
        <time>2013-05-09T11:20:26Z</time>
      </trkpt>
      <trkpt lat="59.9887114" lon="17.7389868">
        <ele>61.6617</ele>
        <time>2013-05-09T11:20:27Z</time>
      </trkpt>
      <trkpt lat="59.9887582" lon="17.7389637">
        <ele>63.1036</ele>
        <time>2013-05-09T11:20:28Z</time>
      </trkpt>
      <trkpt lat="59.9888149" lon="17.738927">
        <ele>64.0651</ele>
        <time>2013-05-09T11:20:29Z</time>
      </trkpt>
      <trkpt lat="59.9888669" lon="17.7388959">
        <ele>65.5071</ele>
        <time>2013-05-09T11:20:30Z</time>
      </trkpt>
      <trkpt lat="59.9889145" lon="17.7388625">
        <ele>65.9877</ele>
        <time>2013-05-09T11:20:31Z</time>
      </trkpt>
      <trkpt lat="59.9889588" lon="17.7388363">
        <ele>66.4683</ele>
        <time>2013-05-09T11:20:32Z</time>
      </trkpt>
      <trkpt lat="59.9890034" lon="17.738812">
        <ele>67.9103</ele>
        <time>2013-05-09T11:20:33Z</time>
      </trkpt>
      <trkpt lat="59.9890443" lon="17.7387778">
        <ele>68.8716</ele>
        <time>2013-05-09T11:20:34Z</time>
      </trkpt>
      <trkpt lat="59.9890938" lon="17.738745">
        <ele>69.8329</ele>
        <time>2013-05-09T11:20:35Z</time>
      </trkpt>
      <trkpt lat="59.9891435" lon="17.7387157">
        <ele>70.3135</ele>
        <time>2013-05-09T11:20:36Z</time>
      </trkpt>
      <trkpt lat="59.989192" lon="17.7386895">
        <ele>70.3135</ele>
        <time>2013-05-09T11:20:37Z</time>
      </trkpt>
      <trkpt lat="59.9892398" lon="17.7386643">
        <ele>70.7942</ele>
        <time>2013-05-09T11:20:38Z</time>
      </trkpt>
      <trkpt lat="59.9892879" lon="17.738638">
        <ele>70.7942</ele>
        <time>2013-05-09T11:20:39Z</time>
      </trkpt>
      <trkpt lat="59.9893408" lon="17.7386089">
        <ele>70.3135</ele>
        <time>2013-05-09T11:20:40Z</time>
      </trkpt>
      <trkpt lat="59.989392" lon="17.7385874">
        <ele>69.8329</ele>
        <time>2013-05-09T11:20:41Z</time>
      </trkpt>
      <trkpt lat="59.9894496" lon="17.7385653">
        <ele>69.3523</ele>
        <time>2013-05-09T11:20:42Z</time>
      </trkpt>
      <trkpt lat="59.989507" lon="17.73855">
        <ele>68.8716</ele>
        <time>2013-05-09T11:20:43Z</time>
      </trkpt>
      <trkpt lat="59.9895682" lon="17.7385333">
        <ele>67.9103</ele>
        <time>2013-05-09T11:20:44Z</time>
      </trkpt>
      <trkpt lat="59.9896304" lon="17.738513">
        <ele>67.4297</ele>
        <time>2013-05-09T11:20:45Z</time>
      </trkpt>
      <trkpt lat="59.9896942" lon="17.738494">
        <ele>66.949</ele>
        <time>2013-05-09T11:20:46Z</time>
      </trkpt>
      <trkpt lat="59.9897603" lon="17.7384736">
        <ele>65.9877</ele>
        <time>2013-05-09T11:20:47Z</time>
      </trkpt>
      <trkpt lat="59.9898278" lon="17.7384484">
        <ele>65.5071</ele>
        <time>2013-05-09T11:20:48Z</time>
      </trkpt>
      <trkpt lat="59.9898935" lon="17.7384259">
        <ele>65.0264</ele>
        <time>2013-05-09T11:20:49Z</time>
      </trkpt>
      <trkpt lat="59.9899618" lon="17.7384001">
        <ele>64.5457</ele>
        <time>2013-05-09T11:20:50Z</time>
      </trkpt>
      <trkpt lat="59.9900314" lon="17.7383692">
        <ele>63.5844</ele>
        <time>2013-05-09T11:20:51Z</time>
      </trkpt>
      <trkpt lat="59.9900997" lon="17.7383447">
        <ele>63.5844</ele>
        <time>2013-05-09T11:20:52Z</time>
      </trkpt>
      <trkpt lat="59.9901697" lon="17.7383241">
        <ele>63.1036</ele>
        <time>2013-05-09T11:20:53Z</time>
      </trkpt>
      <trkpt lat="59.9902324" lon="17.7382976">
        <ele>63.1036</ele>
        <time>2013-05-09T11:20:54Z</time>
      </trkpt>
      <trkpt lat="59.9902945" lon="17.7382618">
        <ele>63.5844</ele>
        <time>2013-05-09T11:20:55Z</time>
      </trkpt>
      <trkpt lat="59.990354" lon="17.7382292">
        <ele>63.1036</ele>
        <time>2013-05-09T11:20:56Z</time>
      </trkpt>
      <trkpt lat="59.9904219" lon="17.7382002">
        <ele>62.6229</ele>
        <time>2013-05-09T11:20:57Z</time>
      </trkpt>
      <trkpt lat="59.9904804" lon="17.7381748">
        <ele>61.6617</ele>
        <time>2013-05-09T11:20:58Z</time>
      </trkpt>
      <trkpt lat="59.9905391" lon="17.7381484">
        <ele>61.181</ele>
        <time>2013-05-09T11:20:59Z</time>
      </trkpt>
      <trkpt lat="59.9906014" lon="17.7381204">
        <ele>60.7003</ele>
        <time>2013-05-09T11:21:00Z</time>
      </trkpt>
      <trkpt lat="59.9906673" lon="17.7380871">
        <ele>60.2197</ele>
        <time>2013-05-09T11:21:01Z</time>
      </trkpt>
      <trkpt lat="59.9907387" lon="17.7380485">
        <ele>60.2197</ele>
        <time>2013-05-09T11:21:02Z</time>
      </trkpt>
      <trkpt lat="59.9908082" lon="17.7380122">
        <ele>59.7391</ele>
        <time>2013-05-09T11:21:03Z</time>
      </trkpt>
      <trkpt lat="59.9908684" lon="17.73798">
        <ele>59.7391</ele>
        <time>2013-05-09T11:21:04Z</time>
      </trkpt>
      <trkpt lat="59.9909259" lon="17.7379465">
        <ele>59.7391</ele>
        <time>2013-05-09T11:21:05Z</time>
      </trkpt>
      <trkpt lat="59.9909881" lon="17.7379014">
        <ele>59.7391</ele>
        <time>2013-05-09T11:21:06Z</time>
      </trkpt>
      <trkpt lat="59.9910507" lon="17.7378603">
        <ele>60.2197</ele>
        <time>2013-05-09T11:21:07Z</time>
      </trkpt>
      <trkpt lat="59.9911233" lon="17.7378179">
        <ele>60.2197</ele>
        <time>2013-05-09T11:21:08Z</time>
      </trkpt>
      <trkpt lat="59.9911902" lon="17.7377868">
        <ele>60.2197</ele>
        <time>2013-05-09T11:21:09Z</time>
      </trkpt>
      <trkpt lat="59.9912657" lon="17.7377604">
        <ele>60.2197</ele>
        <time>2013-05-09T11:21:10Z</time>
      </trkpt>
      <trkpt lat="59.9913388" lon="17.7377361">
        <ele>60.2197</ele>
        <time>2013-05-09T11:21:11Z</time>
      </trkpt>
      <trkpt lat="59.991403" lon="17.7377252">
        <ele>60.2197</ele>
        <time>2013-05-09T11:21:12Z</time>
      </trkpt>
      <trkpt lat="59.9914651" lon="17.7377169">
        <ele>61.181</ele>
        <time>2013-05-09T11:21:13Z</time>
      </trkpt>
      <trkpt lat="59.9915346" lon="17.7377046">
        <ele>61.181</ele>
        <time>2013-05-09T11:21:14Z</time>
      </trkpt>
      <trkpt lat="59.9915916" lon="17.7377013">
        <ele>61.181</ele>
        <time>2013-05-09T11:21:15Z</time>
      </trkpt>
      <trkpt lat="59.9916522" lon="17.7376942">
        <ele>60.7003</ele>
        <time>2013-05-09T11:21:16Z</time>
      </trkpt>
      <trkpt lat="59.9917137" lon="17.7376935">
        <ele>59.7391</ele>
        <time>2013-05-09T11:21:17Z</time>
      </trkpt>
      <trkpt lat="59.9917754" lon="17.7376889">
        <ele>59.7391</ele>
        <time>2013-05-09T11:21:18Z</time>
      </trkpt>
      <trkpt lat="59.9918418" lon="17.7376682">
        <ele>60.2197</ele>
        <time>2013-05-09T11:21:19Z</time>
      </trkpt>
      <trkpt lat="59.9919055" lon="17.7376542">
        <ele>59.7391</ele>
        <time>2013-05-09T11:21:20Z</time>
      </trkpt>
      <trkpt lat="59.991969" lon="17.7376392">
        <ele>59.2584</ele>
        <time>2013-05-09T11:21:21Z</time>
      </trkpt>
      <trkpt lat="59.9920334" lon="17.7376226">
        <ele>59.2584</ele>
        <time>2013-05-09T11:21:22Z</time>
      </trkpt>
      <trkpt lat="59.9920928" lon="17.7375981">
        <ele>59.2584</ele>
        <time>2013-05-09T11:21:23Z</time>
      </trkpt>
      <trkpt lat="59.9921508" lon="17.7375696">
        <ele>59.2584</ele>
        <time>2013-05-09T11:21:24Z</time>
      </trkpt>
      <trkpt lat="59.9922109" lon="17.7375284">
        <ele>57.8165</ele>
        <time>2013-05-09T11:21:25Z</time>
      </trkpt>
      <trkpt lat="59.9922779" lon="17.7374812">
        <ele>58.2971</ele>
        <time>2013-05-09T11:21:26Z</time>
      </trkpt>
      <trkpt lat="59.9923411" lon="17.7374328">
        <ele>58.2971</ele>
        <time>2013-05-09T11:21:27Z</time>
      </trkpt>
      <trkpt lat="59.9924062" lon="17.7373753">
        <ele>58.2971</ele>
        <time>2013-05-09T11:21:28Z</time>
      </trkpt>
      <trkpt lat="59.9924697" lon="17.7373123">
        <ele>57.8165</ele>
        <time>2013-05-09T11:21:29Z</time>
      </trkpt>
      <trkpt lat="59.9925302" lon="17.7372497">
        <ele>57.8165</ele>
        <time>2013-05-09T11:21:30Z</time>
      </trkpt>
      <trkpt lat="59.9925836" lon="17.7371909">
        <ele>58.2971</ele>
        <time>2013-05-09T11:21:31Z</time>
      </trkpt>
      <trkpt lat="59.9926442" lon="17.7371306">
        <ele>57.8165</ele>
        <time>2013-05-09T11:21:32Z</time>
      </trkpt>
      <trkpt lat="59.9927" lon="17.7370585">
        <ele>58.2971</ele>
        <time>2013-05-09T11:21:33Z</time>
      </trkpt>
      <trkpt lat="59.9927473" lon="17.7369865">
        <ele>58.2971</ele>
        <time>2013-05-09T11:21:34Z</time>
      </trkpt>
      <trkpt lat="59.9927938" lon="17.7369045">
        <ele>59.2584</ele>
        <time>2013-05-09T11:21:35Z</time>
      </trkpt>
      <trkpt lat="59.9928447" lon="17.7368067">
        <ele>60.2197</ele>
        <time>2013-05-09T11:21:36Z</time>
      </trkpt>
      <trkpt lat="59.9928964" lon="17.7367035">
        <ele>60.2197</ele>
        <time>2013-05-09T11:21:37Z</time>
      </trkpt>
      <trkpt lat="59.992946" lon="17.736585">
        <ele>61.181</ele>
        <time>2013-05-09T11:21:38Z</time>
      </trkpt>
      <trkpt lat="59.992998" lon="17.7364683">
        <ele>62.1423</ele>
        <time>2013-05-09T11:21:39Z</time>
      </trkpt>
      <trkpt lat="59.9930449" lon="17.7363456">
        <ele>62.6229</ele>
        <time>2013-05-09T11:21:40Z</time>
      </trkpt>
      <trkpt lat="59.9930963" lon="17.7362331">
        <ele>62.1423</ele>
        <time>2013-05-09T11:21:41Z</time>
      </trkpt>
      <trkpt lat="59.993148" lon="17.7361248">
        <ele>61.6617</ele>
        <time>2013-05-09T11:21:42Z</time>
      </trkpt>
      <trkpt lat="59.9932014" lon="17.7360166">
        <ele>61.6617</ele>
        <time>2013-05-09T11:21:43Z</time>
      </trkpt>
      <trkpt lat="59.9932554" lon="17.7359146">
        <ele>62.1423</ele>
        <time>2013-05-09T11:21:44Z</time>
      </trkpt>
      <trkpt lat="59.9933113" lon="17.7358159">
        <ele>62.1423</ele>
        <time>2013-05-09T11:21:45Z</time>
      </trkpt>
      <trkpt lat="59.9933692" lon="17.7357314">
        <ele>62.1423</ele>
        <time>2013-05-09T11:21:46Z</time>
      </trkpt>
      <trkpt lat="59.9934269" lon="17.7356692">
        <ele>62.6229</ele>
        <time>2013-05-09T11:21:47Z</time>
      </trkpt>
      <trkpt lat="59.9934919" lon="17.7356121">
        <ele>62.1423</ele>
        <time>2013-05-09T11:21:48Z</time>
      </trkpt>
      <trkpt lat="59.9935673" lon="17.7356123">
        <ele>61.6617</ele>
        <time>2013-05-09T11:21:49Z</time>
      </trkpt>
      <trkpt lat="59.9936694" lon="17.735593">
        <ele>61.181</ele>
        <time>2013-05-09T11:21:50Z</time>
      </trkpt>
      <trkpt lat="59.9937604" lon="17.735589">
        <ele>60.2197</ele>
        <time>2013-05-09T11:21:51Z</time>
      </trkpt>
      <trkpt lat="59.9938631" lon="17.7355982">
        <ele>59.7391</ele>
        <time>2013-05-09T11:21:52Z</time>
      </trkpt>
      <trkpt lat="59.9939406" lon="17.7356084">
        <ele>58.7777</ele>
        <time>2013-05-09T11:21:53Z</time>
      </trkpt>
      <trkpt lat="59.9940296" lon="17.7356283">
        <ele>57.8165</ele>
        <time>2013-05-09T11:21:54Z</time>
      </trkpt>
      <trkpt lat="59.9941111" lon="17.7356432">
        <ele>56.8551</ele>
        <time>2013-05-09T11:21:55Z</time>
      </trkpt>
      <trkpt lat="59.9941873" lon="17.7356569">
        <ele>55.8938</ele>
        <time>2013-05-09T11:21:56Z</time>
      </trkpt>
      <trkpt lat="59.9942672" lon="17.7356779">
        <ele>54.9324</ele>
        <time>2013-05-09T11:21:57Z</time>
      </trkpt>
      <trkpt lat="59.9943495" lon="17.7357063">
        <ele>53.4905</ele>
        <time>2013-05-09T11:21:58Z</time>
      </trkpt>
      <trkpt lat="59.994423" lon="17.7357365">
        <ele>52.5292</ele>
        <time>2013-05-09T11:21:59Z</time>
      </trkpt>
      <trkpt lat="59.994495" lon="17.7357781">
        <ele>52.0486</ele>
        <time>2013-05-09T11:22:00Z</time>
      </trkpt>
      <trkpt lat="59.9945647" lon="17.7358252">
        <ele>51.0872</ele>
        <time>2013-05-09T11:22:01Z</time>
      </trkpt>
      <trkpt lat="59.9946358" lon="17.7358803">
        <ele>50.126</ele>
        <time>2013-05-09T11:22:02Z</time>
      </trkpt>
      <trkpt lat="59.9947084" lon="17.7359337">
        <ele>49.6453</ele>
        <time>2013-05-09T11:22:03Z</time>
      </trkpt>
      <trkpt lat="59.994786" lon="17.7359856">
        <ele>49.1646</ele>
        <time>2013-05-09T11:22:04Z</time>
      </trkpt>
      <trkpt lat="59.994866" lon="17.7360327">
        <ele>49.1646</ele>
        <time>2013-05-09T11:22:05Z</time>
      </trkpt>
      <trkpt lat="59.9949457" lon="17.7360675">
        <ele>49.1646</ele>
        <time>2013-05-09T11:22:06Z</time>
      </trkpt>
      <trkpt lat="59.995023" lon="17.7360924">
        <ele>49.1646</ele>
        <time>2013-05-09T11:22:07Z</time>
      </trkpt>
      <trkpt lat="59.9950999" lon="17.736109">
        <ele>49.1646</ele>
        <time>2013-05-09T11:22:08Z</time>
      </trkpt>
      <trkpt lat="59.9951736" lon="17.7361152">
        <ele>48.684</ele>
        <time>2013-05-09T11:22:09Z</time>
      </trkpt>
      <trkpt lat="59.9952538" lon="17.7361296">
        <ele>48.684</ele>
        <time>2013-05-09T11:22:10Z</time>
      </trkpt>
      <trkpt lat="59.9953309" lon="17.7361404">
        <ele>48.684</ele>
        <time>2013-05-09T11:22:11Z</time>
      </trkpt>
      <trkpt lat="59.9954046" lon="17.7361479">
        <ele>48.684</ele>
        <time>2013-05-09T11:22:12Z</time>
      </trkpt>
      <trkpt lat="59.9954777" lon="17.7361508">
        <ele>49.1646</ele>
        <time>2013-05-09T11:22:13Z</time>
      </trkpt>
      <trkpt lat="59.9955537" lon="17.7361463">
        <ele>48.684</ele>
        <time>2013-05-09T11:22:14Z</time>
      </trkpt>
      <trkpt lat="59.9956216" lon="17.7361431">
        <ele>48.684</ele>
        <time>2013-05-09T11:22:15Z</time>
      </trkpt>
      <trkpt lat="59.9956862" lon="17.7361422">
        <ele>49.1646</ele>
        <time>2013-05-09T11:22:16Z</time>
      </trkpt>
      <trkpt lat="59.9957533" lon="17.7361375">
        <ele>49.1646</ele>
        <time>2013-05-09T11:22:17Z</time>
      </trkpt>
      <trkpt lat="59.9958192" lon="17.7361302">
        <ele>49.1646</ele>
        <time>2013-05-09T11:22:18Z</time>
      </trkpt>
      <trkpt lat="59.9958828" lon="17.7361253">
        <ele>49.1646</ele>
        <time>2013-05-09T11:22:19Z</time>
      </trkpt>
      <trkpt lat="59.9959423" lon="17.7361244">
        <ele>48.684</ele>
        <time>2013-05-09T11:22:20Z</time>
      </trkpt>
      <trkpt lat="59.9960048" lon="17.7361233">
        <ele>48.684</ele>
        <time>2013-05-09T11:22:21Z</time>
      </trkpt>
      <trkpt lat="59.9960703" lon="17.7361243">
        <ele>48.2034</ele>
        <time>2013-05-09T11:22:22Z</time>
      </trkpt>
      <trkpt lat="59.9961392" lon="17.7361307">
        <ele>48.684</ele>
        <time>2013-05-09T11:22:23Z</time>
      </trkpt>
      <trkpt lat="59.9961965" lon="17.7361431">
        <ele>48.684</ele>
        <time>2013-05-09T11:22:24Z</time>
      </trkpt>
      <trkpt lat="59.9962548" lon="17.7361687">
        <ele>48.684</ele>
        <time>2013-05-09T11:22:25Z</time>
      </trkpt>
      <trkpt lat="59.9963147" lon="17.7361976">
        <ele>49.1646</ele>
        <time>2013-05-09T11:22:26Z</time>
      </trkpt>
      <trkpt lat="59.9963733" lon="17.7362317">
        <ele>48.684</ele>
        <time>2013-05-09T11:22:27Z</time>
      </trkpt>
      <trkpt lat="59.9964299" lon="17.73627">
        <ele>48.684</ele>
        <time>2013-05-09T11:22:28Z</time>
      </trkpt>
      <trkpt lat="59.9964842" lon="17.7363094">
        <ele>49.1646</ele>
        <time>2013-05-09T11:22:29Z</time>
      </trkpt>
      <trkpt lat="59.9965376" lon="17.7363476">
        <ele>48.684</ele>
        <time>2013-05-09T11:22:30Z</time>
      </trkpt>
      <trkpt lat="59.996595" lon="17.7363815">
        <ele>48.684</ele>
        <time>2013-05-09T11:22:31Z</time>
      </trkpt>
      <trkpt lat="59.9966488" lon="17.7364191">
        <ele>49.6453</ele>
        <time>2013-05-09T11:22:32Z</time>
      </trkpt>
      <trkpt lat="59.9967018" lon="17.7364577">
        <ele>50.6066</ele>
        <time>2013-05-09T11:22:33Z</time>
      </trkpt>
      <trkpt lat="59.9967557" lon="17.7364947">
        <ele>51.5679</ele>
        <time>2013-05-09T11:22:34Z</time>
      </trkpt>
      <trkpt lat="59.9968116" lon="17.7365239">
        <ele>52.0486</ele>
        <time>2013-05-09T11:22:35Z</time>
      </trkpt>
      <trkpt lat="59.9968668" lon="17.7365504">
        <ele>52.0486</ele>
        <time>2013-05-09T11:22:36Z</time>
      </trkpt>
      <trkpt lat="59.9969301" lon="17.7365721">
        <ele>52.5292</ele>
        <time>2013-05-09T11:22:37Z</time>
      </trkpt>
      <trkpt lat="59.9969883" lon="17.7365895">
        <ele>53.0098</ele>
        <time>2013-05-09T11:22:38Z</time>
      </trkpt>
      <trkpt lat="59.9970452" lon="17.7366055">
        <ele>53.0098</ele>
        <time>2013-05-09T11:22:39Z</time>
      </trkpt>
      <trkpt lat="59.9971002" lon="17.7366192">
        <ele>53.9712</ele>
        <time>2013-05-09T11:22:40Z</time>
      </trkpt>
      <trkpt lat="59.9971522" lon="17.7366327">
        <ele>54.4518</ele>
        <time>2013-05-09T11:22:41Z</time>
      </trkpt>
      <trkpt lat="59.9972131" lon="17.7366374">
        <ele>54.4518</ele>
        <time>2013-05-09T11:22:42Z</time>
      </trkpt>
      <trkpt lat="59.9972674" lon="17.7366459">
        <ele>54.4518</ele>
        <time>2013-05-09T11:22:43Z</time>
      </trkpt>
      <trkpt lat="59.9973222" lon="17.7366475">
        <ele>53.9712</ele>
        <time>2013-05-09T11:22:44Z</time>
      </trkpt>
      <trkpt lat="59.9973757" lon="17.7366494">
        <ele>54.4518</ele>
        <time>2013-05-09T11:22:45Z</time>
      </trkpt>
      <trkpt lat="59.9974249" lon="17.7366558">
        <ele>54.4518</ele>
        <time>2013-05-09T11:22:46Z</time>
      </trkpt>
      <trkpt lat="59.9974703" lon="17.7366626">
        <ele>54.9324</ele>
        <time>2013-05-09T11:22:47Z</time>
      </trkpt>
      <trkpt lat="59.9975109" lon="17.7366719">
        <ele>54.9324</ele>
        <time>2013-05-09T11:22:48Z</time>
      </trkpt>
      <trkpt lat="59.9975519" lon="17.7366793">
        <ele>54.9324</ele>
        <time>2013-05-09T11:22:49Z</time>
      </trkpt>
      <trkpt lat="59.9975939" lon="17.7366855">
        <ele>55.4131</ele>
        <time>2013-05-09T11:22:50Z</time>
      </trkpt>
      <trkpt lat="59.9976356" lon="17.7366875">
        <ele>55.8938</ele>
        <time>2013-05-09T11:22:51Z</time>
      </trkpt>
      <trkpt lat="59.9976801" lon="17.7366882">
        <ele>55.8938</ele>
        <time>2013-05-09T11:22:52Z</time>
      </trkpt>
      <trkpt lat="59.9977233" lon="17.7366912">
        <ele>55.8938</ele>
        <time>2013-05-09T11:22:53Z</time>
      </trkpt>
      <trkpt lat="59.9977677" lon="17.7366957">
        <ele>55.8938</ele>
        <time>2013-05-09T11:22:54Z</time>
      </trkpt>
      <trkpt lat="59.9978155" lon="17.7366973">
        <ele>55.8938</ele>
        <time>2013-05-09T11:22:55Z</time>
      </trkpt>
      <trkpt lat="59.9978612" lon="17.7366993">
        <ele>56.3745</ele>
        <time>2013-05-09T11:22:56Z</time>
      </trkpt>
      <trkpt lat="59.9979108" lon="17.7366933">
        <ele>56.3745</ele>
        <time>2013-05-09T11:22:57Z</time>
      </trkpt>
      <trkpt lat="59.9979657" lon="17.7366921">
        <ele>56.3745</ele>
        <time>2013-05-09T11:22:58Z</time>
      </trkpt>
      <trkpt lat="59.9980173" lon="17.7366898">
        <ele>55.8938</ele>
        <time>2013-05-09T11:22:59Z</time>
      </trkpt>
      <trkpt lat="59.9980693" lon="17.7366875">
        <ele>55.4131</ele>
        <time>2013-05-09T11:23:00Z</time>
      </trkpt>
      <trkpt lat="59.998124" lon="17.7366928">
        <ele>54.9324</ele>
        <time>2013-05-09T11:23:01Z</time>
      </trkpt>
      <trkpt lat="59.9981791" lon="17.736699">
        <ele>54.4518</ele>
        <time>2013-05-09T11:23:02Z</time>
      </trkpt>
      <trkpt lat="59.9982385" lon="17.7367109">
        <ele>54.4518</ele>
        <time>2013-05-09T11:23:03Z</time>
      </trkpt>
      <trkpt lat="59.9983028" lon="17.7367202">
        <ele>53.9712</ele>
        <time>2013-05-09T11:23:04Z</time>
      </trkpt>
      <trkpt lat="59.9983688" lon="17.7367333">
        <ele>53.4905</ele>
        <time>2013-05-09T11:23:05Z</time>
      </trkpt>
      <trkpt lat="59.998437" lon="17.736747">
        <ele>53.4905</ele>
        <time>2013-05-09T11:23:06Z</time>
      </trkpt>
      <trkpt lat="59.998511" lon="17.7367563">
        <ele>53.9712</ele>
        <time>2013-05-09T11:23:07Z</time>
      </trkpt>
      <trkpt lat="59.9985871" lon="17.7367695">
        <ele>54.4518</ele>
        <time>2013-05-09T11:23:08Z</time>
      </trkpt>
      <trkpt lat="59.9986508" lon="17.7367803">
        <ele>53.9712</ele>
        <time>2013-05-09T11:23:09Z</time>
      </trkpt>
      <trkpt lat="59.9987153" lon="17.7367877">
        <ele>53.9712</ele>
        <time>2013-05-09T11:23:10Z</time>
      </trkpt>
      <trkpt lat="59.9987816" lon="17.7367985">
        <ele>53.4905</ele>
        <time>2013-05-09T11:23:11Z</time>
      </trkpt>
      <trkpt lat="59.9988485" lon="17.7368093">
        <ele>53.9712</ele>
        <time>2013-05-09T11:23:12Z</time>
      </trkpt>
      <trkpt lat="59.9989166" lon="17.7368233">
        <ele>53.4905</ele>
        <time>2013-05-09T11:23:13Z</time>
      </trkpt>
      <trkpt lat="59.9989844" lon="17.7368361">
        <ele>53.0098</ele>
        <time>2013-05-09T11:23:14Z</time>
      </trkpt>
      <trkpt lat="59.9991109" lon="17.7368506">
        <ele>53.0098</ele>
        <time>2013-05-09T11:23:16Z</time>
      </trkpt>
      <trkpt lat="59.9991763" lon="17.7368618">
        <ele>53.0098</ele>
        <time>2013-05-09T11:23:17Z</time>
      </trkpt>
      <trkpt lat="59.9992382" lon="17.7368715">
        <ele>53.4905</ele>
        <time>2013-05-09T11:23:18Z</time>
      </trkpt>
      <trkpt lat="59.9993002" lon="17.7368822">
        <ele>53.0098</ele>
        <time>2013-05-09T11:23:19Z</time>
      </trkpt>
      <trkpt lat="59.9993629" lon="17.7368908">
        <ele>53.0098</ele>
        <time>2013-05-09T11:23:20Z</time>
      </trkpt>
      <trkpt lat="59.9994221" lon="17.7368987">
        <ele>53.4905</ele>
        <time>2013-05-09T11:23:21Z</time>
      </trkpt>
      <trkpt lat="59.9994755" lon="17.7369082">
        <ele>53.4905</ele>
        <time>2013-05-09T11:23:22Z</time>
      </trkpt>
      <trkpt lat="59.999525" lon="17.7369156">
        <ele>53.4905</ele>
        <time>2013-05-09T11:23:23Z</time>
      </trkpt>
      <trkpt lat="59.9995746" lon="17.7369228">
        <ele>54.4518</ele>
        <time>2013-05-09T11:23:24Z</time>
      </trkpt>
      <trkpt lat="59.9996233" lon="17.7369295">
        <ele>54.4518</ele>
        <time>2013-05-09T11:23:25Z</time>
      </trkpt>
      <trkpt lat="59.9996704" lon="17.7369332">
        <ele>54.4518</ele>
        <time>2013-05-09T11:23:26Z</time>
      </trkpt>
      <trkpt lat="59.999717" lon="17.7369377">
        <ele>54.9324</ele>
        <time>2013-05-09T11:23:27Z</time>
      </trkpt>
      <trkpt lat="59.9997635" lon="17.7369436">
        <ele>54.9324</ele>
        <time>2013-05-09T11:23:28Z</time>
      </trkpt>
      <trkpt lat="59.9998088" lon="17.7369526">
        <ele>54.9324</ele>
        <time>2013-05-09T11:23:29Z</time>
      </trkpt>
      <trkpt lat="59.9998554" lon="17.7369616">
        <ele>54.9324</ele>
        <time>2013-05-09T11:23:30Z</time>
      </trkpt>
      <trkpt lat="59.999903" lon="17.7369656">
        <ele>54.9324</ele>
        <time>2013-05-09T11:23:31Z</time>
      </trkpt>
      <trkpt lat="59.9999541" lon="17.7369663">
        <ele>54.4518</ele>
        <time>2013-05-09T11:23:32Z</time>
      </trkpt>
      <trkpt lat="60.0000095" lon="17.7369632">
        <ele>53.9712</ele>
        <time>2013-05-09T11:23:33Z</time>
      </trkpt>
      <trkpt lat="60.0000698" lon="17.7369565">
        <ele>53.4905</ele>
        <time>2013-05-09T11:23:34Z</time>
      </trkpt>
      <trkpt lat="60.0001347" lon="17.7369448">
        <ele>53.0098</ele>
        <time>2013-05-09T11:23:35Z</time>
      </trkpt>
      <trkpt lat="60.0002045" lon="17.7369283">
        <ele>52.5292</ele>
        <time>2013-05-09T11:23:36Z</time>
      </trkpt>
      <trkpt lat="60.0002759" lon="17.7369026">
        <ele>52.5292</ele>
        <time>2013-05-09T11:23:37Z</time>
      </trkpt>
      <trkpt lat="60.0003486" lon="17.7368668">
        <ele>52.5292</ele>
        <time>2013-05-09T11:23:38Z</time>
      </trkpt>
      <trkpt lat="60.0004232" lon="17.7368219">
        <ele>52.0486</ele>
        <time>2013-05-09T11:23:39Z</time>
      </trkpt>
      <trkpt lat="60.0004981" lon="17.736767">
        <ele>51.5679</ele>
        <time>2013-05-09T11:23:40Z</time>
      </trkpt>
      <trkpt lat="60.0005711" lon="17.7367114">
        <ele>51.5679</ele>
        <time>2013-05-09T11:23:41Z</time>
      </trkpt>
      <trkpt lat="60.0006453" lon="17.7366489">
        <ele>51.5679</ele>
        <time>2013-05-09T11:23:42Z</time>
      </trkpt>
      <trkpt lat="60.0007184" lon="17.7365875">
        <ele>51.5679</ele>
        <time>2013-05-09T11:23:43Z</time>
      </trkpt>
      <trkpt lat="60.0007898" lon="17.7365337">
        <ele>51.5679</ele>
        <time>2013-05-09T11:23:44Z</time>
      </trkpt>
      <trkpt lat="60.0008593" lon="17.7364905">
        <ele>51.5679</ele>
        <time>2013-05-09T11:23:45Z</time>
      </trkpt>
      <trkpt lat="60.0009272" lon="17.7364532">
        <ele>52.0486</ele>
        <time>2013-05-09T11:23:46Z</time>
      </trkpt>
      <trkpt lat="60.0009936" lon="17.7364188">
        <ele>52.0486</ele>
        <time>2013-05-09T11:23:47Z</time>
      </trkpt>
      <trkpt lat="60.0010587" lon="17.7363854">
        <ele>52.0486</ele>
        <time>2013-05-09T11:23:48Z</time>
      </trkpt>
      <trkpt lat="60.0011209" lon="17.7363508">
        <ele>52.0486</ele>
        <time>2013-05-09T11:23:49Z</time>
      </trkpt>
      <trkpt lat="60.0011811" lon="17.7363146">
        <ele>52.0486</ele>
        <time>2013-05-09T11:23:50Z</time>
      </trkpt>
      <trkpt lat="60.0012388" lon="17.7362764">
        <ele>52.5292</ele>
        <time>2013-05-09T11:23:51Z</time>
      </trkpt>
      <trkpt lat="60.001294" lon="17.7362348">
        <ele>52.5292</ele>
        <time>2013-05-09T11:23:52Z</time>
      </trkpt>
      <trkpt lat="60.0013482" lon="17.7361873">
        <ele>53.0098</ele>
        <time>2013-05-09T11:23:53Z</time>
      </trkpt>
      <trkpt lat="60.0014011" lon="17.7361344">
        <ele>53.0098</ele>
        <time>2013-05-09T11:23:54Z</time>
      </trkpt>
      <trkpt lat="60.0014519" lon="17.7360798">
        <ele>53.0098</ele>
        <time>2013-05-09T11:23:55Z</time>
      </trkpt>
      <trkpt lat="60.0015016" lon="17.7360223">
        <ele>53.0098</ele>
        <time>2013-05-09T11:23:56Z</time>
      </trkpt>
      <trkpt lat="60.0015509" lon="17.7359611">
        <ele>52.5292</ele>
        <time>2013-05-09T11:23:57Z</time>
      </trkpt>
      <trkpt lat="60.0016005" lon="17.7358971">
        <ele>52.5292</ele>
        <time>2013-05-09T11:23:58Z</time>
      </trkpt>
      <trkpt lat="60.0016518" lon="17.7358297">
        <ele>52.0486</ele>
        <time>2013-05-09T11:23:59Z</time>
      </trkpt>
      <trkpt lat="60.0017065" lon="17.7357587">
        <ele>51.5679</ele>
        <time>2013-05-09T11:24:00Z</time>
      </trkpt>
      <trkpt lat="60.0017615" lon="17.7356842">
        <ele>51.0872</ele>
        <time>2013-05-09T11:24:01Z</time>
      </trkpt>
      <trkpt lat="60.0018182" lon="17.7355966">
        <ele>50.6066</ele>
        <time>2013-05-09T11:24:02Z</time>
      </trkpt>
      <trkpt lat="60.0018746" lon="17.7354936">
        <ele>50.126</ele>
        <time>2013-05-09T11:24:03Z</time>
      </trkpt>
      <trkpt lat="60.0019296" lon="17.735375">
        <ele>49.6453</ele>
        <time>2013-05-09T11:24:04Z</time>
      </trkpt>
      <trkpt lat="60.0019824" lon="17.7352413">
        <ele>49.1646</ele>
        <time>2013-05-09T11:24:05Z</time>
      </trkpt>
      <trkpt lat="60.0020298" lon="17.7350992">
        <ele>49.1646</ele>
        <time>2013-05-09T11:24:06Z</time>
      </trkpt>
      <trkpt lat="60.0020724" lon="17.7349475">
        <ele>48.684</ele>
        <time>2013-05-09T11:24:07Z</time>
      </trkpt>
      <trkpt lat="60.0021085" lon="17.7347886">
        <ele>47.7225</ele>
        <time>2013-05-09T11:24:08Z</time>
      </trkpt>
      <trkpt lat="60.0021419" lon="17.7346259">
        <ele>48.2034</ele>
        <time>2013-05-09T11:24:09Z</time>
      </trkpt>
      <trkpt lat="60.0021756" lon="17.7344499">
        <ele>48.2034</ele>
        <time>2013-05-09T11:24:10Z</time>
      </trkpt>
      <trkpt lat="60.0021982" lon="17.7343054">
        <ele>48.2034</ele>
        <time>2013-05-09T11:24:11Z</time>
      </trkpt>
      <trkpt lat="60.002218" lon="17.7341595">
        <ele>48.2034</ele>
        <time>2013-05-09T11:24:12Z</time>
      </trkpt>
      <trkpt lat="60.0022451" lon="17.7339984">
        <ele>47.7225</ele>
        <time>2013-05-09T11:24:13Z</time>
      </trkpt>
      <trkpt lat="60.0022644" lon="17.7338178">
        <ele>47.2418</ele>
        <time>2013-05-09T11:24:14Z</time>
      </trkpt>
      <trkpt lat="60.0022795" lon="17.7336556">
        <ele>46.7612</ele>
        <time>2013-05-09T11:24:15Z</time>
      </trkpt>
      <trkpt lat="60.0022842" lon="17.7334925">
        <ele>46.2806</ele>
        <time>2013-05-09T11:24:16Z</time>
      </trkpt>
      <trkpt lat="60.0022826" lon="17.7333139">
        <ele>46.2806</ele>
        <time>2013-05-09T11:24:17Z</time>
      </trkpt>
      <trkpt lat="60.0022766" lon="17.7331444">
        <ele>45.3192</ele>
        <time>2013-05-09T11:24:18Z</time>
      </trkpt>
      <trkpt lat="60.0022698" lon="17.7329536">
        <ele>44.8386</ele>
        <time>2013-05-09T11:24:19Z</time>
      </trkpt>
      <trkpt lat="60.0022652" lon="17.7327536">
        <ele>44.358</ele>
        <time>2013-05-09T11:24:20Z</time>
      </trkpt>
      <trkpt lat="60.0022662" lon="17.7325538">
        <ele>43.8773</ele>
        <time>2013-05-09T11:24:21Z</time>
      </trkpt>
      <trkpt lat="60.0022792" lon="17.7323532">
        <ele>42.916</ele>
        <time>2013-05-09T11:24:22Z</time>
      </trkpt>
      <trkpt lat="60.0023168" lon="17.7321579">
        <ele>41.9547</ele>
        <time>2013-05-09T11:24:23Z</time>
      </trkpt>
      <trkpt lat="60.0023554" lon="17.7319707">
        <ele>41.474</ele>
        <time>2013-05-09T11:24:24Z</time>
      </trkpt>
      <trkpt lat="60.0024024" lon="17.7318033">
        <ele>40.9934</ele>
        <time>2013-05-09T11:24:25Z</time>
      </trkpt>
      <trkpt lat="60.0024579" lon="17.7316369">
        <ele>40.9934</ele>
        <time>2013-05-09T11:24:26Z</time>
      </trkpt>
      <trkpt lat="60.0025128" lon="17.7314759">
        <ele>40.5128</ele>
        <time>2013-05-09T11:24:27Z</time>
      </trkpt>
      <trkpt lat="60.0025701" lon="17.7313188">
        <ele>40.0321</ele>
        <time>2013-05-09T11:24:28Z</time>
      </trkpt>
      <trkpt lat="60.0026286" lon="17.731166">
        <ele>39.5513</ele>
        <time>2013-05-09T11:24:29Z</time>
      </trkpt>
      <trkpt lat="60.0026885" lon="17.731018">
        <ele>39.0707</ele>
        <time>2013-05-09T11:24:30Z</time>
      </trkpt>
      <trkpt lat="60.0027535" lon="17.7308811">
        <ele>39.0707</ele>
        <time>2013-05-09T11:24:31Z</time>
      </trkpt>
      <trkpt lat="60.0028189" lon="17.7307538">
        <ele>39.0707</ele>
        <time>2013-05-09T11:24:32Z</time>
      </trkpt>
      <trkpt lat="60.0028874" lon="17.7306317">
        <ele>39.5513</ele>
        <time>2013-05-09T11:24:33Z</time>
      </trkpt>
      <trkpt lat="60.0029532" lon="17.7305155">
        <ele>40.0321</ele>
        <time>2013-05-09T11:24:34Z</time>
      </trkpt>
      <trkpt lat="60.0030187" lon="17.7304066">
        <ele>40.5128</ele>
        <time>2013-05-09T11:24:35Z</time>
      </trkpt>
      <trkpt lat="60.0030836" lon="17.7303">
        <ele>40.9934</ele>
        <time>2013-05-09T11:24:36Z</time>
      </trkpt>
      <trkpt lat="60.0031475" lon="17.7301942">
        <ele>40.9934</ele>
        <time>2013-05-09T11:24:37Z</time>
      </trkpt>
      <trkpt lat="60.0032105" lon="17.7300906">
        <ele>40.5128</ele>
        <time>2013-05-09T11:24:38Z</time>
      </trkpt>
      <trkpt lat="60.0032702" lon="17.729987">
        <ele>40.5128</ele>
        <time>2013-05-09T11:24:39Z</time>
      </trkpt>
      <trkpt lat="60.0033298" lon="17.7298798">
        <ele>40.9934</ele>
        <time>2013-05-09T11:24:40Z</time>
      </trkpt>
      <trkpt lat="60.0033896" lon="17.7297728">
        <ele>40.9934</ele>
        <time>2013-05-09T11:24:41Z</time>
      </trkpt>
      <trkpt lat="60.0034499" lon="17.7296639">
        <ele>40.9934</ele>
        <time>2013-05-09T11:24:42Z</time>
      </trkpt>
      <trkpt lat="60.0035105" lon="17.729553">
        <ele>40.9934</ele>
        <time>2013-05-09T11:24:43Z</time>
      </trkpt>
      <trkpt lat="60.0035706" lon="17.7294439">
        <ele>41.474</ele>
        <time>2013-05-09T11:24:44Z</time>
      </trkpt>
      <trkpt lat="60.0036297" lon="17.729337">
        <ele>41.474</ele>
        <time>2013-05-09T11:24:45Z</time>
      </trkpt>
      <trkpt lat="60.0036866" lon="17.7292386">
        <ele>41.474</ele>
        <time>2013-05-09T11:24:46Z</time>
      </trkpt>
      <trkpt lat="60.0037384" lon="17.7291535">
        <ele>41.474</ele>
        <time>2013-05-09T11:24:47Z</time>
      </trkpt>
      <trkpt lat="60.0037876" lon="17.7290826">
        <ele>40.9934</ele>
        <time>2013-05-09T11:24:48Z</time>
      </trkpt>
      <trkpt lat="60.0038323" lon="17.7290175">
        <ele>40.9934</ele>
        <time>2013-05-09T11:24:49Z</time>
      </trkpt>
      <trkpt lat="60.0038746" lon="17.7289592">
        <ele>40.9934</ele>
        <time>2013-05-09T11:24:50Z</time>
      </trkpt>
      <trkpt lat="60.0039135" lon="17.7289124">
        <ele>40.5128</ele>
        <time>2013-05-09T11:24:51Z</time>
      </trkpt>
      <trkpt lat="60.0039488" lon="17.7288786">
        <ele>40.5128</ele>
        <time>2013-05-09T11:24:52Z</time>
      </trkpt>
      <trkpt lat="60.0039807" lon="17.7288553">
        <ele>40.5128</ele>
        <time>2013-05-09T11:24:53Z</time>
      </trkpt>
      <trkpt lat="60.0040133" lon="17.7288422">
        <ele>40.0321</ele>
        <time>2013-05-09T11:24:54Z</time>
      </trkpt>
      <trkpt lat="60.0040465" lon="17.728844">
        <ele>39.5513</ele>
        <time>2013-05-09T11:24:55Z</time>
      </trkpt>
      <trkpt lat="60.0040773" lon="17.7288672">
        <ele>39.5513</ele>
        <time>2013-05-09T11:24:56Z</time>
      </trkpt>
      <trkpt lat="60.0041052" lon="17.7289102">
        <ele>40.0321</ele>
        <time>2013-05-09T11:24:57Z</time>
      </trkpt>
      <trkpt lat="60.0041321" lon="17.7289683">
        <ele>40.5128</ele>
        <time>2013-05-09T11:24:58Z</time>
      </trkpt>
      <trkpt lat="60.0041586" lon="17.7290422">
        <ele>40.5128</ele>
        <time>2013-05-09T11:24:59Z</time>
      </trkpt>
      <trkpt lat="60.004183" lon="17.7291262">
        <ele>41.474</ele>
        <time>2013-05-09T11:25:00Z</time>
      </trkpt>
      <trkpt lat="60.0042093" lon="17.7292169">
        <ele>41.474</ele>
        <time>2013-05-09T11:25:01Z</time>
      </trkpt>
      <trkpt lat="60.0042357" lon="17.7293141">
        <ele>41.9547</ele>
        <time>2013-05-09T11:25:02Z</time>
      </trkpt>
      <trkpt lat="60.004266" lon="17.7294167">
        <ele>42.4354</ele>
        <time>2013-05-09T11:25:03Z</time>
      </trkpt>
      <trkpt lat="60.0042988" lon="17.7295257">
        <ele>42.4354</ele>
        <time>2013-05-09T11:25:04Z</time>
      </trkpt>
      <trkpt lat="60.0043294" lon="17.729642">
        <ele>42.4354</ele>
        <time>2013-05-09T11:25:05Z</time>
      </trkpt>
      <trkpt lat="60.0043663" lon="17.7297966">
        <ele>41.9547</ele>
        <time>2013-05-09T11:25:06Z</time>
      </trkpt>
      <trkpt lat="60.0043994" lon="17.7299079">
        <ele>42.4354</ele>
        <time>2013-05-09T11:25:07Z</time>
      </trkpt>
      <trkpt lat="60.0044391" lon="17.7300161">
        <ele>42.4354</ele>
        <time>2013-05-09T11:25:08Z</time>
      </trkpt>
      <trkpt lat="60.0044793" lon="17.7301366">
        <ele>42.4354</ele>
        <time>2013-05-09T11:25:09Z</time>
      </trkpt>
      <trkpt lat="60.0045209" lon="17.7302446">
        <ele>42.916</ele>
        <time>2013-05-09T11:25:10Z</time>
      </trkpt>
      <trkpt lat="60.0045569" lon="17.7303501">
        <ele>42.916</ele>
        <time>2013-05-09T11:25:11Z</time>
      </trkpt>
      <trkpt lat="60.0045931" lon="17.7304529">
        <ele>43.3966</ele>
        <time>2013-05-09T11:25:12Z</time>
      </trkpt>
      <trkpt lat="60.0046272" lon="17.7305529">
        <ele>43.3966</ele>
        <time>2013-05-09T11:25:13Z</time>
      </trkpt>
      <trkpt lat="60.0046593" lon="17.7306505">
        <ele>43.8773</ele>
        <time>2013-05-09T11:25:14Z</time>
      </trkpt>
      <trkpt lat="60.0046895" lon="17.730746">
        <ele>43.8773</ele>
        <time>2013-05-09T11:25:15Z</time>
      </trkpt>
      <trkpt lat="60.0047185" lon="17.7308401">
        <ele>44.358</ele>
        <time>2013-05-09T11:25:16Z</time>
      </trkpt>
      <trkpt lat="60.004747" lon="17.7309319">
        <ele>44.358</ele>
        <time>2013-05-09T11:25:17Z</time>
      </trkpt>
      <trkpt lat="60.0047749" lon="17.7310207">
        <ele>44.8386</ele>
        <time>2013-05-09T11:25:18Z</time>
      </trkpt>
      <trkpt lat="60.0048019" lon="17.7311041">
        <ele>44.8386</ele>
        <time>2013-05-09T11:25:19Z</time>
      </trkpt>
      <trkpt lat="60.0048287" lon="17.7311818">
        <ele>45.3192</ele>
        <time>2013-05-09T11:25:20Z</time>
      </trkpt>
      <trkpt lat="60.0048588" lon="17.7312511">
        <ele>45.3192</ele>
        <time>2013-05-09T11:25:21Z</time>
      </trkpt>
      <trkpt lat="60.0048915" lon="17.7313131">
        <ele>45.3192</ele>
        <time>2013-05-09T11:25:22Z</time>
      </trkpt>
      <trkpt lat="60.0049263" lon="17.7313786">
        <ele>45.3192</ele>
        <time>2013-05-09T11:25:23Z</time>
      </trkpt>
      <trkpt lat="60.0049568" lon="17.7314522">
        <ele>45.3192</ele>
        <time>2013-05-09T11:25:24Z</time>
      </trkpt>
      <trkpt lat="60.0049884" lon="17.7315308">
        <ele>45.7999</ele>
        <time>2013-05-09T11:25:25Z</time>
      </trkpt>
      <trkpt lat="60.0050204" lon="17.7316086">
        <ele>45.7999</ele>
        <time>2013-05-09T11:25:26Z</time>
      </trkpt>
      <trkpt lat="60.0050552" lon="17.7316788">
        <ele>45.7999</ele>
        <time>2013-05-09T11:25:27Z</time>
      </trkpt>
      <trkpt lat="60.0050962" lon="17.7317276">
        <ele>45.7999</ele>
        <time>2013-05-09T11:25:28Z</time>
      </trkpt>
      <trkpt lat="60.0051426" lon="17.7317582">
        <ele>45.7999</ele>
        <time>2013-05-09T11:25:29Z</time>
      </trkpt>
      <trkpt lat="60.0051929" lon="17.7317834">
        <ele>45.3192</ele>
        <time>2013-05-09T11:25:30Z</time>
      </trkpt>
      <trkpt lat="60.0052427" lon="17.7318026">
        <ele>45.3192</ele>
        <time>2013-05-09T11:25:31Z</time>
      </trkpt>
      <trkpt lat="60.0052936" lon="17.7318007">
        <ele>45.3192</ele>
        <time>2013-05-09T11:25:32Z</time>
      </trkpt>
      <trkpt lat="60.0053468" lon="17.7317763">
        <ele>45.3192</ele>
        <time>2013-05-09T11:25:33Z</time>
      </trkpt>
      <trkpt lat="60.005402" lon="17.7317359">
        <ele>44.8386</ele>
        <time>2013-05-09T11:25:34Z</time>
      </trkpt>
      <trkpt lat="60.005458" lon="17.7316883">
        <ele>44.8386</ele>
        <time>2013-05-09T11:25:35Z</time>
      </trkpt>
      <trkpt lat="60.0055144" lon="17.7316386">
        <ele>45.3192</ele>
        <time>2013-05-09T11:25:36Z</time>
      </trkpt>
      <trkpt lat="60.0055731" lon="17.7315862">
        <ele>45.3192</ele>
        <time>2013-05-09T11:25:37Z</time>
      </trkpt>
      <trkpt lat="60.0056317" lon="17.7315291">
        <ele>45.3192</ele>
        <time>2013-05-09T11:25:38Z</time>
      </trkpt>
      <trkpt lat="60.0056913" lon="17.7314675">
        <ele>45.3192</ele>
        <time>2013-05-09T11:25:39Z</time>
      </trkpt>
      <trkpt lat="60.0057529" lon="17.7314035">
        <ele>45.3192</ele>
        <time>2013-05-09T11:25:40Z</time>
      </trkpt>
      <trkpt lat="60.0058166" lon="17.7313405">
        <ele>44.8386</ele>
        <time>2013-05-09T11:25:41Z</time>
      </trkpt>
      <trkpt lat="60.0058838" lon="17.7312799">
        <ele>44.358</ele>
        <time>2013-05-09T11:25:42Z</time>
      </trkpt>
      <trkpt lat="60.0059539" lon="17.7312193">
        <ele>43.8773</ele>
        <time>2013-05-09T11:25:43Z</time>
      </trkpt>
      <trkpt lat="60.0060227" lon="17.7311521">
        <ele>43.8773</ele>
        <time>2013-05-09T11:25:44Z</time>
      </trkpt>
      <trkpt lat="60.0060917" lon="17.7310885">
        <ele>43.8773</ele>
        <time>2013-05-09T11:25:45Z</time>
      </trkpt>
      <trkpt lat="60.0061606" lon="17.7310263">
        <ele>43.8773</ele>
        <time>2013-05-09T11:25:46Z</time>
      </trkpt>
      <trkpt lat="60.0062303" lon="17.7309642">
        <ele>43.8773</ele>
        <time>2013-05-09T11:25:47Z</time>
      </trkpt>
      <trkpt lat="60.0062997" lon="17.7308977">
        <ele>43.8773</ele>
        <time>2013-05-09T11:25:48Z</time>
      </trkpt>
      <trkpt lat="60.0063687" lon="17.7308316">
        <ele>43.8773</ele>
        <time>2013-05-09T11:25:49Z</time>
      </trkpt>
      <trkpt lat="60.0064398" lon="17.7307635">
        <ele>43.8773</ele>
        <time>2013-05-09T11:25:50Z</time>
      </trkpt>
      <trkpt lat="60.0065126" lon="17.7306958">
        <ele>44.358</ele>
        <time>2013-05-09T11:25:51Z</time>
      </trkpt>
      <trkpt lat="60.0065859" lon="17.730629">
        <ele>44.358</ele>
        <time>2013-05-09T11:25:52Z</time>
      </trkpt>
      <trkpt lat="60.0066584" lon="17.7305632">
        <ele>44.358</ele>
        <time>2013-05-09T11:25:53Z</time>
      </trkpt>
      <trkpt lat="60.0067345" lon="17.7304984">
        <ele>44.358</ele>
        <time>2013-05-09T11:25:54Z</time>
      </trkpt>
      <trkpt lat="60.0068142" lon="17.7304371">
        <ele>44.358</ele>
        <time>2013-05-09T11:25:55Z</time>
      </trkpt>
      <trkpt lat="60.0068947" lon="17.7303757">
        <ele>44.358</ele>
        <time>2013-05-09T11:25:56Z</time>
      </trkpt>
      <trkpt lat="60.0069743" lon="17.7303254">
        <ele>43.3966</ele>
        <time>2013-05-09T11:25:57Z</time>
      </trkpt>
      <trkpt lat="60.0070534" lon="17.7302739">
        <ele>43.3966</ele>
        <time>2013-05-09T11:25:58Z</time>
      </trkpt>
      <trkpt lat="60.0071333" lon="17.7302237">
        <ele>42.916</ele>
        <time>2013-05-09T11:25:59Z</time>
      </trkpt>
      <trkpt lat="60.0072123" lon="17.7301803">
        <ele>42.916</ele>
        <time>2013-05-09T11:26:00Z</time>
      </trkpt>
      <trkpt lat="60.007291" lon="17.7301405">
        <ele>42.4354</ele>
        <time>2013-05-09T11:26:01Z</time>
      </trkpt>
      <trkpt lat="60.0073692" lon="17.7301085">
        <ele>42.4354</ele>
        <time>2013-05-09T11:26:02Z</time>
      </trkpt>
      <trkpt lat="60.0074467" lon="17.7300774">
        <ele>41.9547</ele>
        <time>2013-05-09T11:26:03Z</time>
      </trkpt>
      <trkpt lat="60.0075255" lon="17.7300486">
        <ele>41.9547</ele>
        <time>2013-05-09T11:26:04Z</time>
      </trkpt>
      <trkpt lat="60.0076043" lon="17.7300253">
        <ele>41.474</ele>
        <time>2013-05-09T11:26:05Z</time>
      </trkpt>
      <trkpt lat="60.0076802" lon="17.7300075">
        <ele>40.9934</ele>
        <time>2013-05-09T11:26:06Z</time>
      </trkpt>
      <trkpt lat="60.0077587" lon="17.7299959">
        <ele>40.5128</ele>
        <time>2013-05-09T11:26:07Z</time>
      </trkpt>
      <trkpt lat="60.0078398" lon="17.7299888">
        <ele>40.0321</ele>
        <time>2013-05-09T11:26:08Z</time>
      </trkpt>
      <trkpt lat="60.0079219" lon="17.7299871">
        <ele>40.0321</ele>
        <time>2013-05-09T11:26:09Z</time>
      </trkpt>
      <trkpt lat="60.0080058" lon="17.7299911">
        <ele>39.0707</ele>
        <time>2013-05-09T11:26:10Z</time>
      </trkpt>
      <trkpt lat="60.0080937" lon="17.7299973">
        <ele>38.5901</ele>
        <time>2013-05-09T11:26:11Z</time>
      </trkpt>
      <trkpt lat="60.0081803" lon="17.730011">
        <ele>38.1094</ele>
        <time>2013-05-09T11:26:12Z</time>
      </trkpt>
      <trkpt lat="60.0082725" lon="17.7300504">
        <ele>37.6287</ele>
        <time>2013-05-09T11:26:13Z</time>
      </trkpt>
      <trkpt lat="60.008357" lon="17.7300955">
        <ele>37.6287</ele>
        <time>2013-05-09T11:26:14Z</time>
      </trkpt>
      <trkpt lat="60.008456" lon="17.7301252">
        <ele>36.6675</ele>
        <time>2013-05-09T11:26:15Z</time>
      </trkpt>
      <trkpt lat="60.0085533" lon="17.7301592">
        <ele>36.1868</ele>
        <time>2013-05-09T11:26:16Z</time>
      </trkpt>
      <trkpt lat="60.0086507" lon="17.7301955">
        <ele>35.2255</ele>
        <time>2013-05-09T11:26:17Z</time>
      </trkpt>
      <trkpt lat="60.0087468" lon="17.7302382">
        <ele>34.7449</ele>
        <time>2013-05-09T11:26:18Z</time>
      </trkpt>
      <trkpt lat="60.0088418" lon="17.7302871">
        <ele>34.2642</ele>
        <time>2013-05-09T11:26:19Z</time>
      </trkpt>
      <trkpt lat="60.0089326" lon="17.7303399">
        <ele>33.7834</ele>
        <time>2013-05-09T11:26:20Z</time>
      </trkpt>
      <trkpt lat="60.0090216" lon="17.7303985">
        <ele>33.7834</ele>
        <time>2013-05-09T11:26:21Z</time>
      </trkpt>
      <trkpt lat="60.0091097" lon="17.7304619">
        <ele>33.3029</ele>
        <time>2013-05-09T11:26:22Z</time>
      </trkpt>
      <trkpt lat="60.0091955" lon="17.7305303">
        <ele>33.3029</ele>
        <time>2013-05-09T11:26:23Z</time>
      </trkpt>
      <trkpt lat="60.0092791" lon="17.730603">
        <ele>32.8223</ele>
        <time>2013-05-09T11:26:24Z</time>
      </trkpt>
      <trkpt lat="60.0093588" lon="17.7306849">
        <ele>32.3416</ele>
        <time>2013-05-09T11:26:25Z</time>
      </trkpt>
      <trkpt lat="60.0094365" lon="17.7307639">
        <ele>32.3416</ele>
        <time>2013-05-09T11:26:26Z</time>
      </trkpt>
      <trkpt lat="60.0095131" lon="17.7308465">
        <ele>31.8607</ele>
        <time>2013-05-09T11:26:27Z</time>
      </trkpt>
      <trkpt lat="60.0095894" lon="17.7309341">
        <ele>31.8607</ele>
        <time>2013-05-09T11:26:28Z</time>
      </trkpt>
      <trkpt lat="60.009664" lon="17.7310252">
        <ele>32.3416</ele>
        <time>2013-05-09T11:26:29Z</time>
      </trkpt>
      <trkpt lat="60.0097371" lon="17.7311191">
        <ele>32.3416</ele>
        <time>2013-05-09T11:26:30Z</time>
      </trkpt>
      <trkpt lat="60.00981" lon="17.7312164">
        <ele>32.3416</ele>
        <time>2013-05-09T11:26:31Z</time>
      </trkpt>
      <trkpt lat="60.0098826" lon="17.7313174">
        <ele>32.3416</ele>
        <time>2013-05-09T11:26:32Z</time>
      </trkpt>
      <trkpt lat="60.009955" lon="17.7314189">
        <ele>32.3416</ele>
        <time>2013-05-09T11:26:33Z</time>
      </trkpt>
      <trkpt lat="60.0100271" lon="17.7315199">
        <ele>32.3416</ele>
        <time>2013-05-09T11:26:34Z</time>
      </trkpt>
      <trkpt lat="60.010099" lon="17.731621">
        <ele>32.3416</ele>
        <time>2013-05-09T11:26:35Z</time>
      </trkpt>
      <trkpt lat="60.0101716" lon="17.7317214">
        <ele>32.3416</ele>
        <time>2013-05-09T11:26:36Z</time>
      </trkpt>
      <trkpt lat="60.0102457" lon="17.7318207">
        <ele>32.3416</ele>
        <time>2013-05-09T11:26:37Z</time>
      </trkpt>
      <trkpt lat="60.0103207" lon="17.7319188">
        <ele>32.3416</ele>
        <time>2013-05-09T11:26:38Z</time>
      </trkpt>
      <trkpt lat="60.0103956" lon="17.7320175">
        <ele>32.8223</ele>
        <time>2013-05-09T11:26:39Z</time>
      </trkpt>
      <trkpt lat="60.0104699" lon="17.7321158">
        <ele>32.8223</ele>
        <time>2013-05-09T11:26:40Z</time>
      </trkpt>
      <trkpt lat="60.010544" lon="17.7322119">
        <ele>32.8223</ele>
        <time>2013-05-09T11:26:41Z</time>
      </trkpt>
      <trkpt lat="60.0106195" lon="17.7323021">
        <ele>32.8223</ele>
        <time>2013-05-09T11:26:42Z</time>
      </trkpt>
      <trkpt lat="60.0106964" lon="17.7323859">
        <ele>32.8223</ele>
        <time>2013-05-09T11:26:43Z</time>
      </trkpt>
      <trkpt lat="60.0107759" lon="17.7324627">
        <ele>32.8223</ele>
        <time>2013-05-09T11:26:44Z</time>
      </trkpt>
      <trkpt lat="60.0108569" lon="17.732531">
        <ele>32.8223</ele>
        <time>2013-05-09T11:26:45Z</time>
      </trkpt>
      <trkpt lat="60.0109392" lon="17.7325901">
        <ele>32.8223</ele>
        <time>2013-05-09T11:26:46Z</time>
      </trkpt>
      <trkpt lat="60.0110225" lon="17.7326435">
        <ele>32.8223</ele>
        <time>2013-05-09T11:26:47Z</time>
      </trkpt>
      <trkpt lat="60.0111072" lon="17.7326932">
        <ele>32.8223</ele>
        <time>2013-05-09T11:26:48Z</time>
      </trkpt>
      <trkpt lat="60.0111934" lon="17.7327373">
        <ele>32.8223</ele>
        <time>2013-05-09T11:26:49Z</time>
      </trkpt>
      <trkpt lat="60.0112812" lon="17.7327735">
        <ele>32.8223</ele>
        <time>2013-05-09T11:26:50Z</time>
      </trkpt>
      <trkpt lat="60.0113705" lon="17.7328016">
        <ele>32.8223</ele>
        <time>2013-05-09T11:26:51Z</time>
      </trkpt>
      <trkpt lat="60.0114598" lon="17.7328226">
        <ele>32.8223</ele>
        <time>2013-05-09T11:26:52Z</time>
      </trkpt>
      <trkpt lat="60.0115483" lon="17.7328373">
        <ele>32.8223</ele>
        <time>2013-05-09T11:26:53Z</time>
      </trkpt>
      <trkpt lat="60.0116356" lon="17.732846">
        <ele>32.8223</ele>
        <time>2013-05-09T11:26:54Z</time>
      </trkpt>
      <trkpt lat="60.0117228" lon="17.7328506">
        <ele>32.8223</ele>
        <time>2013-05-09T11:26:55Z</time>
      </trkpt>
      <trkpt lat="60.0118096" lon="17.7328491">
        <ele>32.8223</ele>
        <time>2013-05-09T11:26:56Z</time>
      </trkpt>
      <trkpt lat="60.011896" lon="17.7328398">
        <ele>32.8223</ele>
        <time>2013-05-09T11:26:57Z</time>
      </trkpt>
      <trkpt lat="60.0119825" lon="17.7328239">
        <ele>32.8223</ele>
        <time>2013-05-09T11:26:58Z</time>
      </trkpt>
      <trkpt lat="60.0120689" lon="17.7328018">
        <ele>32.8223</ele>
        <time>2013-05-09T11:26:59Z</time>
      </trkpt>
      <trkpt lat="60.0121558" lon="17.7327745">
        <ele>32.3416</ele>
        <time>2013-05-09T11:27:00Z</time>
      </trkpt>
      <trkpt lat="60.012244" lon="17.7327461">
        <ele>32.3416</ele>
        <time>2013-05-09T11:27:01Z</time>
      </trkpt>
      <trkpt lat="60.0123335" lon="17.7327154">
        <ele>31.8607</ele>
        <time>2013-05-09T11:27:02Z</time>
      </trkpt>
      <trkpt lat="60.0124239" lon="17.7326838">
        <ele>31.8607</ele>
        <time>2013-05-09T11:27:03Z</time>
      </trkpt>
      <trkpt lat="60.0125135" lon="17.7326554">
        <ele>31.8607</ele>
        <time>2013-05-09T11:27:04Z</time>
      </trkpt>
      <trkpt lat="60.0126021" lon="17.7326269">
        <ele>31.3801</ele>
        <time>2013-05-09T11:27:05Z</time>
      </trkpt>
      <trkpt lat="60.0126902" lon="17.7325972">
        <ele>31.3801</ele>
        <time>2013-05-09T11:27:06Z</time>
      </trkpt>
      <trkpt lat="60.0127795" lon="17.7325663">
        <ele>30.8995</ele>
        <time>2013-05-09T11:27:07Z</time>
      </trkpt>
      <trkpt lat="60.0128714" lon="17.7325368">
        <ele>30.8995</ele>
        <time>2013-05-09T11:27:08Z</time>
      </trkpt>
      <trkpt lat="60.0129661" lon="17.7325146">
        <ele>30.4188</ele>
        <time>2013-05-09T11:27:09Z</time>
      </trkpt>
      <trkpt lat="60.0130626" lon="17.7325017">
        <ele>30.4188</ele>
        <time>2013-05-09T11:27:10Z</time>
      </trkpt>
      <trkpt lat="60.0131609" lon="17.7324943">
        <ele>29.9381</ele>
        <time>2013-05-09T11:27:11Z</time>
      </trkpt>
      <trkpt lat="60.013261" lon="17.73249">
        <ele>29.4575</ele>
        <time>2013-05-09T11:27:12Z</time>
      </trkpt>
      <trkpt lat="60.013362" lon="17.7324906">
        <ele>29.4575</ele>
        <time>2013-05-09T11:27:13Z</time>
      </trkpt>
      <trkpt lat="60.0134628" lon="17.7324969">
        <ele>28.9769</ele>
        <time>2013-05-09T11:27:14Z</time>
      </trkpt>
      <trkpt lat="60.0135629" lon="17.7325094">
        <ele>28.4962</ele>
        <time>2013-05-09T11:27:15Z</time>
      </trkpt>
      <trkpt lat="60.0136619" lon="17.732527">
        <ele>28.4962</ele>
        <time>2013-05-09T11:27:16Z</time>
      </trkpt>
      <trkpt lat="60.0137592" lon="17.7325503">
        <ele>28.4962</ele>
        <time>2013-05-09T11:27:17Z</time>
      </trkpt>
      <trkpt lat="60.0138534" lon="17.7325781">
        <ele>28.0155</ele>
        <time>2013-05-09T11:27:18Z</time>
      </trkpt>
      <trkpt lat="60.013944" lon="17.7326097">
        <ele>28.0155</ele>
        <time>2013-05-09T11:27:19Z</time>
      </trkpt>
      <trkpt lat="60.0140319" lon="17.732646">
        <ele>28.4962</ele>
        <time>2013-05-09T11:27:20Z</time>
      </trkpt>
      <trkpt lat="60.0141175" lon="17.7326858">
        <ele>28.4962</ele>
        <time>2013-05-09T11:27:21Z</time>
      </trkpt>
      <trkpt lat="60.0142012" lon="17.7327282">
        <ele>28.4962</ele>
        <time>2013-05-09T11:27:22Z</time>
      </trkpt>
      <trkpt lat="60.0142844" lon="17.732775">
        <ele>28.4962</ele>
        <time>2013-05-09T11:27:23Z</time>
      </trkpt>
      <trkpt lat="60.014367" lon="17.7328272">
        <ele>28.4962</ele>
        <time>2013-05-09T11:27:24Z</time>
      </trkpt>
      <trkpt lat="60.0144488" lon="17.732887">
        <ele>28.0155</ele>
        <time>2013-05-09T11:27:25Z</time>
      </trkpt>
      <trkpt lat="60.0145292" lon="17.7329563">
        <ele>28.0155</ele>
        <time>2013-05-09T11:27:26Z</time>
      </trkpt>
      <trkpt lat="60.0146084" lon="17.7330341">
        <ele>28.0155</ele>
        <time>2013-05-09T11:27:27Z</time>
      </trkpt>
      <trkpt lat="60.0146872" lon="17.7331138">
        <ele>28.0155</ele>
        <time>2013-05-09T11:27:28Z</time>
      </trkpt>
      <trkpt lat="60.0147684" lon="17.7331873">
        <ele>28.0155</ele>
        <time>2013-05-09T11:27:29Z</time>
      </trkpt>
      <trkpt lat="60.0148518" lon="17.7332495">
        <ele>28.4962</ele>
        <time>2013-05-09T11:27:30Z</time>
      </trkpt>
      <trkpt lat="60.0149368" lon="17.7333012">
        <ele>28.4962</ele>
        <time>2013-05-09T11:27:31Z</time>
      </trkpt>
      <trkpt lat="60.0150223" lon="17.7333447">
        <ele>28.4962</ele>
        <time>2013-05-09T11:27:32Z</time>
      </trkpt>
      <trkpt lat="60.015108" lon="17.7333812">
        <ele>28.4962</ele>
        <time>2013-05-09T11:27:33Z</time>
      </trkpt>
      <trkpt lat="60.0151924" lon="17.7334107">
        <ele>28.4962</ele>
        <time>2013-05-09T11:27:34Z</time>
      </trkpt>
      <trkpt lat="60.0152761" lon="17.7334385">
        <ele>28.9769</ele>
        <time>2013-05-09T11:27:35Z</time>
      </trkpt>
      <trkpt lat="60.0153605" lon="17.7334662">
        <ele>28.9769</ele>
        <time>2013-05-09T11:27:36Z</time>
      </trkpt>
      <trkpt lat="60.0154454" lon="17.7334887">
        <ele>28.9769</ele>
        <time>2013-05-09T11:27:37Z</time>
      </trkpt>
      <trkpt lat="60.0155303" lon="17.733507">
        <ele>29.4575</ele>
        <time>2013-05-09T11:27:38Z</time>
      </trkpt>
      <trkpt lat="60.0156149" lon="17.7335252">
        <ele>29.4575</ele>
        <time>2013-05-09T11:27:39Z</time>
      </trkpt>
      <trkpt lat="60.0157001" lon="17.7335432">
        <ele>29.4575</ele>
        <time>2013-05-09T11:27:40Z</time>
      </trkpt>
      <trkpt lat="60.0157852" lon="17.7335623">
        <ele>29.9381</ele>
        <time>2013-05-09T11:27:41Z</time>
      </trkpt>
      <trkpt lat="60.0158707" lon="17.7335817">
        <ele>29.9381</ele>
        <time>2013-05-09T11:27:42Z</time>
      </trkpt>
      <trkpt lat="60.0159567" lon="17.7336026">
        <ele>29.9381</ele>
        <time>2013-05-09T11:27:43Z</time>
      </trkpt>
      <trkpt lat="60.0160432" lon="17.7336256">
        <ele>30.4188</ele>
        <time>2013-05-09T11:27:44Z</time>
      </trkpt>
      <trkpt lat="60.0161303" lon="17.7336499">
        <ele>30.4188</ele>
        <time>2013-05-09T11:27:45Z</time>
      </trkpt>
      <trkpt lat="60.0162189" lon="17.7336748">
        <ele>30.4188</ele>
        <time>2013-05-09T11:27:46Z</time>
      </trkpt>
      <trkpt lat="60.0163075" lon="17.7337024">
        <ele>30.8995</ele>
        <time>2013-05-09T11:27:47Z</time>
      </trkpt>
      <trkpt lat="60.0163935" lon="17.7337303">
        <ele>30.8995</ele>
        <time>2013-05-09T11:27:48Z</time>
      </trkpt>
      <trkpt lat="60.0164783" lon="17.7337572">
        <ele>30.8995</ele>
        <time>2013-05-09T11:27:49Z</time>
      </trkpt>
      <trkpt lat="60.016562" lon="17.7337836">
        <ele>30.8995</ele>
        <time>2013-05-09T11:27:50Z</time>
      </trkpt>
      <trkpt lat="60.0166456" lon="17.7338107">
        <ele>30.8995</ele>
        <time>2013-05-09T11:27:51Z</time>
      </trkpt>
      <trkpt lat="60.016729" lon="17.733839">
        <ele>30.8995</ele>
        <time>2013-05-09T11:27:52Z</time>
      </trkpt>
      <trkpt lat="60.0168117" lon="17.7338656">
        <ele>31.3801</ele>
        <time>2013-05-09T11:27:53Z</time>
      </trkpt>
      <trkpt lat="60.0168934" lon="17.7338928">
        <ele>31.3801</ele>
        <time>2013-05-09T11:27:54Z</time>
      </trkpt>
      <trkpt lat="60.0169742" lon="17.7339209">
        <ele>31.3801</ele>
        <time>2013-05-09T11:27:55Z</time>
      </trkpt>
      <trkpt lat="60.0170544" lon="17.7339473">
        <ele>31.3801</ele>
        <time>2013-05-09T11:27:56Z</time>
      </trkpt>
      <trkpt lat="60.0171341" lon="17.7339711">
        <ele>31.3801</ele>
        <time>2013-05-09T11:27:57Z</time>
      </trkpt>
      <trkpt lat="60.0172133" lon="17.7339941">
        <ele>31.8607</ele>
        <time>2013-05-09T11:27:58Z</time>
      </trkpt>
      <trkpt lat="60.0172911" lon="17.7340182">
        <ele>31.8607</ele>
        <time>2013-05-09T11:27:59Z</time>
      </trkpt>
      <trkpt lat="60.0173672" lon="17.7340416">
        <ele>31.8607</ele>
        <time>2013-05-09T11:28:00Z</time>
      </trkpt>
      <trkpt lat="60.0174423" lon="17.7340654">
        <ele>31.8607</ele>
        <time>2013-05-09T11:28:01Z</time>
      </trkpt>
      <trkpt lat="60.0175164" lon="17.7340954">
        <ele>31.8607</ele>
        <time>2013-05-09T11:28:02Z</time>
      </trkpt>
      <trkpt lat="60.0175891" lon="17.7341322">
        <ele>31.8607</ele>
        <time>2013-05-09T11:28:03Z</time>
      </trkpt>
      <trkpt lat="60.0176609" lon="17.7341748">
        <ele>31.8607</ele>
        <time>2013-05-09T11:28:04Z</time>
      </trkpt>
      <trkpt lat="60.0177317" lon="17.7342214">
        <ele>31.8607</ele>
        <time>2013-05-09T11:28:05Z</time>
      </trkpt>
      <trkpt lat="60.0178006" lon="17.7342705">
        <ele>32.3416</ele>
        <time>2013-05-09T11:28:06Z</time>
      </trkpt>
      <trkpt lat="60.0178662" lon="17.7343229">
        <ele>32.3416</ele>
        <time>2013-05-09T11:28:07Z</time>
      </trkpt>
      <trkpt lat="60.0179287" lon="17.7343787">
        <ele>32.3416</ele>
        <time>2013-05-09T11:28:08Z</time>
      </trkpt>
      <trkpt lat="60.0179886" lon="17.7344368">
        <ele>32.8223</ele>
        <time>2013-05-09T11:28:09Z</time>
      </trkpt>
      <trkpt lat="60.0180458" lon="17.7344962">
        <ele>33.3029</ele>
        <time>2013-05-09T11:28:10Z</time>
      </trkpt>
      <trkpt lat="60.0181002" lon="17.7345544">
        <ele>33.3029</ele>
        <time>2013-05-09T11:28:11Z</time>
      </trkpt>
      <trkpt lat="60.018153" lon="17.7346118">
        <ele>33.3029</ele>
        <time>2013-05-09T11:28:12Z</time>
      </trkpt>
      <trkpt lat="60.0182053" lon="17.7346685">
        <ele>33.7834</ele>
        <time>2013-05-09T11:28:13Z</time>
      </trkpt>
      <trkpt lat="60.018257" lon="17.7347254">
        <ele>33.7834</ele>
        <time>2013-05-09T11:28:14Z</time>
      </trkpt>
      <trkpt lat="60.0183095" lon="17.7347818">
        <ele>33.7834</ele>
        <time>2013-05-09T11:28:15Z</time>
      </trkpt>
      <trkpt lat="60.0183629" lon="17.7348367">
        <ele>33.7834</ele>
        <time>2013-05-09T11:28:16Z</time>
      </trkpt>
      <trkpt lat="60.0184187" lon="17.7348927">
        <ele>33.3029</ele>
        <time>2013-05-09T11:28:17Z</time>
      </trkpt>
      <trkpt lat="60.0184763" lon="17.7349497">
        <ele>33.3029</ele>
        <time>2013-05-09T11:28:18Z</time>
      </trkpt>
      <trkpt lat="60.0185358" lon="17.7350092">
        <ele>33.3029</ele>
        <time>2013-05-09T11:28:19Z</time>
      </trkpt>
      <trkpt lat="60.0185974" lon="17.7350722">
        <ele>32.8223</ele>
        <time>2013-05-09T11:28:20Z</time>
      </trkpt>
      <trkpt lat="60.0186589" lon="17.7351377">
        <ele>32.8223</ele>
        <time>2013-05-09T11:28:21Z</time>
      </trkpt>
      <trkpt lat="60.0187188" lon="17.735209">
        <ele>32.8223</ele>
        <time>2013-05-09T11:28:22Z</time>
      </trkpt>
      <trkpt lat="60.0187768" lon="17.7352829">
        <ele>32.8223</ele>
        <time>2013-05-09T11:28:23Z</time>
      </trkpt>
      <trkpt lat="60.0188342" lon="17.7353609">
        <ele>32.8223</ele>
        <time>2013-05-09T11:28:24Z</time>
      </trkpt>
      <trkpt lat="60.0188903" lon="17.7354424">
        <ele>32.8223</ele>
        <time>2013-05-09T11:28:25Z</time>
      </trkpt>
      <trkpt lat="60.0189461" lon="17.735526">
        <ele>32.8223</ele>
        <time>2013-05-09T11:28:26Z</time>
      </trkpt>
      <trkpt lat="60.0190014" lon="17.7356107">
        <ele>32.8223</ele>
        <time>2013-05-09T11:28:27Z</time>
      </trkpt>
      <trkpt lat="60.0190565" lon="17.7356977">
        <ele>33.3029</ele>
        <time>2013-05-09T11:28:28Z</time>
      </trkpt>
      <trkpt lat="60.0191115" lon="17.7357853">
        <ele>33.3029</ele>
        <time>2013-05-09T11:28:29Z</time>
      </trkpt>
      <trkpt lat="60.0191668" lon="17.7358728">
        <ele>33.3029</ele>
        <time>2013-05-09T11:28:30Z</time>
      </trkpt>
      <trkpt lat="60.0192233" lon="17.7359599">
        <ele>33.3029</ele>
        <time>2013-05-09T11:28:31Z</time>
      </trkpt>
      <trkpt lat="60.0192809" lon="17.7360492">
        <ele>33.3029</ele>
        <time>2013-05-09T11:28:32Z</time>
      </trkpt>
      <trkpt lat="60.0193409" lon="17.7361401">
        <ele>33.3029</ele>
        <time>2013-05-09T11:28:33Z</time>
      </trkpt>
      <trkpt lat="60.019404" lon="17.7362295">
        <ele>33.3029</ele>
        <time>2013-05-09T11:28:34Z</time>
      </trkpt>
      <trkpt lat="60.0194698" lon="17.7363156">
        <ele>33.3029</ele>
        <time>2013-05-09T11:28:35Z</time>
      </trkpt>
      <trkpt lat="60.0195372" lon="17.7364015">
        <ele>32.8223</ele>
        <time>2013-05-09T11:28:36Z</time>
      </trkpt>
      <trkpt lat="60.0196056" lon="17.7364896">
        <ele>32.8223</ele>
        <time>2013-05-09T11:28:37Z</time>
      </trkpt>
      <trkpt lat="60.019674" lon="17.7365818">
        <ele>32.8223</ele>
        <time>2013-05-09T11:28:38Z</time>
      </trkpt>
      <trkpt lat="60.0197418" lon="17.7366792">
        <ele>32.8223</ele>
        <time>2013-05-09T11:28:39Z</time>
      </trkpt>
      <trkpt lat="60.0198071" lon="17.7367824">
        <ele>32.8223</ele>
        <time>2013-05-09T11:28:40Z</time>
      </trkpt>
      <trkpt lat="60.0198677" lon="17.7368943">
        <ele>32.8223</ele>
        <time>2013-05-09T11:28:41Z</time>
      </trkpt>
      <trkpt lat="60.0199227" lon="17.737017">
        <ele>32.8223</ele>
        <time>2013-05-09T11:28:42Z</time>
      </trkpt>
      <trkpt lat="60.0199718" lon="17.7371497">
        <ele>32.8223</ele>
        <time>2013-05-09T11:28:43Z</time>
      </trkpt>
      <trkpt lat="60.0200194" lon="17.7372875">
        <ele>32.8223</ele>
        <time>2013-05-09T11:28:44Z</time>
      </trkpt>
      <trkpt lat="60.0200629" lon="17.7374273">
        <ele>33.3029</ele>
        <time>2013-05-09T11:28:45Z</time>
      </trkpt>
      <trkpt lat="60.0201059" lon="17.7375677">
        <ele>33.3029</ele>
        <time>2013-05-09T11:28:46Z</time>
      </trkpt>
      <trkpt lat="60.0201479" lon="17.7377065">
        <ele>33.7834</ele>
        <time>2013-05-09T11:28:47Z</time>
      </trkpt>
      <trkpt lat="60.0201887" lon="17.7378436">
        <ele>33.7834</ele>
        <time>2013-05-09T11:28:48Z</time>
      </trkpt>
      <trkpt lat="60.020229" lon="17.7379789">
        <ele>33.7834</ele>
        <time>2013-05-09T11:28:49Z</time>
      </trkpt>
      <trkpt lat="60.0202707" lon="17.738112">
        <ele>33.7834</ele>
        <time>2013-05-09T11:28:50Z</time>
      </trkpt>
      <trkpt lat="60.0203157" lon="17.7382415">
        <ele>34.2642</ele>
        <time>2013-05-09T11:28:51Z</time>
      </trkpt>
      <trkpt lat="60.0203637" lon="17.7383665">
        <ele>34.2642</ele>
        <time>2013-05-09T11:28:52Z</time>
      </trkpt>
      <trkpt lat="60.0204132" lon="17.7384877">
        <ele>34.2642</ele>
        <time>2013-05-09T11:28:53Z</time>
      </trkpt>
      <trkpt lat="60.0204643" lon="17.7386052">
        <ele>34.7449</ele>
        <time>2013-05-09T11:28:54Z</time>
      </trkpt>
      <trkpt lat="60.0205173" lon="17.7387178">
        <ele>34.7449</ele>
        <time>2013-05-09T11:28:55Z</time>
      </trkpt>
      <trkpt lat="60.020572" lon="17.7388265">
        <ele>34.7449</ele>
        <time>2013-05-09T11:28:56Z</time>
      </trkpt>
      <trkpt lat="60.0206285" lon="17.7389306">
        <ele>35.2255</ele>
        <time>2013-05-09T11:28:57Z</time>
      </trkpt>
      <trkpt lat="60.0206856" lon="17.739031">
        <ele>35.2255</ele>
        <time>2013-05-09T11:28:58Z</time>
      </trkpt>
      <trkpt lat="60.0207419" lon="17.7391286">
        <ele>35.2255</ele>
        <time>2013-05-09T11:28:59Z</time>
      </trkpt>
      <trkpt lat="60.0207995" lon="17.7392217">
        <ele>35.7061</ele>
        <time>2013-05-09T11:29:00Z</time>
      </trkpt>
      <trkpt lat="60.0208581" lon="17.7393088">
        <ele>35.7061</ele>
        <time>2013-05-09T11:29:01Z</time>
      </trkpt>
      <trkpt lat="60.0209178" lon="17.7393898">
        <ele>35.7061</ele>
        <time>2013-05-09T11:29:02Z</time>
      </trkpt>
      <trkpt lat="60.020977" lon="17.7394653">
        <ele>35.7061</ele>
        <time>2013-05-09T11:29:03Z</time>
      </trkpt>
      <trkpt lat="60.0210346" lon="17.7395365">
        <ele>36.1868</ele>
        <time>2013-05-09T11:29:04Z</time>
      </trkpt>
      <trkpt lat="60.0210901" lon="17.7396044">
        <ele>36.1868</ele>
        <time>2013-05-09T11:29:05Z</time>
      </trkpt>
      <trkpt lat="60.0211455" lon="17.739668">
        <ele>36.1868</ele>
        <time>2013-05-09T11:29:06Z</time>
      </trkpt>
      <trkpt lat="60.0212005" lon="17.7397237">
        <ele>36.1868</ele>
        <time>2013-05-09T11:29:07Z</time>
      </trkpt>
      <trkpt lat="60.0212554" lon="17.7397749">
        <ele>36.6675</ele>
        <time>2013-05-09T11:29:08Z</time>
      </trkpt>
      <trkpt lat="60.0213057" lon="17.7398328">
        <ele>36.6675</ele>
        <time>2013-05-09T11:29:09Z</time>
      </trkpt>
      <trkpt lat="60.0213538" lon="17.7398972">
        <ele>36.6675</ele>
        <time>2013-05-09T11:29:10Z</time>
      </trkpt>
      <trkpt lat="60.021402" lon="17.7399589">
        <ele>36.6675</ele>
        <time>2013-05-09T11:29:11Z</time>
      </trkpt>
      <trkpt lat="60.0214497" lon="17.7400166">
        <ele>36.6675</ele>
        <time>2013-05-09T11:29:12Z</time>
      </trkpt>
      <trkpt lat="60.0214964" lon="17.7400661">
        <ele>36.6675</ele>
        <time>2013-05-09T11:29:13Z</time>
      </trkpt>
      <trkpt lat="60.0215439" lon="17.7401029">
        <ele>36.6675</ele>
        <time>2013-05-09T11:29:14Z</time>
      </trkpt>
      <trkpt lat="60.0215898" lon="17.7401432">
        <ele>37.1481</ele>
        <time>2013-05-09T11:29:15Z</time>
      </trkpt>
      <trkpt lat="60.0216285" lon="17.7401938">
        <ele>36.6675</ele>
        <time>2013-05-09T11:29:16Z</time>
      </trkpt>
      <trkpt lat="60.0216661" lon="17.7402386">
        <ele>36.6675</ele>
        <time>2013-05-09T11:29:17Z</time>
      </trkpt>
      <trkpt lat="60.0217043" lon="17.7402808">
        <ele>36.6675</ele>
        <time>2013-05-09T11:29:18Z</time>
      </trkpt>
      <trkpt lat="60.0217465" lon="17.7403168">
        <ele>37.1481</ele>
        <time>2013-05-09T11:29:19Z</time>
      </trkpt>
      <trkpt lat="60.0217862" lon="17.7403556">
        <ele>37.1481</ele>
        <time>2013-05-09T11:29:20Z</time>
      </trkpt>
      <trkpt lat="60.0218242" lon="17.7403995">
        <ele>37.1481</ele>
        <time>2013-05-09T11:29:21Z</time>
      </trkpt>
      <trkpt lat="60.0218626" lon="17.740439">
        <ele>37.1481</ele>
        <time>2013-05-09T11:29:22Z</time>
      </trkpt>
      <trkpt lat="60.0219045" lon="17.7404782">
        <ele>37.1481</ele>
        <time>2013-05-09T11:29:23Z</time>
      </trkpt>
      <trkpt lat="60.0219455" lon="17.740522">
        <ele>37.1481</ele>
        <time>2013-05-09T11:29:24Z</time>
      </trkpt>
      <trkpt lat="60.0219856" lon="17.7405684">
        <ele>37.6287</ele>
        <time>2013-05-09T11:29:25Z</time>
      </trkpt>
      <trkpt lat="60.0220278" lon="17.7406208">
        <ele>37.6287</ele>
        <time>2013-05-09T11:29:26Z</time>
      </trkpt>
      <trkpt lat="60.0220723" lon="17.7406726">
        <ele>38.1094</ele>
        <time>2013-05-09T11:29:27Z</time>
      </trkpt>
      <trkpt lat="60.0221177" lon="17.740727">
        <ele>38.1094</ele>
        <time>2013-05-09T11:29:28Z</time>
      </trkpt>
      <trkpt lat="60.0221619" lon="17.7407851">
        <ele>38.1094</ele>
        <time>2013-05-09T11:29:29Z</time>
      </trkpt>
      <trkpt lat="60.0222091" lon="17.7408457">
        <ele>38.1094</ele>
        <time>2013-05-09T11:29:30Z</time>
      </trkpt>
      <trkpt lat="60.0222545" lon="17.7409083">
        <ele>38.5901</ele>
        <time>2013-05-09T11:29:31Z</time>
      </trkpt>
      <trkpt lat="60.0222956" lon="17.7409729">
        <ele>39.0707</ele>
        <time>2013-05-09T11:29:32Z</time>
      </trkpt>
      <trkpt lat="60.022334" lon="17.7410389">
        <ele>39.0707</ele>
        <time>2013-05-09T11:29:33Z</time>
      </trkpt>
      <trkpt lat="60.0223712" lon="17.7411046">
        <ele>39.0707</ele>
        <time>2013-05-09T11:29:34Z</time>
      </trkpt>
      <trkpt lat="60.0224106" lon="17.7411599">
        <ele>39.0707</ele>
        <time>2013-05-09T11:29:35Z</time>
      </trkpt>
      <trkpt lat="60.0224534" lon="17.7412001">
        <ele>39.0707</ele>
        <time>2013-05-09T11:29:36Z</time>
      </trkpt>
      <trkpt lat="60.0225007" lon="17.741211">
        <ele>39.0707</ele>
        <time>2013-05-09T11:29:37Z</time>
      </trkpt>
      <trkpt lat="60.0225539" lon="17.7411661">
        <ele>38.5901</ele>
        <time>2013-05-09T11:29:38Z</time>
      </trkpt>
      <trkpt lat="60.0225991" lon="17.7410869">
        <ele>38.1094</ele>
        <time>2013-05-09T11:29:39Z</time>
      </trkpt>
      <trkpt lat="60.02263" lon="17.7409846">
        <ele>38.1094</ele>
        <time>2013-05-09T11:29:40Z</time>
      </trkpt>
      <trkpt lat="60.0226478" lon="17.7408669">
        <ele>37.6287</ele>
        <time>2013-05-09T11:29:41Z</time>
      </trkpt>
      <trkpt lat="60.0226587" lon="17.7407446">
        <ele>37.6287</ele>
        <time>2013-05-09T11:29:42Z</time>
      </trkpt>
      <trkpt lat="60.0226643" lon="17.7406167">
        <ele>37.1481</ele>
        <time>2013-05-09T11:29:43Z</time>
      </trkpt>
      <trkpt lat="60.0226681" lon="17.7404816">
        <ele>37.1481</ele>
        <time>2013-05-09T11:29:44Z</time>
      </trkpt>
      <trkpt lat="60.0226754" lon="17.7403432">
        <ele>36.6675</ele>
        <time>2013-05-09T11:29:45Z</time>
      </trkpt>
      <trkpt lat="60.0226857" lon="17.7402029">
        <ele>36.1868</ele>
        <time>2013-05-09T11:29:46Z</time>
      </trkpt>
      <trkpt lat="60.0226971" lon="17.7400592">
        <ele>35.7061</ele>
        <time>2013-05-09T11:29:47Z</time>
      </trkpt>
      <trkpt lat="60.0227078" lon="17.7399116">
        <ele>35.2255</ele>
        <time>2013-05-09T11:29:48Z</time>
      </trkpt>
      <trkpt lat="60.0227177" lon="17.7397589">
        <ele>35.2255</ele>
        <time>2013-05-09T11:29:49Z</time>
      </trkpt>
      <trkpt lat="60.0227276" lon="17.7396041">
        <ele>34.7449</ele>
        <time>2013-05-09T11:29:50Z</time>
      </trkpt>
      <trkpt lat="60.022738" lon="17.7394486">
        <ele>34.7449</ele>
        <time>2013-05-09T11:29:51Z</time>
      </trkpt>
      <trkpt lat="60.0227493" lon="17.7392927">
        <ele>34.2642</ele>
        <time>2013-05-09T11:29:52Z</time>
      </trkpt>
      <trkpt lat="60.0227612" lon="17.7391361">
        <ele>33.7834</ele>
        <time>2013-05-09T11:29:53Z</time>
      </trkpt>
      <trkpt lat="60.0227732" lon="17.7389781">
        <ele>33.3029</ele>
        <time>2013-05-09T11:29:54Z</time>
      </trkpt>
      <trkpt lat="60.0227852" lon="17.738819">
        <ele>32.8223</ele>
        <time>2013-05-09T11:29:55Z</time>
      </trkpt>
      <trkpt lat="60.0227975" lon="17.7386587">
        <ele>32.3416</ele>
        <time>2013-05-09T11:29:56Z</time>
      </trkpt>
      <trkpt lat="60.02281" lon="17.7384979">
        <ele>31.8607</ele>
        <time>2013-05-09T11:29:57Z</time>
      </trkpt>
      <trkpt lat="60.022822" lon="17.7383357">
        <ele>31.3801</ele>
        <time>2013-05-09T11:29:58Z</time>
      </trkpt>
      <trkpt lat="60.0228342" lon="17.7381726">
        <ele>31.3801</ele>
        <time>2013-05-09T11:29:59Z</time>
      </trkpt>
      <trkpt lat="60.0228465" lon="17.7380084">
        <ele>30.8995</ele>
        <time>2013-05-09T11:30:00Z</time>
      </trkpt>
      <trkpt lat="60.0228587" lon="17.7378417">
        <ele>30.4188</ele>
        <time>2013-05-09T11:30:01Z</time>
      </trkpt>
      <trkpt lat="60.0228717" lon="17.7376726">
        <ele>29.9381</ele>
        <time>2013-05-09T11:30:02Z</time>
      </trkpt>
      <trkpt lat="60.0228847" lon="17.7375014">
        <ele>29.9381</ele>
        <time>2013-05-09T11:30:03Z</time>
      </trkpt>
      <trkpt lat="60.0228975" lon="17.7373297">
        <ele>29.4575</ele>
        <time>2013-05-09T11:30:04Z</time>
      </trkpt>
      <trkpt lat="60.0229099" lon="17.7371572">
        <ele>28.9769</ele>
        <time>2013-05-09T11:30:05Z</time>
      </trkpt>
      <trkpt lat="60.022923" lon="17.7369849">
        <ele>28.9769</ele>
        <time>2013-05-09T11:30:06Z</time>
      </trkpt>
      <trkpt lat="60.0229364" lon="17.7368138">
        <ele>28.4962</ele>
        <time>2013-05-09T11:30:07Z</time>
      </trkpt>
      <trkpt lat="60.0229487" lon="17.7366447">
        <ele>28.4962</ele>
        <time>2013-05-09T11:30:08Z</time>
      </trkpt>
      <trkpt lat="60.0229615" lon="17.7364779">
        <ele>28.0155</ele>
        <time>2013-05-09T11:30:09Z</time>
      </trkpt>
      <trkpt lat="60.0229745" lon="17.7363141">
        <ele>28.0155</ele>
        <time>2013-05-09T11:30:10Z</time>
      </trkpt>
      <trkpt lat="60.022987" lon="17.7361508">
        <ele>28.0155</ele>
        <time>2013-05-09T11:30:11Z</time>
      </trkpt>
      <trkpt lat="60.0230001" lon="17.7359893">
        <ele>28.0155</ele>
        <time>2013-05-09T11:30:12Z</time>
      </trkpt>
      <trkpt lat="60.0230156" lon="17.7358303">
        <ele>28.0155</ele>
        <time>2013-05-09T11:30:13Z</time>
      </trkpt>
      <trkpt lat="60.023032" lon="17.7356738">
        <ele>28.0155</ele>
        <time>2013-05-09T11:30:14Z</time>
      </trkpt>
      <trkpt lat="60.0230472" lon="17.7355179">
        <ele>28.0155</ele>
        <time>2013-05-09T11:30:15Z</time>
      </trkpt>
      <trkpt lat="60.0230607" lon="17.7353625">
        <ele>28.0155</ele>
        <time>2013-05-09T11:30:16Z</time>
      </trkpt>
      <trkpt lat="60.0230753" lon="17.7352097">
        <ele>28.4962</ele>
        <time>2013-05-09T11:30:17Z</time>
      </trkpt>
      <trkpt lat="60.0230924" lon="17.7350594">
        <ele>28.4962</ele>
        <time>2013-05-09T11:30:18Z</time>
      </trkpt>
      <trkpt lat="60.0231114" lon="17.7349118">
        <ele>28.4962</ele>
        <time>2013-05-09T11:30:19Z</time>
      </trkpt>
      <trkpt lat="60.0231311" lon="17.7347667">
        <ele>28.4962</ele>
        <time>2013-05-09T11:30:20Z</time>
      </trkpt>
      <trkpt lat="60.0231504" lon="17.7346232">
        <ele>28.4962</ele>
        <time>2013-05-09T11:30:21Z</time>
      </trkpt>
      <trkpt lat="60.0231695" lon="17.7344813">
        <ele>28.9769</ele>
        <time>2013-05-09T11:30:22Z</time>
      </trkpt>
      <trkpt lat="60.0231886" lon="17.734341">
        <ele>28.9769</ele>
        <time>2013-05-09T11:30:23Z</time>
      </trkpt>
      <trkpt lat="60.0232073" lon="17.734202">
        <ele>28.9769</ele>
        <time>2013-05-09T11:30:24Z</time>
      </trkpt>
      <trkpt lat="60.0232259" lon="17.7340634">
        <ele>28.9769</ele>
        <time>2013-05-09T11:30:25Z</time>
      </trkpt>
      <trkpt lat="60.0232446" lon="17.733926">
        <ele>29.4575</ele>
        <time>2013-05-09T11:30:26Z</time>
      </trkpt>
      <trkpt lat="60.0232632" lon="17.7337908">
        <ele>29.4575</ele>
        <time>2013-05-09T11:30:27Z</time>
      </trkpt>
      <trkpt lat="60.0232803" lon="17.7336573">
        <ele>29.4575</ele>
        <time>2013-05-09T11:30:28Z</time>
      </trkpt>
      <trkpt lat="60.023296" lon="17.7335246">
        <ele>29.4575</ele>
        <time>2013-05-09T11:30:29Z</time>
      </trkpt>
      <trkpt lat="60.0233146" lon="17.7333915">
        <ele>30.4188</ele>
        <time>2013-05-09T11:30:30Z</time>
      </trkpt>
      <trkpt lat="60.02333" lon="17.7332599">
        <ele>30.8995</ele>
        <time>2013-05-09T11:30:31Z</time>
      </trkpt>
      <trkpt lat="60.0233407" lon="17.7331284">
        <ele>31.3801</ele>
        <time>2013-05-09T11:30:32Z</time>
      </trkpt>
      <trkpt lat="60.0233471" lon="17.732996">
        <ele>31.3801</ele>
        <time>2013-05-09T11:30:33Z</time>
      </trkpt>
      <trkpt lat="60.0233498" lon="17.732864">
        <ele>31.8607</ele>
        <time>2013-05-09T11:30:34Z</time>
      </trkpt>
      <trkpt lat="60.023348" lon="17.7327324">
        <ele>31.8607</ele>
        <time>2013-05-09T11:30:35Z</time>
      </trkpt>
      <trkpt lat="60.0233416" lon="17.7326009">
        <ele>32.3416</ele>
        <time>2013-05-09T11:30:36Z</time>
      </trkpt>
      <trkpt lat="60.0233319" lon="17.73247">
        <ele>32.3416</ele>
        <time>2013-05-09T11:30:37Z</time>
      </trkpt>
      <trkpt lat="60.0233159" lon="17.7323425">
        <ele>32.8223</ele>
        <time>2013-05-09T11:30:38Z</time>
      </trkpt>
      <trkpt lat="60.0232918" lon="17.7322203">
        <ele>32.8223</ele>
        <time>2013-05-09T11:30:39Z</time>
      </trkpt>
      <trkpt lat="60.0232633" lon="17.7321004">
        <ele>32.8223</ele>
        <time>2013-05-09T11:30:40Z</time>
      </trkpt>
      <trkpt lat="60.023231" lon="17.7319813">
        <ele>32.8223</ele>
        <time>2013-05-09T11:30:41Z</time>
      </trkpt>
      <trkpt lat="60.0231938" lon="17.7318629">
        <ele>32.8223</ele>
        <time>2013-05-09T11:30:42Z</time>
      </trkpt>
      <trkpt lat="60.0231503" lon="17.7317495">
        <ele>32.3416</ele>
        <time>2013-05-09T11:30:43Z</time>
      </trkpt>
      <trkpt lat="60.0231021" lon="17.7316407">
        <ele>32.3416</ele>
        <time>2013-05-09T11:30:44Z</time>
      </trkpt>
      <trkpt lat="60.0230524" lon="17.7315318">
        <ele>31.8607</ele>
        <time>2013-05-09T11:30:45Z</time>
      </trkpt>
      <trkpt lat="60.0230015" lon="17.731422">
        <ele>31.8607</ele>
        <time>2013-05-09T11:30:46Z</time>
      </trkpt>
      <trkpt lat="60.0229488" lon="17.7313099">
        <ele>31.3801</ele>
        <time>2013-05-09T11:30:47Z</time>
      </trkpt>
      <trkpt lat="60.022895" lon="17.7311946">
        <ele>30.8995</ele>
        <time>2013-05-09T11:30:48Z</time>
      </trkpt>
      <trkpt lat="60.0228399" lon="17.7310766">
        <ele>30.8995</ele>
        <time>2013-05-09T11:30:49Z</time>
      </trkpt>
      <trkpt lat="60.0227828" lon="17.7309562">
        <ele>30.4188</ele>
        <time>2013-05-09T11:30:50Z</time>
      </trkpt>
      <trkpt lat="60.0227251" lon="17.7308297">
        <ele>29.9381</ele>
        <time>2013-05-09T11:30:51Z</time>
      </trkpt>
      <trkpt lat="60.0226679" lon="17.7306941">
        <ele>29.4575</ele>
        <time>2013-05-09T11:30:52Z</time>
      </trkpt>
      <trkpt lat="60.0226126" lon="17.7305483">
        <ele>28.9769</ele>
        <time>2013-05-09T11:30:53Z</time>
      </trkpt>
      <trkpt lat="60.0225613" lon="17.7303899">
        <ele>28.4962</ele>
        <time>2013-05-09T11:30:54Z</time>
      </trkpt>
      <trkpt lat="60.0225157" lon="17.7302192">
        <ele>28.0155</ele>
        <time>2013-05-09T11:30:55Z</time>
      </trkpt>
      <trkpt lat="60.0224753" lon="17.7300472">
        <ele>28.0155</ele>
        <time>2013-05-09T11:30:56Z</time>
      </trkpt>
      <trkpt lat="60.0224421" lon="17.7298639">
        <ele>27.5349</ele>
        <time>2013-05-09T11:30:57Z</time>
      </trkpt>
      <trkpt lat="60.0224215" lon="17.7296668">
        <ele>27.0543</ele>
        <time>2013-05-09T11:30:58Z</time>
      </trkpt>
      <trkpt lat="60.0224064" lon="17.7294743">
        <ele>27.0543</ele>
        <time>2013-05-09T11:30:59Z</time>
      </trkpt>
      <trkpt lat="60.0223956" lon="17.7292955">
        <ele>27.0543</ele>
        <time>2013-05-09T11:31:00Z</time>
      </trkpt>
      <trkpt lat="60.0223872" lon="17.7291244">
        <ele>27.0543</ele>
        <time>2013-05-09T11:31:01Z</time>
      </trkpt>
      <trkpt lat="60.0223846" lon="17.7289619">
        <ele>27.5349</ele>
        <time>2013-05-09T11:31:02Z</time>
      </trkpt>
      <trkpt lat="60.0223868" lon="17.7288127">
        <ele>28.4962</ele>
        <time>2013-05-09T11:31:03Z</time>
      </trkpt>
      <trkpt lat="60.0223913" lon="17.728674">
        <ele>29.4575</ele>
        <time>2013-05-09T11:31:04Z</time>
      </trkpt>
      <trkpt lat="60.0223982" lon="17.7285403">
        <ele>30.4188</ele>
        <time>2013-05-09T11:31:05Z</time>
      </trkpt>
      <trkpt lat="60.0224058" lon="17.7284082">
        <ele>31.3801</ele>
        <time>2013-05-09T11:31:06Z</time>
      </trkpt>
      <trkpt lat="60.0224161" lon="17.7282858">
        <ele>31.8607</ele>
        <time>2013-05-09T11:31:07Z</time>
      </trkpt>
      <trkpt lat="60.0224235" lon="17.7281933">
        <ele>33.3029</ele>
        <time>2013-05-09T11:31:08Z</time>
      </trkpt>
      <trkpt lat="60.0224318" lon="17.7280875">
        <ele>33.7834</ele>
        <time>2013-05-09T11:31:09Z</time>
      </trkpt>
      <trkpt lat="60.0224349" lon="17.7279745">
        <ele>34.7449</ele>
        <time>2013-05-09T11:31:10Z</time>
      </trkpt>
      <trkpt lat="60.0224266" lon="17.7278478">
        <ele>35.2255</ele>
        <time>2013-05-09T11:31:11Z</time>
      </trkpt>
      <trkpt lat="60.0224349" lon="17.7277156">
        <ele>35.7061</ele>
        <time>2013-05-09T11:31:12Z</time>
      </trkpt>
      <trkpt lat="60.0224469" lon="17.7275788">
        <ele>36.1868</ele>
        <time>2013-05-09T11:31:13Z</time>
      </trkpt>
      <trkpt lat="60.0224565" lon="17.7274471">
        <ele>35.7061</ele>
        <time>2013-05-09T11:31:14Z</time>
      </trkpt>
      <trkpt lat="60.0224598" lon="17.7273127">
        <ele>35.2255</ele>
        <time>2013-05-09T11:31:15Z</time>
      </trkpt>
      <trkpt lat="60.0224586" lon="17.7271728">
        <ele>35.2255</ele>
        <time>2013-05-09T11:31:16Z</time>
      </trkpt>
      <trkpt lat="60.0224552" lon="17.7270324">
        <ele>35.2255</ele>
        <time>2013-05-09T11:31:17Z</time>
      </trkpt>
      <trkpt lat="60.0224509" lon="17.7268914">
        <ele>35.2255</ele>
        <time>2013-05-09T11:31:18Z</time>
      </trkpt>
      <trkpt lat="60.0224469" lon="17.7267509">
        <ele>35.2255</ele>
        <time>2013-05-09T11:31:19Z</time>
      </trkpt>
      <trkpt lat="60.0224409" lon="17.7266105">
        <ele>35.2255</ele>
        <time>2013-05-09T11:31:20Z</time>
      </trkpt>
      <trkpt lat="60.0224334" lon="17.7264689">
        <ele>35.2255</ele>
        <time>2013-05-09T11:31:21Z</time>
      </trkpt>
      <trkpt lat="60.0224261" lon="17.7263274">
        <ele>35.2255</ele>
        <time>2013-05-09T11:31:22Z</time>
      </trkpt>
      <trkpt lat="60.0224181" lon="17.7261854">
        <ele>34.7449</ele>
        <time>2013-05-09T11:31:23Z</time>
      </trkpt>
      <trkpt lat="60.02241" lon="17.7260435">
        <ele>34.7449</ele>
        <time>2013-05-09T11:31:24Z</time>
      </trkpt>
      <trkpt lat="60.0224013" lon="17.7259012">
        <ele>34.7449</ele>
        <time>2013-05-09T11:31:25Z</time>
      </trkpt>
      <trkpt lat="60.0223925" lon="17.7257607">
        <ele>34.2642</ele>
        <time>2013-05-09T11:31:26Z</time>
      </trkpt>
      <trkpt lat="60.0223825" lon="17.7256214">
        <ele>34.2642</ele>
        <time>2013-05-09T11:31:27Z</time>
      </trkpt>
      <trkpt lat="60.0223707" lon="17.7254842">
        <ele>34.2642</ele>
        <time>2013-05-09T11:31:28Z</time>
      </trkpt>
      <trkpt lat="60.0223582" lon="17.7253499">
        <ele>34.2642</ele>
        <time>2013-05-09T11:31:29Z</time>
      </trkpt>
      <trkpt lat="60.0223457" lon="17.7252174">
        <ele>34.2642</ele>
        <time>2013-05-09T11:31:30Z</time>
      </trkpt>
      <trkpt lat="60.0223337" lon="17.7250855">
        <ele>34.2642</ele>
        <time>2013-05-09T11:31:31Z</time>
      </trkpt>
      <trkpt lat="60.0223214" lon="17.7249539">
        <ele>34.2642</ele>
        <time>2013-05-09T11:31:32Z</time>
      </trkpt>
      <trkpt lat="60.0223084" lon="17.7248241">
        <ele>34.7449</ele>
        <time>2013-05-09T11:31:33Z</time>
      </trkpt>
      <trkpt lat="60.0222945" lon="17.7246949">
        <ele>34.7449</ele>
        <time>2013-05-09T11:31:34Z</time>
      </trkpt>
      <trkpt lat="60.0222799" lon="17.7245651">
        <ele>34.7449</ele>
        <time>2013-05-09T11:31:35Z</time>
      </trkpt>
      <trkpt lat="60.0222655" lon="17.7244361">
        <ele>34.7449</ele>
        <time>2013-05-09T11:31:36Z</time>
      </trkpt>
      <trkpt lat="60.0222517" lon="17.7243077">
        <ele>34.7449</ele>
        <time>2013-05-09T11:31:37Z</time>
      </trkpt>
      <trkpt lat="60.0222386" lon="17.72418">
        <ele>35.2255</ele>
        <time>2013-05-09T11:31:38Z</time>
      </trkpt>
      <trkpt lat="60.0222257" lon="17.7240554">
        <ele>35.2255</ele>
        <time>2013-05-09T11:31:39Z</time>
      </trkpt>
      <trkpt lat="60.0222122" lon="17.7239305">
        <ele>35.2255</ele>
        <time>2013-05-09T11:31:40Z</time>
      </trkpt>
      <trkpt lat="60.0221985" lon="17.7238047">
        <ele>35.7061</ele>
        <time>2013-05-09T11:31:41Z</time>
      </trkpt>
      <trkpt lat="60.0221848" lon="17.7236814">
        <ele>35.7061</ele>
        <time>2013-05-09T11:31:42Z</time>
      </trkpt>
      <trkpt lat="60.0221718" lon="17.7235607">
        <ele>36.1868</ele>
        <time>2013-05-09T11:31:43Z</time>
      </trkpt>
      <trkpt lat="60.0221605" lon="17.7234416">
        <ele>36.1868</ele>
        <time>2013-05-09T11:31:44Z</time>
      </trkpt>
      <trkpt lat="60.0221496" lon="17.723326">
        <ele>36.6675</ele>
        <time>2013-05-09T11:31:45Z</time>
      </trkpt>
      <trkpt lat="60.0221386" lon="17.7232156">
        <ele>36.6675</ele>
        <time>2013-05-09T11:31:46Z</time>
      </trkpt>
      <trkpt lat="60.0221272" lon="17.7231104">
        <ele>37.1481</ele>
        <time>2013-05-09T11:31:47Z</time>
      </trkpt>
      <trkpt lat="60.0221162" lon="17.7230088">
        <ele>37.1481</ele>
        <time>2013-05-09T11:31:48Z</time>
      </trkpt>
      <trkpt lat="60.0221059" lon="17.7229095">
        <ele>37.1481</ele>
        <time>2013-05-09T11:31:49Z</time>
      </trkpt>
      <trkpt lat="60.0220957" lon="17.7228126">
        <ele>37.1481</ele>
        <time>2013-05-09T11:31:50Z</time>
      </trkpt>
      <trkpt lat="60.0220853" lon="17.7227177">
        <ele>37.6287</ele>
        <time>2013-05-09T11:31:51Z</time>
      </trkpt>
      <trkpt lat="60.0220743" lon="17.7226243">
        <ele>37.6287</ele>
        <time>2013-05-09T11:31:52Z</time>
      </trkpt>
      <trkpt lat="60.0220621" lon="17.7225314">
        <ele>38.1094</ele>
        <time>2013-05-09T11:31:53Z</time>
      </trkpt>
      <trkpt lat="60.0220486" lon="17.7224383">
        <ele>38.1094</ele>
        <time>2013-05-09T11:31:54Z</time>
      </trkpt>
      <trkpt lat="60.022033" lon="17.7223442">
        <ele>38.1094</ele>
        <time>2013-05-09T11:31:55Z</time>
      </trkpt>
      <trkpt lat="60.0220126" lon="17.7222502">
        <ele>38.5901</ele>
        <time>2013-05-09T11:31:56Z</time>
      </trkpt>
      <trkpt lat="60.0219864" lon="17.7221595">
        <ele>38.5901</ele>
        <time>2013-05-09T11:31:57Z</time>
      </trkpt>
      <trkpt lat="60.0219557" lon="17.7220719">
        <ele>38.5901</ele>
        <time>2013-05-09T11:31:58Z</time>
      </trkpt>
      <trkpt lat="60.0219201" lon="17.7219891">
        <ele>38.5901</ele>
        <time>2013-05-09T11:31:59Z</time>
      </trkpt>
      <trkpt lat="60.0218805" lon="17.7219123">
        <ele>38.5901</ele>
        <time>2013-05-09T11:32:00Z</time>
      </trkpt>
      <trkpt lat="60.0218378" lon="17.7218418">
        <ele>38.5901</ele>
        <time>2013-05-09T11:32:01Z</time>
      </trkpt>
      <trkpt lat="60.0217931" lon="17.7217786">
        <ele>38.5901</ele>
        <time>2013-05-09T11:32:02Z</time>
      </trkpt>
      <trkpt lat="60.0217453" lon="17.7217232">
        <ele>38.5901</ele>
        <time>2013-05-09T11:32:03Z</time>
      </trkpt>
      <trkpt lat="60.0216948" lon="17.7216784">
        <ele>38.5901</ele>
        <time>2013-05-09T11:32:04Z</time>
      </trkpt>
      <trkpt lat="60.0216417" lon="17.7216441">
        <ele>38.5901</ele>
        <time>2013-05-09T11:32:05Z</time>
      </trkpt>
      <trkpt lat="60.0215867" lon="17.7216161">
        <ele>38.1094</ele>
        <time>2013-05-09T11:32:06Z</time>
      </trkpt>
      <trkpt lat="60.0215309" lon="17.7215915">
        <ele>38.1094</ele>
        <time>2013-05-09T11:32:07Z</time>
      </trkpt>
      <trkpt lat="60.0214745" lon="17.7215699">
        <ele>38.1094</ele>
        <time>2013-05-09T11:32:08Z</time>
      </trkpt>
      <trkpt lat="60.0214176" lon="17.7215538">
        <ele>38.1094</ele>
        <time>2013-05-09T11:32:09Z</time>
      </trkpt>
      <trkpt lat="60.0213604" lon="17.7215418">
        <ele>38.1094</ele>
        <time>2013-05-09T11:32:10Z</time>
      </trkpt>
      <trkpt lat="60.0213031" lon="17.7215311">
        <ele>38.1094</ele>
        <time>2013-05-09T11:32:11Z</time>
      </trkpt>
      <trkpt lat="60.0212459" lon="17.7215192">
        <ele>38.1094</ele>
        <time>2013-05-09T11:32:12Z</time>
      </trkpt>
      <trkpt lat="60.0211885" lon="17.7215058">
        <ele>38.1094</ele>
        <time>2013-05-09T11:32:13Z</time>
      </trkpt>
      <trkpt lat="60.0211307" lon="17.7214932">
        <ele>38.1094</ele>
        <time>2013-05-09T11:32:14Z</time>
      </trkpt>
      <trkpt lat="60.0210731" lon="17.7214795">
        <ele>38.1094</ele>
        <time>2013-05-09T11:32:15Z</time>
      </trkpt>
      <trkpt lat="60.0210152" lon="17.7214659">
        <ele>38.1094</ele>
        <time>2013-05-09T11:32:16Z</time>
      </trkpt>
      <trkpt lat="60.0209579" lon="17.7214536">
        <ele>38.1094</ele>
        <time>2013-05-09T11:32:17Z</time>
      </trkpt>
      <trkpt lat="60.0209007" lon="17.721442">
        <ele>38.1094</ele>
        <time>2013-05-09T11:32:18Z</time>
      </trkpt>
      <trkpt lat="60.0208442" lon="17.7214289">
        <ele>38.1094</ele>
        <time>2013-05-09T11:32:19Z</time>
      </trkpt>
      <trkpt lat="60.0207885" lon="17.7214135">
        <ele>38.1094</ele>
        <time>2013-05-09T11:32:20Z</time>
      </trkpt>
      <trkpt lat="60.0207337" lon="17.7213963">
        <ele>38.1094</ele>
        <time>2013-05-09T11:32:21Z</time>
      </trkpt>
      <trkpt lat="60.0206788" lon="17.72138">
        <ele>38.1094</ele>
        <time>2013-05-09T11:32:22Z</time>
      </trkpt>
      <trkpt lat="60.020623" lon="17.7213669">
        <ele>38.1094</ele>
        <time>2013-05-09T11:32:23Z</time>
      </trkpt>
      <trkpt lat="60.0205663" lon="17.7213553">
        <ele>38.1094</ele>
        <time>2013-05-09T11:32:24Z</time>
      </trkpt>
      <trkpt lat="60.0205083" lon="17.7213425">
        <ele>38.1094</ele>
        <time>2013-05-09T11:32:25Z</time>
      </trkpt>
      <trkpt lat="60.0204492" lon="17.7213279">
        <ele>38.1094</ele>
        <time>2013-05-09T11:32:26Z</time>
      </trkpt>
      <trkpt lat="60.0203893" lon="17.721314">
        <ele>38.1094</ele>
        <time>2013-05-09T11:32:27Z</time>
      </trkpt>
      <trkpt lat="60.0203281" lon="17.7213005">
        <ele>38.1094</ele>
        <time>2013-05-09T11:32:28Z</time>
      </trkpt>
      <trkpt lat="60.0202655" lon="17.7212856">
        <ele>37.6287</ele>
        <time>2013-05-09T11:32:29Z</time>
      </trkpt>
      <trkpt lat="60.0202018" lon="17.7212697">
        <ele>37.6287</ele>
        <time>2013-05-09T11:32:30Z</time>
      </trkpt>
      <trkpt lat="60.0201364" lon="17.7212552">
        <ele>37.6287</ele>
        <time>2013-05-09T11:32:31Z</time>
      </trkpt>
      <trkpt lat="60.0200692" lon="17.7212405">
        <ele>37.1481</ele>
        <time>2013-05-09T11:32:32Z</time>
      </trkpt>
      <trkpt lat="60.0200008" lon="17.7212249">
        <ele>37.1481</ele>
        <time>2013-05-09T11:32:33Z</time>
      </trkpt>
      <trkpt lat="60.0199307" lon="17.7212084">
        <ele>37.1481</ele>
        <time>2013-05-09T11:32:34Z</time>
      </trkpt>
      <trkpt lat="60.0198594" lon="17.721192">
        <ele>36.6675</ele>
        <time>2013-05-09T11:32:35Z</time>
      </trkpt>
      <trkpt lat="60.0197874" lon="17.7211768">
        <ele>36.6675</ele>
        <time>2013-05-09T11:32:36Z</time>
      </trkpt>
      <trkpt lat="60.019715" lon="17.7211602">
        <ele>36.6675</ele>
        <time>2013-05-09T11:32:37Z</time>
      </trkpt>
      <trkpt lat="60.019643" lon="17.7211404">
        <ele>36.1868</ele>
        <time>2013-05-09T11:32:38Z</time>
      </trkpt>
      <trkpt lat="60.0195713" lon="17.7211178">
        <ele>36.1868</ele>
        <time>2013-05-09T11:32:39Z</time>
      </trkpt>
      <trkpt lat="60.0194993" lon="17.7210955">
        <ele>36.1868</ele>
        <time>2013-05-09T11:32:40Z</time>
      </trkpt>
      <trkpt lat="60.0194272" lon="17.7210764">
        <ele>36.1868</ele>
        <time>2013-05-09T11:32:41Z</time>
      </trkpt>
      <trkpt lat="60.0193554" lon="17.7210592">
        <ele>36.1868</ele>
        <time>2013-05-09T11:32:42Z</time>
      </trkpt>
      <trkpt lat="60.0192839" lon="17.7210405">
        <ele>35.7061</ele>
        <time>2013-05-09T11:32:43Z</time>
      </trkpt>
      <trkpt lat="60.0192125" lon="17.7210205">
        <ele>35.7061</ele>
        <time>2013-05-09T11:32:44Z</time>
      </trkpt>
      <trkpt lat="60.0191417" lon="17.7210021">
        <ele>35.7061</ele>
        <time>2013-05-09T11:32:45Z</time>
      </trkpt>
      <trkpt lat="60.019071" lon="17.7209842">
        <ele>35.7061</ele>
        <time>2013-05-09T11:32:46Z</time>
      </trkpt>
      <trkpt lat="60.0190008" lon="17.720966">
        <ele>35.7061</ele>
        <time>2013-05-09T11:32:47Z</time>
      </trkpt>
      <trkpt lat="60.0189314" lon="17.7209473">
        <ele>35.7061</ele>
        <time>2013-05-09T11:32:48Z</time>
      </trkpt>
      <trkpt lat="60.0188627" lon="17.7209283">
        <ele>35.2255</ele>
        <time>2013-05-09T11:32:49Z</time>
      </trkpt>
      <trkpt lat="60.0187949" lon="17.7209111">
        <ele>35.2255</ele>
        <time>2013-05-09T11:32:50Z</time>
      </trkpt>
      <trkpt lat="60.0187278" lon="17.7208944">
        <ele>35.2255</ele>
        <time>2013-05-09T11:32:51Z</time>
      </trkpt>
      <trkpt lat="60.0186598" lon="17.7208764">
        <ele>35.2255</ele>
        <time>2013-05-09T11:32:52Z</time>
      </trkpt>
      <trkpt lat="60.0185907" lon="17.7208577">
        <ele>35.2255</ele>
        <time>2013-05-09T11:32:53Z</time>
      </trkpt>
      <trkpt lat="60.0185208" lon="17.720838">
        <ele>34.7449</ele>
        <time>2013-05-09T11:32:54Z</time>
      </trkpt>
      <trkpt lat="60.01845" lon="17.7208184">
        <ele>34.7449</ele>
        <time>2013-05-09T11:32:55Z</time>
      </trkpt>
      <trkpt lat="60.0183789" lon="17.7208031">
        <ele>34.7449</ele>
        <time>2013-05-09T11:32:56Z</time>
      </trkpt>
      <trkpt lat="60.0183082" lon="17.7207868">
        <ele>34.7449</ele>
        <time>2013-05-09T11:32:57Z</time>
      </trkpt>
      <trkpt lat="60.0182384" lon="17.7207655">
        <ele>34.7449</ele>
        <time>2013-05-09T11:32:58Z</time>
      </trkpt>
      <trkpt lat="60.0181701" lon="17.7207446">
        <ele>34.7449</ele>
        <time>2013-05-09T11:32:59Z</time>
      </trkpt>
      <trkpt lat="60.0181033" lon="17.7207251">
        <ele>34.7449</ele>
        <time>2013-05-09T11:33:00Z</time>
      </trkpt>
      <trkpt lat="60.0180375" lon="17.7207049">
        <ele>34.7449</ele>
        <time>2013-05-09T11:33:01Z</time>
      </trkpt>
      <trkpt lat="60.0179723" lon="17.7206866">
        <ele>34.7449</ele>
        <time>2013-05-09T11:33:02Z</time>
      </trkpt>
      <trkpt lat="60.0179081" lon="17.7206728">
        <ele>35.2255</ele>
        <time>2013-05-09T11:33:03Z</time>
      </trkpt>
      <trkpt lat="60.0178454" lon="17.7206609">
        <ele>35.2255</ele>
        <time>2013-05-09T11:33:04Z</time>
      </trkpt>
      <trkpt lat="60.0177837" lon="17.7206479">
        <ele>35.2255</ele>
        <time>2013-05-09T11:33:05Z</time>
      </trkpt>
      <trkpt lat="60.0177231" lon="17.7206354">
        <ele>35.2255</ele>
        <time>2013-05-09T11:33:06Z</time>
      </trkpt>
      <trkpt lat="60.017663" lon="17.7206245">
        <ele>35.7061</ele>
        <time>2013-05-09T11:33:07Z</time>
      </trkpt>
      <trkpt lat="60.0176034" lon="17.7206143">
        <ele>35.7061</ele>
        <time>2013-05-09T11:33:08Z</time>
      </trkpt>
      <trkpt lat="60.0175442" lon="17.720606">
        <ele>35.7061</ele>
        <time>2013-05-09T11:33:09Z</time>
      </trkpt>
      <trkpt lat="60.0174853" lon="17.7205999">
        <ele>35.7061</ele>
        <time>2013-05-09T11:33:10Z</time>
      </trkpt>
      <trkpt lat="60.0174268" lon="17.7205951">
        <ele>35.7061</ele>
        <time>2013-05-09T11:33:11Z</time>
      </trkpt>
      <trkpt lat="60.0173688" lon="17.7205895">
        <ele>35.7061</ele>
        <time>2013-05-09T11:33:12Z</time>
      </trkpt>
      <trkpt lat="60.0173113" lon="17.7205845">
        <ele>35.7061</ele>
        <time>2013-05-09T11:33:13Z</time>
      </trkpt>
      <trkpt lat="60.0172552" lon="17.7205833">
        <ele>36.1868</ele>
        <time>2013-05-09T11:33:14Z</time>
      </trkpt>
      <trkpt lat="60.0172003" lon="17.7205847">
        <ele>36.6675</ele>
        <time>2013-05-09T11:33:15Z</time>
      </trkpt>
      <trkpt lat="60.0171464" lon="17.7205885">
        <ele>36.6675</ele>
        <time>2013-05-09T11:33:16Z</time>
      </trkpt>
      <trkpt lat="60.0170949" lon="17.720596">
        <ele>36.6675</ele>
        <time>2013-05-09T11:33:17Z</time>
      </trkpt>
      <trkpt lat="60.0170457" lon="17.7206018">
        <ele>36.6675</ele>
        <time>2013-05-09T11:33:18Z</time>
      </trkpt>
      <trkpt lat="60.0169977" lon="17.7206001">
        <ele>36.6675</ele>
        <time>2013-05-09T11:33:19Z</time>
      </trkpt>
      <trkpt lat="60.0169509" lon="17.7205812">
        <ele>36.6675</ele>
        <time>2013-05-09T11:33:20Z</time>
      </trkpt>
      <trkpt lat="60.0169083" lon="17.720538">
        <ele>36.6675</ele>
        <time>2013-05-09T11:33:21Z</time>
      </trkpt>
      <trkpt lat="60.0168749" lon="17.720466">
        <ele>36.6675</ele>
        <time>2013-05-09T11:33:22Z</time>
      </trkpt>
      <trkpt lat="60.0168554" lon="17.7203704">
        <ele>36.6675</ele>
        <time>2013-05-09T11:33:23Z</time>
      </trkpt>
      <trkpt lat="60.0168506" lon="17.7202663">
        <ele>36.6675</ele>
        <time>2013-05-09T11:33:24Z</time>
      </trkpt>
      <trkpt lat="60.0168565" lon="17.7201589">
        <ele>36.1868</ele>
        <time>2013-05-09T11:33:25Z</time>
      </trkpt>
      <trkpt lat="60.0168647" lon="17.720046">
        <ele>36.1868</ele>
        <time>2013-05-09T11:33:26Z</time>
      </trkpt>
      <trkpt lat="60.0168711" lon="17.7199253">
        <ele>35.7061</ele>
        <time>2013-05-09T11:33:27Z</time>
      </trkpt>
      <trkpt lat="60.0168772" lon="17.7197982">
        <ele>35.2255</ele>
        <time>2013-05-09T11:33:28Z</time>
      </trkpt>
      <trkpt lat="60.0168824" lon="17.7196649">
        <ele>34.7449</ele>
        <time>2013-05-09T11:33:29Z</time>
      </trkpt>
      <trkpt lat="60.0168881" lon="17.7195257">
        <ele>34.2642</ele>
        <time>2013-05-09T11:33:30Z</time>
      </trkpt>
      <trkpt lat="60.0168956" lon="17.7193804">
        <ele>33.7834</ele>
        <time>2013-05-09T11:33:31Z</time>
      </trkpt>
      <trkpt lat="60.0169032" lon="17.7192302">
        <ele>33.3029</ele>
        <time>2013-05-09T11:33:32Z</time>
      </trkpt>
      <trkpt lat="60.0169109" lon="17.7190759">
        <ele>32.8223</ele>
        <time>2013-05-09T11:33:33Z</time>
      </trkpt>
      <trkpt lat="60.0169186" lon="17.7189186">
        <ele>32.3416</ele>
        <time>2013-05-09T11:33:34Z</time>
      </trkpt>
      <trkpt lat="60.0169263" lon="17.7187592">
        <ele>31.3801</ele>
        <time>2013-05-09T11:33:35Z</time>
      </trkpt>
      <trkpt lat="60.0169342" lon="17.7185983">
        <ele>30.8995</ele>
        <time>2013-05-09T11:33:36Z</time>
      </trkpt>
      <trkpt lat="60.0169415" lon="17.7184364">
        <ele>30.4188</ele>
        <time>2013-05-09T11:33:37Z</time>
      </trkpt>
      <trkpt lat="60.0169492" lon="17.718273">
        <ele>29.9381</ele>
        <time>2013-05-09T11:33:38Z</time>
      </trkpt>
      <trkpt lat="60.0169575" lon="17.7181076">
        <ele>29.4575</ele>
        <time>2013-05-09T11:33:39Z</time>
      </trkpt>
      <trkpt lat="60.0169684" lon="17.7179388">
        <ele>28.9769</ele>
        <time>2013-05-09T11:33:40Z</time>
      </trkpt>
      <trkpt lat="60.0169839" lon="17.7177672">
        <ele>28.4962</ele>
        <time>2013-05-09T11:33:41Z</time>
      </trkpt>
      <trkpt lat="60.0170035" lon="17.7175928">
        <ele>27.5349</ele>
        <time>2013-05-09T11:33:42Z</time>
      </trkpt>
      <trkpt lat="60.017026" lon="17.7174167">
        <ele>27.0543</ele>
        <time>2013-05-09T11:33:43Z</time>
      </trkpt>
      <trkpt lat="60.0170514" lon="17.7172399">
        <ele>27.0543</ele>
        <time>2013-05-09T11:33:44Z</time>
      </trkpt>
      <trkpt lat="60.0170803" lon="17.7170623">
        <ele>26.5736</ele>
        <time>2013-05-09T11:33:45Z</time>
      </trkpt>
      <trkpt lat="60.0171112" lon="17.7168854">
        <ele>26.5736</ele>
        <time>2013-05-09T11:33:46Z</time>
      </trkpt>
      <trkpt lat="60.0171443" lon="17.7167088">
        <ele>26.0929</ele>
        <time>2013-05-09T11:33:47Z</time>
      </trkpt>
      <trkpt lat="60.0171792" lon="17.7165334">
        <ele>26.5736</ele>
        <time>2013-05-09T11:33:48Z</time>
      </trkpt>
      <trkpt lat="60.0172152" lon="17.7163624">
        <ele>26.0929</ele>
        <time>2013-05-09T11:33:49Z</time>
      </trkpt>
      <trkpt lat="60.0172529" lon="17.7161966">
        <ele>26.0929</ele>
        <time>2013-05-09T11:33:50Z</time>
      </trkpt>
      <trkpt lat="60.0172915" lon="17.7160361">
        <ele>25.6123</ele>
        <time>2013-05-09T11:33:51Z</time>
      </trkpt>
      <trkpt lat="60.0173298" lon="17.715881">
        <ele>25.6123</ele>
        <time>2013-05-09T11:33:52Z</time>
      </trkpt>
      <trkpt lat="60.017366" lon="17.7157295">
        <ele>25.6123</ele>
        <time>2013-05-09T11:33:53Z</time>
      </trkpt>
      <trkpt lat="60.0174009" lon="17.7155812">
        <ele>25.6123</ele>
        <time>2013-05-09T11:33:54Z</time>
      </trkpt>
      <trkpt lat="60.0174356" lon="17.7154368">
        <ele>25.6123</ele>
        <time>2013-05-09T11:33:55Z</time>
      </trkpt>
      <trkpt lat="60.0174694" lon="17.7152969">
        <ele>25.6123</ele>
        <time>2013-05-09T11:33:56Z</time>
      </trkpt>
      <trkpt lat="60.0175018" lon="17.715161">
        <ele>26.0929</ele>
        <time>2013-05-09T11:33:57Z</time>
      </trkpt>
      <trkpt lat="60.0175318" lon="17.7150278">
        <ele>26.0929</ele>
        <time>2013-05-09T11:33:58Z</time>
      </trkpt>
      <trkpt lat="60.017559" lon="17.7148957">
        <ele>26.5736</ele>
        <time>2013-05-09T11:33:59Z</time>
      </trkpt>
      <trkpt lat="60.0175836" lon="17.7147648">
        <ele>26.5736</ele>
        <time>2013-05-09T11:34:00Z</time>
      </trkpt>
      <trkpt lat="60.0176053" lon="17.7146359">
        <ele>27.0543</ele>
        <time>2013-05-09T11:34:01Z</time>
      </trkpt>
      <trkpt lat="60.0176247" lon="17.7145103">
        <ele>27.0543</ele>
        <time>2013-05-09T11:34:02Z</time>
      </trkpt>
      <trkpt lat="60.0176428" lon="17.7143874">
        <ele>27.5349</ele>
        <time>2013-05-09T11:34:03Z</time>
      </trkpt>
      <trkpt lat="60.0176597" lon="17.7142661">
        <ele>27.5349</ele>
        <time>2013-05-09T11:34:04Z</time>
      </trkpt>
      <trkpt lat="60.0176754" lon="17.7141457">
        <ele>27.5349</ele>
        <time>2013-05-09T11:34:05Z</time>
      </trkpt>
      <trkpt lat="60.0176889" lon="17.7140258">
        <ele>28.0155</ele>
        <time>2013-05-09T11:34:06Z</time>
      </trkpt>
      <trkpt lat="60.0177003" lon="17.7139082">
        <ele>28.0155</ele>
        <time>2013-05-09T11:34:07Z</time>
      </trkpt>
      <trkpt lat="60.0177103" lon="17.7137934">
        <ele>28.4962</ele>
        <time>2013-05-09T11:34:08Z</time>
      </trkpt>
      <trkpt lat="60.0177201" lon="17.7136758">
        <ele>28.4962</ele>
        <time>2013-05-09T11:34:09Z</time>
      </trkpt>
      <trkpt lat="60.0177294" lon="17.7135539">
        <ele>28.9769</ele>
        <time>2013-05-09T11:34:10Z</time>
      </trkpt>
      <trkpt lat="60.0177366" lon="17.7134273">
        <ele>28.4962</ele>
        <time>2013-05-09T11:34:11Z</time>
      </trkpt>
      <trkpt lat="60.0177449" lon="17.7132995">
        <ele>28.9769</ele>
        <time>2013-05-09T11:34:12Z</time>
      </trkpt>
      <trkpt lat="60.0177547" lon="17.7131705">
        <ele>28.9769</ele>
        <time>2013-05-09T11:34:13Z</time>
      </trkpt>
      <trkpt lat="60.0177629" lon="17.7130372">
        <ele>28.9769</ele>
        <time>2013-05-09T11:34:14Z</time>
      </trkpt>
      <trkpt lat="60.0177716" lon="17.7129064">
        <ele>29.4575</ele>
        <time>2013-05-09T11:34:15Z</time>
      </trkpt>
      <trkpt lat="60.0177796" lon="17.7127748">
        <ele>29.9381</ele>
        <time>2013-05-09T11:34:16Z</time>
      </trkpt>
      <trkpt lat="60.0177888" lon="17.7126422">
        <ele>30.4188</ele>
        <time>2013-05-09T11:34:17Z</time>
      </trkpt>
      <trkpt lat="60.0177985" lon="17.7125099">
        <ele>30.4188</ele>
        <time>2013-05-09T11:34:18Z</time>
      </trkpt>
      <trkpt lat="60.0178074" lon="17.7123769">
        <ele>30.8995</ele>
        <time>2013-05-09T11:34:19Z</time>
      </trkpt>
      <trkpt lat="60.0178156" lon="17.7122435">
        <ele>30.8995</ele>
        <time>2013-05-09T11:34:20Z</time>
      </trkpt>
      <trkpt lat="60.0178235" lon="17.7121101">
        <ele>31.3801</ele>
        <time>2013-05-09T11:34:21Z</time>
      </trkpt>
      <trkpt lat="60.0178312" lon="17.711978">
        <ele>31.3801</ele>
        <time>2013-05-09T11:34:22Z</time>
      </trkpt>
      <trkpt lat="60.017839" lon="17.7118468">
        <ele>31.3801</ele>
        <time>2013-05-09T11:34:23Z</time>
      </trkpt>
      <trkpt lat="60.0178479" lon="17.7117141">
        <ele>31.8607</ele>
        <time>2013-05-09T11:34:24Z</time>
      </trkpt>
      <trkpt lat="60.0178552" lon="17.7115812">
        <ele>31.3801</ele>
        <time>2013-05-09T11:34:25Z</time>
      </trkpt>
      <trkpt lat="60.0178626" lon="17.7114544">
        <ele>31.3801</ele>
        <time>2013-05-09T11:34:26Z</time>
      </trkpt>
      <trkpt lat="60.0178712" lon="17.7113311">
        <ele>31.8607</ele>
        <time>2013-05-09T11:34:27Z</time>
      </trkpt>
      <trkpt lat="60.0178795" lon="17.7112097">
        <ele>31.8607</ele>
        <time>2013-05-09T11:34:28Z</time>
      </trkpt>
      <trkpt lat="60.0178882" lon="17.7110901">
        <ele>31.8607</ele>
        <time>2013-05-09T11:34:29Z</time>
      </trkpt>
      <trkpt lat="60.017897" lon="17.7109721">
        <ele>32.3416</ele>
        <time>2013-05-09T11:34:30Z</time>
      </trkpt>
      <trkpt lat="60.0179043" lon="17.7108555">
        <ele>32.3416</ele>
        <time>2013-05-09T11:34:31Z</time>
      </trkpt>
      <trkpt lat="60.0179111" lon="17.7107399">
        <ele>32.3416</ele>
        <time>2013-05-09T11:34:32Z</time>
      </trkpt>
      <trkpt lat="60.0179185" lon="17.7106249">
        <ele>32.8223</ele>
        <time>2013-05-09T11:34:33Z</time>
      </trkpt>
      <trkpt lat="60.0179271" lon="17.7105104">
        <ele>32.8223</ele>
        <time>2013-05-09T11:34:34Z</time>
      </trkpt>
      <trkpt lat="60.0179343" lon="17.7103965">
        <ele>32.8223</ele>
        <time>2013-05-09T11:34:35Z</time>
      </trkpt>
      <trkpt lat="60.0179412" lon="17.710283">
        <ele>32.8223</ele>
        <time>2013-05-09T11:34:36Z</time>
      </trkpt>
      <trkpt lat="60.017949" lon="17.7101701">
        <ele>32.8223</ele>
        <time>2013-05-09T11:34:37Z</time>
      </trkpt>
      <trkpt lat="60.0179572" lon="17.7100576">
        <ele>33.3029</ele>
        <time>2013-05-09T11:34:38Z</time>
      </trkpt>
      <trkpt lat="60.017965" lon="17.7099446">
        <ele>33.3029</ele>
        <time>2013-05-09T11:34:39Z</time>
      </trkpt>
      <trkpt lat="60.0179727" lon="17.7098318">
        <ele>33.3029</ele>
        <time>2013-05-09T11:34:40Z</time>
      </trkpt>
      <trkpt lat="60.0179806" lon="17.709719">
        <ele>33.3029</ele>
        <time>2013-05-09T11:34:41Z</time>
      </trkpt>
      <trkpt lat="60.0179883" lon="17.709606">
        <ele>33.3029</ele>
        <time>2013-05-09T11:34:42Z</time>
      </trkpt>
      <trkpt lat="60.0179969" lon="17.7094925">
        <ele>33.3029</ele>
        <time>2013-05-09T11:34:43Z</time>
      </trkpt>
      <trkpt lat="60.0180052" lon="17.7093771">
        <ele>33.3029</ele>
        <time>2013-05-09T11:34:44Z</time>
      </trkpt>
      <trkpt lat="60.0180127" lon="17.7092595">
        <ele>33.7834</ele>
        <time>2013-05-09T11:34:45Z</time>
      </trkpt>
      <trkpt lat="60.0180211" lon="17.7091401">
        <ele>33.7834</ele>
        <time>2013-05-09T11:34:46Z</time>
      </trkpt>
      <trkpt lat="60.0180292" lon="17.7090205">
        <ele>33.7834</ele>
        <time>2013-05-09T11:34:47Z</time>
      </trkpt>
      <trkpt lat="60.0180363" lon="17.7089011">
        <ele>33.7834</ele>
        <time>2013-05-09T11:34:48Z</time>
      </trkpt>
      <trkpt lat="60.0180438" lon="17.7087815">
        <ele>33.7834</ele>
        <time>2013-05-09T11:34:49Z</time>
      </trkpt>
      <trkpt lat="60.0180525" lon="17.7086608">
        <ele>33.7834</ele>
        <time>2013-05-09T11:34:50Z</time>
      </trkpt>
      <trkpt lat="60.0180608" lon="17.7085388">
        <ele>33.7834</ele>
        <time>2013-05-09T11:34:51Z</time>
      </trkpt>
      <trkpt lat="60.0180686" lon="17.7084156">
        <ele>34.2642</ele>
        <time>2013-05-09T11:34:52Z</time>
      </trkpt>
      <trkpt lat="60.0180765" lon="17.7082925">
        <ele>34.2642</ele>
        <time>2013-05-09T11:34:53Z</time>
      </trkpt>
      <trkpt lat="60.0180845" lon="17.7081696">
        <ele>34.2642</ele>
        <time>2013-05-09T11:34:54Z</time>
      </trkpt>
      <trkpt lat="60.0180908" lon="17.7080456">
        <ele>33.7834</ele>
        <time>2013-05-09T11:34:55Z</time>
      </trkpt>
      <trkpt lat="60.0180971" lon="17.7079215">
        <ele>33.7834</ele>
        <time>2013-05-09T11:34:56Z</time>
      </trkpt>
      <trkpt lat="60.0181032" lon="17.7077981">
        <ele>33.3029</ele>
        <time>2013-05-09T11:34:57Z</time>
      </trkpt>
      <trkpt lat="60.0181106" lon="17.7076754">
        <ele>33.3029</ele>
        <time>2013-05-09T11:34:58Z</time>
      </trkpt>
      <trkpt lat="60.0181194" lon="17.7075533">
        <ele>33.7834</ele>
        <time>2013-05-09T11:34:59Z</time>
      </trkpt>
      <trkpt lat="60.0181292" lon="17.7074319">
        <ele>33.7834</ele>
        <time>2013-05-09T11:35:00Z</time>
      </trkpt>
      <trkpt lat="60.0181401" lon="17.7073112">
        <ele>33.7834</ele>
        <time>2013-05-09T11:35:01Z</time>
      </trkpt>
      <trkpt lat="60.0181524" lon="17.7071904">
        <ele>33.7834</ele>
        <time>2013-05-09T11:35:02Z</time>
      </trkpt>
      <trkpt lat="60.0181654" lon="17.7070688">
        <ele>33.7834</ele>
        <time>2013-05-09T11:35:03Z</time>
      </trkpt>
      <trkpt lat="60.018176" lon="17.7069476">
        <ele>33.3029</ele>
        <time>2013-05-09T11:35:04Z</time>
      </trkpt>
      <trkpt lat="60.0181872" lon="17.7068264">
        <ele>33.3029</ele>
        <time>2013-05-09T11:35:05Z</time>
      </trkpt>
      <trkpt lat="60.0181998" lon="17.7067041">
        <ele>32.8223</ele>
        <time>2013-05-09T11:35:06Z</time>
      </trkpt>
      <trkpt lat="60.018214" lon="17.7065807">
        <ele>32.3416</ele>
        <time>2013-05-09T11:35:07Z</time>
      </trkpt>
      <trkpt lat="60.018229" lon="17.7064579">
        <ele>31.8607</ele>
        <time>2013-05-09T11:35:08Z</time>
      </trkpt>
      <trkpt lat="60.0182462" lon="17.7063368">
        <ele>31.3801</ele>
        <time>2013-05-09T11:35:09Z</time>
      </trkpt>
      <trkpt lat="60.0182665" lon="17.7062151">
        <ele>30.8995</ele>
        <time>2013-05-09T11:35:10Z</time>
      </trkpt>
      <trkpt lat="60.0182884" lon="17.7060914">
        <ele>30.8995</ele>
        <time>2013-05-09T11:35:11Z</time>
      </trkpt>
      <trkpt lat="60.0183119" lon="17.7059654">
        <ele>30.4188</ele>
        <time>2013-05-09T11:35:12Z</time>
      </trkpt>
      <trkpt lat="60.0183379" lon="17.705838">
        <ele>30.4188</ele>
        <time>2013-05-09T11:35:13Z</time>
      </trkpt>
      <trkpt lat="60.0183664" lon="17.7057091">
        <ele>29.9381</ele>
        <time>2013-05-09T11:35:14Z</time>
      </trkpt>
      <trkpt lat="60.0183974" lon="17.7055784">
        <ele>29.9381</ele>
        <time>2013-05-09T11:35:15Z</time>
      </trkpt>
      <trkpt lat="60.0184307" lon="17.7054467">
        <ele>29.4575</ele>
        <time>2013-05-09T11:35:16Z</time>
      </trkpt>
      <trkpt lat="60.0184663" lon="17.7053143">
        <ele>29.4575</ele>
        <time>2013-05-09T11:35:17Z</time>
      </trkpt>
      <trkpt lat="60.0185036" lon="17.7051817">
        <ele>28.9769</ele>
        <time>2013-05-09T11:35:18Z</time>
      </trkpt>
      <trkpt lat="60.0185427" lon="17.7050496">
        <ele>28.9769</ele>
        <time>2013-05-09T11:35:19Z</time>
      </trkpt>
      <trkpt lat="60.0185834" lon="17.7049186">
        <ele>28.4962</ele>
        <time>2013-05-09T11:35:20Z</time>
      </trkpt>
      <trkpt lat="60.0186253" lon="17.7047889">
        <ele>28.4962</ele>
        <time>2013-05-09T11:35:21Z</time>
      </trkpt>
      <trkpt lat="60.0186691" lon="17.7046621">
        <ele>28.4962</ele>
        <time>2013-05-09T11:35:22Z</time>
      </trkpt>
      <trkpt lat="60.0187152" lon="17.7045384">
        <ele>28.0155</ele>
        <time>2013-05-09T11:35:23Z</time>
      </trkpt>
      <trkpt lat="60.0187625" lon="17.704418">
        <ele>28.0155</ele>
        <time>2013-05-09T11:35:24Z</time>
      </trkpt>
      <trkpt lat="60.0188105" lon="17.7043001">
        <ele>28.0155</ele>
        <time>2013-05-09T11:35:25Z</time>
      </trkpt>
      <trkpt lat="60.0188596" lon="17.7041859">
        <ele>28.0155</ele>
        <time>2013-05-09T11:35:26Z</time>
      </trkpt>
      <trkpt lat="60.0189102" lon="17.7040757">
        <ele>28.0155</ele>
        <time>2013-05-09T11:35:27Z</time>
      </trkpt>
      <trkpt lat="60.0189617" lon="17.7039695">
        <ele>28.0155</ele>
        <time>2013-05-09T11:35:28Z</time>
      </trkpt>
      <trkpt lat="60.019015" lon="17.7038668">
        <ele>28.0155</ele>
        <time>2013-05-09T11:35:29Z</time>
      </trkpt>
      <trkpt lat="60.0190685" lon="17.7037668">
        <ele>28.0155</ele>
        <time>2013-05-09T11:35:30Z</time>
      </trkpt>
      <trkpt lat="60.0191222" lon="17.7036701">
        <ele>28.0155</ele>
        <time>2013-05-09T11:35:31Z</time>
      </trkpt>
      <trkpt lat="60.0191756" lon="17.7035759">
        <ele>28.0155</ele>
        <time>2013-05-09T11:35:32Z</time>
      </trkpt>
      <trkpt lat="60.0192291" lon="17.7034837">
        <ele>28.0155</ele>
        <time>2013-05-09T11:35:33Z</time>
      </trkpt>
      <trkpt lat="60.0192831" lon="17.7033939">
        <ele>28.0155</ele>
        <time>2013-05-09T11:35:34Z</time>
      </trkpt>
      <trkpt lat="60.019337" lon="17.7033043">
        <ele>28.4962</ele>
        <time>2013-05-09T11:35:35Z</time>
      </trkpt>
      <trkpt lat="60.0193911" lon="17.7032149">
        <ele>28.4962</ele>
        <time>2013-05-09T11:35:36Z</time>
      </trkpt>
      <trkpt lat="60.019446" lon="17.7031282">
        <ele>28.4962</ele>
        <time>2013-05-09T11:35:37Z</time>
      </trkpt>
      <trkpt lat="60.0195007" lon="17.7030433">
        <ele>28.4962</ele>
        <time>2013-05-09T11:35:38Z</time>
      </trkpt>
      <trkpt lat="60.0195543" lon="17.7029589">
        <ele>28.4962</ele>
        <time>2013-05-09T11:35:39Z</time>
      </trkpt>
      <trkpt lat="60.019606" lon="17.7028745">
        <ele>28.4962</ele>
        <time>2013-05-09T11:35:40Z</time>
      </trkpt>
      <trkpt lat="60.0196567" lon="17.7027885">
        <ele>28.4962</ele>
        <time>2013-05-09T11:35:41Z</time>
      </trkpt>
      <trkpt lat="60.0197067" lon="17.7027004">
        <ele>28.9769</ele>
        <time>2013-05-09T11:35:42Z</time>
      </trkpt>
      <trkpt lat="60.0197563" lon="17.7026113">
        <ele>28.9769</ele>
        <time>2013-05-09T11:35:43Z</time>
      </trkpt>
      <trkpt lat="60.0198051" lon="17.702522">
        <ele>28.9769</ele>
        <time>2013-05-09T11:35:44Z</time>
      </trkpt>
      <trkpt lat="60.0198522" lon="17.7024321">
        <ele>28.9769</ele>
        <time>2013-05-09T11:35:45Z</time>
      </trkpt>
      <trkpt lat="60.0198981" lon="17.7023405">
        <ele>28.9769</ele>
        <time>2013-05-09T11:35:46Z</time>
      </trkpt>
      <trkpt lat="60.0199431" lon="17.7022472">
        <ele>28.9769</ele>
        <time>2013-05-09T11:35:47Z</time>
      </trkpt>
      <trkpt lat="60.0199872" lon="17.7021512">
        <ele>28.9769</ele>
        <time>2013-05-09T11:35:48Z</time>
      </trkpt>
      <trkpt lat="60.0200308" lon="17.7020541">
        <ele>29.4575</ele>
        <time>2013-05-09T11:35:49Z</time>
      </trkpt>
      <trkpt lat="60.0200734" lon="17.7019559">
        <ele>29.4575</ele>
        <time>2013-05-09T11:35:50Z</time>
      </trkpt>
      <trkpt lat="60.0201144" lon="17.701856">
        <ele>29.4575</ele>
        <time>2013-05-09T11:35:51Z</time>
      </trkpt>
      <trkpt lat="60.020154" lon="17.7017546">
        <ele>29.4575</ele>
        <time>2013-05-09T11:35:52Z</time>
      </trkpt>
      <trkpt lat="60.0201923" lon="17.7016515">
        <ele>29.4575</ele>
        <time>2013-05-09T11:35:53Z</time>
      </trkpt>
      <trkpt lat="60.0202301" lon="17.7015482">
        <ele>29.4575</ele>
        <time>2013-05-09T11:35:54Z</time>
      </trkpt>
      <trkpt lat="60.0202675" lon="17.7014449">
        <ele>29.9381</ele>
        <time>2013-05-09T11:35:55Z</time>
      </trkpt>
      <trkpt lat="60.0203038" lon="17.7013412">
        <ele>29.9381</ele>
        <time>2013-05-09T11:35:56Z</time>
      </trkpt>
      <trkpt lat="60.0203383" lon="17.701236">
        <ele>29.9381</ele>
        <time>2013-05-09T11:35:57Z</time>
      </trkpt>
      <trkpt lat="60.0203704" lon="17.7011288">
        <ele>29.9381</ele>
        <time>2013-05-09T11:35:58Z</time>
      </trkpt>
      <trkpt lat="60.0204013" lon="17.7010206">
        <ele>29.9381</ele>
        <time>2013-05-09T11:35:59Z</time>
      </trkpt>
      <trkpt lat="60.0204318" lon="17.7009131">
        <ele>29.9381</ele>
        <time>2013-05-09T11:36:00Z</time>
      </trkpt>
      <trkpt lat="60.0204618" lon="17.7008062">
        <ele>29.9381</ele>
        <time>2013-05-09T11:36:01Z</time>
      </trkpt>
      <trkpt lat="60.0204908" lon="17.7006987">
        <ele>30.4188</ele>
        <time>2013-05-09T11:36:02Z</time>
      </trkpt>
      <trkpt lat="60.0205194" lon="17.700591">
        <ele>30.4188</ele>
        <time>2013-05-09T11:36:03Z</time>
      </trkpt>
      <trkpt lat="60.0205482" lon="17.7004842">
        <ele>30.4188</ele>
        <time>2013-05-09T11:36:04Z</time>
      </trkpt>
      <trkpt lat="60.0205771" lon="17.7003775">
        <ele>30.4188</ele>
        <time>2013-05-09T11:36:05Z</time>
      </trkpt>
      <trkpt lat="60.0206057" lon="17.7002709">
        <ele>30.4188</ele>
        <time>2013-05-09T11:36:06Z</time>
      </trkpt>
      <trkpt lat="60.0206338" lon="17.7001643">
        <ele>30.4188</ele>
        <time>2013-05-09T11:36:07Z</time>
      </trkpt>
      <trkpt lat="60.0206613" lon="17.700057">
        <ele>30.8995</ele>
        <time>2013-05-09T11:36:08Z</time>
      </trkpt>
      <trkpt lat="60.0206887" lon="17.6999493">
        <ele>30.8995</ele>
        <time>2013-05-09T11:36:09Z</time>
      </trkpt>
      <trkpt lat="60.0207166" lon="17.6998419">
        <ele>30.8995</ele>
        <time>2013-05-09T11:36:10Z</time>
      </trkpt>
      <trkpt lat="60.0207445" lon="17.6997348">
        <ele>30.8995</ele>
        <time>2013-05-09T11:36:11Z</time>
      </trkpt>
      <trkpt lat="60.0207721" lon="17.6996261">
        <ele>31.3801</ele>
        <time>2013-05-09T11:36:12Z</time>
      </trkpt>
      <trkpt lat="60.0207999" lon="17.6995152">
        <ele>31.3801</ele>
        <time>2013-05-09T11:36:13Z</time>
      </trkpt>
      <trkpt lat="60.0208292" lon="17.6994038">
        <ele>31.3801</ele>
        <time>2013-05-09T11:36:14Z</time>
      </trkpt>
      <trkpt lat="60.0208597" lon="17.6992915">
        <ele>31.3801</ele>
        <time>2013-05-09T11:36:15Z</time>
      </trkpt>
      <trkpt lat="60.0208896" lon="17.6991789">
        <ele>31.8607</ele>
        <time>2013-05-09T11:36:16Z</time>
      </trkpt>
      <trkpt lat="60.0209193" lon="17.6990672">
        <ele>31.8607</ele>
        <time>2013-05-09T11:36:17Z</time>
      </trkpt>
      <trkpt lat="60.0209492" lon="17.6989563">
        <ele>31.8607</ele>
        <time>2013-05-09T11:36:18Z</time>
      </trkpt>
      <trkpt lat="60.0209788" lon="17.6988459">
        <ele>31.8607</ele>
        <time>2013-05-09T11:36:19Z</time>
      </trkpt>
      <trkpt lat="60.0210079" lon="17.6987357">
        <ele>31.8607</ele>
        <time>2013-05-09T11:36:20Z</time>
      </trkpt>
      <trkpt lat="60.0210366" lon="17.6986248">
        <ele>31.8607</ele>
        <time>2013-05-09T11:36:21Z</time>
      </trkpt>
      <trkpt lat="60.0210647" lon="17.6985149">
        <ele>31.8607</ele>
        <time>2013-05-09T11:36:22Z</time>
      </trkpt>
      <trkpt lat="60.0210924" lon="17.6984073">
        <ele>31.8607</ele>
        <time>2013-05-09T11:36:23Z</time>
      </trkpt>
      <trkpt lat="60.0211202" lon="17.698301">
        <ele>31.8607</ele>
        <time>2013-05-09T11:36:24Z</time>
      </trkpt>
      <trkpt lat="60.0211482" lon="17.6981944">
        <ele>31.3801</ele>
        <time>2013-05-09T11:36:25Z</time>
      </trkpt>
      <trkpt lat="60.0211762" lon="17.698088">
        <ele>31.3801</ele>
        <time>2013-05-09T11:36:26Z</time>
      </trkpt>
      <trkpt lat="60.0212052" lon="17.6979814">
        <ele>31.3801</ele>
        <time>2013-05-09T11:36:27Z</time>
      </trkpt>
      <trkpt lat="60.0212352" lon="17.6978727">
        <ele>30.8995</ele>
        <time>2013-05-09T11:36:28Z</time>
      </trkpt>
      <trkpt lat="60.0212647" lon="17.69776">
        <ele>30.8995</ele>
        <time>2013-05-09T11:36:29Z</time>
      </trkpt>
      <trkpt lat="60.0212944" lon="17.6976443">
        <ele>30.8995</ele>
        <time>2013-05-09T11:36:30Z</time>
      </trkpt>
      <trkpt lat="60.0213244" lon="17.697526">
        <ele>30.8995</ele>
        <time>2013-05-09T11:36:31Z</time>
      </trkpt>
      <trkpt lat="60.0213549" lon="17.6974043">
        <ele>30.4188</ele>
        <time>2013-05-09T11:36:32Z</time>
      </trkpt>
      <trkpt lat="60.0213874" lon="17.6972805">
        <ele>29.9381</ele>
        <time>2013-05-09T11:36:33Z</time>
      </trkpt>
      <trkpt lat="60.0214226" lon="17.6971563">
        <ele>29.9381</ele>
        <time>2013-05-09T11:36:34Z</time>
      </trkpt>
      <trkpt lat="60.0214578" lon="17.6970304">
        <ele>29.4575</ele>
        <time>2013-05-09T11:36:35Z</time>
      </trkpt>
      <trkpt lat="60.0214927" lon="17.6969029">
        <ele>29.4575</ele>
        <time>2013-05-09T11:36:36Z</time>
      </trkpt>
      <trkpt lat="60.0215274" lon="17.6967734">
        <ele>28.9769</ele>
        <time>2013-05-09T11:36:37Z</time>
      </trkpt>
      <trkpt lat="60.0215626" lon="17.6966423">
        <ele>28.9769</ele>
        <time>2013-05-09T11:36:38Z</time>
      </trkpt>
      <trkpt lat="60.0215986" lon="17.69651">
        <ele>28.4962</ele>
        <time>2013-05-09T11:36:39Z</time>
      </trkpt>
      <trkpt lat="60.0216345" lon="17.6963761">
        <ele>28.4962</ele>
        <time>2013-05-09T11:36:40Z</time>
      </trkpt>
      <trkpt lat="60.0216702" lon="17.6962402">
        <ele>28.4962</ele>
        <time>2013-05-09T11:36:41Z</time>
      </trkpt>
      <trkpt lat="60.0217062" lon="17.6961032">
        <ele>28.4962</ele>
        <time>2013-05-09T11:36:42Z</time>
      </trkpt>
      <trkpt lat="60.0217424" lon="17.6959657">
        <ele>28.4962</ele>
        <time>2013-05-09T11:36:43Z</time>
      </trkpt>
      <trkpt lat="60.021778" lon="17.6958276">
        <ele>28.0155</ele>
        <time>2013-05-09T11:36:44Z</time>
      </trkpt>
      <trkpt lat="60.0218128" lon="17.6956897">
        <ele>28.4962</ele>
        <time>2013-05-09T11:36:45Z</time>
      </trkpt>
      <trkpt lat="60.021848" lon="17.6955536">
        <ele>28.4962</ele>
        <time>2013-05-09T11:36:46Z</time>
      </trkpt>
      <trkpt lat="60.0218832" lon="17.6954196">
        <ele>28.4962</ele>
        <time>2013-05-09T11:36:47Z</time>
      </trkpt>
      <trkpt lat="60.0219169" lon="17.6952856">
        <ele>28.4962</ele>
        <time>2013-05-09T11:36:48Z</time>
      </trkpt>
      <trkpt lat="60.021949" lon="17.6951514">
        <ele>28.4962</ele>
        <time>2013-05-09T11:36:49Z</time>
      </trkpt>
      <trkpt lat="60.0219805" lon="17.6950173">
        <ele>28.4962</ele>
        <time>2013-05-09T11:36:50Z</time>
      </trkpt>
      <trkpt lat="60.0220102" lon="17.6948821">
        <ele>28.9769</ele>
        <time>2013-05-09T11:36:51Z</time>
      </trkpt>
      <trkpt lat="60.0220387" lon="17.6947464">
        <ele>28.9769</ele>
        <time>2013-05-09T11:36:52Z</time>
      </trkpt>
      <trkpt lat="60.0220661" lon="17.6946116">
        <ele>28.9769</ele>
        <time>2013-05-09T11:36:53Z</time>
      </trkpt>
      <trkpt lat="60.0220926" lon="17.6944771">
        <ele>29.4575</ele>
        <time>2013-05-09T11:36:54Z</time>
      </trkpt>
      <trkpt lat="60.0221179" lon="17.6943434">
        <ele>29.4575</ele>
        <time>2013-05-09T11:36:55Z</time>
      </trkpt>
      <trkpt lat="60.0221417" lon="17.6942111">
        <ele>29.4575</ele>
        <time>2013-05-09T11:36:56Z</time>
      </trkpt>
      <trkpt lat="60.0221646" lon="17.6940778">
        <ele>29.4575</ele>
        <time>2013-05-09T11:36:57Z</time>
      </trkpt>
      <trkpt lat="60.0221862" lon="17.6939436">
        <ele>29.9381</ele>
        <time>2013-05-09T11:36:58Z</time>
      </trkpt>
      <trkpt lat="60.022206" lon="17.6938102">
        <ele>29.9381</ele>
        <time>2013-05-09T11:36:59Z</time>
      </trkpt>
      <trkpt lat="60.0222254" lon="17.6936783">
        <ele>29.9381</ele>
        <time>2013-05-09T11:37:00Z</time>
      </trkpt>
      <trkpt lat="60.0222436" lon="17.6935472">
        <ele>29.9381</ele>
        <time>2013-05-09T11:37:01Z</time>
      </trkpt>
      <trkpt lat="60.0222599" lon="17.6934156">
        <ele>29.9381</ele>
        <time>2013-05-09T11:37:02Z</time>
      </trkpt>
      <trkpt lat="60.0222737" lon="17.6932831">
        <ele>29.9381</ele>
        <time>2013-05-09T11:37:03Z</time>
      </trkpt>
      <trkpt lat="60.0222861" lon="17.6931512">
        <ele>29.9381</ele>
        <time>2013-05-09T11:37:04Z</time>
      </trkpt>
      <trkpt lat="60.0222971" lon="17.6930204">
        <ele>29.9381</ele>
        <time>2013-05-09T11:37:05Z</time>
      </trkpt>
      <trkpt lat="60.0223097" lon="17.6928917">
        <ele>29.9381</ele>
        <time>2013-05-09T11:37:06Z</time>
      </trkpt>
      <trkpt lat="60.0223215" lon="17.6927641">
        <ele>29.9381</ele>
        <time>2013-05-09T11:37:07Z</time>
      </trkpt>
      <trkpt lat="60.0223318" lon="17.6926371">
        <ele>30.4188</ele>
        <time>2013-05-09T11:37:08Z</time>
      </trkpt>
      <trkpt lat="60.0223417" lon="17.6925112">
        <ele>30.4188</ele>
        <time>2013-05-09T11:37:09Z</time>
      </trkpt>
      <trkpt lat="60.0223506" lon="17.6923863">
        <ele>30.4188</ele>
        <time>2013-05-09T11:37:10Z</time>
      </trkpt>
      <trkpt lat="60.0223586" lon="17.6922611">
        <ele>30.4188</ele>
        <time>2013-05-09T11:37:11Z</time>
      </trkpt>
      <trkpt lat="60.0223656" lon="17.692136">
        <ele>30.4188</ele>
        <time>2013-05-09T11:37:12Z</time>
      </trkpt>
      <trkpt lat="60.0223722" lon="17.6920108">
        <ele>30.4188</ele>
        <time>2013-05-09T11:37:13Z</time>
      </trkpt>
      <trkpt lat="60.0223788" lon="17.6918845">
        <ele>30.8995</ele>
        <time>2013-05-09T11:37:14Z</time>
      </trkpt>
      <trkpt lat="60.0223852" lon="17.6917569">
        <ele>30.8995</ele>
        <time>2013-05-09T11:37:15Z</time>
      </trkpt>
      <trkpt lat="60.0223915" lon="17.6916281">
        <ele>30.8995</ele>
        <time>2013-05-09T11:37:16Z</time>
      </trkpt>
      <trkpt lat="60.0223976" lon="17.6914988">
        <ele>31.3801</ele>
        <time>2013-05-09T11:37:17Z</time>
      </trkpt>
      <trkpt lat="60.0224029" lon="17.6913679">
        <ele>30.8995</ele>
        <time>2013-05-09T11:37:18Z</time>
      </trkpt>
      <trkpt lat="60.022409" lon="17.6912353">
        <ele>31.3801</ele>
        <time>2013-05-09T11:37:19Z</time>
      </trkpt>
      <trkpt lat="60.0224152" lon="17.6911005">
        <ele>31.3801</ele>
        <time>2013-05-09T11:37:20Z</time>
      </trkpt>
      <trkpt lat="60.0224209" lon="17.6909654">
        <ele>31.3801</ele>
        <time>2013-05-09T11:37:21Z</time>
      </trkpt>
      <trkpt lat="60.0224266" lon="17.6908316">
        <ele>31.3801</ele>
        <time>2013-05-09T11:37:22Z</time>
      </trkpt>
      <trkpt lat="60.0224318" lon="17.6906996">
        <ele>31.3801</ele>
        <time>2013-05-09T11:37:23Z</time>
      </trkpt>
      <trkpt lat="60.0224376" lon="17.6905692">
        <ele>31.3801</ele>
        <time>2013-05-09T11:37:24Z</time>
      </trkpt>
      <trkpt lat="60.0224436" lon="17.6904397">
        <ele>31.3801</ele>
        <time>2013-05-09T11:37:25Z</time>
      </trkpt>
      <trkpt lat="60.0224492" lon="17.6903107">
        <ele>31.3801</ele>
        <time>2013-05-09T11:37:26Z</time>
      </trkpt>
      <trkpt lat="60.0224547" lon="17.6901816">
        <ele>31.3801</ele>
        <time>2013-05-09T11:37:27Z</time>
      </trkpt>
      <trkpt lat="60.0224599" lon="17.690052">
        <ele>31.3801</ele>
        <time>2013-05-09T11:37:28Z</time>
      </trkpt>
      <trkpt lat="60.022465" lon="17.6899221">
        <ele>31.3801</ele>
        <time>2013-05-09T11:37:29Z</time>
      </trkpt>
      <trkpt lat="60.0224711" lon="17.6897915">
        <ele>31.3801</ele>
        <time>2013-05-09T11:37:30Z</time>
      </trkpt>
      <trkpt lat="60.0224775" lon="17.6896596">
        <ele>31.3801</ele>
        <time>2013-05-09T11:37:31Z</time>
      </trkpt>
      <trkpt lat="60.0224837" lon="17.6895276">
        <ele>31.3801</ele>
        <time>2013-05-09T11:37:32Z</time>
      </trkpt>
      <trkpt lat="60.0224896" lon="17.6893953">
        <ele>31.3801</ele>
        <time>2013-05-09T11:37:33Z</time>
      </trkpt>
      <trkpt lat="60.0224949" lon="17.6892627">
        <ele>31.8607</ele>
        <time>2013-05-09T11:37:34Z</time>
      </trkpt>
      <trkpt lat="60.0225" lon="17.6891307">
        <ele>31.8607</ele>
        <time>2013-05-09T11:37:35Z</time>
      </trkpt>
      <trkpt lat="60.0225058" lon="17.6889991">
        <ele>31.8607</ele>
        <time>2013-05-09T11:37:36Z</time>
      </trkpt>
      <trkpt lat="60.0225114" lon="17.6888678">
        <ele>31.8607</ele>
        <time>2013-05-09T11:37:37Z</time>
      </trkpt>
      <trkpt lat="60.0225163" lon="17.6887368">
        <ele>31.8607</ele>
        <time>2013-05-09T11:37:38Z</time>
      </trkpt>
      <trkpt lat="60.022522" lon="17.688606">
        <ele>31.8607</ele>
        <time>2013-05-09T11:37:39Z</time>
      </trkpt>
      <trkpt lat="60.0225282" lon="17.688475">
        <ele>31.8607</ele>
        <time>2013-05-09T11:37:40Z</time>
      </trkpt>
      <trkpt lat="60.0225337" lon="17.6883437">
        <ele>31.8607</ele>
        <time>2013-05-09T11:37:41Z</time>
      </trkpt>
      <trkpt lat="60.022539" lon="17.6882113">
        <ele>31.3801</ele>
        <time>2013-05-09T11:37:42Z</time>
      </trkpt>
      <trkpt lat="60.0225457" lon="17.688079">
        <ele>31.3801</ele>
        <time>2013-05-09T11:37:43Z</time>
      </trkpt>
      <trkpt lat="60.0225521" lon="17.6879476">
        <ele>31.3801</ele>
        <time>2013-05-09T11:37:44Z</time>
      </trkpt>
      <trkpt lat="60.0225598" lon="17.6878155">
        <ele>31.8607</ele>
        <time>2013-05-09T11:37:45Z</time>
      </trkpt>
      <trkpt lat="60.0225671" lon="17.6876839">
        <ele>31.8607</ele>
        <time>2013-05-09T11:37:46Z</time>
      </trkpt>
      <trkpt lat="60.0225751" lon="17.6875529">
        <ele>31.8607</ele>
        <time>2013-05-09T11:37:47Z</time>
      </trkpt>
      <trkpt lat="60.0225821" lon="17.6874217">
        <ele>31.8607</ele>
        <time>2013-05-09T11:37:48Z</time>
      </trkpt>
      <trkpt lat="60.0225877" lon="17.6872895">
        <ele>31.8607</ele>
        <time>2013-05-09T11:37:49Z</time>
      </trkpt>
      <trkpt lat="60.0225933" lon="17.6871561">
        <ele>31.8607</ele>
        <time>2013-05-09T11:37:50Z</time>
      </trkpt>
      <trkpt lat="60.0225992" lon="17.6870227">
        <ele>31.8607</ele>
        <time>2013-05-09T11:37:51Z</time>
      </trkpt>
      <trkpt lat="60.0226046" lon="17.6868892">
        <ele>31.8607</ele>
        <time>2013-05-09T11:37:52Z</time>
      </trkpt>
      <trkpt lat="60.0226095" lon="17.6867546">
        <ele>31.8607</ele>
        <time>2013-05-09T11:37:53Z</time>
      </trkpt>
      <trkpt lat="60.0226146" lon="17.6866198">
        <ele>31.8607</ele>
        <time>2013-05-09T11:37:54Z</time>
      </trkpt>
      <trkpt lat="60.0226203" lon="17.6864852">
        <ele>31.8607</ele>
        <time>2013-05-09T11:37:55Z</time>
      </trkpt>
      <trkpt lat="60.0226259" lon="17.6863501">
        <ele>31.8607</ele>
        <time>2013-05-09T11:37:56Z</time>
      </trkpt>
      <trkpt lat="60.0226323" lon="17.6862146">
        <ele>31.8607</ele>
        <time>2013-05-09T11:37:57Z</time>
      </trkpt>
      <trkpt lat="60.0226395" lon="17.686078">
        <ele>31.8607</ele>
        <time>2013-05-09T11:37:58Z</time>
      </trkpt>
      <trkpt lat="60.0226456" lon="17.6859402">
        <ele>31.3801</ele>
        <time>2013-05-09T11:37:59Z</time>
      </trkpt>
      <trkpt lat="60.0226513" lon="17.6858018">
        <ele>31.3801</ele>
        <time>2013-05-09T11:38:00Z</time>
      </trkpt>
      <trkpt lat="60.0226571" lon="17.6856626">
        <ele>31.3801</ele>
        <time>2013-05-09T11:38:01Z</time>
      </trkpt>
      <trkpt lat="60.0226629" lon="17.6855232">
        <ele>31.3801</ele>
        <time>2013-05-09T11:38:02Z</time>
      </trkpt>
      <trkpt lat="60.0226685" lon="17.6853834">
        <ele>31.3801</ele>
        <time>2013-05-09T11:38:03Z</time>
      </trkpt>
      <trkpt lat="60.022674" lon="17.6852421">
        <ele>31.3801</ele>
        <time>2013-05-09T11:38:04Z</time>
      </trkpt>
      <trkpt lat="60.0226783" lon="17.6851001">
        <ele>31.3801</ele>
        <time>2013-05-09T11:38:05Z</time>
      </trkpt>
      <trkpt lat="60.0226828" lon="17.6849565">
        <ele>31.3801</ele>
        <time>2013-05-09T11:38:06Z</time>
      </trkpt>
      <trkpt lat="60.0226891" lon="17.6848119">
        <ele>31.8607</ele>
        <time>2013-05-09T11:38:07Z</time>
      </trkpt>
      <trkpt lat="60.0226928" lon="17.6846717">
        <ele>31.8607</ele>
        <time>2013-05-09T11:38:08Z</time>
      </trkpt>
      <trkpt lat="60.0226964" lon="17.6845337">
        <ele>32.3416</ele>
        <time>2013-05-09T11:38:09Z</time>
      </trkpt>
      <trkpt lat="60.0226986" lon="17.6843951">
        <ele>32.3416</ele>
        <time>2013-05-09T11:38:10Z</time>
      </trkpt>
      <trkpt lat="60.0226991" lon="17.6842551">
        <ele>32.3416</ele>
        <time>2013-05-09T11:38:11Z</time>
      </trkpt>
      <trkpt lat="60.0226996" lon="17.6841137">
        <ele>32.3416</ele>
        <time>2013-05-09T11:38:12Z</time>
      </trkpt>
      <trkpt lat="60.0227002" lon="17.6839713">
        <ele>32.3416</ele>
        <time>2013-05-09T11:38:13Z</time>
      </trkpt>
      <trkpt lat="60.0227002" lon="17.6838283">
        <ele>32.3416</ele>
        <time>2013-05-09T11:38:14Z</time>
      </trkpt>
      <trkpt lat="60.0226995" lon="17.6836858">
        <ele>32.3416</ele>
        <time>2013-05-09T11:38:15Z</time>
      </trkpt>
      <trkpt lat="60.0226976" lon="17.6835438">
        <ele>32.3416</ele>
        <time>2013-05-09T11:38:16Z</time>
      </trkpt>
      <trkpt lat="60.0226953" lon="17.683402">
        <ele>32.3416</ele>
        <time>2013-05-09T11:38:17Z</time>
      </trkpt>
      <trkpt lat="60.0226923" lon="17.6832605">
        <ele>32.3416</ele>
        <time>2013-05-09T11:38:18Z</time>
      </trkpt>
      <trkpt lat="60.0226886" lon="17.6831196">
        <ele>32.8223</ele>
        <time>2013-05-09T11:38:19Z</time>
      </trkpt>
      <trkpt lat="60.0226845" lon="17.6829793">
        <ele>32.8223</ele>
        <time>2013-05-09T11:38:20Z</time>
      </trkpt>
      <trkpt lat="60.0226804" lon="17.6828394">
        <ele>32.8223</ele>
        <time>2013-05-09T11:38:21Z</time>
      </trkpt>
      <trkpt lat="60.0226758" lon="17.6826996">
        <ele>32.8223</ele>
        <time>2013-05-09T11:38:22Z</time>
      </trkpt>
      <trkpt lat="60.0226696" lon="17.6825595">
        <ele>32.8223</ele>
        <time>2013-05-09T11:38:23Z</time>
      </trkpt>
      <trkpt lat="60.0226627" lon="17.6824191">
        <ele>32.8223</ele>
        <time>2013-05-09T11:38:24Z</time>
      </trkpt>
      <trkpt lat="60.0226556" lon="17.6822789">
        <ele>32.8223</ele>
        <time>2013-05-09T11:38:25Z</time>
      </trkpt>
      <trkpt lat="60.0226478" lon="17.6821396">
        <ele>32.8223</ele>
        <time>2013-05-09T11:38:26Z</time>
      </trkpt>
      <trkpt lat="60.0226394" lon="17.6820008">
        <ele>32.8223</ele>
        <time>2013-05-09T11:38:27Z</time>
      </trkpt>
      <trkpt lat="60.0226302" lon="17.6818625">
        <ele>32.8223</ele>
        <time>2013-05-09T11:38:28Z</time>
      </trkpt>
      <trkpt lat="60.0226209" lon="17.6817251">
        <ele>32.8223</ele>
        <time>2013-05-09T11:38:29Z</time>
      </trkpt>
      <trkpt lat="60.0226108" lon="17.6815879">
        <ele>32.8223</ele>
        <time>2013-05-09T11:38:30Z</time>
      </trkpt>
      <trkpt lat="60.0226002" lon="17.6814515">
        <ele>32.8223</ele>
        <time>2013-05-09T11:38:31Z</time>
      </trkpt>
      <trkpt lat="60.0225887" lon="17.6813163">
        <ele>33.3029</ele>
        <time>2013-05-09T11:38:32Z</time>
      </trkpt>
      <trkpt lat="60.0225762" lon="17.6811818">
        <ele>33.3029</ele>
        <time>2013-05-09T11:38:33Z</time>
      </trkpt>
      <trkpt lat="60.0225634" lon="17.681048">
        <ele>33.3029</ele>
        <time>2013-05-09T11:38:34Z</time>
      </trkpt>
      <trkpt lat="60.022551" lon="17.6809139">
        <ele>33.3029</ele>
        <time>2013-05-09T11:38:35Z</time>
      </trkpt>
      <trkpt lat="60.0225386" lon="17.6807793">
        <ele>33.3029</ele>
        <time>2013-05-09T11:38:36Z</time>
      </trkpt>
      <trkpt lat="60.022526" lon="17.6806441">
        <ele>33.7834</ele>
        <time>2013-05-09T11:38:37Z</time>
      </trkpt>
      <trkpt lat="60.0225115" lon="17.6805089">
        <ele>33.7834</ele>
        <time>2013-05-09T11:38:38Z</time>
      </trkpt>
      <trkpt lat="60.0224955" lon="17.6803737">
        <ele>33.7834</ele>
        <time>2013-05-09T11:38:39Z</time>
      </trkpt>
      <trkpt lat="60.0224784" lon="17.6802385">
        <ele>33.7834</ele>
        <time>2013-05-09T11:38:40Z</time>
      </trkpt>
      <trkpt lat="60.0224611" lon="17.6801028">
        <ele>33.7834</ele>
        <time>2013-05-09T11:38:41Z</time>
      </trkpt>
      <trkpt lat="60.0224437" lon="17.6799665">
        <ele>34.2642</ele>
        <time>2013-05-09T11:38:42Z</time>
      </trkpt>
      <trkpt lat="60.0224254" lon="17.6798297">
        <ele>34.2642</ele>
        <time>2013-05-09T11:38:43Z</time>
      </trkpt>
      <trkpt lat="60.0224054" lon="17.6796926">
        <ele>34.2642</ele>
        <time>2013-05-09T11:38:44Z</time>
      </trkpt>
      <trkpt lat="60.0223842" lon="17.6795552">
        <ele>34.2642</ele>
        <time>2013-05-09T11:38:45Z</time>
      </trkpt>
      <trkpt lat="60.0223629" lon="17.6794169">
        <ele>34.2642</ele>
        <time>2013-05-09T11:38:46Z</time>
      </trkpt>
      <trkpt lat="60.0223406" lon="17.6792813">
        <ele>34.2642</ele>
        <time>2013-05-09T11:38:47Z</time>
      </trkpt>
      <trkpt lat="60.0223208" lon="17.6791466">
        <ele>34.2642</ele>
        <time>2013-05-09T11:38:48Z</time>
      </trkpt>
      <trkpt lat="60.0223023" lon="17.6790119">
        <ele>34.2642</ele>
        <time>2013-05-09T11:38:49Z</time>
      </trkpt>
      <trkpt lat="60.0222831" lon="17.6788791">
        <ele>34.2642</ele>
        <time>2013-05-09T11:38:50Z</time>
      </trkpt>
      <trkpt lat="60.0222628" lon="17.678746">
        <ele>34.2642</ele>
        <time>2013-05-09T11:38:51Z</time>
      </trkpt>
      <trkpt lat="60.0222417" lon="17.6786125">
        <ele>34.2642</ele>
        <time>2013-05-09T11:38:52Z</time>
      </trkpt>
      <trkpt lat="60.0222198" lon="17.6784788">
        <ele>34.2642</ele>
        <time>2013-05-09T11:38:53Z</time>
      </trkpt>
      <trkpt lat="60.0221973" lon="17.678345">
        <ele>34.2642</ele>
        <time>2013-05-09T11:38:54Z</time>
      </trkpt>
      <trkpt lat="60.0221752" lon="17.6782103">
        <ele>33.7834</ele>
        <time>2013-05-09T11:38:55Z</time>
      </trkpt>
      <trkpt lat="60.0221522" lon="17.6780756">
        <ele>33.7834</ele>
        <time>2013-05-09T11:38:56Z</time>
      </trkpt>
      <trkpt lat="60.0221286" lon="17.6779396">
        <ele>33.7834</ele>
        <time>2013-05-09T11:38:57Z</time>
      </trkpt>
      <trkpt lat="60.0221049" lon="17.6778023">
        <ele>33.3029</ele>
        <time>2013-05-09T11:38:58Z</time>
      </trkpt>
      <trkpt lat="60.0220816" lon="17.6776634">
        <ele>33.3029</ele>
        <time>2013-05-09T11:38:59Z</time>
      </trkpt>
      <trkpt lat="60.0220584" lon="17.6775236">
        <ele>32.8223</ele>
        <time>2013-05-09T11:39:00Z</time>
      </trkpt>
      <trkpt lat="60.0220355" lon="17.6773838">
        <ele>32.3416</ele>
        <time>2013-05-09T11:39:01Z</time>
      </trkpt>
      <trkpt lat="60.0220125" lon="17.6772449">
        <ele>32.3416</ele>
        <time>2013-05-09T11:39:02Z</time>
      </trkpt>
      <trkpt lat="60.0219895" lon="17.6771046">
        <ele>32.3416</ele>
        <time>2013-05-09T11:39:03Z</time>
      </trkpt>
      <trkpt lat="60.0219686" lon="17.6769641">
        <ele>31.8607</ele>
        <time>2013-05-09T11:39:04Z</time>
      </trkpt>
      <trkpt lat="60.0219481" lon="17.6768242">
        <ele>31.8607</ele>
        <time>2013-05-09T11:39:05Z</time>
      </trkpt>
      <trkpt lat="60.0219282" lon="17.6766851">
        <ele>31.3801</ele>
        <time>2013-05-09T11:39:06Z</time>
      </trkpt>
      <trkpt lat="60.0219092" lon="17.6765472">
        <ele>31.3801</ele>
        <time>2013-05-09T11:39:07Z</time>
      </trkpt>
      <trkpt lat="60.0218915" lon="17.6764104">
        <ele>31.3801</ele>
        <time>2013-05-09T11:39:08Z</time>
      </trkpt>
      <trkpt lat="60.0218745" lon="17.676274">
        <ele>30.8995</ele>
        <time>2013-05-09T11:39:09Z</time>
      </trkpt>
      <trkpt lat="60.0218595" lon="17.6761374">
        <ele>30.8995</ele>
        <time>2013-05-09T11:39:10Z</time>
      </trkpt>
      <trkpt lat="60.0218459" lon="17.6760016">
        <ele>30.8995</ele>
        <time>2013-05-09T11:39:11Z</time>
      </trkpt>
      <trkpt lat="60.0218356" lon="17.675866">
        <ele>30.8995</ele>
        <time>2013-05-09T11:39:12Z</time>
      </trkpt>
      <trkpt lat="60.0218276" lon="17.6757307">
        <ele>31.3801</ele>
        <time>2013-05-09T11:39:13Z</time>
      </trkpt>
      <trkpt lat="60.02182" lon="17.6755962">
        <ele>31.8607</ele>
        <time>2013-05-09T11:39:14Z</time>
      </trkpt>
      <trkpt lat="60.0218132" lon="17.6754618">
        <ele>31.8607</ele>
        <time>2013-05-09T11:39:15Z</time>
      </trkpt>
      <trkpt lat="60.021807" lon="17.6753266">
        <ele>32.3416</ele>
        <time>2013-05-09T11:39:16Z</time>
      </trkpt>
      <trkpt lat="60.0218015" lon="17.6751903">
        <ele>32.8223</ele>
        <time>2013-05-09T11:39:17Z</time>
      </trkpt>
      <trkpt lat="60.0217978" lon="17.6750532">
        <ele>32.8223</ele>
        <time>2013-05-09T11:39:18Z</time>
      </trkpt>
      <trkpt lat="60.0217958" lon="17.6749152">
        <ele>32.8223</ele>
        <time>2013-05-09T11:39:19Z</time>
      </trkpt>
      <trkpt lat="60.0217947" lon="17.6747777">
        <ele>33.3029</ele>
        <time>2013-05-09T11:39:20Z</time>
      </trkpt>
      <trkpt lat="60.0217941" lon="17.6746414">
        <ele>33.7834</ele>
        <time>2013-05-09T11:39:21Z</time>
      </trkpt>
      <trkpt lat="60.0217941" lon="17.6745046">
        <ele>33.7834</ele>
        <time>2013-05-09T11:39:22Z</time>
      </trkpt>
      <trkpt lat="60.0217952" lon="17.6743692">
        <ele>33.7834</ele>
        <time>2013-05-09T11:39:23Z</time>
      </trkpt>
      <trkpt lat="60.0217963" lon="17.6742332">
        <ele>33.7834</ele>
        <time>2013-05-09T11:39:24Z</time>
      </trkpt>
      <trkpt lat="60.0217976" lon="17.674097">
        <ele>33.7834</ele>
        <time>2013-05-09T11:39:25Z</time>
      </trkpt>
      <trkpt lat="60.0218004" lon="17.673961">
        <ele>34.2642</ele>
        <time>2013-05-09T11:39:26Z</time>
      </trkpt>
      <trkpt lat="60.0218031" lon="17.6738253">
        <ele>34.2642</ele>
        <time>2013-05-09T11:39:27Z</time>
      </trkpt>
      <trkpt lat="60.0218053" lon="17.6736897">
        <ele>34.7449</ele>
        <time>2013-05-09T11:39:28Z</time>
      </trkpt>
      <trkpt lat="60.0218072" lon="17.6735546">
        <ele>34.7449</ele>
        <time>2013-05-09T11:39:29Z</time>
      </trkpt>
      <trkpt lat="60.0218092" lon="17.6734202">
        <ele>35.2255</ele>
        <time>2013-05-09T11:39:30Z</time>
      </trkpt>
      <trkpt lat="60.0218107" lon="17.6732858">
        <ele>35.7061</ele>
        <time>2013-05-09T11:39:31Z</time>
      </trkpt>
      <trkpt lat="60.0218108" lon="17.6731517">
        <ele>35.7061</ele>
        <time>2013-05-09T11:39:32Z</time>
      </trkpt>
      <trkpt lat="60.0218102" lon="17.6730185">
        <ele>35.7061</ele>
        <time>2013-05-09T11:39:33Z</time>
      </trkpt>
      <trkpt lat="60.0218097" lon="17.6728849">
        <ele>36.1868</ele>
        <time>2013-05-09T11:39:34Z</time>
      </trkpt>
      <trkpt lat="60.0218092" lon="17.6727515">
        <ele>36.1868</ele>
        <time>2013-05-09T11:39:35Z</time>
      </trkpt>
      <trkpt lat="60.0218096" lon="17.6726184">
        <ele>36.6675</ele>
        <time>2013-05-09T11:39:36Z</time>
      </trkpt>
      <trkpt lat="60.0218066" lon="17.6724861">
        <ele>36.6675</ele>
        <time>2013-05-09T11:39:37Z</time>
      </trkpt>
      <trkpt lat="60.021802" lon="17.6723549">
        <ele>37.1481</ele>
        <time>2013-05-09T11:39:38Z</time>
      </trkpt>
      <trkpt lat="60.0217972" lon="17.6722228">
        <ele>37.1481</ele>
        <time>2013-05-09T11:39:39Z</time>
      </trkpt>
      <trkpt lat="60.0217914" lon="17.6720896">
        <ele>37.6287</ele>
        <time>2013-05-09T11:39:40Z</time>
      </trkpt>
      <trkpt lat="60.0217838" lon="17.671955">
        <ele>37.6287</ele>
        <time>2013-05-09T11:39:41Z</time>
      </trkpt>
      <trkpt lat="60.0217741" lon="17.671818">
        <ele>37.6287</ele>
        <time>2013-05-09T11:39:42Z</time>
      </trkpt>
      <trkpt lat="60.0217641" lon="17.6716809">
        <ele>37.6287</ele>
        <time>2013-05-09T11:39:43Z</time>
      </trkpt>
      <trkpt lat="60.0217527" lon="17.6715453">
        <ele>37.6287</ele>
        <time>2013-05-09T11:39:44Z</time>
      </trkpt>
      <trkpt lat="60.0217392" lon="17.6714121">
        <ele>37.6287</ele>
        <time>2013-05-09T11:39:45Z</time>
      </trkpt>
      <trkpt lat="60.0217242" lon="17.6712803">
        <ele>37.1481</ele>
        <time>2013-05-09T11:39:46Z</time>
      </trkpt>
      <trkpt lat="60.0217085" lon="17.6711505">
        <ele>37.1481</ele>
        <time>2013-05-09T11:39:47Z</time>
      </trkpt>
      <trkpt lat="60.0216924" lon="17.6710215">
        <ele>37.1481</ele>
        <time>2013-05-09T11:39:48Z</time>
      </trkpt>
      <trkpt lat="60.0216762" lon="17.6708944">
        <ele>36.6675</ele>
        <time>2013-05-09T11:39:49Z</time>
      </trkpt>
      <trkpt lat="60.0216593" lon="17.6707687">
        <ele>36.6675</ele>
        <time>2013-05-09T11:39:50Z</time>
      </trkpt>
      <trkpt lat="60.0216408" lon="17.6706429">
        <ele>36.6675</ele>
        <time>2013-05-09T11:39:51Z</time>
      </trkpt>
      <trkpt lat="60.0216206" lon="17.6705187">
        <ele>36.1868</ele>
        <time>2013-05-09T11:39:52Z</time>
      </trkpt>
      <trkpt lat="60.0215999" lon="17.6703957">
        <ele>36.1868</ele>
        <time>2013-05-09T11:39:53Z</time>
      </trkpt>
      <trkpt lat="60.021578" lon="17.6702735">
        <ele>35.7061</ele>
        <time>2013-05-09T11:39:54Z</time>
      </trkpt>
      <trkpt lat="60.0215548" lon="17.6701481">
        <ele>35.2255</ele>
        <time>2013-05-09T11:39:55Z</time>
      </trkpt>
      <trkpt lat="60.0215313" lon="17.6700221">
        <ele>34.2642</ele>
        <time>2013-05-09T11:39:56Z</time>
      </trkpt>
      <trkpt lat="60.0215068" lon="17.6699006">
        <ele>33.3029</ele>
        <time>2013-05-09T11:39:57Z</time>
      </trkpt>
      <trkpt lat="60.0214812" lon="17.6697804">
        <ele>32.8223</ele>
        <time>2013-05-09T11:39:58Z</time>
      </trkpt>
      <trkpt lat="60.0214563" lon="17.6696613">
        <ele>32.3416</ele>
        <time>2013-05-09T11:39:59Z</time>
      </trkpt>
      <trkpt lat="60.0214327" lon="17.6695417">
        <ele>31.3801</ele>
        <time>2013-05-09T11:40:00Z</time>
      </trkpt>
      <trkpt lat="60.0214078" lon="17.6694208">
        <ele>30.4188</ele>
        <time>2013-05-09T11:40:01Z</time>
      </trkpt>
      <trkpt lat="60.0213827" lon="17.6693018">
        <ele>29.9381</ele>
        <time>2013-05-09T11:40:02Z</time>
      </trkpt>
      <trkpt lat="60.0213548" lon="17.669184">
        <ele>29.4575</ele>
        <time>2013-05-09T11:40:03Z</time>
      </trkpt>
      <trkpt lat="60.0213248" lon="17.6690671">
        <ele>28.9769</ele>
        <time>2013-05-09T11:40:04Z</time>
      </trkpt>
      <trkpt lat="60.0212948" lon="17.6689511">
        <ele>28.4962</ele>
        <time>2013-05-09T11:40:05Z</time>
      </trkpt>
      <trkpt lat="60.0212641" lon="17.6688377">
        <ele>28.0155</ele>
        <time>2013-05-09T11:40:06Z</time>
      </trkpt>
      <trkpt lat="60.0212321" lon="17.6687278">
        <ele>28.0155</ele>
        <time>2013-05-09T11:40:07Z</time>
      </trkpt>
      <trkpt lat="60.0212005" lon="17.6686219">
        <ele>27.5349</ele>
        <time>2013-05-09T11:40:08Z</time>
      </trkpt>
      <trkpt lat="60.0211694" lon="17.6685179">
        <ele>27.0543</ele>
        <time>2013-05-09T11:40:09Z</time>
      </trkpt>
      <trkpt lat="60.0211377" lon="17.6684154">
        <ele>27.0543</ele>
        <time>2013-05-09T11:40:10Z</time>
      </trkpt>
      <trkpt lat="60.0211036" lon="17.6683151">
        <ele>26.5736</ele>
        <time>2013-05-09T11:40:11Z</time>
      </trkpt>
      <trkpt lat="60.0210692" lon="17.668216">
        <ele>26.5736</ele>
        <time>2013-05-09T11:40:12Z</time>
      </trkpt>
      <trkpt lat="60.0210343" lon="17.6681175">
        <ele>26.5736</ele>
        <time>2013-05-09T11:40:13Z</time>
      </trkpt>
      <trkpt lat="60.0209994" lon="17.6680196">
        <ele>26.5736</ele>
        <time>2013-05-09T11:40:14Z</time>
      </trkpt>
      <trkpt lat="60.0209644" lon="17.6679229">
        <ele>26.5736</ele>
        <time>2013-05-09T11:40:15Z</time>
      </trkpt>
      <trkpt lat="60.0209292" lon="17.667828">
        <ele>26.5736</ele>
        <time>2013-05-09T11:40:16Z</time>
      </trkpt>
      <trkpt lat="60.0208937" lon="17.6677337">
        <ele>26.5736</ele>
        <time>2013-05-09T11:40:17Z</time>
      </trkpt>
      <trkpt lat="60.0208589" lon="17.6676389">
        <ele>26.5736</ele>
        <time>2013-05-09T11:40:18Z</time>
      </trkpt>
      <trkpt lat="60.0208242" lon="17.6675442">
        <ele>26.5736</ele>
        <time>2013-05-09T11:40:19Z</time>
      </trkpt>
      <trkpt lat="60.0207892" lon="17.6674519">
        <ele>26.5736</ele>
        <time>2013-05-09T11:40:20Z</time>
      </trkpt>
      <trkpt lat="60.0207544" lon="17.6673603">
        <ele>26.5736</ele>
        <time>2013-05-09T11:40:21Z</time>
      </trkpt>
      <trkpt lat="60.0207199" lon="17.6672681">
        <ele>26.5736</ele>
        <time>2013-05-09T11:40:22Z</time>
      </trkpt>
      <trkpt lat="60.0206857" lon="17.6671747">
        <ele>26.0929</ele>
        <time>2013-05-09T11:40:23Z</time>
      </trkpt>
      <trkpt lat="60.0206514" lon="17.66708">
        <ele>26.0929</ele>
        <time>2013-05-09T11:40:24Z</time>
      </trkpt>
      <trkpt lat="60.0206167" lon="17.6669852">
        <ele>26.0929</ele>
        <time>2013-05-09T11:40:25Z</time>
      </trkpt>
      <trkpt lat="60.0205816" lon="17.6668909">
        <ele>25.6123</ele>
        <time>2013-05-09T11:40:26Z</time>
      </trkpt>
      <trkpt lat="60.0205458" lon="17.666796">
        <ele>25.6123</ele>
        <time>2013-05-09T11:40:27Z</time>
      </trkpt>
      <trkpt lat="60.0205106" lon="17.6666986">
        <ele>25.6123</ele>
        <time>2013-05-09T11:40:28Z</time>
      </trkpt>
      <trkpt lat="60.0204754" lon="17.6665998">
        <ele>25.1317</ele>
        <time>2013-05-09T11:40:29Z</time>
      </trkpt>
      <trkpt lat="60.0204395" lon="17.6664998">
        <ele>25.1317</ele>
        <time>2013-05-09T11:40:30Z</time>
      </trkpt>
      <trkpt lat="60.0204028" lon="17.6664">
        <ele>25.1317</ele>
        <time>2013-05-09T11:40:31Z</time>
      </trkpt>
      <trkpt lat="60.0203658" lon="17.6662994">
        <ele>24.651</ele>
        <time>2013-05-09T11:40:32Z</time>
      </trkpt>
      <trkpt lat="60.0203282" lon="17.6661983">
        <ele>24.651</ele>
        <time>2013-05-09T11:40:33Z</time>
      </trkpt>
      <trkpt lat="60.0202904" lon="17.666098">
        <ele>24.651</ele>
        <time>2013-05-09T11:40:34Z</time>
      </trkpt>
      <trkpt lat="60.020253" lon="17.6659984">
        <ele>24.1703</ele>
        <time>2013-05-09T11:40:35Z</time>
      </trkpt>
      <trkpt lat="60.0202163" lon="17.6658984">
        <ele>24.1703</ele>
        <time>2013-05-09T11:40:36Z</time>
      </trkpt>
      <trkpt lat="60.0201811" lon="17.6657979">
        <ele>24.1703</ele>
        <time>2013-05-09T11:40:37Z</time>
      </trkpt>
      <trkpt lat="60.0201461" lon="17.6656985">
        <ele>24.1703</ele>
        <time>2013-05-09T11:40:38Z</time>
      </trkpt>
      <trkpt lat="60.0201112" lon="17.6655998">
        <ele>24.1703</ele>
        <time>2013-05-09T11:40:39Z</time>
      </trkpt>
      <trkpt lat="60.0200759" lon="17.665501">
        <ele>23.6896</ele>
        <time>2013-05-09T11:40:40Z</time>
      </trkpt>
      <trkpt lat="60.0200407" lon="17.6654017">
        <ele>23.6896</ele>
        <time>2013-05-09T11:40:41Z</time>
      </trkpt>
      <trkpt lat="60.0200064" lon="17.6653015">
        <ele>23.6896</ele>
        <time>2013-05-09T11:40:42Z</time>
      </trkpt>
      <trkpt lat="60.0199723" lon="17.6652016">
        <ele>24.1703</ele>
        <time>2013-05-09T11:40:43Z</time>
      </trkpt>
      <trkpt lat="60.0199382" lon="17.6651017">
        <ele>24.1703</ele>
        <time>2013-05-09T11:40:44Z</time>
      </trkpt>
      <trkpt lat="60.0199045" lon="17.6650007">
        <ele>24.1703</ele>
        <time>2013-05-09T11:40:45Z</time>
      </trkpt>
      <trkpt lat="60.0198718" lon="17.6648967">
        <ele>24.1703</ele>
        <time>2013-05-09T11:40:46Z</time>
      </trkpt>
      <trkpt lat="60.0198397" lon="17.6647912">
        <ele>24.1703</ele>
        <time>2013-05-09T11:40:47Z</time>
      </trkpt>
      <trkpt lat="60.0198076" lon="17.6646851">
        <ele>24.1703</ele>
        <time>2013-05-09T11:40:48Z</time>
      </trkpt>
      <trkpt lat="60.0197759" lon="17.664578">
        <ele>24.1703</ele>
        <time>2013-05-09T11:40:49Z</time>
      </trkpt>
      <trkpt lat="60.019745" lon="17.6644698">
        <ele>24.1703</ele>
        <time>2013-05-09T11:40:50Z</time>
      </trkpt>
      <trkpt lat="60.0197154" lon="17.6643594">
        <ele>24.1703</ele>
        <time>2013-05-09T11:40:51Z</time>
      </trkpt>
      <trkpt lat="60.0196862" lon="17.6642479">
        <ele>24.1703</ele>
        <time>2013-05-09T11:40:52Z</time>
      </trkpt>
      <trkpt lat="60.0196574" lon="17.6641352">
        <ele>24.1703</ele>
        <time>2013-05-09T11:40:53Z</time>
      </trkpt>
      <trkpt lat="60.0196305" lon="17.6640209">
        <ele>24.1703</ele>
        <time>2013-05-09T11:40:54Z</time>
      </trkpt>
      <trkpt lat="60.0196044" lon="17.6639062">
        <ele>24.1703</ele>
        <time>2013-05-09T11:40:55Z</time>
      </trkpt>
      <trkpt lat="60.0195785" lon="17.6637917">
        <ele>24.1703</ele>
        <time>2013-05-09T11:40:56Z</time>
      </trkpt>
      <trkpt lat="60.0195536" lon="17.6636762">
        <ele>24.1703</ele>
        <time>2013-05-09T11:40:57Z</time>
      </trkpt>
      <trkpt lat="60.0195284" lon="17.6635596">
        <ele>24.1703</ele>
        <time>2013-05-09T11:40:58Z</time>
      </trkpt>
      <trkpt lat="60.0195039" lon="17.6634431">
        <ele>24.1703</ele>
        <time>2013-05-09T11:40:59Z</time>
      </trkpt>
      <trkpt lat="60.0194806" lon="17.6633274">
        <ele>24.1703</ele>
        <time>2013-05-09T11:41:00Z</time>
      </trkpt>
      <trkpt lat="60.0194589" lon="17.6632123">
        <ele>24.651</ele>
        <time>2013-05-09T11:41:01Z</time>
      </trkpt>
      <trkpt lat="60.0194382" lon="17.6630971">
        <ele>24.651</ele>
        <time>2013-05-09T11:41:02Z</time>
      </trkpt>
      <trkpt lat="60.019418" lon="17.6629819">
        <ele>24.651</ele>
        <time>2013-05-09T11:41:03Z</time>
      </trkpt>
      <trkpt lat="60.0193981" lon="17.6628661">
        <ele>24.651</ele>
        <time>2013-05-09T11:41:04Z</time>
      </trkpt>
      <trkpt lat="60.0193788" lon="17.662751">
        <ele>24.651</ele>
        <time>2013-05-09T11:41:05Z</time>
      </trkpt>
      <trkpt lat="60.0193605" lon="17.6626369">
        <ele>24.651</ele>
        <time>2013-05-09T11:41:06Z</time>
      </trkpt>
      <trkpt lat="60.0193429" lon="17.6625226">
        <ele>24.651</ele>
        <time>2013-05-09T11:41:07Z</time>
      </trkpt>
      <trkpt lat="60.0193263" lon="17.6624091">
        <ele>24.651</ele>
        <time>2013-05-09T11:41:08Z</time>
      </trkpt>
      <trkpt lat="60.0193096" lon="17.6622957">
        <ele>25.1317</ele>
        <time>2013-05-09T11:41:09Z</time>
      </trkpt>
      <trkpt lat="60.0192947" lon="17.6621811">
        <ele>25.1317</ele>
        <time>2013-05-09T11:41:10Z</time>
      </trkpt>
      <trkpt lat="60.0192809" lon="17.6620641">
        <ele>25.1317</ele>
        <time>2013-05-09T11:41:11Z</time>
      </trkpt>
      <trkpt lat="60.0192678" lon="17.6619453">
        <ele>25.1317</ele>
        <time>2013-05-09T11:41:12Z</time>
      </trkpt>
      <trkpt lat="60.019258" lon="17.6618249">
        <ele>25.6123</ele>
        <time>2013-05-09T11:41:13Z</time>
      </trkpt>
      <trkpt lat="60.0192493" lon="17.6617034">
        <ele>25.6123</ele>
        <time>2013-05-09T11:41:14Z</time>
      </trkpt>
      <trkpt lat="60.0192409" lon="17.6615816">
        <ele>26.0929</ele>
        <time>2013-05-09T11:41:15Z</time>
      </trkpt>
      <trkpt lat="60.019233" lon="17.6614596">
        <ele>26.5736</ele>
        <time>2013-05-09T11:41:16Z</time>
      </trkpt>
      <trkpt lat="60.0192248" lon="17.6613377">
        <ele>26.5736</ele>
        <time>2013-05-09T11:41:17Z</time>
      </trkpt>
      <trkpt lat="60.019216" lon="17.6612157">
        <ele>27.0543</ele>
        <time>2013-05-09T11:41:18Z</time>
      </trkpt>
      <trkpt lat="60.0192077" lon="17.6610918">
        <ele>27.5349</ele>
        <time>2013-05-09T11:41:19Z</time>
      </trkpt>
      <trkpt lat="60.0191994" lon="17.6609666">
        <ele>27.5349</ele>
        <time>2013-05-09T11:41:20Z</time>
      </trkpt>
      <trkpt lat="60.0191913" lon="17.6608414">
        <ele>28.0155</ele>
        <time>2013-05-09T11:41:21Z</time>
      </trkpt>
      <trkpt lat="60.0191838" lon="17.6607163">
        <ele>28.0155</ele>
        <time>2013-05-09T11:41:22Z</time>
      </trkpt>
      <trkpt lat="60.019175" lon="17.6605907">
        <ele>28.0155</ele>
        <time>2013-05-09T11:41:23Z</time>
      </trkpt>
      <trkpt lat="60.0191656" lon="17.6604648">
        <ele>28.4962</ele>
        <time>2013-05-09T11:41:24Z</time>
      </trkpt>
      <trkpt lat="60.0191566" lon="17.6603387">
        <ele>28.4962</ele>
        <time>2013-05-09T11:41:25Z</time>
      </trkpt>
      <trkpt lat="60.0191472" lon="17.6602131">
        <ele>28.4962</ele>
        <time>2013-05-09T11:41:26Z</time>
      </trkpt>
      <trkpt lat="60.0191368" lon="17.6600884">
        <ele>28.4962</ele>
        <time>2013-05-09T11:41:27Z</time>
      </trkpt>
      <trkpt lat="60.0191272" lon="17.6599665">
        <ele>28.4962</ele>
        <time>2013-05-09T11:41:28Z</time>
      </trkpt>
      <trkpt lat="60.0191191" lon="17.6598479">
        <ele>28.4962</ele>
        <time>2013-05-09T11:41:29Z</time>
      </trkpt>
      <trkpt lat="60.0191109" lon="17.6597319">
        <ele>28.9769</ele>
        <time>2013-05-09T11:41:30Z</time>
      </trkpt>
      <trkpt lat="60.0191021" lon="17.6596168">
        <ele>28.9769</ele>
        <time>2013-05-09T11:41:31Z</time>
      </trkpt>
      <trkpt lat="60.0190941" lon="17.6595018">
        <ele>28.9769</ele>
        <time>2013-05-09T11:41:32Z</time>
      </trkpt>
      <trkpt lat="60.019087" lon="17.6593881">
        <ele>29.4575</ele>
        <time>2013-05-09T11:41:33Z</time>
      </trkpt>
      <trkpt lat="60.0190796" lon="17.6592737">
        <ele>29.4575</ele>
        <time>2013-05-09T11:41:34Z</time>
      </trkpt>
      <trkpt lat="60.0190711" lon="17.6591586">
        <ele>29.4575</ele>
        <time>2013-05-09T11:41:35Z</time>
      </trkpt>
      <trkpt lat="60.0190627" lon="17.6590427">
        <ele>29.9381</ele>
        <time>2013-05-09T11:41:36Z</time>
      </trkpt>
      <trkpt lat="60.0190553" lon="17.6589263">
        <ele>29.9381</ele>
        <time>2013-05-09T11:41:37Z</time>
      </trkpt>
      <trkpt lat="60.019049" lon="17.6588095">
        <ele>30.4188</ele>
        <time>2013-05-09T11:41:38Z</time>
      </trkpt>
      <trkpt lat="60.0190425" lon="17.6586924">
        <ele>30.4188</ele>
        <time>2013-05-09T11:41:39Z</time>
      </trkpt>
      <trkpt lat="60.0190351" lon="17.6585748">
        <ele>30.8995</ele>
        <time>2013-05-09T11:41:40Z</time>
      </trkpt>
      <trkpt lat="60.019027" lon="17.6584572">
        <ele>31.3801</ele>
        <time>2013-05-09T11:41:41Z</time>
      </trkpt>
      <trkpt lat="60.0190186" lon="17.6583391">
        <ele>31.3801</ele>
        <time>2013-05-09T11:41:42Z</time>
      </trkpt>
      <trkpt lat="60.0190098" lon="17.6582211">
        <ele>31.8607</ele>
        <time>2013-05-09T11:41:43Z</time>
      </trkpt>
      <trkpt lat="60.0190019" lon="17.6581018">
        <ele>31.8607</ele>
        <time>2013-05-09T11:41:44Z</time>
      </trkpt>
      <trkpt lat="60.0189944" lon="17.6579815">
        <ele>31.8607</ele>
        <time>2013-05-09T11:41:45Z</time>
      </trkpt>
      <trkpt lat="60.0189871" lon="17.6578632">
        <ele>32.3416</ele>
        <time>2013-05-09T11:41:46Z</time>
      </trkpt>
      <trkpt lat="60.0189792" lon="17.6577439">
        <ele>32.3416</ele>
        <time>2013-05-09T11:41:47Z</time>
      </trkpt>
      <trkpt lat="60.0189703" lon="17.6576244">
        <ele>32.3416</ele>
        <time>2013-05-09T11:41:48Z</time>
      </trkpt>
      <trkpt lat="60.0189604" lon="17.657505">
        <ele>32.3416</ele>
        <time>2013-05-09T11:41:49Z</time>
      </trkpt>
      <trkpt lat="60.0189511" lon="17.6573854">
        <ele>32.3416</ele>
        <time>2013-05-09T11:41:50Z</time>
      </trkpt>
      <trkpt lat="60.018943" lon="17.6572658">
        <ele>32.3416</ele>
        <time>2013-05-09T11:41:51Z</time>
      </trkpt>
      <trkpt lat="60.0189356" lon="17.6571461">
        <ele>32.8223</ele>
        <time>2013-05-09T11:41:52Z</time>
      </trkpt>
      <trkpt lat="60.018927" lon="17.6570291">
        <ele>32.8223</ele>
        <time>2013-05-09T11:41:53Z</time>
      </trkpt>
      <trkpt lat="60.0189176" lon="17.6569116">
        <ele>32.8223</ele>
        <time>2013-05-09T11:41:54Z</time>
      </trkpt>
      <trkpt lat="60.0189087" lon="17.6567942">
        <ele>33.3029</ele>
        <time>2013-05-09T11:41:55Z</time>
      </trkpt>
      <trkpt lat="60.0189004" lon="17.6566758">
        <ele>33.3029</ele>
        <time>2013-05-09T11:41:56Z</time>
      </trkpt>
      <trkpt lat="60.0188928" lon="17.6565581">
        <ele>33.3029</ele>
        <time>2013-05-09T11:41:57Z</time>
      </trkpt>
      <trkpt lat="60.0188851" lon="17.6564395">
        <ele>33.7834</ele>
        <time>2013-05-09T11:41:58Z</time>
      </trkpt>
      <trkpt lat="60.0188776" lon="17.656322">
        <ele>33.7834</ele>
        <time>2013-05-09T11:41:59Z</time>
      </trkpt>
      <trkpt lat="60.018869" lon="17.6562042">
        <ele>33.7834</ele>
        <time>2013-05-09T11:42:00Z</time>
      </trkpt>
      <trkpt lat="60.0188594" lon="17.6560863">
        <ele>33.7834</ele>
        <time>2013-05-09T11:42:01Z</time>
      </trkpt>
      <trkpt lat="60.0188493" lon="17.6559687">
        <ele>33.7834</ele>
        <time>2013-05-09T11:42:02Z</time>
      </trkpt>
      <trkpt lat="60.0188379" lon="17.6558444">
        <ele>33.3029</ele>
        <time>2013-05-09T11:42:03Z</time>
      </trkpt>
      <trkpt lat="60.0188269" lon="17.6557186">
        <ele>32.8223</ele>
        <time>2013-05-09T11:42:04Z</time>
      </trkpt>
      <trkpt lat="60.0188173" lon="17.6555971">
        <ele>32.8223</ele>
        <time>2013-05-09T11:42:05Z</time>
      </trkpt>
      <trkpt lat="60.0188078" lon="17.655475">
        <ele>33.3029</ele>
        <time>2013-05-09T11:42:06Z</time>
      </trkpt>
      <trkpt lat="60.018799" lon="17.6553513">
        <ele>33.3029</ele>
        <time>2013-05-09T11:42:07Z</time>
      </trkpt>
      <trkpt lat="60.0187907" lon="17.6552277">
        <ele>33.3029</ele>
        <time>2013-05-09T11:42:08Z</time>
      </trkpt>
      <trkpt lat="60.0187824" lon="17.6551026">
        <ele>33.7834</ele>
        <time>2013-05-09T11:42:09Z</time>
      </trkpt>
      <trkpt lat="60.0187734" lon="17.6549755">
        <ele>33.7834</ele>
        <time>2013-05-09T11:42:10Z</time>
      </trkpt>
      <trkpt lat="60.0187629" lon="17.6548483">
        <ele>33.7834</ele>
        <time>2013-05-09T11:42:11Z</time>
      </trkpt>
      <trkpt lat="60.018752" lon="17.6547219">
        <ele>33.7834</ele>
        <time>2013-05-09T11:42:12Z</time>
      </trkpt>
      <trkpt lat="60.018742" lon="17.654596">
        <ele>34.2642</ele>
        <time>2013-05-09T11:42:13Z</time>
      </trkpt>
      <trkpt lat="60.0187338" lon="17.6544697">
        <ele>34.2642</ele>
        <time>2013-05-09T11:42:14Z</time>
      </trkpt>
      <trkpt lat="60.018726" lon="17.6543431">
        <ele>34.7449</ele>
        <time>2013-05-09T11:42:15Z</time>
      </trkpt>
      <trkpt lat="60.018718" lon="17.6542183">
        <ele>34.7449</ele>
        <time>2013-05-09T11:42:16Z</time>
      </trkpt>
      <trkpt lat="60.0187094" lon="17.6540974">
        <ele>34.7449</ele>
        <time>2013-05-09T11:42:17Z</time>
      </trkpt>
      <trkpt lat="60.018697" lon="17.6539692">
        <ele>34.2642</ele>
        <time>2013-05-09T11:42:18Z</time>
      </trkpt>
      <trkpt lat="60.0186866" lon="17.6538442">
        <ele>34.2642</ele>
        <time>2013-05-09T11:42:19Z</time>
      </trkpt>
      <trkpt lat="60.0186767" lon="17.6537148">
        <ele>34.2642</ele>
        <time>2013-05-09T11:42:20Z</time>
      </trkpt>
      <trkpt lat="60.0186655" lon="17.6535833">
        <ele>34.2642</ele>
        <time>2013-05-09T11:42:21Z</time>
      </trkpt>
      <trkpt lat="60.0186538" lon="17.653452">
        <ele>34.2642</ele>
        <time>2013-05-09T11:42:22Z</time>
      </trkpt>
      <trkpt lat="60.0186405" lon="17.65332">
        <ele>34.2642</ele>
        <time>2013-05-09T11:42:23Z</time>
      </trkpt>
      <trkpt lat="60.0186286" lon="17.6531884">
        <ele>34.7449</ele>
        <time>2013-05-09T11:42:24Z</time>
      </trkpt>
      <trkpt lat="60.0186178" lon="17.6530601">
        <ele>34.7449</ele>
        <time>2013-05-09T11:42:25Z</time>
      </trkpt>
      <trkpt lat="60.018609" lon="17.6529374">
        <ele>35.2255</ele>
        <time>2013-05-09T11:42:26Z</time>
      </trkpt>
      <trkpt lat="60.0186011" lon="17.6528165">
        <ele>35.7061</ele>
        <time>2013-05-09T11:42:27Z</time>
      </trkpt>
      <trkpt lat="60.0185927" lon="17.6526969">
        <ele>35.7061</ele>
        <time>2013-05-09T11:42:28Z</time>
      </trkpt>
      <trkpt lat="60.0185836" lon="17.6525786">
        <ele>36.1868</ele>
        <time>2013-05-09T11:42:29Z</time>
      </trkpt>
      <trkpt lat="60.018575" lon="17.6524621">
        <ele>36.1868</ele>
        <time>2013-05-09T11:42:30Z</time>
      </trkpt>
      <trkpt lat="60.018566" lon="17.6523473">
        <ele>36.6675</ele>
        <time>2013-05-09T11:42:31Z</time>
      </trkpt>
      <trkpt lat="60.0185576" lon="17.6522327">
        <ele>36.6675</ele>
        <time>2013-05-09T11:42:32Z</time>
      </trkpt>
      <trkpt lat="60.0185493" lon="17.6521179">
        <ele>37.1481</ele>
        <time>2013-05-09T11:42:33Z</time>
      </trkpt>
      <trkpt lat="60.0185412" lon="17.6520037">
        <ele>37.1481</ele>
        <time>2013-05-09T11:42:34Z</time>
      </trkpt>
      <trkpt lat="60.0185331" lon="17.6518894">
        <ele>37.6287</ele>
        <time>2013-05-09T11:42:35Z</time>
      </trkpt>
      <trkpt lat="60.0185248" lon="17.6517755">
        <ele>37.6287</ele>
        <time>2013-05-09T11:42:36Z</time>
      </trkpt>
      <trkpt lat="60.0185166" lon="17.6516614">
        <ele>38.1094</ele>
        <time>2013-05-09T11:42:37Z</time>
      </trkpt>
      <trkpt lat="60.0185088" lon="17.6515465">
        <ele>38.1094</ele>
        <time>2013-05-09T11:42:38Z</time>
      </trkpt>
      <trkpt lat="60.0185012" lon="17.651431">
        <ele>38.5901</ele>
        <time>2013-05-09T11:42:39Z</time>
      </trkpt>
      <trkpt lat="60.0184932" lon="17.651314">
        <ele>38.5901</ele>
        <time>2013-05-09T11:42:40Z</time>
      </trkpt>
      <trkpt lat="60.0184855" lon="17.6511957">
        <ele>38.5901</ele>
        <time>2013-05-09T11:42:41Z</time>
      </trkpt>
      <trkpt lat="60.0184785" lon="17.6510771">
        <ele>39.0707</ele>
        <time>2013-05-09T11:42:42Z</time>
      </trkpt>
      <trkpt lat="60.0184725" lon="17.6509575">
        <ele>39.0707</ele>
        <time>2013-05-09T11:42:43Z</time>
      </trkpt>
      <trkpt lat="60.018467" lon="17.6508368">
        <ele>39.0707</ele>
        <time>2013-05-09T11:42:44Z</time>
      </trkpt>
      <trkpt lat="60.0184613" lon="17.6507162">
        <ele>39.5513</ele>
        <time>2013-05-09T11:42:45Z</time>
      </trkpt>
      <trkpt lat="60.0184556" lon="17.6505964">
        <ele>39.5513</ele>
        <time>2013-05-09T11:42:46Z</time>
      </trkpt>
      <trkpt lat="60.0184504" lon="17.6504777">
        <ele>39.5513</ele>
        <time>2013-05-09T11:42:47Z</time>
      </trkpt>
      <trkpt lat="60.0184461" lon="17.65036">
        <ele>40.0321</ele>
        <time>2013-05-09T11:42:48Z</time>
      </trkpt>
      <trkpt lat="60.0184422" lon="17.6502426">
        <ele>40.0321</ele>
        <time>2013-05-09T11:42:49Z</time>
      </trkpt>
      <trkpt lat="60.018438" lon="17.6501251">
        <ele>40.0321</ele>
        <time>2013-05-09T11:42:50Z</time>
      </trkpt>
      <trkpt lat="60.0184333" lon="17.6500079">
        <ele>40.0321</ele>
        <time>2013-05-09T11:42:51Z</time>
      </trkpt>
      <trkpt lat="60.0184303" lon="17.6498904">
        <ele>40.0321</ele>
        <time>2013-05-09T11:42:52Z</time>
      </trkpt>
      <trkpt lat="60.0184295" lon="17.6497721">
        <ele>40.5128</ele>
        <time>2013-05-09T11:42:53Z</time>
      </trkpt>
      <trkpt lat="60.0184285" lon="17.6496535">
        <ele>40.5128</ele>
        <time>2013-05-09T11:42:54Z</time>
      </trkpt>
      <trkpt lat="60.0184275" lon="17.6495348">
        <ele>40.5128</ele>
        <time>2013-05-09T11:42:55Z</time>
      </trkpt>
      <trkpt lat="60.0184269" lon="17.649417">
        <ele>40.9934</ele>
        <time>2013-05-09T11:42:56Z</time>
      </trkpt>
      <trkpt lat="60.0184261" lon="17.6492978">
        <ele>40.9934</ele>
        <time>2013-05-09T11:42:57Z</time>
      </trkpt>
      <trkpt lat="60.0184248" lon="17.6491786">
        <ele>40.9934</ele>
        <time>2013-05-09T11:42:58Z</time>
      </trkpt>
      <trkpt lat="60.0184234" lon="17.649059">
        <ele>40.9934</ele>
        <time>2013-05-09T11:42:59Z</time>
      </trkpt>
      <trkpt lat="60.0184232" lon="17.6489393">
        <ele>40.9934</ele>
        <time>2013-05-09T11:43:00Z</time>
      </trkpt>
      <trkpt lat="60.0184227" lon="17.6488177">
        <ele>41.474</ele>
        <time>2013-05-09T11:43:01Z</time>
      </trkpt>
      <trkpt lat="60.0184225" lon="17.6486947">
        <ele>41.474</ele>
        <time>2013-05-09T11:43:02Z</time>
      </trkpt>
      <trkpt lat="60.0184228" lon="17.648572">
        <ele>41.474</ele>
        <time>2013-05-09T11:43:03Z</time>
      </trkpt>
      <trkpt lat="60.0184223" lon="17.6484491">
        <ele>41.474</ele>
        <time>2013-05-09T11:43:04Z</time>
      </trkpt>
      <trkpt lat="60.0184218" lon="17.648327">
        <ele>41.9547</ele>
        <time>2013-05-09T11:43:05Z</time>
      </trkpt>
      <trkpt lat="60.0184217" lon="17.6482051">
        <ele>41.9547</ele>
        <time>2013-05-09T11:43:06Z</time>
      </trkpt>
      <trkpt lat="60.0184217" lon="17.6480821">
        <ele>41.9547</ele>
        <time>2013-05-09T11:43:07Z</time>
      </trkpt>
      <trkpt lat="60.0184214" lon="17.6479581">
        <ele>41.9547</ele>
        <time>2013-05-09T11:43:08Z</time>
      </trkpt>
      <trkpt lat="60.0184204" lon="17.6478339">
        <ele>42.4354</ele>
        <time>2013-05-09T11:43:09Z</time>
      </trkpt>
      <trkpt lat="60.0184188" lon="17.6477085">
        <ele>42.4354</ele>
        <time>2013-05-09T11:43:10Z</time>
      </trkpt>
      <trkpt lat="60.0184178" lon="17.6475825">
        <ele>42.4354</ele>
        <time>2013-05-09T11:43:11Z</time>
      </trkpt>
      <trkpt lat="60.0184178" lon="17.6474571">
        <ele>42.4354</ele>
        <time>2013-05-09T11:43:12Z</time>
      </trkpt>
      <trkpt lat="60.0184167" lon="17.6473327">
        <ele>42.4354</ele>
        <time>2013-05-09T11:43:13Z</time>
      </trkpt>
      <trkpt lat="60.0184161" lon="17.6472122">
        <ele>42.4354</ele>
        <time>2013-05-09T11:43:14Z</time>
      </trkpt>
      <trkpt lat="60.0184168" lon="17.6470957">
        <ele>42.4354</ele>
        <time>2013-05-09T11:43:15Z</time>
      </trkpt>
      <trkpt lat="60.0184175" lon="17.6469817">
        <ele>42.4354</ele>
        <time>2013-05-09T11:43:16Z</time>
      </trkpt>
      <trkpt lat="60.0184161" lon="17.6468636">
        <ele>42.4354</ele>
        <time>2013-05-09T11:43:17Z</time>
      </trkpt>
      <trkpt lat="60.0184147" lon="17.6467454">
        <ele>42.4354</ele>
        <time>2013-05-09T11:43:18Z</time>
      </trkpt>
      <trkpt lat="60.0184137" lon="17.6466272">
        <ele>41.9547</ele>
        <time>2013-05-09T11:43:19Z</time>
      </trkpt>
      <trkpt lat="60.018412" lon="17.6465077">
        <ele>41.9547</ele>
        <time>2013-05-09T11:43:20Z</time>
      </trkpt>
      <trkpt lat="60.01841" lon="17.6463876">
        <ele>41.9547</ele>
        <time>2013-05-09T11:43:21Z</time>
      </trkpt>
      <trkpt lat="60.0184087" lon="17.6462679">
        <ele>41.9547</ele>
        <time>2013-05-09T11:43:22Z</time>
      </trkpt>
      <trkpt lat="60.0184088" lon="17.6461488">
        <ele>41.9547</ele>
        <time>2013-05-09T11:43:23Z</time>
      </trkpt>
      <trkpt lat="60.0184088" lon="17.6460282">
        <ele>42.4354</ele>
        <time>2013-05-09T11:43:24Z</time>
      </trkpt>
      <trkpt lat="60.0184084" lon="17.6459065">
        <ele>42.4354</ele>
        <time>2013-05-09T11:43:25Z</time>
      </trkpt>
      <trkpt lat="60.0184077" lon="17.645785">
        <ele>42.4354</ele>
        <time>2013-05-09T11:43:26Z</time>
      </trkpt>
      <trkpt lat="60.0184065" lon="17.6456639">
        <ele>42.916</ele>
        <time>2013-05-09T11:43:27Z</time>
      </trkpt>
      <trkpt lat="60.0184057" lon="17.6455427">
        <ele>42.916</ele>
        <time>2013-05-09T11:43:28Z</time>
      </trkpt>
      <trkpt lat="60.0184056" lon="17.6454223">
        <ele>43.3966</ele>
        <time>2013-05-09T11:43:29Z</time>
      </trkpt>
      <trkpt lat="60.0184062" lon="17.6453017">
        <ele>43.3966</ele>
        <time>2013-05-09T11:43:30Z</time>
      </trkpt>
      <trkpt lat="60.0184065" lon="17.6451818">
        <ele>43.8773</ele>
        <time>2013-05-09T11:43:31Z</time>
      </trkpt>
      <trkpt lat="60.0184058" lon="17.6450625">
        <ele>44.358</ele>
        <time>2013-05-09T11:43:32Z</time>
      </trkpt>
      <trkpt lat="60.0184048" lon="17.6449424">
        <ele>44.358</ele>
        <time>2013-05-09T11:43:33Z</time>
      </trkpt>
      <trkpt lat="60.0184046" lon="17.6448246">
        <ele>44.8386</ele>
        <time>2013-05-09T11:43:34Z</time>
      </trkpt>
      <trkpt lat="60.0184053" lon="17.644706">
        <ele>44.8386</ele>
        <time>2013-05-09T11:43:35Z</time>
      </trkpt>
      <trkpt lat="60.0184065" lon="17.6445875">
        <ele>45.3192</ele>
        <time>2013-05-09T11:43:36Z</time>
      </trkpt>
      <trkpt lat="60.0184082" lon="17.6444667">
        <ele>45.3192</ele>
        <time>2013-05-09T11:43:37Z</time>
      </trkpt>
      <trkpt lat="60.0184095" lon="17.6443438">
        <ele>45.3192</ele>
        <time>2013-05-09T11:43:38Z</time>
      </trkpt>
      <trkpt lat="60.01841" lon="17.6442203">
        <ele>45.3192</ele>
        <time>2013-05-09T11:43:39Z</time>
      </trkpt>
      <trkpt lat="60.0184109" lon="17.644098">
        <ele>45.7999</ele>
        <time>2013-05-09T11:43:40Z</time>
      </trkpt>
      <trkpt lat="60.0184124" lon="17.6439773">
        <ele>45.7999</ele>
        <time>2013-05-09T11:43:41Z</time>
      </trkpt>
      <trkpt lat="60.018414" lon="17.643859">
        <ele>45.7999</ele>
        <time>2013-05-09T11:43:42Z</time>
      </trkpt>
      <trkpt lat="60.0184155" lon="17.6437426">
        <ele>46.2806</ele>
        <time>2013-05-09T11:43:43Z</time>
      </trkpt>
      <trkpt lat="60.018415" lon="17.6436279">
        <ele>45.7999</ele>
        <time>2013-05-09T11:43:44Z</time>
      </trkpt>
      <trkpt lat="60.0184141" lon="17.6435138">
        <ele>45.7999</ele>
        <time>2013-05-09T11:43:45Z</time>
      </trkpt>
      <trkpt lat="60.0184119" lon="17.6433993">
        <ele>45.7999</ele>
        <time>2013-05-09T11:43:46Z</time>
      </trkpt>
      <trkpt lat="60.0184085" lon="17.6432852">
        <ele>45.7999</ele>
        <time>2013-05-09T11:43:47Z</time>
      </trkpt>
      <trkpt lat="60.0184053" lon="17.6431712">
        <ele>45.7999</ele>
        <time>2013-05-09T11:43:48Z</time>
      </trkpt>
      <trkpt lat="60.0184012" lon="17.6430569">
        <ele>45.7999</ele>
        <time>2013-05-09T11:43:49Z</time>
      </trkpt>
      <trkpt lat="60.0183968" lon="17.6429454">
        <ele>45.7999</ele>
        <time>2013-05-09T11:43:50Z</time>
      </trkpt>
      <trkpt lat="60.0183913" lon="17.6428333">
        <ele>45.7999</ele>
        <time>2013-05-09T11:43:51Z</time>
      </trkpt>
      <trkpt lat="60.0183851" lon="17.6427212">
        <ele>45.7999</ele>
        <time>2013-05-09T11:43:52Z</time>
      </trkpt>
      <trkpt lat="60.0183777" lon="17.6426096">
        <ele>46.2806</ele>
        <time>2013-05-09T11:43:53Z</time>
      </trkpt>
      <trkpt lat="60.0183692" lon="17.6424963">
        <ele>46.2806</ele>
        <time>2013-05-09T11:43:54Z</time>
      </trkpt>
      <trkpt lat="60.0183607" lon="17.6423821">
        <ele>46.2806</ele>
        <time>2013-05-09T11:43:55Z</time>
      </trkpt>
      <trkpt lat="60.018351" lon="17.6422685">
        <ele>46.7612</ele>
        <time>2013-05-09T11:43:56Z</time>
      </trkpt>
      <trkpt lat="60.0183415" lon="17.6421539">
        <ele>46.7612</ele>
        <time>2013-05-09T11:43:57Z</time>
      </trkpt>
      <trkpt lat="60.0183321" lon="17.6420373">
        <ele>46.7612</ele>
        <time>2013-05-09T11:43:58Z</time>
      </trkpt>
      <trkpt lat="60.018322" lon="17.6419198">
        <ele>46.7612</ele>
        <time>2013-05-09T11:43:59Z</time>
      </trkpt>
      <trkpt lat="60.018309" lon="17.6417881">
        <ele>45.3192</ele>
        <time>2013-05-09T11:44:00Z</time>
      </trkpt>
      <trkpt lat="60.0182956" lon="17.6416572">
        <ele>44.358</ele>
        <time>2013-05-09T11:44:01Z</time>
      </trkpt>
      <trkpt lat="60.0182826" lon="17.6415277">
        <ele>43.3966</ele>
        <time>2013-05-09T11:44:02Z</time>
      </trkpt>
      <trkpt lat="60.0182694" lon="17.6413977">
        <ele>42.4354</ele>
        <time>2013-05-09T11:44:03Z</time>
      </trkpt>
      <trkpt lat="60.0182562" lon="17.6412686">
        <ele>41.474</ele>
        <time>2013-05-09T11:44:04Z</time>
      </trkpt>
      <trkpt lat="60.0182432" lon="17.6411411">
        <ele>40.9934</ele>
        <time>2013-05-09T11:44:05Z</time>
      </trkpt>
      <trkpt lat="60.0182298" lon="17.6410143">
        <ele>40.5128</ele>
        <time>2013-05-09T11:44:06Z</time>
      </trkpt>
      <trkpt lat="60.0182171" lon="17.6408883">
        <ele>40.0321</ele>
        <time>2013-05-09T11:44:07Z</time>
      </trkpt>
      <trkpt lat="60.0182044" lon="17.6407625">
        <ele>39.5513</ele>
        <time>2013-05-09T11:44:08Z</time>
      </trkpt>
      <trkpt lat="60.0181919" lon="17.640637">
        <ele>39.5513</ele>
        <time>2013-05-09T11:44:09Z</time>
      </trkpt>
      <trkpt lat="60.0181793" lon="17.6405128">
        <ele>39.0707</ele>
        <time>2013-05-09T11:44:10Z</time>
      </trkpt>
      <trkpt lat="60.0181669" lon="17.6403896">
        <ele>39.0707</ele>
        <time>2013-05-09T11:44:11Z</time>
      </trkpt>
      <trkpt lat="60.018155" lon="17.640266">
        <ele>38.5901</ele>
        <time>2013-05-09T11:44:12Z</time>
      </trkpt>
      <trkpt lat="60.0181427" lon="17.6401425">
        <ele>38.5901</ele>
        <time>2013-05-09T11:44:13Z</time>
      </trkpt>
      <trkpt lat="60.0181298" lon="17.6400192">
        <ele>38.1094</ele>
        <time>2013-05-09T11:44:14Z</time>
      </trkpt>
      <trkpt lat="60.0181176" lon="17.6398954">
        <ele>38.1094</ele>
        <time>2013-05-09T11:44:15Z</time>
      </trkpt>
      <trkpt lat="60.0181064" lon="17.6397703">
        <ele>38.1094</ele>
        <time>2013-05-09T11:44:16Z</time>
      </trkpt>
      <trkpt lat="60.0180954" lon="17.6396436">
        <ele>37.6287</ele>
        <time>2013-05-09T11:44:17Z</time>
      </trkpt>
      <trkpt lat="60.0180836" lon="17.6395167">
        <ele>37.6287</ele>
        <time>2013-05-09T11:44:18Z</time>
      </trkpt>
      <trkpt lat="60.0180717" lon="17.6393891">
        <ele>37.6287</ele>
        <time>2013-05-09T11:44:19Z</time>
      </trkpt>
      <trkpt lat="60.0180593" lon="17.6392624">
        <ele>37.1481</ele>
        <time>2013-05-09T11:44:20Z</time>
      </trkpt>
      <trkpt lat="60.0180467" lon="17.639136">
        <ele>37.1481</ele>
        <time>2013-05-09T11:44:21Z</time>
      </trkpt>
      <trkpt lat="60.0180344" lon="17.639009">
        <ele>37.1481</ele>
        <time>2013-05-09T11:44:22Z</time>
      </trkpt>
      <trkpt lat="60.018022" lon="17.6388799">
        <ele>37.1481</ele>
        <time>2013-05-09T11:44:23Z</time>
      </trkpt>
      <trkpt lat="60.018009" lon="17.6387501">
        <ele>37.1481</ele>
        <time>2013-05-09T11:44:24Z</time>
      </trkpt>
      <trkpt lat="60.0179944" lon="17.6386217">
        <ele>37.1481</ele>
        <time>2013-05-09T11:44:25Z</time>
      </trkpt>
      <trkpt lat="60.0179775" lon="17.6384957">
        <ele>37.1481</ele>
        <time>2013-05-09T11:44:26Z</time>
      </trkpt>
      <trkpt lat="60.0179598" lon="17.6383708">
        <ele>37.1481</ele>
        <time>2013-05-09T11:44:27Z</time>
      </trkpt>
      <trkpt lat="60.0179418" lon="17.638246">
        <ele>37.1481</ele>
        <time>2013-05-09T11:44:28Z</time>
      </trkpt>
      <trkpt lat="60.0179225" lon="17.6381225">
        <ele>37.1481</ele>
        <time>2013-05-09T11:44:29Z</time>
      </trkpt>
      <trkpt lat="60.0179008" lon="17.638002">
        <ele>37.1481</ele>
        <time>2013-05-09T11:44:30Z</time>
      </trkpt>
      <trkpt lat="60.0178767" lon="17.6378832">
        <ele>37.1481</ele>
        <time>2013-05-09T11:44:31Z</time>
      </trkpt>
      <trkpt lat="60.01785" lon="17.6377651">
        <ele>37.1481</ele>
        <time>2013-05-09T11:44:32Z</time>
      </trkpt>
      <trkpt lat="60.0178219" lon="17.6376473">
        <ele>37.1481</ele>
        <time>2013-05-09T11:44:33Z</time>
      </trkpt>
      <trkpt lat="60.017793" lon="17.6375316">
        <ele>37.1481</ele>
        <time>2013-05-09T11:44:34Z</time>
      </trkpt>
      <trkpt lat="60.0177628" lon="17.6374173">
        <ele>37.1481</ele>
        <time>2013-05-09T11:44:35Z</time>
      </trkpt>
      <trkpt lat="60.0177315" lon="17.6373039">
        <ele>37.1481</ele>
        <time>2013-05-09T11:44:36Z</time>
      </trkpt>
      <trkpt lat="60.0176999" lon="17.637193">
        <ele>37.1481</ele>
        <time>2013-05-09T11:44:37Z</time>
      </trkpt>
      <trkpt lat="60.0176683" lon="17.6370829">
        <ele>37.6287</ele>
        <time>2013-05-09T11:44:38Z</time>
      </trkpt>
      <trkpt lat="60.0176362" lon="17.6369703">
        <ele>37.1481</ele>
        <time>2013-05-09T11:44:39Z</time>
      </trkpt>
      <trkpt lat="60.0176034" lon="17.6368572">
        <ele>36.6675</ele>
        <time>2013-05-09T11:44:40Z</time>
      </trkpt>
      <trkpt lat="60.0175696" lon="17.6367443">
        <ele>36.6675</ele>
        <time>2013-05-09T11:44:41Z</time>
      </trkpt>
      <trkpt lat="60.0175351" lon="17.6366314">
        <ele>36.1868</ele>
        <time>2013-05-09T11:44:42Z</time>
      </trkpt>
      <trkpt lat="60.0175014" lon="17.636518">
        <ele>36.1868</ele>
        <time>2013-05-09T11:44:43Z</time>
      </trkpt>
      <trkpt lat="60.017468" lon="17.6364051">
        <ele>36.1868</ele>
        <time>2013-05-09T11:44:44Z</time>
      </trkpt>
      <trkpt lat="60.0174351" lon="17.6362925">
        <ele>36.1868</ele>
        <time>2013-05-09T11:44:45Z</time>
      </trkpt>
      <trkpt lat="60.0174036" lon="17.6361792">
        <ele>36.1868</ele>
        <time>2013-05-09T11:44:46Z</time>
      </trkpt>
      <trkpt lat="60.0173724" lon="17.6360667">
        <ele>35.7061</ele>
        <time>2013-05-09T11:44:47Z</time>
      </trkpt>
      <trkpt lat="60.0173407" lon="17.6359555">
        <ele>35.7061</ele>
        <time>2013-05-09T11:44:48Z</time>
      </trkpt>
      <trkpt lat="60.0173085" lon="17.6358462">
        <ele>35.7061</ele>
        <time>2013-05-09T11:44:49Z</time>
      </trkpt>
      <trkpt lat="60.0172764" lon="17.6357388">
        <ele>35.7061</ele>
        <time>2013-05-09T11:44:50Z</time>
      </trkpt>
      <trkpt lat="60.0172453" lon="17.6356319">
        <ele>35.7061</ele>
        <time>2013-05-09T11:44:51Z</time>
      </trkpt>
      <trkpt lat="60.0172159" lon="17.6355257">
        <ele>35.7061</ele>
        <time>2013-05-09T11:44:52Z</time>
      </trkpt>
      <trkpt lat="60.0171866" lon="17.6354203">
        <ele>35.7061</ele>
        <time>2013-05-09T11:44:53Z</time>
      </trkpt>
      <trkpt lat="60.0171565" lon="17.6353156">
        <ele>35.2255</ele>
        <time>2013-05-09T11:44:54Z</time>
      </trkpt>
      <trkpt lat="60.0171262" lon="17.635212">
        <ele>35.2255</ele>
        <time>2013-05-09T11:44:55Z</time>
      </trkpt>
      <trkpt lat="60.0170958" lon="17.635109">
        <ele>35.2255</ele>
        <time>2013-05-09T11:44:56Z</time>
      </trkpt>
      <trkpt lat="60.0170656" lon="17.6350065">
        <ele>34.7449</ele>
        <time>2013-05-09T11:44:57Z</time>
      </trkpt>
      <trkpt lat="60.0170353" lon="17.6349046">
        <ele>34.7449</ele>
        <time>2013-05-09T11:44:58Z</time>
      </trkpt>
      <trkpt lat="60.0170051" lon="17.6348001">
        <ele>34.7449</ele>
        <time>2013-05-09T11:44:59Z</time>
      </trkpt>
      <trkpt lat="60.016974" lon="17.6346956">
        <ele>34.2642</ele>
        <time>2013-05-09T11:45:00Z</time>
      </trkpt>
      <trkpt lat="60.0169445" lon="17.6345894">
        <ele>34.2642</ele>
        <time>2013-05-09T11:45:01Z</time>
      </trkpt>
      <trkpt lat="60.0169146" lon="17.6344822">
        <ele>34.2642</ele>
        <time>2013-05-09T11:45:02Z</time>
      </trkpt>
      <trkpt lat="60.0168839" lon="17.6343758">
        <ele>33.7834</ele>
        <time>2013-05-09T11:45:03Z</time>
      </trkpt>
      <trkpt lat="60.0168528" lon="17.6342692">
        <ele>33.7834</ele>
        <time>2013-05-09T11:45:04Z</time>
      </trkpt>
      <trkpt lat="60.0168207" lon="17.634163">
        <ele>33.7834</ele>
        <time>2013-05-09T11:45:05Z</time>
      </trkpt>
      <trkpt lat="60.0167871" lon="17.6340582">
        <ele>33.7834</ele>
        <time>2013-05-09T11:45:06Z</time>
      </trkpt>
      <trkpt lat="60.0167518" lon="17.6339534">
        <ele>33.7834</ele>
        <time>2013-05-09T11:45:07Z</time>
      </trkpt>
      <trkpt lat="60.016714" lon="17.6338507">
        <ele>33.3029</ele>
        <time>2013-05-09T11:45:08Z</time>
      </trkpt>
      <trkpt lat="60.0166747" lon="17.6337503">
        <ele>33.3029</ele>
        <time>2013-05-09T11:45:09Z</time>
      </trkpt>
      <trkpt lat="60.0166348" lon="17.6336522">
        <ele>33.3029</ele>
        <time>2013-05-09T11:45:10Z</time>
      </trkpt>
      <trkpt lat="60.0165939" lon="17.6335579">
        <ele>33.3029</ele>
        <time>2013-05-09T11:45:11Z</time>
      </trkpt>
      <trkpt lat="60.0165523" lon="17.6334673">
        <ele>33.3029</ele>
        <time>2013-05-09T11:45:12Z</time>
      </trkpt>
      <trkpt lat="60.016509" lon="17.6333791">
        <ele>33.3029</ele>
        <time>2013-05-09T11:45:13Z</time>
      </trkpt>
      <trkpt lat="60.0164645" lon="17.6332918">
        <ele>33.3029</ele>
        <time>2013-05-09T11:45:14Z</time>
      </trkpt>
      <trkpt lat="60.0164197" lon="17.6332042">
        <ele>33.7834</ele>
        <time>2013-05-09T11:45:15Z</time>
      </trkpt>
      <trkpt lat="60.0163737" lon="17.6331182">
        <ele>33.7834</ele>
        <time>2013-05-09T11:45:16Z</time>
      </trkpt>
      <trkpt lat="60.0163279" lon="17.6330324">
        <ele>33.7834</ele>
        <time>2013-05-09T11:45:17Z</time>
      </trkpt>
      <trkpt lat="60.016282" lon="17.6329457">
        <ele>33.7834</ele>
        <time>2013-05-09T11:45:18Z</time>
      </trkpt>
      <trkpt lat="60.0162364" lon="17.6328583">
        <ele>33.7834</ele>
        <time>2013-05-09T11:45:19Z</time>
      </trkpt>
      <trkpt lat="60.0161906" lon="17.6327725">
        <ele>33.7834</ele>
        <time>2013-05-09T11:45:20Z</time>
      </trkpt>
      <trkpt lat="60.0161452" lon="17.6326874">
        <ele>33.7834</ele>
        <time>2013-05-09T11:45:21Z</time>
      </trkpt>
      <trkpt lat="60.0160975" lon="17.6325988">
        <ele>34.2642</ele>
        <time>2013-05-09T11:45:22Z</time>
      </trkpt>
      <trkpt lat="60.0160525" lon="17.6325153">
        <ele>34.2642</ele>
        <time>2013-05-09T11:45:23Z</time>
      </trkpt>
      <trkpt lat="60.0160098" lon="17.6324382">
        <ele>34.2642</ele>
        <time>2013-05-09T11:45:24Z</time>
      </trkpt>
      <trkpt lat="60.0159654" lon="17.6323546">
        <ele>34.2642</ele>
        <time>2013-05-09T11:45:25Z</time>
      </trkpt>
      <trkpt lat="60.0159189" lon="17.6322708">
        <ele>34.2642</ele>
        <time>2013-05-09T11:45:26Z</time>
      </trkpt>
      <trkpt lat="60.0158747" lon="17.6321841">
        <ele>34.2642</ele>
        <time>2013-05-09T11:45:27Z</time>
      </trkpt>
      <trkpt lat="60.0158312" lon="17.6320956">
        <ele>34.2642</ele>
        <time>2013-05-09T11:45:28Z</time>
      </trkpt>
      <trkpt lat="60.0157877" lon="17.6320061">
        <ele>34.2642</ele>
        <time>2013-05-09T11:45:29Z</time>
      </trkpt>
      <trkpt lat="60.0157448" lon="17.631916">
        <ele>34.2642</ele>
        <time>2013-05-09T11:45:30Z</time>
      </trkpt>
      <trkpt lat="60.0157032" lon="17.6318262">
        <ele>34.2642</ele>
        <time>2013-05-09T11:45:31Z</time>
      </trkpt>
      <trkpt lat="60.0156625" lon="17.6317357">
        <ele>34.2642</ele>
        <time>2013-05-09T11:45:32Z</time>
      </trkpt>
      <trkpt lat="60.0156226" lon="17.6316448">
        <ele>34.2642</ele>
        <time>2013-05-09T11:45:33Z</time>
      </trkpt>
      <trkpt lat="60.0155831" lon="17.6315524">
        <ele>34.2642</ele>
        <time>2013-05-09T11:45:34Z</time>
      </trkpt>
      <trkpt lat="60.0155438" lon="17.6314601">
        <ele>34.2642</ele>
        <time>2013-05-09T11:45:35Z</time>
      </trkpt>
      <trkpt lat="60.0155045" lon="17.6313688">
        <ele>34.2642</ele>
        <time>2013-05-09T11:45:36Z</time>
      </trkpt>
      <trkpt lat="60.015466" lon="17.6312757">
        <ele>34.2642</ele>
        <time>2013-05-09T11:45:37Z</time>
      </trkpt>
      <trkpt lat="60.0154282" lon="17.6311808">
        <ele>34.2642</ele>
        <time>2013-05-09T11:45:38Z</time>
      </trkpt>
      <trkpt lat="60.0153896" lon="17.631085">
        <ele>34.2642</ele>
        <time>2013-05-09T11:45:39Z</time>
      </trkpt>
      <trkpt lat="60.0153495" lon="17.6309893">
        <ele>34.2642</ele>
        <time>2013-05-09T11:45:40Z</time>
      </trkpt>
      <trkpt lat="60.0153076" lon="17.6308949">
        <ele>34.2642</ele>
        <time>2013-05-09T11:45:41Z</time>
      </trkpt>
      <trkpt lat="60.0152657" lon="17.6308008">
        <ele>33.7834</ele>
        <time>2013-05-09T11:45:42Z</time>
      </trkpt>
      <trkpt lat="60.0152233" lon="17.6307065">
        <ele>33.7834</ele>
        <time>2013-05-09T11:45:43Z</time>
      </trkpt>
      <trkpt lat="60.0151798" lon="17.6306137">
        <ele>33.7834</ele>
        <time>2013-05-09T11:45:44Z</time>
      </trkpt>
      <trkpt lat="60.0151341" lon="17.6305234">
        <ele>33.7834</ele>
        <time>2013-05-09T11:45:45Z</time>
      </trkpt>
      <trkpt lat="60.0150864" lon="17.6304358">
        <ele>33.7834</ele>
        <time>2013-05-09T11:45:46Z</time>
      </trkpt>
      <trkpt lat="60.0150372" lon="17.6303501">
        <ele>33.7834</ele>
        <time>2013-05-09T11:45:47Z</time>
      </trkpt>
      <trkpt lat="60.0149876" lon="17.630265">
        <ele>33.7834</ele>
        <time>2013-05-09T11:45:48Z</time>
      </trkpt>
      <trkpt lat="60.0149382" lon="17.630181">
        <ele>33.3029</ele>
        <time>2013-05-09T11:45:49Z</time>
      </trkpt>
      <trkpt lat="60.0148881" lon="17.6300993">
        <ele>33.3029</ele>
        <time>2013-05-09T11:45:50Z</time>
      </trkpt>
      <trkpt lat="60.0148373" lon="17.6300196">
        <ele>33.3029</ele>
        <time>2013-05-09T11:45:51Z</time>
      </trkpt>
      <trkpt lat="60.0147863" lon="17.62994">
        <ele>33.3029</ele>
        <time>2013-05-09T11:45:52Z</time>
      </trkpt>
      <trkpt lat="60.0147355" lon="17.629859">
        <ele>33.3029</ele>
        <time>2013-05-09T11:45:53Z</time>
      </trkpt>
      <trkpt lat="60.0146845" lon="17.629779">
        <ele>33.7834</ele>
        <time>2013-05-09T11:45:54Z</time>
      </trkpt>
      <trkpt lat="60.0146327" lon="17.629702">
        <ele>33.7834</ele>
        <time>2013-05-09T11:45:55Z</time>
      </trkpt>
      <trkpt lat="60.0145817" lon="17.6296254">
        <ele>33.7834</ele>
        <time>2013-05-09T11:45:56Z</time>
      </trkpt>
      <trkpt lat="60.0145314" lon="17.6295497">
        <ele>34.2642</ele>
        <time>2013-05-09T11:45:57Z</time>
      </trkpt>
      <trkpt lat="60.0144804" lon="17.6294765">
        <ele>34.2642</ele>
        <time>2013-05-09T11:45:58Z</time>
      </trkpt>
      <trkpt lat="60.0144285" lon="17.6294062">
        <ele>34.2642</ele>
        <time>2013-05-09T11:45:59Z</time>
      </trkpt>
      <trkpt lat="60.0143767" lon="17.6293362">
        <ele>34.2642</ele>
        <time>2013-05-09T11:46:00Z</time>
      </trkpt>
      <trkpt lat="60.0143255" lon="17.6292645">
        <ele>34.2642</ele>
        <time>2013-05-09T11:46:01Z</time>
      </trkpt>
      <trkpt lat="60.0142745" lon="17.6291923">
        <ele>34.7449</ele>
        <time>2013-05-09T11:46:02Z</time>
      </trkpt>
      <trkpt lat="60.0142219" lon="17.6291218">
        <ele>34.7449</ele>
        <time>2013-05-09T11:46:03Z</time>
      </trkpt>
      <trkpt lat="60.0141685" lon="17.6290525">
        <ele>34.7449</ele>
        <time>2013-05-09T11:46:04Z</time>
      </trkpt>
      <trkpt lat="60.0141155" lon="17.6289809">
        <ele>34.7449</ele>
        <time>2013-05-09T11:46:05Z</time>
      </trkpt>
      <trkpt lat="60.0140628" lon="17.6289069">
        <ele>35.2255</ele>
        <time>2013-05-09T11:46:06Z</time>
      </trkpt>
      <trkpt lat="60.0140095" lon="17.6288326">
        <ele>35.2255</ele>
        <time>2013-05-09T11:46:07Z</time>
      </trkpt>
      <trkpt lat="60.0139562" lon="17.6287574">
        <ele>35.2255</ele>
        <time>2013-05-09T11:46:08Z</time>
      </trkpt>
      <trkpt lat="60.0139033" lon="17.628681">
        <ele>35.2255</ele>
        <time>2013-05-09T11:46:09Z</time>
      </trkpt>
      <trkpt lat="60.0138505" lon="17.6286046">
        <ele>35.7061</ele>
        <time>2013-05-09T11:46:10Z</time>
      </trkpt>
      <trkpt lat="60.013798" lon="17.6285295">
        <ele>35.7061</ele>
        <time>2013-05-09T11:46:11Z</time>
      </trkpt>
      <trkpt lat="60.0137454" lon="17.6284557">
        <ele>35.7061</ele>
        <time>2013-05-09T11:46:12Z</time>
      </trkpt>
      <trkpt lat="60.0136936" lon="17.6283816">
        <ele>36.1868</ele>
        <time>2013-05-09T11:46:13Z</time>
      </trkpt>
      <trkpt lat="60.0136431" lon="17.6283059">
        <ele>36.1868</ele>
        <time>2013-05-09T11:46:14Z</time>
      </trkpt>
      <trkpt lat="60.0135931" lon="17.6282301">
        <ele>36.1868</ele>
        <time>2013-05-09T11:46:15Z</time>
      </trkpt>
      <trkpt lat="60.0135438" lon="17.6281537">
        <ele>36.1868</ele>
        <time>2013-05-09T11:46:16Z</time>
      </trkpt>
      <trkpt lat="60.0134946" lon="17.6280764">
        <ele>36.6675</ele>
        <time>2013-05-09T11:46:17Z</time>
      </trkpt>
      <trkpt lat="60.0134458" lon="17.6279986">
        <ele>36.6675</ele>
        <time>2013-05-09T11:46:18Z</time>
      </trkpt>
      <trkpt lat="60.0133975" lon="17.6279208">
        <ele>36.6675</ele>
        <time>2013-05-09T11:46:19Z</time>
      </trkpt>
      <trkpt lat="60.01335" lon="17.6278438">
        <ele>36.6675</ele>
        <time>2013-05-09T11:46:20Z</time>
      </trkpt>
      <trkpt lat="60.0133032" lon="17.6277672">
        <ele>37.1481</ele>
        <time>2013-05-09T11:46:21Z</time>
      </trkpt>
      <trkpt lat="60.0132571" lon="17.6276905">
        <ele>37.1481</ele>
        <time>2013-05-09T11:46:22Z</time>
      </trkpt>
      <trkpt lat="60.0132112" lon="17.6276128">
        <ele>37.1481</ele>
        <time>2013-05-09T11:46:23Z</time>
      </trkpt>
      <trkpt lat="60.0131652" lon="17.6275354">
        <ele>37.1481</ele>
        <time>2013-05-09T11:46:24Z</time>
      </trkpt>
      <trkpt lat="60.0131194" lon="17.6274574">
        <ele>37.1481</ele>
        <time>2013-05-09T11:46:25Z</time>
      </trkpt>
      <trkpt lat="60.013074" lon="17.6273764">
        <ele>37.6287</ele>
        <time>2013-05-09T11:46:26Z</time>
      </trkpt>
      <trkpt lat="60.013029" lon="17.6272948">
        <ele>37.6287</ele>
        <time>2013-05-09T11:46:27Z</time>
      </trkpt>
      <trkpt lat="60.0129837" lon="17.6272143">
        <ele>37.6287</ele>
        <time>2013-05-09T11:46:28Z</time>
      </trkpt>
      <trkpt lat="60.0129391" lon="17.6271326">
        <ele>37.6287</ele>
        <time>2013-05-09T11:46:29Z</time>
      </trkpt>
      <trkpt lat="60.0128959" lon="17.6270486">
        <ele>37.6287</ele>
        <time>2013-05-09T11:46:30Z</time>
      </trkpt>
      <trkpt lat="60.0128533" lon="17.6269627">
        <ele>37.6287</ele>
        <time>2013-05-09T11:46:31Z</time>
      </trkpt>
      <trkpt lat="60.0128102" lon="17.6268763">
        <ele>37.6287</ele>
        <time>2013-05-09T11:46:32Z</time>
      </trkpt>
      <trkpt lat="60.0127673" lon="17.6267885">
        <ele>38.1094</ele>
        <time>2013-05-09T11:46:33Z</time>
      </trkpt>
      <trkpt lat="60.0127248" lon="17.6266995">
        <ele>38.1094</ele>
        <time>2013-05-09T11:46:34Z</time>
      </trkpt>
      <trkpt lat="60.0126827" lon="17.6266104">
        <ele>38.1094</ele>
        <time>2013-05-09T11:46:35Z</time>
      </trkpt>
      <trkpt lat="60.0126404" lon="17.6265215">
        <ele>38.1094</ele>
        <time>2013-05-09T11:46:36Z</time>
      </trkpt>
      <trkpt lat="60.0125988" lon="17.6264302">
        <ele>38.1094</ele>
        <time>2013-05-09T11:46:37Z</time>
      </trkpt>
      <trkpt lat="60.0125573" lon="17.6263376">
        <ele>38.1094</ele>
        <time>2013-05-09T11:46:38Z</time>
      </trkpt>
      <trkpt lat="60.0125157" lon="17.6262437">
        <ele>38.1094</ele>
        <time>2013-05-09T11:46:39Z</time>
      </trkpt>
      <trkpt lat="60.0124751" lon="17.6261468">
        <ele>38.1094</ele>
        <time>2013-05-09T11:46:40Z</time>
      </trkpt>
      <trkpt lat="60.0124348" lon="17.626047">
        <ele>38.1094</ele>
        <time>2013-05-09T11:46:41Z</time>
      </trkpt>
      <trkpt lat="60.0123953" lon="17.6259444">
        <ele>38.1094</ele>
        <time>2013-05-09T11:46:42Z</time>
      </trkpt>
      <trkpt lat="60.0123556" lon="17.6258398">
        <ele>38.1094</ele>
        <time>2013-05-09T11:46:43Z</time>
      </trkpt>
      <trkpt lat="60.0123151" lon="17.6257361">
        <ele>38.1094</ele>
        <time>2013-05-09T11:46:44Z</time>
      </trkpt>
      <trkpt lat="60.0122745" lon="17.625633">
        <ele>38.1094</ele>
        <time>2013-05-09T11:46:45Z</time>
      </trkpt>
      <trkpt lat="60.0122338" lon="17.6255304">
        <ele>38.1094</ele>
        <time>2013-05-09T11:46:46Z</time>
      </trkpt>
      <trkpt lat="60.0121934" lon="17.6254284">
        <ele>37.6287</ele>
        <time>2013-05-09T11:46:47Z</time>
      </trkpt>
      <trkpt lat="60.0121524" lon="17.6253268">
        <ele>37.6287</ele>
        <time>2013-05-09T11:46:48Z</time>
      </trkpt>
      <trkpt lat="60.012111" lon="17.6252242">
        <ele>37.6287</ele>
        <time>2013-05-09T11:46:49Z</time>
      </trkpt>
      <trkpt lat="60.0120702" lon="17.6251196">
        <ele>37.6287</ele>
        <time>2013-05-09T11:46:50Z</time>
      </trkpt>
      <trkpt lat="60.01203" lon="17.6250155">
        <ele>37.6287</ele>
        <time>2013-05-09T11:46:51Z</time>
      </trkpt>
      <trkpt lat="60.0119913" lon="17.6249138">
        <ele>37.6287</ele>
        <time>2013-05-09T11:46:52Z</time>
      </trkpt>
      <trkpt lat="60.0119521" lon="17.624814">
        <ele>37.6287</ele>
        <time>2013-05-09T11:46:53Z</time>
      </trkpt>
      <trkpt lat="60.0119147" lon="17.6247125">
        <ele>37.1481</ele>
        <time>2013-05-09T11:46:54Z</time>
      </trkpt>
      <trkpt lat="60.0118753" lon="17.6246135">
        <ele>37.6287</ele>
        <time>2013-05-09T11:46:55Z</time>
      </trkpt>
      <trkpt lat="60.0118276" lon="17.6245137">
        <ele>37.6287</ele>
        <time>2013-05-09T11:46:56Z</time>
      </trkpt>
      <trkpt lat="60.0117853" lon="17.6244202">
        <ele>38.1094</ele>
        <time>2013-05-09T11:46:57Z</time>
      </trkpt>
      <trkpt lat="60.0117323" lon="17.6243398">
        <ele>38.1094</ele>
        <time>2013-05-09T11:46:58Z</time>
      </trkpt>
      <trkpt lat="60.0116783" lon="17.624212">
        <ele>37.6287</ele>
        <time>2013-05-09T11:46:59Z</time>
      </trkpt>
      <trkpt lat="60.0116354" lon="17.6241199">
        <ele>37.1481</ele>
        <time>2013-05-09T11:47:00Z</time>
      </trkpt>
      <trkpt lat="60.0115925" lon="17.6240183">
        <ele>36.6675</ele>
        <time>2013-05-09T11:47:01Z</time>
      </trkpt>
      <trkpt lat="60.0115423" lon="17.6239068">
        <ele>36.6675</ele>
        <time>2013-05-09T11:47:02Z</time>
      </trkpt>
      <trkpt lat="60.0115052" lon="17.6238218">
        <ele>36.6675</ele>
        <time>2013-05-09T11:47:03Z</time>
      </trkpt>
      <trkpt lat="60.0114657" lon="17.6237421">
        <ele>36.6675</ele>
        <time>2013-05-09T11:47:04Z</time>
      </trkpt>
      <trkpt lat="60.0114244" lon="17.623662">
        <ele>36.1868</ele>
        <time>2013-05-09T11:47:05Z</time>
      </trkpt>
      <trkpt lat="60.0113828" lon="17.6235843">
        <ele>36.1868</ele>
        <time>2013-05-09T11:47:06Z</time>
      </trkpt>
      <trkpt lat="60.0113411" lon="17.6235084">
        <ele>36.1868</ele>
        <time>2013-05-09T11:47:07Z</time>
      </trkpt>
      <trkpt lat="60.0112994" lon="17.6234331">
        <ele>36.1868</ele>
        <time>2013-05-09T11:47:08Z</time>
      </trkpt>
      <trkpt lat="60.0112578" lon="17.623361">
        <ele>36.1868</ele>
        <time>2013-05-09T11:47:09Z</time>
      </trkpt>
      <trkpt lat="60.0112152" lon="17.6232911">
        <ele>36.6675</ele>
        <time>2013-05-09T11:47:10Z</time>
      </trkpt>
      <trkpt lat="60.0111711" lon="17.6232206">
        <ele>36.6675</ele>
        <time>2013-05-09T11:47:11Z</time>
      </trkpt>
      <trkpt lat="60.0111252" lon="17.6231506">
        <ele>36.6675</ele>
        <time>2013-05-09T11:47:12Z</time>
      </trkpt>
      <trkpt lat="60.0110775" lon="17.6230823">
        <ele>36.6675</ele>
        <time>2013-05-09T11:47:13Z</time>
      </trkpt>
      <trkpt lat="60.0110283" lon="17.6230154">
        <ele>37.1481</ele>
        <time>2013-05-09T11:47:14Z</time>
      </trkpt>
      <trkpt lat="60.0109797" lon="17.6229493">
        <ele>37.1481</ele>
        <time>2013-05-09T11:47:15Z</time>
      </trkpt>
      <trkpt lat="60.0109304" lon="17.6228844">
        <ele>37.6287</ele>
        <time>2013-05-09T11:47:16Z</time>
      </trkpt>
      <trkpt lat="60.0108805" lon="17.6228207">
        <ele>37.6287</ele>
        <time>2013-05-09T11:47:17Z</time>
      </trkpt>
      <trkpt lat="60.0108289" lon="17.6227599">
        <ele>38.1094</ele>
        <time>2013-05-09T11:47:18Z</time>
      </trkpt>
      <trkpt lat="60.0107751" lon="17.6226988">
        <ele>38.5901</ele>
        <time>2013-05-09T11:47:19Z</time>
      </trkpt>
      <trkpt lat="60.010721" lon="17.6226342">
        <ele>38.5901</ele>
        <time>2013-05-09T11:47:20Z</time>
      </trkpt>
      <trkpt lat="60.0106662" lon="17.6225706">
        <ele>39.0707</ele>
        <time>2013-05-09T11:47:21Z</time>
      </trkpt>
      <trkpt lat="60.0106094" lon="17.6225107">
        <ele>39.5513</ele>
        <time>2013-05-09T11:47:22Z</time>
      </trkpt>
      <trkpt lat="60.0105539" lon="17.6224529">
        <ele>39.5513</ele>
        <time>2013-05-09T11:47:23Z</time>
      </trkpt>
      <trkpt lat="60.0105011" lon="17.622397">
        <ele>40.0321</ele>
        <time>2013-05-09T11:47:24Z</time>
      </trkpt>
      <trkpt lat="60.0104497" lon="17.6223441">
        <ele>40.0321</ele>
        <time>2013-05-09T11:47:25Z</time>
      </trkpt>
      <trkpt lat="60.0103988" lon="17.6222934">
        <ele>40.5128</ele>
        <time>2013-05-09T11:47:26Z</time>
      </trkpt>
      <trkpt lat="60.0103488" lon="17.6222429">
        <ele>40.5128</ele>
        <time>2013-05-09T11:47:27Z</time>
      </trkpt>
      <trkpt lat="60.0103" lon="17.6221906">
        <ele>40.9934</ele>
        <time>2013-05-09T11:47:28Z</time>
      </trkpt>
      <trkpt lat="60.0102518" lon="17.6221365">
        <ele>40.9934</ele>
        <time>2013-05-09T11:47:29Z</time>
      </trkpt>
      <trkpt lat="60.010203" lon="17.6220849">
        <ele>41.474</ele>
        <time>2013-05-09T11:47:30Z</time>
      </trkpt>
      <trkpt lat="60.0101545" lon="17.6220332">
        <ele>41.474</ele>
        <time>2013-05-09T11:47:31Z</time>
      </trkpt>
      <trkpt lat="60.0101066" lon="17.6219801">
        <ele>41.474</ele>
        <time>2013-05-09T11:47:32Z</time>
      </trkpt>
      <trkpt lat="60.0100591" lon="17.621927">
        <ele>41.9547</ele>
        <time>2013-05-09T11:47:33Z</time>
      </trkpt>
      <trkpt lat="60.0100119" lon="17.6218733">
        <ele>41.9547</ele>
        <time>2013-05-09T11:47:34Z</time>
      </trkpt>
      <trkpt lat="60.0099644" lon="17.6218189">
        <ele>42.4354</ele>
        <time>2013-05-09T11:47:35Z</time>
      </trkpt>
      <trkpt lat="60.0099162" lon="17.6217624">
        <ele>42.4354</ele>
        <time>2013-05-09T11:47:36Z</time>
      </trkpt>
      <trkpt lat="60.0098675" lon="17.6217034">
        <ele>42.916</ele>
        <time>2013-05-09T11:47:37Z</time>
      </trkpt>
      <trkpt lat="60.0098191" lon="17.6216428">
        <ele>42.916</ele>
        <time>2013-05-09T11:47:38Z</time>
      </trkpt>
      <trkpt lat="60.0097706" lon="17.6215814">
        <ele>43.3966</ele>
        <time>2013-05-09T11:47:39Z</time>
      </trkpt>
      <trkpt lat="60.0097215" lon="17.6215204">
        <ele>43.3966</ele>
        <time>2013-05-09T11:47:40Z</time>
      </trkpt>
      <trkpt lat="60.0096744" lon="17.6214563">
        <ele>43.3966</ele>
        <time>2013-05-09T11:47:41Z</time>
      </trkpt>
      <trkpt lat="60.0096286" lon="17.621389">
        <ele>43.3966</ele>
        <time>2013-05-09T11:47:42Z</time>
      </trkpt>
      <trkpt lat="60.009583" lon="17.62132">
        <ele>43.3966</ele>
        <time>2013-05-09T11:47:43Z</time>
      </trkpt>
      <trkpt lat="60.0095384" lon="17.6212491">
        <ele>43.3966</ele>
        <time>2013-05-09T11:47:44Z</time>
      </trkpt>
      <trkpt lat="60.0094935" lon="17.6211784">
        <ele>43.3966</ele>
        <time>2013-05-09T11:47:45Z</time>
      </trkpt>
      <trkpt lat="60.0094489" lon="17.621106">
        <ele>43.8773</ele>
        <time>2013-05-09T11:47:46Z</time>
      </trkpt>
      <trkpt lat="60.0094039" lon="17.6210325">
        <ele>43.8773</ele>
        <time>2013-05-09T11:47:47Z</time>
      </trkpt>
      <trkpt lat="60.0093591" lon="17.6209559">
        <ele>43.8773</ele>
        <time>2013-05-09T11:47:48Z</time>
      </trkpt>
      <trkpt lat="60.0093146" lon="17.6208764">
        <ele>43.8773</ele>
        <time>2013-05-09T11:47:49Z</time>
      </trkpt>
      <trkpt lat="60.0092692" lon="17.6207963">
        <ele>43.8773</ele>
        <time>2013-05-09T11:47:50Z</time>
      </trkpt>
      <trkpt lat="60.0092263" lon="17.6207124">
        <ele>43.8773</ele>
        <time>2013-05-09T11:47:51Z</time>
      </trkpt>
      <trkpt lat="60.009184" lon="17.6206281">
        <ele>43.8773</ele>
        <time>2013-05-09T11:47:52Z</time>
      </trkpt>
      <trkpt lat="60.0091412" lon="17.6205459">
        <ele>43.8773</ele>
        <time>2013-05-09T11:47:53Z</time>
      </trkpt>
      <trkpt lat="60.0090988" lon="17.6204636">
        <ele>43.8773</ele>
        <time>2013-05-09T11:47:54Z</time>
      </trkpt>
      <trkpt lat="60.0090588" lon="17.6203781">
        <ele>44.358</ele>
        <time>2013-05-09T11:47:55Z</time>
      </trkpt>
      <trkpt lat="60.009018" lon="17.6202912">
        <ele>43.8773</ele>
        <time>2013-05-09T11:47:56Z</time>
      </trkpt>
      <trkpt lat="60.0089769" lon="17.6202042">
        <ele>43.8773</ele>
        <time>2013-05-09T11:47:57Z</time>
      </trkpt>
      <trkpt lat="60.0089356" lon="17.6201168">
        <ele>43.8773</ele>
        <time>2013-05-09T11:47:58Z</time>
      </trkpt>
      <trkpt lat="60.0088948" lon="17.6200274">
        <ele>43.8773</ele>
        <time>2013-05-09T11:47:59Z</time>
      </trkpt>
      <trkpt lat="60.0088542" lon="17.6199357">
        <ele>43.8773</ele>
        <time>2013-05-09T11:48:00Z</time>
      </trkpt>
      <trkpt lat="60.0088142" lon="17.6198422">
        <ele>43.8773</ele>
        <time>2013-05-09T11:48:01Z</time>
      </trkpt>
      <trkpt lat="60.0087749" lon="17.6197494">
        <ele>43.8773</ele>
        <time>2013-05-09T11:48:02Z</time>
      </trkpt>
      <trkpt lat="60.0087365" lon="17.6196557">
        <ele>43.8773</ele>
        <time>2013-05-09T11:48:03Z</time>
      </trkpt>
      <trkpt lat="60.0086997" lon="17.6195614">
        <ele>43.8773</ele>
        <time>2013-05-09T11:48:04Z</time>
      </trkpt>
      <trkpt lat="60.0086641" lon="17.6194671">
        <ele>43.8773</ele>
        <time>2013-05-09T11:48:05Z</time>
      </trkpt>
      <trkpt lat="60.0086284" lon="17.6193734">
        <ele>43.8773</ele>
        <time>2013-05-09T11:48:06Z</time>
      </trkpt>
      <trkpt lat="60.008594" lon="17.6192806">
        <ele>43.8773</ele>
        <time>2013-05-09T11:48:07Z</time>
      </trkpt>
      <trkpt lat="60.0085611" lon="17.6191863">
        <ele>43.8773</ele>
        <time>2013-05-09T11:48:08Z</time>
      </trkpt>
      <trkpt lat="60.0085287" lon="17.6190908">
        <ele>43.8773</ele>
        <time>2013-05-09T11:48:09Z</time>
      </trkpt>
      <trkpt lat="60.0084949" lon="17.6189931">
        <ele>43.3966</ele>
        <time>2013-05-09T11:48:10Z</time>
      </trkpt>
      <trkpt lat="60.0084626" lon="17.6188936">
        <ele>43.3966</ele>
        <time>2013-05-09T11:48:11Z</time>
      </trkpt>
      <trkpt lat="60.0084309" lon="17.6187936">
        <ele>43.3966</ele>
        <time>2013-05-09T11:48:12Z</time>
      </trkpt>
      <trkpt lat="60.0083994" lon="17.6186932">
        <ele>42.916</ele>
        <time>2013-05-09T11:48:13Z</time>
      </trkpt>
      <trkpt lat="60.008369" lon="17.6185905">
        <ele>42.916</ele>
        <time>2013-05-09T11:48:14Z</time>
      </trkpt>
      <trkpt lat="60.0083394" lon="17.6184856">
        <ele>42.916</ele>
        <time>2013-05-09T11:48:15Z</time>
      </trkpt>
      <trkpt lat="60.0083093" lon="17.6183804">
        <ele>42.916</ele>
        <time>2013-05-09T11:48:16Z</time>
      </trkpt>
      <trkpt lat="60.0082797" lon="17.6182734">
        <ele>42.4354</ele>
        <time>2013-05-09T11:48:17Z</time>
      </trkpt>
      <trkpt lat="60.0082508" lon="17.6181649">
        <ele>42.4354</ele>
        <time>2013-05-09T11:48:18Z</time>
      </trkpt>
      <trkpt lat="60.0082232" lon="17.6180561">
        <ele>42.4354</ele>
        <time>2013-05-09T11:48:19Z</time>
      </trkpt>
      <trkpt lat="60.008197" lon="17.617946">
        <ele>42.4354</ele>
        <time>2013-05-09T11:48:20Z</time>
      </trkpt>
      <trkpt lat="60.0081715" lon="17.6178336">
        <ele>41.9547</ele>
        <time>2013-05-09T11:48:21Z</time>
      </trkpt>
      <trkpt lat="60.0081465" lon="17.6177194">
        <ele>41.9547</ele>
        <time>2013-05-09T11:48:22Z</time>
      </trkpt>
      <trkpt lat="60.0081214" lon="17.6176041">
        <ele>41.9547</ele>
        <time>2013-05-09T11:48:23Z</time>
      </trkpt>
      <trkpt lat="60.0080959" lon="17.6174872">
        <ele>41.474</ele>
        <time>2013-05-09T11:48:24Z</time>
      </trkpt>
      <trkpt lat="60.0080727" lon="17.6173664">
        <ele>41.474</ele>
        <time>2013-05-09T11:48:25Z</time>
      </trkpt>
      <trkpt lat="60.0080508" lon="17.6172438">
        <ele>41.9547</ele>
        <time>2013-05-09T11:48:26Z</time>
      </trkpt>
      <trkpt lat="60.0080299" lon="17.6171212">
        <ele>41.9547</ele>
        <time>2013-05-09T11:48:27Z</time>
      </trkpt>
      <trkpt lat="60.0080094" lon="17.6169983">
        <ele>42.4354</ele>
        <time>2013-05-09T11:48:28Z</time>
      </trkpt>
      <trkpt lat="60.0079897" lon="17.6168745">
        <ele>42.4354</ele>
        <time>2013-05-09T11:48:29Z</time>
      </trkpt>
      <trkpt lat="60.0079717" lon="17.6167491">
        <ele>42.4354</ele>
        <time>2013-05-09T11:48:30Z</time>
      </trkpt>
      <trkpt lat="60.007955" lon="17.6166228">
        <ele>42.4354</ele>
        <time>2013-05-09T11:48:31Z</time>
      </trkpt>
      <trkpt lat="60.007938" lon="17.6164959">
        <ele>42.916</ele>
        <time>2013-05-09T11:48:32Z</time>
      </trkpt>
      <trkpt lat="60.0079219" lon="17.6163675">
        <ele>42.916</ele>
        <time>2013-05-09T11:48:33Z</time>
      </trkpt>
      <trkpt lat="60.0079063" lon="17.6162385">
        <ele>42.916</ele>
        <time>2013-05-09T11:48:34Z</time>
      </trkpt>
      <trkpt lat="60.0078909" lon="17.6161093">
        <ele>43.3966</ele>
        <time>2013-05-09T11:48:35Z</time>
      </trkpt>
      <trkpt lat="60.0078774" lon="17.6159783">
        <ele>43.3966</ele>
        <time>2013-05-09T11:48:36Z</time>
      </trkpt>
      <trkpt lat="60.0078657" lon="17.6158465">
        <ele>43.3966</ele>
        <time>2013-05-09T11:48:37Z</time>
      </trkpt>
      <trkpt lat="60.0078545" lon="17.6157145">
        <ele>43.3966</ele>
        <time>2013-05-09T11:48:38Z</time>
      </trkpt>
      <trkpt lat="60.0078441" lon="17.6155827">
        <ele>43.3966</ele>
        <time>2013-05-09T11:48:39Z</time>
      </trkpt>
      <trkpt lat="60.0078346" lon="17.6154511">
        <ele>43.8773</ele>
        <time>2013-05-09T11:48:40Z</time>
      </trkpt>
      <trkpt lat="60.0078264" lon="17.6153194">
        <ele>43.8773</ele>
        <time>2013-05-09T11:48:41Z</time>
      </trkpt>
      <trkpt lat="60.0078193" lon="17.6151867">
        <ele>43.8773</ele>
        <time>2013-05-09T11:48:42Z</time>
      </trkpt>
      <trkpt lat="60.0078124" lon="17.6150526">
        <ele>43.8773</ele>
        <time>2013-05-09T11:48:43Z</time>
      </trkpt>
      <trkpt lat="60.0078061" lon="17.6149167">
        <ele>43.8773</ele>
        <time>2013-05-09T11:48:44Z</time>
      </trkpt>
      <trkpt lat="60.0078017" lon="17.6147786">
        <ele>44.358</ele>
        <time>2013-05-09T11:48:45Z</time>
      </trkpt>
      <trkpt lat="60.0077973" lon="17.6146401">
        <ele>44.358</ele>
        <time>2013-05-09T11:48:46Z</time>
      </trkpt>
      <trkpt lat="60.0077933" lon="17.6145013">
        <ele>44.358</ele>
        <time>2013-05-09T11:48:47Z</time>
      </trkpt>
      <trkpt lat="60.0077911" lon="17.6143624">
        <ele>44.358</ele>
        <time>2013-05-09T11:48:48Z</time>
      </trkpt>
      <trkpt lat="60.0077895" lon="17.6142232">
        <ele>44.8386</ele>
        <time>2013-05-09T11:48:49Z</time>
      </trkpt>
      <trkpt lat="60.007788" lon="17.6140832">
        <ele>44.8386</ele>
        <time>2013-05-09T11:48:50Z</time>
      </trkpt>
      <trkpt lat="60.0077877" lon="17.6139425">
        <ele>44.8386</ele>
        <time>2013-05-09T11:48:51Z</time>
      </trkpt>
      <trkpt lat="60.0077878" lon="17.613801">
        <ele>44.8386</ele>
        <time>2013-05-09T11:48:52Z</time>
      </trkpt>
      <trkpt lat="60.0077877" lon="17.6136602">
        <ele>45.3192</ele>
        <time>2013-05-09T11:48:53Z</time>
      </trkpt>
      <trkpt lat="60.0077887" lon="17.6135198">
        <ele>45.3192</ele>
        <time>2013-05-09T11:48:54Z</time>
      </trkpt>
      <trkpt lat="60.0077904" lon="17.6133809">
        <ele>45.3192</ele>
        <time>2013-05-09T11:48:55Z</time>
      </trkpt>
      <trkpt lat="60.0077913" lon="17.6132417">
        <ele>45.3192</ele>
        <time>2013-05-09T11:48:56Z</time>
      </trkpt>
      <trkpt lat="60.0077922" lon="17.6131039">
        <ele>45.7999</ele>
        <time>2013-05-09T11:48:57Z</time>
      </trkpt>
      <trkpt lat="60.0077938" lon="17.6129669">
        <ele>45.7999</ele>
        <time>2013-05-09T11:48:58Z</time>
      </trkpt>
      <trkpt lat="60.0077966" lon="17.6128292">
        <ele>45.7999</ele>
        <time>2013-05-09T11:48:59Z</time>
      </trkpt>
      <trkpt lat="60.0077996" lon="17.61269">
        <ele>46.2806</ele>
        <time>2013-05-09T11:49:00Z</time>
      </trkpt>
      <trkpt lat="60.0078023" lon="17.6125512">
        <ele>46.2806</ele>
        <time>2013-05-09T11:49:01Z</time>
      </trkpt>
      <trkpt lat="60.0078056" lon="17.6124135">
        <ele>46.2806</ele>
        <time>2013-05-09T11:49:02Z</time>
      </trkpt>
      <trkpt lat="60.00781" lon="17.612277">
        <ele>46.7612</ele>
        <time>2013-05-09T11:49:03Z</time>
      </trkpt>
      <trkpt lat="60.007815" lon="17.6121394">
        <ele>46.7612</ele>
        <time>2013-05-09T11:49:04Z</time>
      </trkpt>
      <trkpt lat="60.0078197" lon="17.6120022">
        <ele>47.2418</ele>
        <time>2013-05-09T11:49:05Z</time>
      </trkpt>
      <trkpt lat="60.0078248" lon="17.6118657">
        <ele>47.7225</ele>
        <time>2013-05-09T11:49:06Z</time>
      </trkpt>
      <trkpt lat="60.0078305" lon="17.6117301">
        <ele>48.2034</ele>
        <time>2013-05-09T11:49:07Z</time>
      </trkpt>
      <trkpt lat="60.0078365" lon="17.6115935">
        <ele>48.2034</ele>
        <time>2013-05-09T11:49:08Z</time>
      </trkpt>
      <trkpt lat="60.0078431" lon="17.6114561">
        <ele>48.2034</ele>
        <time>2013-05-09T11:49:09Z</time>
      </trkpt>
      <trkpt lat="60.0078503" lon="17.6113198">
        <ele>48.684</ele>
        <time>2013-05-09T11:49:10Z</time>
      </trkpt>
      <trkpt lat="60.0078581" lon="17.6111837">
        <ele>49.1646</ele>
        <time>2013-05-09T11:49:11Z</time>
      </trkpt>
      <trkpt lat="60.0078649" lon="17.6110483">
        <ele>49.6453</ele>
        <time>2013-05-09T11:49:12Z</time>
      </trkpt>
      <trkpt lat="60.0078716" lon="17.6109123">
        <ele>50.126</ele>
        <time>2013-05-09T11:49:13Z</time>
      </trkpt>
      <trkpt lat="60.0078793" lon="17.6107759">
        <ele>50.6066</ele>
        <time>2013-05-09T11:49:14Z</time>
      </trkpt>
      <trkpt lat="60.0078874" lon="17.6106405">
        <ele>51.0872</ele>
        <time>2013-05-09T11:49:15Z</time>
      </trkpt>
      <trkpt lat="60.007896" lon="17.610505">
        <ele>51.5679</ele>
        <time>2013-05-09T11:49:16Z</time>
      </trkpt>
      <trkpt lat="60.0079056" lon="17.6103699">
        <ele>51.5679</ele>
        <time>2013-05-09T11:49:17Z</time>
      </trkpt>
      <trkpt lat="60.007916" lon="17.6102377">
        <ele>52.0486</ele>
        <time>2013-05-09T11:49:18Z</time>
      </trkpt>
      <trkpt lat="60.0079255" lon="17.6101039">
        <ele>52.0486</ele>
        <time>2013-05-09T11:49:19Z</time>
      </trkpt>
      <trkpt lat="60.0079353" lon="17.6099704">
        <ele>52.0486</ele>
        <time>2013-05-09T11:49:20Z</time>
      </trkpt>
      <trkpt lat="60.0079462" lon="17.6098383">
        <ele>52.5292</ele>
        <time>2013-05-09T11:49:21Z</time>
      </trkpt>
      <trkpt lat="60.0079576" lon="17.6097063">
        <ele>52.5292</ele>
        <time>2013-05-09T11:49:22Z</time>
      </trkpt>
      <trkpt lat="60.0079686" lon="17.6095741">
        <ele>53.0098</ele>
        <time>2013-05-09T11:49:23Z</time>
      </trkpt>
      <trkpt lat="60.0079788" lon="17.6094415">
        <ele>53.0098</ele>
        <time>2013-05-09T11:49:24Z</time>
      </trkpt>
      <trkpt lat="60.0079887" lon="17.6093088">
        <ele>53.0098</ele>
        <time>2013-05-09T11:49:25Z</time>
      </trkpt>
      <trkpt lat="60.0079988" lon="17.6091741">
        <ele>53.0098</ele>
        <time>2013-05-09T11:49:26Z</time>
      </trkpt>
      <trkpt lat="60.0080092" lon="17.6090402">
        <ele>53.0098</ele>
        <time>2013-05-09T11:49:27Z</time>
      </trkpt>
      <trkpt lat="60.0080208" lon="17.6089091">
        <ele>53.4905</ele>
        <time>2013-05-09T11:49:28Z</time>
      </trkpt>
      <trkpt lat="60.008032" lon="17.6087739">
        <ele>53.0098</ele>
        <time>2013-05-09T11:49:29Z</time>
      </trkpt>
      <trkpt lat="60.0080431" lon="17.6086407">
        <ele>53.0098</ele>
        <time>2013-05-09T11:49:30Z</time>
      </trkpt>
      <trkpt lat="60.0080548" lon="17.6085081">
        <ele>53.0098</ele>
        <time>2013-05-09T11:49:31Z</time>
      </trkpt>
      <trkpt lat="60.0080682" lon="17.6083775">
        <ele>53.0098</ele>
        <time>2013-05-09T11:49:32Z</time>
      </trkpt>
      <trkpt lat="60.0080817" lon="17.6082474">
        <ele>53.0098</ele>
        <time>2013-05-09T11:49:33Z</time>
      </trkpt>
      <trkpt lat="60.0080942" lon="17.6081165">
        <ele>53.0098</ele>
        <time>2013-05-09T11:49:34Z</time>
      </trkpt>
      <trkpt lat="60.0081066" lon="17.6079875">
        <ele>53.4905</ele>
        <time>2013-05-09T11:49:35Z</time>
      </trkpt>
      <trkpt lat="60.0081203" lon="17.6078585">
        <ele>53.4905</ele>
        <time>2013-05-09T11:49:36Z</time>
      </trkpt>
      <trkpt lat="60.0081352" lon="17.6077283">
        <ele>53.4905</ele>
        <time>2013-05-09T11:49:37Z</time>
      </trkpt>
      <trkpt lat="60.0081502" lon="17.607597">
        <ele>53.4905</ele>
        <time>2013-05-09T11:49:38Z</time>
      </trkpt>
      <trkpt lat="60.0081643" lon="17.6074654">
        <ele>53.4905</ele>
        <time>2013-05-09T11:49:39Z</time>
      </trkpt>
      <trkpt lat="60.0081781" lon="17.6073353">
        <ele>53.9712</ele>
        <time>2013-05-09T11:49:40Z</time>
      </trkpt>
      <trkpt lat="60.0081928" lon="17.6072064">
        <ele>53.9712</ele>
        <time>2013-05-09T11:49:41Z</time>
      </trkpt>
      <trkpt lat="60.0082077" lon="17.6070784">
        <ele>54.4518</ele>
        <time>2013-05-09T11:49:42Z</time>
      </trkpt>
      <trkpt lat="60.0082233" lon="17.6069504">
        <ele>54.9324</ele>
        <time>2013-05-09T11:49:43Z</time>
      </trkpt>
      <trkpt lat="60.0082393" lon="17.606822">
        <ele>54.9324</ele>
        <time>2013-05-09T11:49:44Z</time>
      </trkpt>
      <trkpt lat="60.008255" lon="17.6066943">
        <ele>55.4131</ele>
        <time>2013-05-09T11:49:45Z</time>
      </trkpt>
      <trkpt lat="60.008271" lon="17.6065686">
        <ele>55.8938</ele>
        <time>2013-05-09T11:49:46Z</time>
      </trkpt>
      <trkpt lat="60.0082876" lon="17.6064428">
        <ele>55.8938</ele>
        <time>2013-05-09T11:49:47Z</time>
      </trkpt>
      <trkpt lat="60.0083051" lon="17.606318">
        <ele>55.8938</ele>
        <time>2013-05-09T11:49:48Z</time>
      </trkpt>
      <trkpt lat="60.0083229" lon="17.6061936">
        <ele>56.3745</ele>
        <time>2013-05-09T11:49:49Z</time>
      </trkpt>
      <trkpt lat="60.0083409" lon="17.6060693">
        <ele>56.3745</ele>
        <time>2013-05-09T11:49:50Z</time>
      </trkpt>
      <trkpt lat="60.008358" lon="17.605945">
        <ele>56.3745</ele>
        <time>2013-05-09T11:49:51Z</time>
      </trkpt>
      <trkpt lat="60.0083746" lon="17.6058216">
        <ele>56.8551</ele>
        <time>2013-05-09T11:49:52Z</time>
      </trkpt>
      <trkpt lat="60.0083918" lon="17.6056999">
        <ele>56.8551</ele>
        <time>2013-05-09T11:49:53Z</time>
      </trkpt>
      <trkpt lat="60.0084092" lon="17.6055812">
        <ele>57.3358</ele>
        <time>2013-05-09T11:49:54Z</time>
      </trkpt>
      <trkpt lat="60.0084262" lon="17.605462">
        <ele>57.3358</ele>
        <time>2013-05-09T11:49:55Z</time>
      </trkpt>
      <trkpt lat="60.0084427" lon="17.605343">
        <ele>57.8165</ele>
        <time>2013-05-09T11:49:56Z</time>
      </trkpt>
      <trkpt lat="60.0084595" lon="17.6052249">
        <ele>57.8165</ele>
        <time>2013-05-09T11:49:57Z</time>
      </trkpt>
      <trkpt lat="60.0084766" lon="17.6051073">
        <ele>58.2971</ele>
        <time>2013-05-09T11:49:58Z</time>
      </trkpt>
      <trkpt lat="60.0084935" lon="17.6049916">
        <ele>58.2971</ele>
        <time>2013-05-09T11:49:59Z</time>
      </trkpt>
      <trkpt lat="60.0085098" lon="17.6048774">
        <ele>58.7777</ele>
        <time>2013-05-09T11:50:00Z</time>
      </trkpt>
      <trkpt lat="60.0085258" lon="17.6047629">
        <ele>59.2584</ele>
        <time>2013-05-09T11:50:01Z</time>
      </trkpt>
      <trkpt lat="60.0085424" lon="17.6046474">
        <ele>59.2584</ele>
        <time>2013-05-09T11:50:02Z</time>
      </trkpt>
      <trkpt lat="60.008559" lon="17.6045309">
        <ele>59.2584</ele>
        <time>2013-05-09T11:50:03Z</time>
      </trkpt>
      <trkpt lat="60.0085761" lon="17.6044148">
        <ele>59.7391</ele>
        <time>2013-05-09T11:50:04Z</time>
      </trkpt>
      <trkpt lat="60.0085935" lon="17.6042973">
        <ele>60.2197</ele>
        <time>2013-05-09T11:50:05Z</time>
      </trkpt>
      <trkpt lat="60.0086108" lon="17.6041787">
        <ele>60.2197</ele>
        <time>2013-05-09T11:50:06Z</time>
      </trkpt>
      <trkpt lat="60.0086284" lon="17.6040589">
        <ele>60.2197</ele>
        <time>2013-05-09T11:50:07Z</time>
      </trkpt>
      <trkpt lat="60.008646" lon="17.6039372">
        <ele>60.2197</ele>
        <time>2013-05-09T11:50:08Z</time>
      </trkpt>
      <trkpt lat="60.008663" lon="17.6038156">
        <ele>60.7003</ele>
        <time>2013-05-09T11:50:09Z</time>
      </trkpt>
      <trkpt lat="60.0086797" lon="17.6036927">
        <ele>60.2197</ele>
        <time>2013-05-09T11:50:10Z</time>
      </trkpt>
      <trkpt lat="60.0086969" lon="17.6035699">
        <ele>60.2197</ele>
        <time>2013-05-09T11:50:11Z</time>
      </trkpt>
      <trkpt lat="60.0087144" lon="17.6034496">
        <ele>60.2197</ele>
        <time>2013-05-09T11:50:12Z</time>
      </trkpt>
      <trkpt lat="60.0087325" lon="17.6033319">
        <ele>60.7003</ele>
        <time>2013-05-09T11:50:13Z</time>
      </trkpt>
      <trkpt lat="60.0087499" lon="17.6032144">
        <ele>60.7003</ele>
        <time>2013-05-09T11:50:14Z</time>
      </trkpt>
      <trkpt lat="60.0087671" lon="17.6030969">
        <ele>61.181</ele>
        <time>2013-05-09T11:50:15Z</time>
      </trkpt>
      <trkpt lat="60.0087848" lon="17.6029792">
        <ele>61.6617</ele>
        <time>2013-05-09T11:50:16Z</time>
      </trkpt>
      <trkpt lat="60.0088031" lon="17.6028622">
        <ele>62.1423</ele>
        <time>2013-05-09T11:50:17Z</time>
      </trkpt>
      <trkpt lat="60.0088206" lon="17.6027494">
        <ele>62.6229</ele>
        <time>2013-05-09T11:50:18Z</time>
      </trkpt>
      <trkpt lat="60.0088373" lon="17.6026376">
        <ele>63.1036</ele>
        <time>2013-05-09T11:50:19Z</time>
      </trkpt>
      <trkpt lat="60.0088542" lon="17.6025264">
        <ele>63.5844</ele>
        <time>2013-05-09T11:50:20Z</time>
      </trkpt>
      <trkpt lat="60.0088714" lon="17.6024154">
        <ele>64.0651</ele>
        <time>2013-05-09T11:50:21Z</time>
      </trkpt>
      <trkpt lat="60.008888" lon="17.602307">
        <ele>64.5457</ele>
        <time>2013-05-09T11:50:22Z</time>
      </trkpt>
      <trkpt lat="60.0089044" lon="17.6021993">
        <ele>65.0264</ele>
        <time>2013-05-09T11:50:23Z</time>
      </trkpt>
      <trkpt lat="60.0089206" lon="17.6020925">
        <ele>65.5071</ele>
        <time>2013-05-09T11:50:24Z</time>
      </trkpt>
      <trkpt lat="60.0089372" lon="17.6019851">
        <ele>65.9877</ele>
        <time>2013-05-09T11:50:25Z</time>
      </trkpt>
      <trkpt lat="60.0089542" lon="17.6018786">
        <ele>66.4683</ele>
        <time>2013-05-09T11:50:26Z</time>
      </trkpt>
      <trkpt lat="60.0089713" lon="17.6017712">
        <ele>66.949</ele>
        <time>2013-05-09T11:50:27Z</time>
      </trkpt>
      <trkpt lat="60.0089865" lon="17.6016636">
        <ele>66.949</ele>
        <time>2013-05-09T11:50:28Z</time>
      </trkpt>
      <trkpt lat="60.0090014" lon="17.6015528">
        <ele>66.949</ele>
        <time>2013-05-09T11:50:29Z</time>
      </trkpt>
      <trkpt lat="60.0090177" lon="17.6014409">
        <ele>67.4297</ele>
        <time>2013-05-09T11:50:30Z</time>
      </trkpt>
      <trkpt lat="60.0090335" lon="17.6013281">
        <ele>67.4297</ele>
        <time>2013-05-09T11:50:31Z</time>
      </trkpt>
      <trkpt lat="60.0090495" lon="17.601217">
        <ele>67.4297</ele>
        <time>2013-05-09T11:50:32Z</time>
      </trkpt>
      <trkpt lat="60.0090672" lon="17.6011072">
        <ele>67.9103</ele>
        <time>2013-05-09T11:50:33Z</time>
      </trkpt>
      <trkpt lat="60.0090853" lon="17.6009964">
        <ele>68.3909</ele>
        <time>2013-05-09T11:50:34Z</time>
      </trkpt>
      <trkpt lat="60.0091029" lon="17.6008838">
        <ele>68.3909</ele>
        <time>2013-05-09T11:50:35Z</time>
      </trkpt>
      <trkpt lat="60.00912" lon="17.6007705">
        <ele>68.3909</ele>
        <time>2013-05-09T11:50:36Z</time>
      </trkpt>
      <trkpt lat="60.0091361" lon="17.6006369">
        <ele>65.9877</ele>
        <time>2013-05-09T11:50:37Z</time>
      </trkpt>
      <trkpt lat="60.0091537" lon="17.6005226">
        <ele>65.5071</ele>
        <time>2013-05-09T11:50:38Z</time>
      </trkpt>
      <trkpt lat="60.0091721" lon="17.6004112">
        <ele>65.9877</ele>
        <time>2013-05-09T11:50:39Z</time>
      </trkpt>
      <trkpt lat="60.0091903" lon="17.6003013">
        <ele>66.4683</ele>
        <time>2013-05-09T11:50:40Z</time>
      </trkpt>
      <trkpt lat="60.009208" lon="17.600189">
        <ele>66.4683</ele>
        <time>2013-05-09T11:50:41Z</time>
      </trkpt>
      <trkpt lat="60.0092258" lon="17.6000786">
        <ele>66.4683</ele>
        <time>2013-05-09T11:50:42Z</time>
      </trkpt>
      <trkpt lat="60.0092438" lon="17.599967">
        <ele>66.949</ele>
        <time>2013-05-09T11:50:43Z</time>
      </trkpt>
      <trkpt lat="60.0092629" lon="17.5998511">
        <ele>67.4297</ele>
        <time>2013-05-09T11:50:44Z</time>
      </trkpt>
      <trkpt lat="60.0092827" lon="17.5997345">
        <ele>67.4297</ele>
        <time>2013-05-09T11:50:45Z</time>
      </trkpt>
      <trkpt lat="60.0093024" lon="17.599614">
        <ele>67.4297</ele>
        <time>2013-05-09T11:50:46Z</time>
      </trkpt>
      <trkpt lat="60.0093215" lon="17.5994735">
        <ele>65.0264</ele>
        <time>2013-05-09T11:50:47Z</time>
      </trkpt>
      <trkpt lat="60.0093422" lon="17.5993357">
        <ele>62.6229</ele>
        <time>2013-05-09T11:50:48Z</time>
      </trkpt>
      <trkpt lat="60.0093619" lon="17.5992046">
        <ele>61.181</ele>
        <time>2013-05-09T11:50:49Z</time>
      </trkpt>
      <trkpt lat="60.0093794" lon="17.5990789">
        <ele>59.7391</ele>
        <time>2013-05-09T11:50:50Z</time>
      </trkpt>
      <trkpt lat="60.0093971" lon="17.598959">
        <ele>58.7777</ele>
        <time>2013-05-09T11:50:51Z</time>
      </trkpt>
      <trkpt lat="60.0094163" lon="17.5988435">
        <ele>57.8165</ele>
        <time>2013-05-09T11:50:52Z</time>
      </trkpt>
      <trkpt lat="60.009435" lon="17.5987264">
        <ele>56.8551</ele>
        <time>2013-05-09T11:50:53Z</time>
      </trkpt>
      <trkpt lat="60.0094534" lon="17.5986078">
        <ele>56.3745</ele>
        <time>2013-05-09T11:50:54Z</time>
      </trkpt>
      <trkpt lat="60.0094711" lon="17.5984882">
        <ele>55.8938</ele>
        <time>2013-05-09T11:50:55Z</time>
      </trkpt>
      <trkpt lat="60.0094892" lon="17.5983676">
        <ele>54.9324</ele>
        <time>2013-05-09T11:50:56Z</time>
      </trkpt>
      <trkpt lat="60.0095085" lon="17.5982467">
        <ele>54.4518</ele>
        <time>2013-05-09T11:50:57Z</time>
      </trkpt>
      <trkpt lat="60.0095272" lon="17.5981285">
        <ele>54.4518</ele>
        <time>2013-05-09T11:50:58Z</time>
      </trkpt>
      <trkpt lat="60.0095462" lon="17.598005">
        <ele>53.9712</ele>
        <time>2013-05-09T11:50:59Z</time>
      </trkpt>
      <trkpt lat="60.0095665" lon="17.5978806">
        <ele>53.4905</ele>
        <time>2013-05-09T11:51:00Z</time>
      </trkpt>
      <trkpt lat="60.0095865" lon="17.5977546">
        <ele>53.0098</ele>
        <time>2013-05-09T11:51:01Z</time>
      </trkpt>
      <trkpt lat="60.0096055" lon="17.5976267">
        <ele>52.5292</ele>
        <time>2013-05-09T11:51:02Z</time>
      </trkpt>
      <trkpt lat="60.0096249" lon="17.5974977">
        <ele>52.0486</ele>
        <time>2013-05-09T11:51:03Z</time>
      </trkpt>
      <trkpt lat="60.0096442" lon="17.5973677">
        <ele>51.5679</ele>
        <time>2013-05-09T11:51:04Z</time>
      </trkpt>
      <trkpt lat="60.0096659" lon="17.5972357">
        <ele>51.0872</ele>
        <time>2013-05-09T11:51:05Z</time>
      </trkpt>
      <trkpt lat="60.0096883" lon="17.5971031">
        <ele>50.6066</ele>
        <time>2013-05-09T11:51:06Z</time>
      </trkpt>
      <trkpt lat="60.0097103" lon="17.5969693">
        <ele>50.126</ele>
        <time>2013-05-09T11:51:07Z</time>
      </trkpt>
      <trkpt lat="60.0097323" lon="17.5968379">
        <ele>50.6066</ele>
        <time>2013-05-09T11:51:08Z</time>
      </trkpt>
      <trkpt lat="60.0097556" lon="17.5967051">
        <ele>50.6066</ele>
        <time>2013-05-09T11:51:09Z</time>
      </trkpt>
      <trkpt lat="60.0097805" lon="17.596575">
        <ele>51.0872</ele>
        <time>2013-05-09T11:51:10Z</time>
      </trkpt>
      <trkpt lat="60.0098058" lon="17.5964446">
        <ele>51.0872</ele>
        <time>2013-05-09T11:51:11Z</time>
      </trkpt>
      <trkpt lat="60.0098297" lon="17.5963116">
        <ele>51.0872</ele>
        <time>2013-05-09T11:51:12Z</time>
      </trkpt>
      <trkpt lat="60.0098533" lon="17.5961787">
        <ele>51.5679</ele>
        <time>2013-05-09T11:51:13Z</time>
      </trkpt>
      <trkpt lat="60.0098769" lon="17.5960467">
        <ele>52.0486</ele>
        <time>2013-05-09T11:51:14Z</time>
      </trkpt>
      <trkpt lat="60.0099012" lon="17.5959131">
        <ele>52.0486</ele>
        <time>2013-05-09T11:51:15Z</time>
      </trkpt>
      <trkpt lat="60.0099258" lon="17.5957779">
        <ele>52.5292</ele>
        <time>2013-05-09T11:51:16Z</time>
      </trkpt>
      <trkpt lat="60.0099505" lon="17.5956424">
        <ele>52.5292</ele>
        <time>2013-05-09T11:51:17Z</time>
      </trkpt>
      <trkpt lat="60.009975" lon="17.5955079">
        <ele>53.0098</ele>
        <time>2013-05-09T11:51:18Z</time>
      </trkpt>
      <trkpt lat="60.0099985" lon="17.5953715">
        <ele>53.0098</ele>
        <time>2013-05-09T11:51:19Z</time>
      </trkpt>
      <trkpt lat="60.0100206" lon="17.5952282">
        <ele>52.0486</ele>
        <time>2013-05-09T11:51:20Z</time>
      </trkpt>
      <trkpt lat="60.0100389" lon="17.5950958">
        <ele>52.0486</ele>
        <time>2013-05-09T11:51:21Z</time>
      </trkpt>
      <trkpt lat="60.0100593" lon="17.5949648">
        <ele>52.0486</ele>
        <time>2013-05-09T11:51:22Z</time>
      </trkpt>
      <trkpt lat="60.0100843" lon="17.5948369">
        <ele>52.0486</ele>
        <time>2013-05-09T11:51:23Z</time>
      </trkpt>
      <trkpt lat="60.0101115" lon="17.5947094">
        <ele>52.0486</ele>
        <time>2013-05-09T11:51:24Z</time>
      </trkpt>
      <trkpt lat="60.0101394" lon="17.594583">
        <ele>52.5292</ele>
        <time>2013-05-09T11:51:25Z</time>
      </trkpt>
      <trkpt lat="60.0101665" lon="17.5944549">
        <ele>52.5292</ele>
        <time>2013-05-09T11:51:26Z</time>
      </trkpt>
      <trkpt lat="60.0101929" lon="17.5943243">
        <ele>52.5292</ele>
        <time>2013-05-09T11:51:27Z</time>
      </trkpt>
      <trkpt lat="60.010219" lon="17.5941929">
        <ele>53.0098</ele>
        <time>2013-05-09T11:51:28Z</time>
      </trkpt>
      <trkpt lat="60.010244" lon="17.5940603">
        <ele>53.0098</ele>
        <time>2013-05-09T11:51:29Z</time>
      </trkpt>
      <trkpt lat="60.010268" lon="17.5939269">
        <ele>53.4905</ele>
        <time>2013-05-09T11:51:30Z</time>
      </trkpt>
      <trkpt lat="60.0102907" lon="17.5937934">
        <ele>53.4905</ele>
        <time>2013-05-09T11:51:31Z</time>
      </trkpt>
      <trkpt lat="60.0103093" lon="17.5936498">
        <ele>52.5292</ele>
        <time>2013-05-09T11:51:32Z</time>
      </trkpt>
      <trkpt lat="60.0103223" lon="17.5935045">
        <ele>51.0872</ele>
        <time>2013-05-09T11:51:33Z</time>
      </trkpt>
      <trkpt lat="60.0103337" lon="17.5933615">
        <ele>50.6066</ele>
        <time>2013-05-09T11:51:34Z</time>
      </trkpt>
      <trkpt lat="60.0103466" lon="17.5932225">
        <ele>50.6066</ele>
        <time>2013-05-09T11:51:35Z</time>
      </trkpt>
      <trkpt lat="60.0103632" lon="17.5930831">
        <ele>51.0872</ele>
        <time>2013-05-09T11:51:36Z</time>
      </trkpt>
      <trkpt lat="60.0103838" lon="17.5929462">
        <ele>51.0872</ele>
        <time>2013-05-09T11:51:37Z</time>
      </trkpt>
      <trkpt lat="60.0104076" lon="17.5928101">
        <ele>51.5679</ele>
        <time>2013-05-09T11:51:38Z</time>
      </trkpt>
      <trkpt lat="60.0104329" lon="17.5926751">
        <ele>51.5679</ele>
        <time>2013-05-09T11:51:39Z</time>
      </trkpt>
      <trkpt lat="60.0104592" lon="17.5925419">
        <ele>51.5679</ele>
        <time>2013-05-09T11:51:40Z</time>
      </trkpt>
      <trkpt lat="60.0104855" lon="17.592412">
        <ele>52.0486</ele>
        <time>2013-05-09T11:51:41Z</time>
      </trkpt>
      <trkpt lat="60.0105112" lon="17.5922845">
        <ele>52.0486</ele>
        <time>2013-05-09T11:51:42Z</time>
      </trkpt>
      <trkpt lat="60.0105373" lon="17.5921597">
        <ele>52.0486</ele>
        <time>2013-05-09T11:51:43Z</time>
      </trkpt>
      <trkpt lat="60.010565" lon="17.5920385">
        <ele>52.5292</ele>
        <time>2013-05-09T11:51:44Z</time>
      </trkpt>
      <trkpt lat="60.0105927" lon="17.5919204">
        <ele>52.5292</ele>
        <time>2013-05-09T11:51:45Z</time>
      </trkpt>
      <trkpt lat="60.0106206" lon="17.5918049">
        <ele>53.0098</ele>
        <time>2013-05-09T11:51:46Z</time>
      </trkpt>
      <trkpt lat="60.0106481" lon="17.5916931">
        <ele>53.0098</ele>
        <time>2013-05-09T11:51:47Z</time>
      </trkpt>
      <trkpt lat="60.0106704" lon="17.5915888">
        <ele>53.0098</ele>
        <time>2013-05-09T11:51:48Z</time>
      </trkpt>
      <trkpt lat="60.0106785" lon="17.5914905">
        <ele>53.4905</ele>
        <time>2013-05-09T11:51:49Z</time>
      </trkpt>
      <trkpt lat="60.0106683" lon="17.5913887">
        <ele>53.0098</ele>
        <time>2013-05-09T11:51:50Z</time>
      </trkpt>
      <trkpt lat="60.0106434" lon="17.5912937">
        <ele>51.5679</ele>
        <time>2013-05-09T11:51:51Z</time>
      </trkpt>
      <trkpt lat="60.0106036" lon="17.5912283">
        <ele>51.0872</ele>
        <time>2013-05-09T11:51:52Z</time>
      </trkpt>
      <trkpt lat="60.0105488" lon="17.5911807">
        <ele>49.6453</ele>
        <time>2013-05-09T11:51:53Z</time>
      </trkpt>
      <trkpt lat="60.0104849" lon="17.591152">
        <ele>47.7225</ele>
        <time>2013-05-09T11:51:54Z</time>
      </trkpt>
      <trkpt lat="60.0104143" lon="17.5911517">
        <ele>46.7612</ele>
        <time>2013-05-09T11:51:55Z</time>
      </trkpt>
      <trkpt lat="60.0103382" lon="17.5911743">
        <ele>45.7999</ele>
        <time>2013-05-09T11:51:56Z</time>
      </trkpt>
      <trkpt lat="60.0102596" lon="17.5911988">
        <ele>44.8386</ele>
        <time>2013-05-09T11:51:57Z</time>
      </trkpt>
      <trkpt lat="60.0101762" lon="17.5912231">
        <ele>43.8773</ele>
        <time>2013-05-09T11:51:58Z</time>
      </trkpt>
      <trkpt lat="60.0100871" lon="17.5912499">
        <ele>42.916</ele>
        <time>2013-05-09T11:51:59Z</time>
      </trkpt>
      <trkpt lat="60.0099942" lon="17.5912747">
        <ele>42.4354</ele>
        <time>2013-05-09T11:52:00Z</time>
      </trkpt>
      <trkpt lat="60.009898" lon="17.591295">
        <ele>41.474</ele>
        <time>2013-05-09T11:52:01Z</time>
      </trkpt>
      <trkpt lat="60.0097997" lon="17.5913185">
        <ele>40.9934</ele>
        <time>2013-05-09T11:52:02Z</time>
      </trkpt>
      <trkpt lat="60.0097001" lon="17.5913499">
        <ele>40.5128</ele>
        <time>2013-05-09T11:52:03Z</time>
      </trkpt>
      <trkpt lat="60.0096013" lon="17.5913787">
        <ele>40.0321</ele>
        <time>2013-05-09T11:52:04Z</time>
      </trkpt>
      <trkpt lat="60.0095039" lon="17.5914064">
        <ele>39.5513</ele>
        <time>2013-05-09T11:52:05Z</time>
      </trkpt>
      <trkpt lat="60.0094085" lon="17.5914324">
        <ele>39.5513</ele>
        <time>2013-05-09T11:52:06Z</time>
      </trkpt>
      <trkpt lat="60.0093149" lon="17.5914557">
        <ele>39.0707</ele>
        <time>2013-05-09T11:52:07Z</time>
      </trkpt>
      <trkpt lat="60.0092226" lon="17.591477">
        <ele>39.0707</ele>
        <time>2013-05-09T11:52:08Z</time>
      </trkpt>
      <trkpt lat="60.0091315" lon="17.5914967">
        <ele>39.0707</ele>
        <time>2013-05-09T11:52:09Z</time>
      </trkpt>
      <trkpt lat="60.0090419" lon="17.5915148">
        <ele>38.5901</ele>
        <time>2013-05-09T11:52:10Z</time>
      </trkpt>
      <trkpt lat="60.0089537" lon="17.5915339">
        <ele>38.1094</ele>
        <time>2013-05-09T11:52:11Z</time>
      </trkpt>
      <trkpt lat="60.0088665" lon="17.5915548">
        <ele>37.6287</ele>
        <time>2013-05-09T11:52:12Z</time>
      </trkpt>
      <trkpt lat="60.00878" lon="17.5915768">
        <ele>37.1481</ele>
        <time>2013-05-09T11:52:13Z</time>
      </trkpt>
      <trkpt lat="60.0086945" lon="17.5915991">
        <ele>36.6675</ele>
        <time>2013-05-09T11:52:14Z</time>
      </trkpt>
      <trkpt lat="60.0086104" lon="17.59162">
        <ele>36.6675</ele>
        <time>2013-05-09T11:52:15Z</time>
      </trkpt>
      <trkpt lat="60.0085285" lon="17.5916413">
        <ele>36.6675</ele>
        <time>2013-05-09T11:52:16Z</time>
      </trkpt>
      <trkpt lat="60.0084481" lon="17.5916612">
        <ele>36.6675</ele>
        <time>2013-05-09T11:52:17Z</time>
      </trkpt>
      <trkpt lat="60.0083684" lon="17.5916811">
        <ele>36.1868</ele>
        <time>2013-05-09T11:52:18Z</time>
      </trkpt>
      <trkpt lat="60.0082894" lon="17.5917021">
        <ele>36.1868</ele>
        <time>2013-05-09T11:52:19Z</time>
      </trkpt>
      <trkpt lat="60.0082109" lon="17.5917223">
        <ele>36.1868</ele>
        <time>2013-05-09T11:52:20Z</time>
      </trkpt>
      <trkpt lat="60.0081336" lon="17.5917409">
        <ele>36.1868</ele>
        <time>2013-05-09T11:52:21Z</time>
      </trkpt>
      <trkpt lat="60.0080572" lon="17.5917597">
        <ele>36.1868</ele>
        <time>2013-05-09T11:52:22Z</time>
      </trkpt>
      <trkpt lat="60.007982" lon="17.5917784">
        <ele>36.6675</ele>
        <time>2013-05-09T11:52:23Z</time>
      </trkpt>
      <trkpt lat="60.0079079" lon="17.5917976">
        <ele>36.6675</ele>
        <time>2013-05-09T11:52:24Z</time>
      </trkpt>
      <trkpt lat="60.0078344" lon="17.5918184">
        <ele>36.6675</ele>
        <time>2013-05-09T11:52:25Z</time>
      </trkpt>
      <trkpt lat="60.0077618" lon="17.591839">
        <ele>36.6675</ele>
        <time>2013-05-09T11:52:26Z</time>
      </trkpt>
      <trkpt lat="60.0076898" lon="17.591859">
        <ele>36.6675</ele>
        <time>2013-05-09T11:52:27Z</time>
      </trkpt>
      <trkpt lat="60.0076183" lon="17.5918775">
        <ele>36.6675</ele>
        <time>2013-05-09T11:52:28Z</time>
      </trkpt>
      <trkpt lat="60.0075469" lon="17.5918954">
        <ele>36.6675</ele>
        <time>2013-05-09T11:52:29Z</time>
      </trkpt>
      <trkpt lat="60.0074758" lon="17.5919131">
        <ele>36.6675</ele>
        <time>2013-05-09T11:52:30Z</time>
      </trkpt>
      <trkpt lat="60.0074057" lon="17.5919323">
        <ele>36.6675</ele>
        <time>2013-05-09T11:52:31Z</time>
      </trkpt>
      <trkpt lat="60.0073363" lon="17.5919523">
        <ele>36.6675</ele>
        <time>2013-05-09T11:52:32Z</time>
      </trkpt>
      <trkpt lat="60.0072669" lon="17.5919718">
        <ele>36.1868</ele>
        <time>2013-05-09T11:52:33Z</time>
      </trkpt>
      <trkpt lat="60.0071966" lon="17.5919933">
        <ele>36.1868</ele>
        <time>2013-05-09T11:52:34Z</time>
      </trkpt>
      <trkpt lat="60.0071252" lon="17.5920162">
        <ele>35.7061</ele>
        <time>2013-05-09T11:52:35Z</time>
      </trkpt>
      <trkpt lat="60.0070538" lon="17.5920379">
        <ele>34.7449</ele>
        <time>2013-05-09T11:52:36Z</time>
      </trkpt>
      <trkpt lat="60.0069821" lon="17.592058">
        <ele>34.7449</ele>
        <time>2013-05-09T11:52:37Z</time>
      </trkpt>
      <trkpt lat="60.006909" lon="17.592069">
        <ele>34.7449</ele>
        <time>2013-05-09T11:52:38Z</time>
      </trkpt>
      <trkpt lat="60.0068354" lon="17.5920836">
        <ele>34.7449</ele>
        <time>2013-05-09T11:52:39Z</time>
      </trkpt>
      <trkpt lat="60.006762" lon="17.5921011">
        <ele>34.7449</ele>
        <time>2013-05-09T11:52:40Z</time>
      </trkpt>
      <trkpt lat="60.0066885" lon="17.5921188">
        <ele>34.7449</ele>
        <time>2013-05-09T11:52:41Z</time>
      </trkpt>
      <trkpt lat="60.0066152" lon="17.5921354">
        <ele>34.7449</ele>
        <time>2013-05-09T11:52:42Z</time>
      </trkpt>
      <trkpt lat="60.0065423" lon="17.5921541">
        <ele>34.7449</ele>
        <time>2013-05-09T11:52:43Z</time>
      </trkpt>
      <trkpt lat="60.0064688" lon="17.5921743">
        <ele>35.2255</ele>
        <time>2013-05-09T11:52:44Z</time>
      </trkpt>
      <trkpt lat="60.0063947" lon="17.5921965">
        <ele>35.2255</ele>
        <time>2013-05-09T11:52:45Z</time>
      </trkpt>
      <trkpt lat="60.0063201" lon="17.5922147">
        <ele>35.2255</ele>
        <time>2013-05-09T11:52:46Z</time>
      </trkpt>
      <trkpt lat="60.0062459" lon="17.5922328">
        <ele>35.2255</ele>
        <time>2013-05-09T11:52:47Z</time>
      </trkpt>
      <trkpt lat="60.006172" lon="17.5922518">
        <ele>35.2255</ele>
        <time>2013-05-09T11:52:48Z</time>
      </trkpt>
      <trkpt lat="60.0060979" lon="17.5922721">
        <ele>35.2255</ele>
        <time>2013-05-09T11:52:49Z</time>
      </trkpt>
      <trkpt lat="60.0060233" lon="17.5922927">
        <ele>35.2255</ele>
        <time>2013-05-09T11:52:50Z</time>
      </trkpt>
      <trkpt lat="60.0059485" lon="17.5923121">
        <ele>35.2255</ele>
        <time>2013-05-09T11:52:51Z</time>
      </trkpt>
      <trkpt lat="60.0058735" lon="17.5923322">
        <ele>35.7061</ele>
        <time>2013-05-09T11:52:52Z</time>
      </trkpt>
      <trkpt lat="60.0057988" lon="17.592353">
        <ele>35.7061</ele>
        <time>2013-05-09T11:52:53Z</time>
      </trkpt>
      <trkpt lat="60.0057244" lon="17.592375">
        <ele>35.7061</ele>
        <time>2013-05-09T11:52:54Z</time>
      </trkpt>
      <trkpt lat="60.0056505" lon="17.5923964">
        <ele>35.7061</ele>
        <time>2013-05-09T11:52:55Z</time>
      </trkpt>
      <trkpt lat="60.0055768" lon="17.5924177">
        <ele>35.7061</ele>
        <time>2013-05-09T11:52:56Z</time>
      </trkpt>
      <trkpt lat="60.0055036" lon="17.5924393">
        <ele>35.7061</ele>
        <time>2013-05-09T11:52:57Z</time>
      </trkpt>
      <trkpt lat="60.0054319" lon="17.5924612">
        <ele>35.7061</ele>
        <time>2013-05-09T11:52:58Z</time>
      </trkpt>
      <trkpt lat="60.0053628" lon="17.5924819">
        <ele>35.7061</ele>
        <time>2013-05-09T11:52:59Z</time>
      </trkpt>
      <trkpt lat="60.005296" lon="17.592502">
        <ele>36.1868</ele>
        <time>2013-05-09T11:53:00Z</time>
      </trkpt>
      <trkpt lat="60.0052309" lon="17.5925197">
        <ele>36.1868</ele>
        <time>2013-05-09T11:53:01Z</time>
      </trkpt>
      <trkpt lat="60.0051671" lon="17.5925366">
        <ele>36.6675</ele>
        <time>2013-05-09T11:53:02Z</time>
      </trkpt>
      <trkpt lat="60.0051029" lon="17.5925532">
        <ele>36.6675</ele>
        <time>2013-05-09T11:53:03Z</time>
      </trkpt>
      <trkpt lat="60.0050381" lon="17.5925708">
        <ele>36.6675</ele>
        <time>2013-05-09T11:53:04Z</time>
      </trkpt>
      <trkpt lat="60.0049728" lon="17.5925869">
        <ele>36.6675</ele>
        <time>2013-05-09T11:53:05Z</time>
      </trkpt>
      <trkpt lat="60.0049073" lon="17.5926035">
        <ele>36.6675</ele>
        <time>2013-05-09T11:53:06Z</time>
      </trkpt>
      <trkpt lat="60.0048418" lon="17.5926218">
        <ele>36.6675</ele>
        <time>2013-05-09T11:53:07Z</time>
      </trkpt>
      <trkpt lat="60.0047766" lon="17.5926409">
        <ele>36.6675</ele>
        <time>2013-05-09T11:53:08Z</time>
      </trkpt>
      <trkpt lat="60.0047115" lon="17.5926595">
        <ele>37.1481</ele>
        <time>2013-05-09T11:53:09Z</time>
      </trkpt>
      <trkpt lat="60.0046464" lon="17.5926786">
        <ele>37.1481</ele>
        <time>2013-05-09T11:53:10Z</time>
      </trkpt>
      <trkpt lat="60.0045813" lon="17.5926974">
        <ele>37.1481</ele>
        <time>2013-05-09T11:53:11Z</time>
      </trkpt>
      <trkpt lat="60.004517" lon="17.5927156">
        <ele>37.1481</ele>
        <time>2013-05-09T11:53:12Z</time>
      </trkpt>
      <trkpt lat="60.004453" lon="17.592734">
        <ele>37.1481</ele>
        <time>2013-05-09T11:53:13Z</time>
      </trkpt>
      <trkpt lat="60.004389" lon="17.5927518">
        <ele>37.1481</ele>
        <time>2013-05-09T11:53:14Z</time>
      </trkpt>
      <trkpt lat="60.0043253" lon="17.5927693">
        <ele>37.1481</ele>
        <time>2013-05-09T11:53:15Z</time>
      </trkpt>
      <trkpt lat="60.0042617" lon="17.5927858">
        <ele>37.1481</ele>
        <time>2013-05-09T11:53:16Z</time>
      </trkpt>
      <trkpt lat="60.0041988" lon="17.592802">
        <ele>37.1481</ele>
        <time>2013-05-09T11:53:17Z</time>
      </trkpt>
      <trkpt lat="60.0041358" lon="17.5928184">
        <ele>37.1481</ele>
        <time>2013-05-09T11:53:18Z</time>
      </trkpt>
      <trkpt lat="60.0040734" lon="17.5928362">
        <ele>37.6287</ele>
        <time>2013-05-09T11:53:19Z</time>
      </trkpt>
      <trkpt lat="60.0040113" lon="17.5928549">
        <ele>37.6287</ele>
        <time>2013-05-09T11:53:20Z</time>
      </trkpt>
      <trkpt lat="60.0039495" lon="17.5928729">
        <ele>37.6287</ele>
        <time>2013-05-09T11:53:21Z</time>
      </trkpt>
      <trkpt lat="60.0038884" lon="17.5928887">
        <ele>37.6287</ele>
        <time>2013-05-09T11:53:22Z</time>
      </trkpt>
      <trkpt lat="60.0038279" lon="17.5929024">
        <ele>37.6287</ele>
        <time>2013-05-09T11:53:23Z</time>
      </trkpt>
      <trkpt lat="60.0037679" lon="17.5929169">
        <ele>37.6287</ele>
        <time>2013-05-09T11:53:24Z</time>
      </trkpt>
      <trkpt lat="60.0037085" lon="17.5929332">
        <ele>37.6287</ele>
        <time>2013-05-09T11:53:25Z</time>
      </trkpt>
      <trkpt lat="60.0036493" lon="17.5929495">
        <ele>38.1094</ele>
        <time>2013-05-09T11:53:26Z</time>
      </trkpt>
      <trkpt lat="60.0035903" lon="17.5929646">
        <ele>38.1094</ele>
        <time>2013-05-09T11:53:27Z</time>
      </trkpt>
      <trkpt lat="60.003532" lon="17.5929792">
        <ele>38.1094</ele>
        <time>2013-05-09T11:53:28Z</time>
      </trkpt>
      <trkpt lat="60.0034741" lon="17.5929932">
        <ele>38.1094</ele>
        <time>2013-05-09T11:53:29Z</time>
      </trkpt>
      <trkpt lat="60.0034166" lon="17.5930083">
        <ele>38.1094</ele>
        <time>2013-05-09T11:53:30Z</time>
      </trkpt>
      <trkpt lat="60.0033595" lon="17.5930239">
        <ele>38.1094</ele>
        <time>2013-05-09T11:53:31Z</time>
      </trkpt>
      <trkpt lat="60.0033025" lon="17.5930377">
        <ele>38.1094</ele>
        <time>2013-05-09T11:53:32Z</time>
      </trkpt>
      <trkpt lat="60.0032458" lon="17.5930522">
        <ele>38.5901</ele>
        <time>2013-05-09T11:53:33Z</time>
      </trkpt>
      <trkpt lat="60.0031899" lon="17.5930668">
        <ele>38.5901</ele>
        <time>2013-05-09T11:53:34Z</time>
      </trkpt>
      <trkpt lat="60.0031348" lon="17.5930808">
        <ele>38.5901</ele>
        <time>2013-05-09T11:53:35Z</time>
      </trkpt>
      <trkpt lat="60.0030804" lon="17.5930956">
        <ele>39.0707</ele>
        <time>2013-05-09T11:53:36Z</time>
      </trkpt>
      <trkpt lat="60.003027" lon="17.593109">
        <ele>39.0707</ele>
        <time>2013-05-09T11:53:37Z</time>
      </trkpt>
      <trkpt lat="60.0029748" lon="17.5931212">
        <ele>39.0707</ele>
        <time>2013-05-09T11:53:38Z</time>
      </trkpt>
      <trkpt lat="60.0029236" lon="17.5931375">
        <ele>39.5513</ele>
        <time>2013-05-09T11:53:39Z</time>
      </trkpt>
      <trkpt lat="60.0028742" lon="17.5931631">
        <ele>39.5513</ele>
        <time>2013-05-09T11:53:40Z</time>
      </trkpt>
      <trkpt lat="60.0028275" lon="17.5931916">
        <ele>40.0321</ele>
        <time>2013-05-09T11:53:41Z</time>
      </trkpt>
      <trkpt lat="60.0027816" lon="17.5932185">
        <ele>40.0321</ele>
        <time>2013-05-09T11:53:42Z</time>
      </trkpt>
      <trkpt lat="60.0027354" lon="17.59325">
        <ele>40.0321</ele>
        <time>2013-05-09T11:53:43Z</time>
      </trkpt>
      <trkpt lat="60.0026883" lon="17.59329">
        <ele>40.5128</ele>
        <time>2013-05-09T11:53:44Z</time>
      </trkpt>
      <trkpt lat="60.0026396" lon="17.5933355">
        <ele>40.5128</ele>
        <time>2013-05-09T11:53:45Z</time>
      </trkpt>
      <trkpt lat="60.0025915" lon="17.5933864">
        <ele>40.5128</ele>
        <time>2013-05-09T11:53:46Z</time>
      </trkpt>
      <trkpt lat="60.0025431" lon="17.5934434">
        <ele>40.5128</ele>
        <time>2013-05-09T11:53:47Z</time>
      </trkpt>
      <trkpt lat="60.0024936" lon="17.5935045">
        <ele>40.5128</ele>
        <time>2013-05-09T11:53:48Z</time>
      </trkpt>
      <trkpt lat="60.0024445" lon="17.5935727">
        <ele>40.9934</ele>
        <time>2013-05-09T11:53:49Z</time>
      </trkpt>
      <trkpt lat="60.0023957" lon="17.5936447">
        <ele>40.9934</ele>
        <time>2013-05-09T11:53:50Z</time>
      </trkpt>
      <trkpt lat="60.0023465" lon="17.5937168">
        <ele>41.474</ele>
        <time>2013-05-09T11:53:51Z</time>
      </trkpt>
      <trkpt lat="60.0023004" lon="17.5937894">
        <ele>41.474</ele>
        <time>2013-05-09T11:53:52Z</time>
      </trkpt>
      <trkpt lat="60.0022568" lon="17.593861">
        <ele>41.9547</ele>
        <time>2013-05-09T11:53:53Z</time>
      </trkpt>
      <trkpt lat="60.0022126" lon="17.5939281">
        <ele>41.9547</ele>
        <time>2013-05-09T11:53:54Z</time>
      </trkpt>
      <trkpt lat="60.0021683" lon="17.5939902">
        <ele>41.9547</ele>
        <time>2013-05-09T11:53:55Z</time>
      </trkpt>
      <trkpt lat="60.0021253" lon="17.5940473">
        <ele>42.4354</ele>
        <time>2013-05-09T11:53:56Z</time>
      </trkpt>
      <trkpt lat="60.0020827" lon="17.5941079">
        <ele>42.4354</ele>
        <time>2013-05-09T11:53:57Z</time>
      </trkpt>
      <trkpt lat="60.0020393" lon="17.594164">
        <ele>42.916</ele>
        <time>2013-05-09T11:53:58Z</time>
      </trkpt>
      <trkpt lat="60.0019952" lon="17.5942147">
        <ele>42.916</ele>
        <time>2013-05-09T11:53:59Z</time>
      </trkpt>
      <trkpt lat="60.0019493" lon="17.5942705">
        <ele>43.3966</ele>
        <time>2013-05-09T11:54:00Z</time>
      </trkpt>
      <trkpt lat="60.0019018" lon="17.5943184">
        <ele>43.8773</ele>
        <time>2013-05-09T11:54:01Z</time>
      </trkpt>
      <trkpt lat="60.0018524" lon="17.5943572">
        <ele>43.8773</ele>
        <time>2013-05-09T11:54:02Z</time>
      </trkpt>
      <trkpt lat="60.0018016" lon="17.5943856">
        <ele>44.358</ele>
        <time>2013-05-09T11:54:03Z</time>
      </trkpt>
      <trkpt lat="60.0017478" lon="17.5944017">
        <ele>44.358</ele>
        <time>2013-05-09T11:54:04Z</time>
      </trkpt>
      <trkpt lat="60.0016933" lon="17.5944067">
        <ele>43.8773</ele>
        <time>2013-05-09T11:54:05Z</time>
      </trkpt>
      <trkpt lat="60.0016389" lon="17.5944048">
        <ele>43.8773</ele>
        <time>2013-05-09T11:54:06Z</time>
      </trkpt>
      <trkpt lat="60.0015848" lon="17.5944036">
        <ele>43.3966</ele>
        <time>2013-05-09T11:54:07Z</time>
      </trkpt>
      <trkpt lat="60.0015305" lon="17.5944015">
        <ele>43.3966</ele>
        <time>2013-05-09T11:54:08Z</time>
      </trkpt>
      <trkpt lat="60.0014763" lon="17.5943953">
        <ele>43.3966</ele>
        <time>2013-05-09T11:54:09Z</time>
      </trkpt>
      <trkpt lat="60.0014219" lon="17.5943876">
        <ele>42.916</ele>
        <time>2013-05-09T11:54:10Z</time>
      </trkpt>
      <trkpt lat="60.0013675" lon="17.5943714">
        <ele>42.916</ele>
        <time>2013-05-09T11:54:11Z</time>
      </trkpt>
      <trkpt lat="60.001312" lon="17.5943584">
        <ele>42.4354</ele>
        <time>2013-05-09T11:54:12Z</time>
      </trkpt>
      <trkpt lat="60.0012565" lon="17.5943436">
        <ele>42.4354</ele>
        <time>2013-05-09T11:54:13Z</time>
      </trkpt>
      <trkpt lat="60.0012006" lon="17.5943239">
        <ele>41.9547</ele>
        <time>2013-05-09T11:54:14Z</time>
      </trkpt>
      <trkpt lat="60.0011438" lon="17.5943009">
        <ele>41.9547</ele>
        <time>2013-05-09T11:54:15Z</time>
      </trkpt>
      <trkpt lat="60.0010865" lon="17.5942762">
        <ele>41.9547</ele>
        <time>2013-05-09T11:54:16Z</time>
      </trkpt>
      <trkpt lat="60.0010282" lon="17.5942514">
        <ele>41.474</ele>
        <time>2013-05-09T11:54:17Z</time>
      </trkpt>
      <trkpt lat="60.000969" lon="17.5942276">
        <ele>41.474</ele>
        <time>2013-05-09T11:54:18Z</time>
      </trkpt>
      <trkpt lat="60.0009094" lon="17.5942088">
        <ele>41.474</ele>
        <time>2013-05-09T11:54:19Z</time>
      </trkpt>
      <trkpt lat="60.0008503" lon="17.5941939">
        <ele>41.474</ele>
        <time>2013-05-09T11:54:20Z</time>
      </trkpt>
      <trkpt lat="60.0007921" lon="17.5941775">
        <ele>41.474</ele>
        <time>2013-05-09T11:54:21Z</time>
      </trkpt>
      <trkpt lat="60.0007343" lon="17.5941642">
        <ele>41.474</ele>
        <time>2013-05-09T11:54:22Z</time>
      </trkpt>
      <trkpt lat="60.0006783" lon="17.5941393">
        <ele>40.9934</ele>
        <time>2013-05-09T11:54:23Z</time>
      </trkpt>
      <trkpt lat="60.00062" lon="17.5941231">
        <ele>40.9934</ele>
        <time>2013-05-09T11:54:24Z</time>
      </trkpt>
      <trkpt lat="60.0005608" lon="17.5941091">
        <ele>40.9934</ele>
        <time>2013-05-09T11:54:25Z</time>
      </trkpt>
      <trkpt lat="60.0005019" lon="17.5940923">
        <ele>40.5128</ele>
        <time>2013-05-09T11:54:26Z</time>
      </trkpt>
      <trkpt lat="60.0004431" lon="17.5940788">
        <ele>40.5128</ele>
        <time>2013-05-09T11:54:27Z</time>
      </trkpt>
      <trkpt lat="60.0003842" lon="17.5940681">
        <ele>40.5128</ele>
        <time>2013-05-09T11:54:28Z</time>
      </trkpt>
      <trkpt lat="60.0003258" lon="17.5940613">
        <ele>40.0321</ele>
        <time>2013-05-09T11:54:29Z</time>
      </trkpt>
      <trkpt lat="60.0002681" lon="17.5940585">
        <ele>40.0321</ele>
        <time>2013-05-09T11:54:30Z</time>
      </trkpt>
      <trkpt lat="60.0002079" lon="17.59407">
        <ele>40.0321</ele>
        <time>2013-05-09T11:54:31Z</time>
      </trkpt>
      <trkpt lat="60.0001479" lon="17.5940799">
        <ele>40.0321</ele>
        <time>2013-05-09T11:54:32Z</time>
      </trkpt>
      <trkpt lat="60.0000855" lon="17.59411">
        <ele>40.5128</ele>
        <time>2013-05-09T11:54:33Z</time>
      </trkpt>
      <trkpt lat="60.0000243" lon="17.5941507">
        <ele>40.5128</ele>
        <time>2013-05-09T11:54:34Z</time>
      </trkpt>
      <trkpt lat="59.9999656" lon="17.5941976">
        <ele>40.9934</ele>
        <time>2013-05-09T11:54:35Z</time>
      </trkpt>
      <trkpt lat="59.9999093" lon="17.5942499">
        <ele>41.474</ele>
        <time>2013-05-09T11:54:36Z</time>
      </trkpt>
      <trkpt lat="59.9998542" lon="17.5943075">
        <ele>41.9547</ele>
        <time>2013-05-09T11:54:37Z</time>
      </trkpt>
      <trkpt lat="59.9997994" lon="17.5943764">
        <ele>42.916</ele>
        <time>2013-05-09T11:54:38Z</time>
      </trkpt>
      <trkpt lat="59.9997457" lon="17.594444">
        <ele>43.3966</ele>
        <time>2013-05-09T11:54:39Z</time>
      </trkpt>
      <trkpt lat="59.9996916" lon="17.5945053">
        <ele>43.8773</ele>
        <time>2013-05-09T11:54:40Z</time>
      </trkpt>
      <trkpt lat="59.9996368" lon="17.5945638">
        <ele>44.358</ele>
        <time>2013-05-09T11:54:41Z</time>
      </trkpt>
      <trkpt lat="59.9995798" lon="17.594616">
        <ele>44.8386</ele>
        <time>2013-05-09T11:54:42Z</time>
      </trkpt>
      <trkpt lat="59.9995211" lon="17.5946555">
        <ele>44.8386</ele>
        <time>2013-05-09T11:54:43Z</time>
      </trkpt>
      <trkpt lat="59.9994606" lon="17.5946907">
        <ele>44.8386</ele>
        <time>2013-05-09T11:54:44Z</time>
      </trkpt>
      <trkpt lat="59.9993978" lon="17.5947192">
        <ele>44.358</ele>
        <time>2013-05-09T11:54:45Z</time>
      </trkpt>
      <trkpt lat="59.9993348" lon="17.5947394">
        <ele>43.8773</ele>
        <time>2013-05-09T11:54:46Z</time>
      </trkpt>
      <trkpt lat="59.9992742" lon="17.5947591">
        <ele>43.8773</ele>
        <time>2013-05-09T11:54:47Z</time>
      </trkpt>
      <trkpt lat="59.9992154" lon="17.5947838">
        <ele>43.8773</ele>
        <time>2013-05-09T11:54:48Z</time>
      </trkpt>
      <trkpt lat="59.9991602" lon="17.5948131">
        <ele>44.358</ele>
        <time>2013-05-09T11:54:49Z</time>
      </trkpt>
      <trkpt lat="59.9991052" lon="17.5948454">
        <ele>44.8386</ele>
        <time>2013-05-09T11:54:50Z</time>
      </trkpt>
      <trkpt lat="59.9990502" lon="17.5948808">
        <ele>45.3192</ele>
        <time>2013-05-09T11:54:51Z</time>
      </trkpt>
      <trkpt lat="59.9989954" lon="17.5949202">
        <ele>45.7999</ele>
        <time>2013-05-09T11:54:52Z</time>
      </trkpt>
      <trkpt lat="59.9989407" lon="17.5949658">
        <ele>46.2806</ele>
        <time>2013-05-09T11:54:53Z</time>
      </trkpt>
      <trkpt lat="59.9988853" lon="17.5950139">
        <ele>46.7612</ele>
        <time>2013-05-09T11:54:54Z</time>
      </trkpt>
      <trkpt lat="59.9988287" lon="17.5950673">
        <ele>46.7612</ele>
        <time>2013-05-09T11:54:55Z</time>
      </trkpt>
      <trkpt lat="59.9987744" lon="17.5951199">
        <ele>47.2418</ele>
        <time>2013-05-09T11:54:56Z</time>
      </trkpt>
      <trkpt lat="59.9987211" lon="17.5951704">
        <ele>47.7225</ele>
        <time>2013-05-09T11:54:57Z</time>
      </trkpt>
      <trkpt lat="59.9986671" lon="17.5952268">
        <ele>48.2034</ele>
        <time>2013-05-09T11:54:58Z</time>
      </trkpt>
      <trkpt lat="59.9986145" lon="17.5952855">
        <ele>48.684</ele>
        <time>2013-05-09T11:54:59Z</time>
      </trkpt>
      <trkpt lat="59.9985627" lon="17.5953463">
        <ele>48.684</ele>
        <time>2013-05-09T11:55:00Z</time>
      </trkpt>
      <trkpt lat="59.9985102" lon="17.595405">
        <ele>49.1646</ele>
        <time>2013-05-09T11:55:01Z</time>
      </trkpt>
      <trkpt lat="59.9984586" lon="17.595468">
        <ele>49.6453</ele>
        <time>2013-05-09T11:55:02Z</time>
      </trkpt>
      <trkpt lat="59.9984075" lon="17.5955298">
        <ele>50.126</ele>
        <time>2013-05-09T11:55:03Z</time>
      </trkpt>
      <trkpt lat="59.9983573" lon="17.595591">
        <ele>50.126</ele>
        <time>2013-05-09T11:55:04Z</time>
      </trkpt>
      <trkpt lat="59.998307" lon="17.5956526">
        <ele>50.6066</ele>
        <time>2013-05-09T11:55:05Z</time>
      </trkpt>
      <trkpt lat="59.9982578" lon="17.5957138">
        <ele>51.0872</ele>
        <time>2013-05-09T11:55:06Z</time>
      </trkpt>
      <trkpt lat="59.9982062" lon="17.5957766">
        <ele>51.0872</ele>
        <time>2013-05-09T11:55:07Z</time>
      </trkpt>
      <trkpt lat="59.9981542" lon="17.595837">
        <ele>51.5679</ele>
        <time>2013-05-09T11:55:08Z</time>
      </trkpt>
      <trkpt lat="59.998102" lon="17.5958919">
        <ele>52.0486</ele>
        <time>2013-05-09T11:55:09Z</time>
      </trkpt>
      <trkpt lat="59.9980474" lon="17.5959489">
        <ele>52.5292</ele>
        <time>2013-05-09T11:55:10Z</time>
      </trkpt>
      <trkpt lat="59.9979904" lon="17.5960036">
        <ele>53.0098</ele>
        <time>2013-05-09T11:55:11Z</time>
      </trkpt>
      <trkpt lat="59.9979316" lon="17.5960506">
        <ele>53.0098</ele>
        <time>2013-05-09T11:55:12Z</time>
      </trkpt>
      <trkpt lat="59.9978717" lon="17.59609">
        <ele>53.0098</ele>
        <time>2013-05-09T11:55:13Z</time>
      </trkpt>
      <trkpt lat="59.9978078" lon="17.596125">
        <ele>53.0098</ele>
        <time>2013-05-09T11:55:14Z</time>
      </trkpt>
      <trkpt lat="59.997745" lon="17.596153">
        <ele>52.5292</ele>
        <time>2013-05-09T11:55:15Z</time>
      </trkpt>
      <trkpt lat="59.9976824" lon="17.5961751">
        <ele>52.5292</ele>
        <time>2013-05-09T11:55:16Z</time>
      </trkpt>
      <trkpt lat="59.9976194" lon="17.5961904">
        <ele>52.0486</ele>
        <time>2013-05-09T11:55:17Z</time>
      </trkpt>
      <trkpt lat="59.9975559" lon="17.5962064">
        <ele>51.0872</ele>
        <time>2013-05-09T11:55:18Z</time>
      </trkpt>
      <trkpt lat="59.9974937" lon="17.5962105">
        <ele>50.6066</ele>
        <time>2013-05-09T11:55:19Z</time>
      </trkpt>
      <trkpt lat="59.9974296" lon="17.5962165">
        <ele>50.6066</ele>
        <time>2013-05-09T11:55:20Z</time>
      </trkpt>
      <trkpt lat="59.9973631" lon="17.5962127">
        <ele>49.6453</ele>
        <time>2013-05-09T11:55:21Z</time>
      </trkpt>
      <trkpt lat="59.9972948" lon="17.5961856">
        <ele>48.684</ele>
        <time>2013-05-09T11:55:22Z</time>
      </trkpt>
      <trkpt lat="59.9972265" lon="17.5961505">
        <ele>47.7225</ele>
        <time>2013-05-09T11:55:23Z</time>
      </trkpt>
      <trkpt lat="59.99716" lon="17.5961063">
        <ele>47.2418</ele>
        <time>2013-05-09T11:55:24Z</time>
      </trkpt>
      <trkpt lat="59.9970944" lon="17.5960493">
        <ele>46.2806</ele>
        <time>2013-05-09T11:55:25Z</time>
      </trkpt>
      <trkpt lat="59.9970311" lon="17.5959868">
        <ele>44.8386</ele>
        <time>2013-05-09T11:55:26Z</time>
      </trkpt>
      <trkpt lat="59.9969725" lon="17.5959203">
        <ele>44.8386</ele>
        <time>2013-05-09T11:55:27Z</time>
      </trkpt>
      <trkpt lat="59.9969118" lon="17.5958603">
        <ele>44.358</ele>
        <time>2013-05-09T11:55:28Z</time>
      </trkpt>
      <trkpt lat="59.9968544" lon="17.5957966">
        <ele>43.8773</ele>
        <time>2013-05-09T11:55:29Z</time>
      </trkpt>
      <trkpt lat="59.9968005" lon="17.5957322">
        <ele>43.8773</ele>
        <time>2013-05-09T11:55:30Z</time>
      </trkpt>
      <trkpt lat="59.9967482" lon="17.595664">
        <ele>43.8773</ele>
        <time>2013-05-09T11:55:31Z</time>
      </trkpt>
      <trkpt lat="59.9966982" lon="17.595592">
        <ele>43.8773</ele>
        <time>2013-05-09T11:55:32Z</time>
      </trkpt>
      <trkpt lat="59.9966535" lon="17.5955062">
        <ele>43.8773</ele>
        <time>2013-05-09T11:55:33Z</time>
      </trkpt>
      <trkpt lat="59.9966117" lon="17.5954176">
        <ele>44.358</ele>
        <time>2013-05-09T11:55:34Z</time>
      </trkpt>
      <trkpt lat="59.99657" lon="17.5953299">
        <ele>44.358</ele>
        <time>2013-05-09T11:55:35Z</time>
      </trkpt>
      <trkpt lat="59.996528" lon="17.5952393">
        <ele>43.8773</ele>
        <time>2013-05-09T11:55:36Z</time>
      </trkpt>
      <trkpt lat="59.9964853" lon="17.5951485">
        <ele>43.3966</ele>
        <time>2013-05-09T11:55:37Z</time>
      </trkpt>
      <trkpt lat="59.9964408" lon="17.5950574">
        <ele>43.3966</ele>
        <time>2013-05-09T11:55:38Z</time>
      </trkpt>
      <trkpt lat="59.996397" lon="17.594963">
        <ele>42.916</ele>
        <time>2013-05-09T11:55:39Z</time>
      </trkpt>
      <trkpt lat="59.9963534" lon="17.5948645">
        <ele>42.916</ele>
        <time>2013-05-09T11:55:40Z</time>
      </trkpt>
      <trkpt lat="59.9963042" lon="17.5947745">
        <ele>42.4354</ele>
        <time>2013-05-09T11:55:41Z</time>
      </trkpt>
      <trkpt lat="59.9962519" lon="17.5946891">
        <ele>42.4354</ele>
        <time>2013-05-09T11:55:42Z</time>
      </trkpt>
      <trkpt lat="59.996196" lon="17.5946155">
        <ele>42.916</ele>
        <time>2013-05-09T11:55:43Z</time>
      </trkpt>
      <trkpt lat="59.9961405" lon="17.594553">
        <ele>43.3966</ele>
        <time>2013-05-09T11:55:44Z</time>
      </trkpt>
      <trkpt lat="59.996083" lon="17.5944885">
        <ele>43.8773</ele>
        <time>2013-05-09T11:55:45Z</time>
      </trkpt>
      <trkpt lat="59.9960219" lon="17.5944255">
        <ele>43.8773</ele>
        <time>2013-05-09T11:55:46Z</time>
      </trkpt>
      <trkpt lat="59.9959631" lon="17.5943722">
        <ele>43.8773</ele>
        <time>2013-05-09T11:55:47Z</time>
      </trkpt>
      <trkpt lat="59.9959038" lon="17.5943088">
        <ele>43.3966</ele>
        <time>2013-05-09T11:55:48Z</time>
      </trkpt>
      <trkpt lat="59.9958425" lon="17.5942507">
        <ele>43.8773</ele>
        <time>2013-05-09T11:55:49Z</time>
      </trkpt>
      <trkpt lat="59.9957781" lon="17.5941937">
        <ele>42.916</ele>
        <time>2013-05-09T11:55:50Z</time>
      </trkpt>
      <trkpt lat="59.9957138" lon="17.5941398">
        <ele>41.9547</ele>
        <time>2013-05-09T11:55:51Z</time>
      </trkpt>
      <trkpt lat="59.9956515" lon="17.5940891">
        <ele>41.474</ele>
        <time>2013-05-09T11:55:52Z</time>
      </trkpt>
      <trkpt lat="59.9955878" lon="17.5940386">
        <ele>40.5128</ele>
        <time>2013-05-09T11:55:53Z</time>
      </trkpt>
      <trkpt lat="59.9955254" lon="17.5939971">
        <ele>40.9934</ele>
        <time>2013-05-09T11:55:54Z</time>
      </trkpt>
      <trkpt lat="59.9954611" lon="17.593952">
        <ele>40.5128</ele>
        <time>2013-05-09T11:55:55Z</time>
      </trkpt>
      <trkpt lat="59.9953973" lon="17.5939043">
        <ele>40.0321</ele>
        <time>2013-05-09T11:55:56Z</time>
      </trkpt>
      <trkpt lat="59.9953347" lon="17.5938515">
        <ele>39.5513</ele>
        <time>2013-05-09T11:55:57Z</time>
      </trkpt>
      <trkpt lat="59.9952669" lon="17.5937981">
        <ele>39.0707</ele>
        <time>2013-05-09T11:55:58Z</time>
      </trkpt>
      <trkpt lat="59.9951957" lon="17.5937377">
        <ele>38.5901</ele>
        <time>2013-05-09T11:55:59Z</time>
      </trkpt>
      <trkpt lat="59.9951275" lon="17.5936641">
        <ele>37.6287</ele>
        <time>2013-05-09T11:56:00Z</time>
      </trkpt>
      <trkpt lat="59.9950591" lon="17.5935903">
        <ele>36.6675</ele>
        <time>2013-05-09T11:56:01Z</time>
      </trkpt>
      <trkpt lat="59.9949942" lon="17.5935199">
        <ele>36.1868</ele>
        <time>2013-05-09T11:56:02Z</time>
      </trkpt>
      <trkpt lat="59.994914" lon="17.5934475">
        <ele>36.1868</ele>
        <time>2013-05-09T11:56:03Z</time>
      </trkpt>
      <trkpt lat="59.9948318" lon="17.5933719">
        <ele>36.1868</ele>
        <time>2013-05-09T11:56:04Z</time>
      </trkpt>
      <trkpt lat="59.9947731" lon="17.5932728">
        <ele>36.6675</ele>
        <time>2013-05-09T11:56:05Z</time>
      </trkpt>
      <trkpt lat="59.9947145" lon="17.5931795">
        <ele>36.6675</ele>
        <time>2013-05-09T11:56:06Z</time>
      </trkpt>
      <trkpt lat="59.9946598" lon="17.5930827">
        <ele>36.6675</ele>
        <time>2013-05-09T11:56:07Z</time>
      </trkpt>
      <trkpt lat="59.9946041" lon="17.592989">
        <ele>36.6675</ele>
        <time>2013-05-09T11:56:08Z</time>
      </trkpt>
      <trkpt lat="59.9945472" lon="17.5928948">
        <ele>37.1481</ele>
        <time>2013-05-09T11:56:09Z</time>
      </trkpt>
      <trkpt lat="59.9944909" lon="17.5928055">
        <ele>36.6675</ele>
        <time>2013-05-09T11:56:10Z</time>
      </trkpt>
      <trkpt lat="59.9944353" lon="17.5927171">
        <ele>36.6675</ele>
        <time>2013-05-09T11:56:11Z</time>
      </trkpt>
      <trkpt lat="59.9943785" lon="17.5926294">
        <ele>36.1868</ele>
        <time>2013-05-09T11:56:12Z</time>
      </trkpt>
      <trkpt lat="59.9943203" lon="17.5925435">
        <ele>36.1868</ele>
        <time>2013-05-09T11:56:13Z</time>
      </trkpt>
      <trkpt lat="59.9942589" lon="17.5924575">
        <ele>36.1868</ele>
        <time>2013-05-09T11:56:14Z</time>
      </trkpt>
      <trkpt lat="59.9941956" lon="17.5923797">
        <ele>36.1868</ele>
        <time>2013-05-09T11:56:15Z</time>
      </trkpt>
      <trkpt lat="59.9941288" lon="17.5923104">
        <ele>36.1868</ele>
        <time>2013-05-09T11:56:16Z</time>
      </trkpt>
      <trkpt lat="59.9940583" lon="17.5922496">
        <ele>35.7061</ele>
        <time>2013-05-09T11:56:17Z</time>
      </trkpt>
      <trkpt lat="59.9939874" lon="17.592201">
        <ele>36.1868</ele>
        <time>2013-05-09T11:56:18Z</time>
      </trkpt>
      <trkpt lat="59.9939149" lon="17.592164">
        <ele>36.1868</ele>
        <time>2013-05-09T11:56:19Z</time>
      </trkpt>
      <trkpt lat="59.9938413" lon="17.5921336">
        <ele>36.6675</ele>
        <time>2013-05-09T11:56:20Z</time>
      </trkpt>
      <trkpt lat="59.9937677" lon="17.5921063">
        <ele>36.6675</ele>
        <time>2013-05-09T11:56:21Z</time>
      </trkpt>
      <trkpt lat="59.9936947" lon="17.5920799">
        <ele>37.1481</ele>
        <time>2013-05-09T11:56:22Z</time>
      </trkpt>
      <trkpt lat="59.9936216" lon="17.5920545">
        <ele>37.1481</ele>
        <time>2013-05-09T11:56:23Z</time>
      </trkpt>
      <trkpt lat="59.9935479" lon="17.5920271">
        <ele>37.6287</ele>
        <time>2013-05-09T11:56:24Z</time>
      </trkpt>
      <trkpt lat="59.9934741" lon="17.5919961">
        <ele>37.6287</ele>
        <time>2013-05-09T11:56:25Z</time>
      </trkpt>
      <trkpt lat="59.9934006" lon="17.5919639">
        <ele>37.6287</ele>
        <time>2013-05-09T11:56:26Z</time>
      </trkpt>
      <trkpt lat="59.9933279" lon="17.5919334">
        <ele>38.1094</ele>
        <time>2013-05-09T11:56:27Z</time>
      </trkpt>
      <trkpt lat="59.9932555" lon="17.5919032">
        <ele>38.1094</ele>
        <time>2013-05-09T11:56:28Z</time>
      </trkpt>
      <trkpt lat="59.9931837" lon="17.5918779">
        <ele>38.5901</ele>
        <time>2013-05-09T11:56:29Z</time>
      </trkpt>
      <trkpt lat="59.993112" lon="17.5918583">
        <ele>38.5901</ele>
        <time>2013-05-09T11:56:30Z</time>
      </trkpt>
      <trkpt lat="59.993041" lon="17.5918402">
        <ele>38.5901</ele>
        <time>2013-05-09T11:56:31Z</time>
      </trkpt>
      <trkpt lat="59.9929695" lon="17.5918246">
        <ele>39.0707</ele>
        <time>2013-05-09T11:56:32Z</time>
      </trkpt>
      <trkpt lat="59.9928978" lon="17.5918126">
        <ele>39.0707</ele>
        <time>2013-05-09T11:56:33Z</time>
      </trkpt>
      <trkpt lat="59.9928253" lon="17.5918033">
        <ele>39.0707</ele>
        <time>2013-05-09T11:56:34Z</time>
      </trkpt>
      <trkpt lat="59.9927553" lon="17.5917888">
        <ele>38.5901</ele>
        <time>2013-05-09T11:56:35Z</time>
      </trkpt>
      <trkpt lat="59.992684" lon="17.5917769">
        <ele>38.5901</ele>
        <time>2013-05-09T11:56:36Z</time>
      </trkpt>
      <trkpt lat="59.9926116" lon="17.5917671">
        <ele>38.5901</ele>
        <time>2013-05-09T11:56:37Z</time>
      </trkpt>
      <trkpt lat="59.9925395" lon="17.5917568">
        <ele>38.5901</ele>
        <time>2013-05-09T11:56:38Z</time>
      </trkpt>
      <trkpt lat="59.9924686" lon="17.5917469">
        <ele>38.5901</ele>
        <time>2013-05-09T11:56:39Z</time>
      </trkpt>
      <trkpt lat="59.9923981" lon="17.5917371">
        <ele>38.5901</ele>
        <time>2013-05-09T11:56:40Z</time>
      </trkpt>
      <trkpt lat="59.9923277" lon="17.591724">
        <ele>38.5901</ele>
        <time>2013-05-09T11:56:41Z</time>
      </trkpt>
      <trkpt lat="59.992258" lon="17.5917096">
        <ele>39.0707</ele>
        <time>2013-05-09T11:56:42Z</time>
      </trkpt>
      <trkpt lat="59.9921914" lon="17.5916882">
        <ele>39.0707</ele>
        <time>2013-05-09T11:56:43Z</time>
      </trkpt>
      <trkpt lat="59.9921282" lon="17.5916602">
        <ele>39.0707</ele>
        <time>2013-05-09T11:56:44Z</time>
      </trkpt>
      <trkpt lat="59.9920643" lon="17.5916277">
        <ele>39.0707</ele>
        <time>2013-05-09T11:56:45Z</time>
      </trkpt>
      <trkpt lat="59.9919994" lon="17.5915936">
        <ele>39.0707</ele>
        <time>2013-05-09T11:56:46Z</time>
      </trkpt>
      <trkpt lat="59.9919355" lon="17.5915589">
        <ele>39.0707</ele>
        <time>2013-05-09T11:56:47Z</time>
      </trkpt>
      <trkpt lat="59.9918692" lon="17.5915214">
        <ele>38.5901</ele>
        <time>2013-05-09T11:56:48Z</time>
      </trkpt>
      <trkpt lat="59.9918018" lon="17.5914841">
        <ele>38.1094</ele>
        <time>2013-05-09T11:56:49Z</time>
      </trkpt>
      <trkpt lat="59.9917333" lon="17.5914396">
        <ele>38.1094</ele>
        <time>2013-05-09T11:56:50Z</time>
      </trkpt>
      <trkpt lat="59.9916665" lon="17.5913956">
        <ele>37.6287</ele>
        <time>2013-05-09T11:56:51Z</time>
      </trkpt>
      <trkpt lat="59.9915993" lon="17.5913516">
        <ele>38.1094</ele>
        <time>2013-05-09T11:56:52Z</time>
      </trkpt>
      <trkpt lat="59.9915304" lon="17.5913118">
        <ele>38.1094</ele>
        <time>2013-05-09T11:56:53Z</time>
      </trkpt>
      <trkpt lat="59.9914611" lon="17.5912769">
        <ele>38.1094</ele>
        <time>2013-05-09T11:56:54Z</time>
      </trkpt>
      <trkpt lat="59.9913914" lon="17.5912501">
        <ele>38.1094</ele>
        <time>2013-05-09T11:56:55Z</time>
      </trkpt>
      <trkpt lat="59.9913221" lon="17.5912323">
        <ele>37.6287</ele>
        <time>2013-05-09T11:56:56Z</time>
      </trkpt>
      <trkpt lat="59.9912532" lon="17.5912243">
        <ele>37.1481</ele>
        <time>2013-05-09T11:56:57Z</time>
      </trkpt>
      <trkpt lat="59.991175" lon="17.5912216">
        <ele>37.1481</ele>
        <time>2013-05-09T11:56:58Z</time>
      </trkpt>
      <trkpt lat="59.9910961" lon="17.5912141">
        <ele>37.1481</ele>
        <time>2013-05-09T11:56:59Z</time>
      </trkpt>
      <trkpt lat="59.9910161" lon="17.5912154">
        <ele>37.6287</ele>
        <time>2013-05-09T11:57:00Z</time>
      </trkpt>
      <trkpt lat="59.990941" lon="17.5912287">
        <ele>37.1481</ele>
        <time>2013-05-09T11:57:01Z</time>
      </trkpt>
      <trkpt lat="59.9908659" lon="17.5912469">
        <ele>37.6287</ele>
        <time>2013-05-09T11:57:02Z</time>
      </trkpt>
      <trkpt lat="59.9907924" lon="17.5912743">
        <ele>37.6287</ele>
        <time>2013-05-09T11:57:03Z</time>
      </trkpt>
      <trkpt lat="59.9907207" lon="17.5913094">
        <ele>37.6287</ele>
        <time>2013-05-09T11:57:04Z</time>
      </trkpt>
      <trkpt lat="59.9906503" lon="17.5913471">
        <ele>38.1094</ele>
        <time>2013-05-09T11:57:05Z</time>
      </trkpt>
      <trkpt lat="59.9905804" lon="17.5913926">
        <ele>38.1094</ele>
        <time>2013-05-09T11:57:06Z</time>
      </trkpt>
      <trkpt lat="59.99051" lon="17.5914415">
        <ele>38.1094</ele>
        <time>2013-05-09T11:57:07Z</time>
      </trkpt>
      <trkpt lat="59.9904427" lon="17.5914965">
        <ele>38.1094</ele>
        <time>2013-05-09T11:57:08Z</time>
      </trkpt>
      <trkpt lat="59.9903763" lon="17.591552">
        <ele>37.6287</ele>
        <time>2013-05-09T11:57:09Z</time>
      </trkpt>
      <trkpt lat="59.9903104" lon="17.5916123">
        <ele>37.6287</ele>
        <time>2013-05-09T11:57:10Z</time>
      </trkpt>
      <trkpt lat="59.9902446" lon="17.5916741">
        <ele>37.1481</ele>
        <time>2013-05-09T11:57:11Z</time>
      </trkpt>
      <trkpt lat="59.9901775" lon="17.5917361">
        <ele>37.1481</ele>
        <time>2013-05-09T11:57:12Z</time>
      </trkpt>
      <trkpt lat="59.99011" lon="17.591799">
        <ele>36.6675</ele>
        <time>2013-05-09T11:57:13Z</time>
      </trkpt>
      <trkpt lat="59.9900432" lon="17.5918632">
        <ele>36.6675</ele>
        <time>2013-05-09T11:57:14Z</time>
      </trkpt>
      <trkpt lat="59.9899769" lon="17.5919275">
        <ele>36.6675</ele>
        <time>2013-05-09T11:57:15Z</time>
      </trkpt>
      <trkpt lat="59.9899095" lon="17.5919919">
        <ele>36.6675</ele>
        <time>2013-05-09T11:57:16Z</time>
      </trkpt>
      <trkpt lat="59.989841" lon="17.5920504">
        <ele>36.1868</ele>
        <time>2013-05-09T11:57:17Z</time>
      </trkpt>
      <trkpt lat="59.9897718" lon="17.5921065">
        <ele>36.1868</ele>
        <time>2013-05-09T11:57:18Z</time>
      </trkpt>
      <trkpt lat="59.9897018" lon="17.5921576">
        <ele>36.1868</ele>
        <time>2013-05-09T11:57:19Z</time>
      </trkpt>
      <trkpt lat="59.9896295" lon="17.5921994">
        <ele>35.7061</ele>
        <time>2013-05-09T11:57:20Z</time>
      </trkpt>
      <trkpt lat="59.9895558" lon="17.5922317">
        <ele>35.7061</ele>
        <time>2013-05-09T11:57:21Z</time>
      </trkpt>
      <trkpt lat="59.9894812" lon="17.5922567">
        <ele>35.2255</ele>
        <time>2013-05-09T11:57:22Z</time>
      </trkpt>
      <trkpt lat="59.9894051" lon="17.5922787">
        <ele>35.7061</ele>
        <time>2013-05-09T11:57:23Z</time>
      </trkpt>
      <trkpt lat="59.989328" lon="17.5922973">
        <ele>35.7061</ele>
        <time>2013-05-09T11:57:24Z</time>
      </trkpt>
      <trkpt lat="59.9892522" lon="17.5923111">
        <ele>35.7061</ele>
        <time>2013-05-09T11:57:25Z</time>
      </trkpt>
      <trkpt lat="59.9891775" lon="17.5923221">
        <ele>35.7061</ele>
        <time>2013-05-09T11:57:26Z</time>
      </trkpt>
      <trkpt lat="59.9891042" lon="17.5923317">
        <ele>35.7061</ele>
        <time>2013-05-09T11:57:27Z</time>
      </trkpt>
      <trkpt lat="59.9890331" lon="17.5923418">
        <ele>36.1868</ele>
        <time>2013-05-09T11:57:28Z</time>
      </trkpt>
      <trkpt lat="59.9889642" lon="17.5923514">
        <ele>36.1868</ele>
        <time>2013-05-09T11:57:29Z</time>
      </trkpt>
      <trkpt lat="59.9888968" lon="17.5923624">
        <ele>36.1868</ele>
        <time>2013-05-09T11:57:30Z</time>
      </trkpt>
      <trkpt lat="59.9888301" lon="17.5923755">
        <ele>36.1868</ele>
        <time>2013-05-09T11:57:31Z</time>
      </trkpt>
      <trkpt lat="59.9887638" lon="17.5923917">
        <ele>36.1868</ele>
        <time>2013-05-09T11:57:32Z</time>
      </trkpt>
      <trkpt lat="59.9886975" lon="17.5924105">
        <ele>36.1868</ele>
        <time>2013-05-09T11:57:33Z</time>
      </trkpt>
      <trkpt lat="59.9886309" lon="17.592432">
        <ele>36.6675</ele>
        <time>2013-05-09T11:57:34Z</time>
      </trkpt>
      <trkpt lat="59.9885644" lon="17.5924576">
        <ele>36.6675</ele>
        <time>2013-05-09T11:57:35Z</time>
      </trkpt>
      <trkpt lat="59.9884991" lon="17.5924839">
        <ele>36.6675</ele>
        <time>2013-05-09T11:57:36Z</time>
      </trkpt>
      <trkpt lat="59.9884343" lon="17.5925115">
        <ele>37.1481</ele>
        <time>2013-05-09T11:57:37Z</time>
      </trkpt>
      <trkpt lat="59.9883695" lon="17.5925402">
        <ele>36.6675</ele>
        <time>2013-05-09T11:57:38Z</time>
      </trkpt>
      <trkpt lat="59.9883048" lon="17.59257">
        <ele>36.6675</ele>
        <time>2013-05-09T11:57:39Z</time>
      </trkpt>
      <trkpt lat="59.9882405" lon="17.5926">
        <ele>36.6675</ele>
        <time>2013-05-09T11:57:40Z</time>
      </trkpt>
      <trkpt lat="59.9881758" lon="17.592633">
        <ele>36.6675</ele>
        <time>2013-05-09T11:57:41Z</time>
      </trkpt>
      <trkpt lat="59.98811" lon="17.5926659">
        <ele>36.6675</ele>
        <time>2013-05-09T11:57:42Z</time>
      </trkpt>
      <trkpt lat="59.9880438" lon="17.592698">
        <ele>36.6675</ele>
        <time>2013-05-09T11:57:43Z</time>
      </trkpt>
      <trkpt lat="59.987977" lon="17.5927337">
        <ele>36.6675</ele>
        <time>2013-05-09T11:57:44Z</time>
      </trkpt>
      <trkpt lat="59.9879104" lon="17.5927693">
        <ele>36.6675</ele>
        <time>2013-05-09T11:57:45Z</time>
      </trkpt>
      <trkpt lat="59.9878437" lon="17.5928049">
        <ele>36.6675</ele>
        <time>2013-05-09T11:57:46Z</time>
      </trkpt>
      <trkpt lat="59.9877763" lon="17.5928435">
        <ele>36.6675</ele>
        <time>2013-05-09T11:57:47Z</time>
      </trkpt>
      <trkpt lat="59.9877081" lon="17.5928847">
        <ele>36.1868</ele>
        <time>2013-05-09T11:57:48Z</time>
      </trkpt>
      <trkpt lat="59.9876388" lon="17.5929258">
        <ele>36.1868</ele>
        <time>2013-05-09T11:57:49Z</time>
      </trkpt>
      <trkpt lat="59.9875681" lon="17.5929651">
        <ele>35.7061</ele>
        <time>2013-05-09T11:57:50Z</time>
      </trkpt>
      <trkpt lat="59.9874967" lon="17.5929987">
        <ele>35.7061</ele>
        <time>2013-05-09T11:57:51Z</time>
      </trkpt>
      <trkpt lat="59.9874247" lon="17.5930279">
        <ele>35.7061</ele>
        <time>2013-05-09T11:57:52Z</time>
      </trkpt>
      <trkpt lat="59.9873522" lon="17.5930534">
        <ele>35.7061</ele>
        <time>2013-05-09T11:57:53Z</time>
      </trkpt>
      <trkpt lat="59.9872791" lon="17.593075">
        <ele>35.2255</ele>
        <time>2013-05-09T11:57:54Z</time>
      </trkpt>
      <trkpt lat="59.9872056" lon="17.5930932">
        <ele>35.2255</ele>
        <time>2013-05-09T11:57:55Z</time>
      </trkpt>
      <trkpt lat="59.987132" lon="17.5931104">
        <ele>35.2255</ele>
        <time>2013-05-09T11:57:56Z</time>
      </trkpt>
      <trkpt lat="59.9870584" lon="17.5931268">
        <ele>35.2255</ele>
        <time>2013-05-09T11:57:57Z</time>
      </trkpt>
      <trkpt lat="59.9869834" lon="17.5931439">
        <ele>35.2255</ele>
        <time>2013-05-09T11:57:58Z</time>
      </trkpt>
      <trkpt lat="59.9869082" lon="17.5931605">
        <ele>35.2255</ele>
        <time>2013-05-09T11:57:59Z</time>
      </trkpt>
      <trkpt lat="59.9868335" lon="17.593178">
        <ele>35.2255</ele>
        <time>2013-05-09T11:58:00Z</time>
      </trkpt>
      <trkpt lat="59.9867585" lon="17.5931958">
        <ele>35.2255</ele>
        <time>2013-05-09T11:58:01Z</time>
      </trkpt>
      <trkpt lat="59.9866838" lon="17.5932136">
        <ele>35.2255</ele>
        <time>2013-05-09T11:58:02Z</time>
      </trkpt>
      <trkpt lat="59.9866092" lon="17.5932318">
        <ele>35.7061</ele>
        <time>2013-05-09T11:58:03Z</time>
      </trkpt>
      <trkpt lat="59.9865349" lon="17.5932512">
        <ele>35.7061</ele>
        <time>2013-05-09T11:58:04Z</time>
      </trkpt>
      <trkpt lat="59.9864617" lon="17.5932701">
        <ele>35.7061</ele>
        <time>2013-05-09T11:58:05Z</time>
      </trkpt>
      <trkpt lat="59.9863882" lon="17.5932883">
        <ele>35.7061</ele>
        <time>2013-05-09T11:58:06Z</time>
      </trkpt>
      <trkpt lat="59.9863146" lon="17.5933065">
        <ele>35.7061</ele>
        <time>2013-05-09T11:58:07Z</time>
      </trkpt>
      <trkpt lat="59.9862415" lon="17.5933256">
        <ele>35.7061</ele>
        <time>2013-05-09T11:58:08Z</time>
      </trkpt>
      <trkpt lat="59.9861681" lon="17.5933439">
        <ele>35.7061</ele>
        <time>2013-05-09T11:58:09Z</time>
      </trkpt>
      <trkpt lat="59.9860945" lon="17.5933629">
        <ele>35.7061</ele>
        <time>2013-05-09T11:58:10Z</time>
      </trkpt>
      <trkpt lat="59.9860204" lon="17.5933822">
        <ele>35.7061</ele>
        <time>2013-05-09T11:58:11Z</time>
      </trkpt>
      <trkpt lat="59.9859456" lon="17.5934009">
        <ele>35.7061</ele>
        <time>2013-05-09T11:58:12Z</time>
      </trkpt>
      <trkpt lat="59.9858691" lon="17.5934231">
        <ele>35.7061</ele>
        <time>2013-05-09T11:58:13Z</time>
      </trkpt>
      <trkpt lat="59.9857926" lon="17.5934491">
        <ele>35.7061</ele>
        <time>2013-05-09T11:58:14Z</time>
      </trkpt>
      <trkpt lat="59.9857169" lon="17.5934748">
        <ele>35.7061</ele>
        <time>2013-05-09T11:58:15Z</time>
      </trkpt>
      <trkpt lat="59.9856411" lon="17.5934987">
        <ele>35.7061</ele>
        <time>2013-05-09T11:58:16Z</time>
      </trkpt>
      <trkpt lat="59.9855654" lon="17.5935227">
        <ele>35.2255</ele>
        <time>2013-05-09T11:58:17Z</time>
      </trkpt>
      <trkpt lat="59.9854905" lon="17.5935463">
        <ele>35.2255</ele>
        <time>2013-05-09T11:58:18Z</time>
      </trkpt>
      <trkpt lat="59.9854165" lon="17.5935671">
        <ele>35.2255</ele>
        <time>2013-05-09T11:58:19Z</time>
      </trkpt>
      <trkpt lat="59.9853429" lon="17.5935863">
        <ele>35.2255</ele>
        <time>2013-05-09T11:58:20Z</time>
      </trkpt>
      <trkpt lat="59.9852693" lon="17.593605">
        <ele>35.2255</ele>
        <time>2013-05-09T11:58:21Z</time>
      </trkpt>
      <trkpt lat="59.9851958" lon="17.5936227">
        <ele>34.7449</ele>
        <time>2013-05-09T11:58:22Z</time>
      </trkpt>
      <trkpt lat="59.9851219" lon="17.5936391">
        <ele>34.7449</ele>
        <time>2013-05-09T11:58:23Z</time>
      </trkpt>
      <trkpt lat="59.9850466" lon="17.5936547">
        <ele>34.7449</ele>
        <time>2013-05-09T11:58:24Z</time>
      </trkpt>
      <trkpt lat="59.9849704" lon="17.59367">
        <ele>34.2642</ele>
        <time>2013-05-09T11:58:25Z</time>
      </trkpt>
      <trkpt lat="59.9848931" lon="17.5936857">
        <ele>34.2642</ele>
        <time>2013-05-09T11:58:26Z</time>
      </trkpt>
      <trkpt lat="59.9848153" lon="17.5937026">
        <ele>34.2642</ele>
        <time>2013-05-09T11:58:27Z</time>
      </trkpt>
      <trkpt lat="59.9847369" lon="17.5937206">
        <ele>34.2642</ele>
        <time>2013-05-09T11:58:28Z</time>
      </trkpt>
      <trkpt lat="59.9846581" lon="17.5937412">
        <ele>34.2642</ele>
        <time>2013-05-09T11:58:29Z</time>
      </trkpt>
      <trkpt lat="59.9845782" lon="17.5937693">
        <ele>34.2642</ele>
        <time>2013-05-09T11:58:30Z</time>
      </trkpt>
      <trkpt lat="59.9844994" lon="17.5938049">
        <ele>34.2642</ele>
        <time>2013-05-09T11:58:31Z</time>
      </trkpt>
      <trkpt lat="59.9844214" lon="17.5938495">
        <ele>34.2642</ele>
        <time>2013-05-09T11:58:32Z</time>
      </trkpt>
      <trkpt lat="59.9843447" lon="17.5939013">
        <ele>34.2642</ele>
        <time>2013-05-09T11:58:33Z</time>
      </trkpt>
      <trkpt lat="59.984269" lon="17.5939565">
        <ele>34.2642</ele>
        <time>2013-05-09T11:58:34Z</time>
      </trkpt>
      <trkpt lat="59.9841934" lon="17.5940133">
        <ele>34.2642</ele>
        <time>2013-05-09T11:58:35Z</time>
      </trkpt>
      <trkpt lat="59.9841181" lon="17.5940701">
        <ele>34.2642</ele>
        <time>2013-05-09T11:58:36Z</time>
      </trkpt>
      <trkpt lat="59.9840427" lon="17.5941266">
        <ele>34.2642</ele>
        <time>2013-05-09T11:58:37Z</time>
      </trkpt>
      <trkpt lat="59.9839681" lon="17.5941821">
        <ele>34.2642</ele>
        <time>2013-05-09T11:58:38Z</time>
      </trkpt>
      <trkpt lat="59.9838941" lon="17.5942374">
        <ele>34.2642</ele>
        <time>2013-05-09T11:58:39Z</time>
      </trkpt>
      <trkpt lat="59.9838205" lon="17.5942882">
        <ele>34.2642</ele>
        <time>2013-05-09T11:58:40Z</time>
      </trkpt>
      <trkpt lat="59.9837468" lon="17.5943317">
        <ele>34.2642</ele>
        <time>2013-05-09T11:58:41Z</time>
      </trkpt>
      <trkpt lat="59.9836727" lon="17.5943701">
        <ele>34.2642</ele>
        <time>2013-05-09T11:58:42Z</time>
      </trkpt>
      <trkpt lat="59.9835982" lon="17.5944045">
        <ele>33.7834</ele>
        <time>2013-05-09T11:58:43Z</time>
      </trkpt>
      <trkpt lat="59.9835236" lon="17.5944353">
        <ele>33.7834</ele>
        <time>2013-05-09T11:58:44Z</time>
      </trkpt>
      <trkpt lat="59.9834488" lon="17.5944636">
        <ele>33.7834</ele>
        <time>2013-05-09T11:58:45Z</time>
      </trkpt>
      <trkpt lat="59.9833733" lon="17.5944895">
        <ele>33.7834</ele>
        <time>2013-05-09T11:58:46Z</time>
      </trkpt>
      <trkpt lat="59.9832978" lon="17.5945146">
        <ele>33.7834</ele>
        <time>2013-05-09T11:58:47Z</time>
      </trkpt>
      <trkpt lat="59.9832226" lon="17.5945395">
        <ele>33.7834</ele>
        <time>2013-05-09T11:58:48Z</time>
      </trkpt>
      <trkpt lat="59.9831475" lon="17.5945625">
        <ele>33.7834</ele>
        <time>2013-05-09T11:58:49Z</time>
      </trkpt>
      <trkpt lat="59.9830729" lon="17.5945849">
        <ele>33.7834</ele>
        <time>2013-05-09T11:58:50Z</time>
      </trkpt>
      <trkpt lat="59.9829995" lon="17.5946087">
        <ele>33.7834</ele>
        <time>2013-05-09T11:58:51Z</time>
      </trkpt>
      <trkpt lat="59.9829279" lon="17.5946322">
        <ele>33.7834</ele>
        <time>2013-05-09T11:58:52Z</time>
      </trkpt>
      <trkpt lat="59.9828583" lon="17.5946543">
        <ele>33.3029</ele>
        <time>2013-05-09T11:58:53Z</time>
      </trkpt>
      <trkpt lat="59.9827899" lon="17.5946789">
        <ele>33.3029</ele>
        <time>2013-05-09T11:58:54Z</time>
      </trkpt>
      <trkpt lat="59.9827213" lon="17.5947032">
        <ele>33.3029</ele>
        <time>2013-05-09T11:58:55Z</time>
      </trkpt>
      <trkpt lat="59.9826524" lon="17.5947229">
        <ele>33.3029</ele>
        <time>2013-05-09T11:58:56Z</time>
      </trkpt>
      <trkpt lat="59.9825832" lon="17.5947408">
        <ele>33.3029</ele>
        <time>2013-05-09T11:58:57Z</time>
      </trkpt>
      <trkpt lat="59.9825139" lon="17.594761">
        <ele>32.8223</ele>
        <time>2013-05-09T11:58:58Z</time>
      </trkpt>
      <trkpt lat="59.9824444" lon="17.5947844">
        <ele>32.8223</ele>
        <time>2013-05-09T11:58:59Z</time>
      </trkpt>
      <trkpt lat="59.9823746" lon="17.5948086">
        <ele>32.8223</ele>
        <time>2013-05-09T11:59:00Z</time>
      </trkpt>
      <trkpt lat="59.9823047" lon="17.5948329">
        <ele>32.8223</ele>
        <time>2013-05-09T11:59:01Z</time>
      </trkpt>
      <trkpt lat="59.9822351" lon="17.5948576">
        <ele>32.8223</ele>
        <time>2013-05-09T11:59:02Z</time>
      </trkpt>
      <trkpt lat="59.9821659" lon="17.5948828">
        <ele>32.8223</ele>
        <time>2013-05-09T11:59:03Z</time>
      </trkpt>
      <trkpt lat="59.9820963" lon="17.5949103">
        <ele>32.8223</ele>
        <time>2013-05-09T11:59:04Z</time>
      </trkpt>
      <trkpt lat="59.982026" lon="17.5949378">
        <ele>32.3416</ele>
        <time>2013-05-09T11:59:05Z</time>
      </trkpt>
      <trkpt lat="59.9819556" lon="17.5949653">
        <ele>32.3416</ele>
        <time>2013-05-09T11:59:06Z</time>
      </trkpt>
      <trkpt lat="59.9818846" lon="17.5949953">
        <ele>32.3416</ele>
        <time>2013-05-09T11:59:07Z</time>
      </trkpt>
      <trkpt lat="59.9818131" lon="17.5950274">
        <ele>31.8607</ele>
        <time>2013-05-09T11:59:08Z</time>
      </trkpt>
      <trkpt lat="59.9817414" lon="17.595062">
        <ele>31.8607</ele>
        <time>2013-05-09T11:59:09Z</time>
      </trkpt>
      <trkpt lat="59.9816696" lon="17.5950983">
        <ele>31.8607</ele>
        <time>2013-05-09T11:59:10Z</time>
      </trkpt>
      <trkpt lat="59.9815976" lon="17.5951347">
        <ele>31.8607</ele>
        <time>2013-05-09T11:59:11Z</time>
      </trkpt>
      <trkpt lat="59.9815259" lon="17.5951705">
        <ele>31.8607</ele>
        <time>2013-05-09T11:59:12Z</time>
      </trkpt>
      <trkpt lat="59.9814537" lon="17.5952046">
        <ele>31.3801</ele>
        <time>2013-05-09T11:59:13Z</time>
      </trkpt>
      <trkpt lat="59.9813814" lon="17.5952372">
        <ele>31.3801</ele>
        <time>2013-05-09T11:59:14Z</time>
      </trkpt>
      <trkpt lat="59.9813094" lon="17.5952688">
        <ele>31.8607</ele>
        <time>2013-05-09T11:59:15Z</time>
      </trkpt>
      <trkpt lat="59.9812381" lon="17.5952987">
        <ele>31.8607</ele>
        <time>2013-05-09T11:59:16Z</time>
      </trkpt>
      <trkpt lat="59.9811671" lon="17.5953247">
        <ele>31.8607</ele>
        <time>2013-05-09T11:59:17Z</time>
      </trkpt>
      <trkpt lat="59.981096" lon="17.5953455">
        <ele>31.8607</ele>
        <time>2013-05-09T11:59:18Z</time>
      </trkpt>
      <trkpt lat="59.9810246" lon="17.595362">
        <ele>31.8607</ele>
        <time>2013-05-09T11:59:19Z</time>
      </trkpt>
      <trkpt lat="59.9809532" lon="17.595378">
        <ele>31.8607</ele>
        <time>2013-05-09T11:59:20Z</time>
      </trkpt>
      <trkpt lat="59.9808817" lon="17.595393">
        <ele>31.8607</ele>
        <time>2013-05-09T11:59:21Z</time>
      </trkpt>
      <trkpt lat="59.9808098" lon="17.595405">
        <ele>31.8607</ele>
        <time>2013-05-09T11:59:22Z</time>
      </trkpt>
      <trkpt lat="59.9807365" lon="17.5954143">
        <ele>31.8607</ele>
        <time>2013-05-09T11:59:23Z</time>
      </trkpt>
      <trkpt lat="59.9806624" lon="17.5954202">
        <ele>31.8607</ele>
        <time>2013-05-09T11:59:24Z</time>
      </trkpt>
      <trkpt lat="59.980589" lon="17.595424">
        <ele>31.8607</ele>
        <time>2013-05-09T11:59:25Z</time>
      </trkpt>
      <trkpt lat="59.9805161" lon="17.5954273">
        <ele>31.8607</ele>
        <time>2013-05-09T11:59:26Z</time>
      </trkpt>
      <trkpt lat="59.980443" lon="17.5954304">
        <ele>31.8607</ele>
        <time>2013-05-09T11:59:27Z</time>
      </trkpt>
      <trkpt lat="59.9803698" lon="17.5954323">
        <ele>31.8607</ele>
        <time>2013-05-09T11:59:28Z</time>
      </trkpt>
      <trkpt lat="59.9802964" lon="17.5954318">
        <ele>31.8607</ele>
        <time>2013-05-09T11:59:29Z</time>
      </trkpt>
      <trkpt lat="59.9802233" lon="17.5954304">
        <ele>31.8607</ele>
        <time>2013-05-09T11:59:30Z</time>
      </trkpt>
      <trkpt lat="59.9801508" lon="17.5954289">
        <ele>31.8607</ele>
        <time>2013-05-09T11:59:31Z</time>
      </trkpt>
      <trkpt lat="59.9800788" lon="17.5954281">
        <ele>31.8607</ele>
        <time>2013-05-09T11:59:32Z</time>
      </trkpt>
      <trkpt lat="59.9800078" lon="17.5954278">
        <ele>31.8607</ele>
        <time>2013-05-09T11:59:33Z</time>
      </trkpt>
      <trkpt lat="59.9799372" lon="17.5954276">
        <ele>31.8607</ele>
        <time>2013-05-09T11:59:34Z</time>
      </trkpt>
      <trkpt lat="59.9798664" lon="17.5954269">
        <ele>32.3416</ele>
        <time>2013-05-09T11:59:35Z</time>
      </trkpt>
      <trkpt lat="59.979796" lon="17.5954274">
        <ele>32.3416</ele>
        <time>2013-05-09T11:59:36Z</time>
      </trkpt>
      <trkpt lat="59.9797261" lon="17.5954299">
        <ele>32.3416</ele>
        <time>2013-05-09T11:59:37Z</time>
      </trkpt>
      <trkpt lat="59.9796577" lon="17.5954392">
        <ele>32.8223</ele>
        <time>2013-05-09T11:59:38Z</time>
      </trkpt>
      <trkpt lat="59.9795919" lon="17.595452">
        <ele>32.8223</ele>
        <time>2013-05-09T11:59:39Z</time>
      </trkpt>
      <trkpt lat="59.9795292" lon="17.5954616">
        <ele>32.8223</ele>
        <time>2013-05-09T11:59:40Z</time>
      </trkpt>
      <trkpt lat="59.9794689" lon="17.5954713">
        <ele>32.8223</ele>
        <time>2013-05-09T11:59:41Z</time>
      </trkpt>
      <trkpt lat="59.979409" lon="17.5954826">
        <ele>33.3029</ele>
        <time>2013-05-09T11:59:42Z</time>
      </trkpt>
      <trkpt lat="59.9793499" lon="17.5954936">
        <ele>33.3029</ele>
        <time>2013-05-09T11:59:43Z</time>
      </trkpt>
      <trkpt lat="59.9792921" lon="17.5955048">
        <ele>33.3029</ele>
        <time>2013-05-09T11:59:44Z</time>
      </trkpt>
      <trkpt lat="59.9792396" lon="17.5955257">
        <ele>33.7834</ele>
        <time>2013-05-09T11:59:45Z</time>
      </trkpt>
      <trkpt lat="59.9791914" lon="17.5955771">
        <ele>33.7834</ele>
        <time>2013-05-09T11:59:46Z</time>
      </trkpt>
      <trkpt lat="59.9791568" lon="17.5956552">
        <ele>33.7834</ele>
        <time>2013-05-09T11:59:47Z</time>
      </trkpt>
      <trkpt lat="59.9791324" lon="17.5957438">
        <ele>34.2642</ele>
        <time>2013-05-09T11:59:48Z</time>
      </trkpt>
      <trkpt lat="59.9791132" lon="17.5958573">
        <ele>34.7449</ele>
        <time>2013-05-09T11:59:49Z</time>
      </trkpt>
      <trkpt lat="59.9791009" lon="17.5959712">
        <ele>35.7061</ele>
        <time>2013-05-09T11:59:50Z</time>
      </trkpt>
      <trkpt lat="59.9791037" lon="17.5960862">
        <ele>36.6675</ele>
        <time>2013-05-09T11:59:51Z</time>
      </trkpt>
      <trkpt lat="59.9791101" lon="17.5962013">
        <ele>38.1094</ele>
        <time>2013-05-09T11:59:52Z</time>
      </trkpt>
      <trkpt lat="59.9791161" lon="17.5963161">
        <ele>38.5901</ele>
        <time>2013-05-09T11:59:53Z</time>
      </trkpt>
      <trkpt lat="59.979121" lon="17.5964316">
        <ele>40.0321</ele>
        <time>2013-05-09T11:59:54Z</time>
      </trkpt>
      <trkpt lat="59.9791201" lon="17.5965457">
        <ele>40.5128</ele>
        <time>2013-05-09T11:59:55Z</time>
      </trkpt>
      <trkpt lat="59.9791163" lon="17.59666">
        <ele>40.5128</ele>
        <time>2013-05-09T11:59:56Z</time>
      </trkpt>
      <trkpt lat="59.9791194" lon="17.5967783">
        <ele>41.474</ele>
        <time>2013-05-09T11:59:57Z</time>
      </trkpt>
      <trkpt lat="59.9791204" lon="17.5968964">
        <ele>42.4354</ele>
        <time>2013-05-09T11:59:58Z</time>
      </trkpt>
      <trkpt lat="59.9791224" lon="17.5970171">
        <ele>42.916</ele>
        <time>2013-05-09T11:59:59Z</time>
      </trkpt>
      <trkpt lat="59.979124" lon="17.5971399">
        <ele>43.8773</ele>
        <time>2013-05-09T12:00:00Z</time>
      </trkpt>
      <trkpt lat="59.9791251" lon="17.5972622">
        <ele>44.358</ele>
        <time>2013-05-09T12:00:01Z</time>
      </trkpt>
      <trkpt lat="59.9791293" lon="17.5973849">
        <ele>45.3192</ele>
        <time>2013-05-09T12:00:02Z</time>
      </trkpt>
      <trkpt lat="59.9791333" lon="17.5975062">
        <ele>46.2806</ele>
        <time>2013-05-09T12:00:03Z</time>
      </trkpt>
      <trkpt lat="59.9791363" lon="17.5976287">
        <ele>46.7612</ele>
        <time>2013-05-09T12:00:04Z</time>
      </trkpt>
      <trkpt lat="59.9791403" lon="17.5977537">
        <ele>47.2418</ele>
        <time>2013-05-09T12:00:05Z</time>
      </trkpt>
      <trkpt lat="59.9791451" lon="17.597877">
        <ele>47.7225</ele>
        <time>2013-05-09T12:00:06Z</time>
      </trkpt>
      <trkpt lat="59.9791515" lon="17.5980003">
        <ele>48.684</ele>
        <time>2013-05-09T12:00:07Z</time>
      </trkpt>
      <trkpt lat="59.9791562" lon="17.5981241">
        <ele>48.684</ele>
        <time>2013-05-09T12:00:08Z</time>
      </trkpt>
      <trkpt lat="59.9791597" lon="17.5982519">
        <ele>49.1646</ele>
        <time>2013-05-09T12:00:09Z</time>
      </trkpt>
      <trkpt lat="59.9791609" lon="17.5983785">
        <ele>49.1646</ele>
        <time>2013-05-09T12:00:10Z</time>
      </trkpt>
      <trkpt lat="59.979164" lon="17.5985069">
        <ele>49.1646</ele>
        <time>2013-05-09T12:00:11Z</time>
      </trkpt>
      <trkpt lat="59.9791676" lon="17.5986359">
        <ele>49.1646</ele>
        <time>2013-05-09T12:00:12Z</time>
      </trkpt>
      <trkpt lat="59.9791691" lon="17.5987611">
        <ele>49.1646</ele>
        <time>2013-05-09T12:00:13Z</time>
      </trkpt>
      <trkpt lat="59.9791707" lon="17.5988835">
        <ele>49.1646</ele>
        <time>2013-05-09T12:00:14Z</time>
      </trkpt>
      <trkpt lat="59.9791687" lon="17.5990095">
        <ele>49.1646</ele>
        <time>2013-05-09T12:00:15Z</time>
      </trkpt>
      <trkpt lat="59.9791656" lon="17.5991343">
        <ele>48.2034</ele>
        <time>2013-05-09T12:00:16Z</time>
      </trkpt>
      <trkpt lat="59.9791644" lon="17.599262">
        <ele>48.2034</ele>
        <time>2013-05-09T12:00:17Z</time>
      </trkpt>
      <trkpt lat="59.979154" lon="17.5995118">
        <ele>47.2418</ele>
        <time>2013-05-09T12:00:19Z</time>
      </trkpt>
      <trkpt lat="59.9791438" lon="17.5996492">
        <ele>46.2806</ele>
        <time>2013-05-09T12:00:20Z</time>
      </trkpt>
      <trkpt lat="59.9791298" lon="17.5997874">
        <ele>46.2806</ele>
        <time>2013-05-09T12:00:21Z</time>
      </trkpt>
      <trkpt lat="59.9791132" lon="17.5999262">
        <ele>46.2806</ele>
        <time>2013-05-09T12:00:22Z</time>
      </trkpt>
      <trkpt lat="59.9790961" lon="17.6000686">
        <ele>46.2806</ele>
        <time>2013-05-09T12:00:23Z</time>
      </trkpt>
      <trkpt lat="59.9790759" lon="17.6002125">
        <ele>46.7612</ele>
        <time>2013-05-09T12:00:24Z</time>
      </trkpt>
      <trkpt lat="59.9790474" lon="17.6003487">
        <ele>46.7612</ele>
        <time>2013-05-09T12:00:25Z</time>
      </trkpt>
      <trkpt lat="59.9790168" lon="17.6004855">
        <ele>45.7999</ele>
        <time>2013-05-09T12:00:26Z</time>
      </trkpt>
      <trkpt lat="59.9789853" lon="17.6006193">
        <ele>45.3192</ele>
        <time>2013-05-09T12:00:27Z</time>
      </trkpt>
      <trkpt lat="59.978952" lon="17.6007503">
        <ele>44.8386</ele>
        <time>2013-05-09T12:00:28Z</time>
      </trkpt>
      <trkpt lat="59.9789158" lon="17.6008798">
        <ele>44.358</ele>
        <time>2013-05-09T12:00:29Z</time>
      </trkpt>
      <trkpt lat="59.9788765" lon="17.6010083">
        <ele>43.8773</ele>
        <time>2013-05-09T12:00:30Z</time>
      </trkpt>
      <trkpt lat="59.9788343" lon="17.6011441">
        <ele>43.8773</ele>
        <time>2013-05-09T12:00:31Z</time>
      </trkpt>
      <trkpt lat="59.9787899" lon="17.601275">
        <ele>43.8773</ele>
        <time>2013-05-09T12:00:32Z</time>
      </trkpt>
      <trkpt lat="59.9787438" lon="17.6014029">
        <ele>43.3966</ele>
        <time>2013-05-09T12:00:33Z</time>
      </trkpt>
      <trkpt lat="59.9786965" lon="17.6015287">
        <ele>43.3966</ele>
        <time>2013-05-09T12:00:34Z</time>
      </trkpt>
      <trkpt lat="59.9786481" lon="17.6016532">
        <ele>42.916</ele>
        <time>2013-05-09T12:00:35Z</time>
      </trkpt>
      <trkpt lat="59.9785989" lon="17.6017771">
        <ele>42.916</ele>
        <time>2013-05-09T12:00:36Z</time>
      </trkpt>
      <trkpt lat="59.9785494" lon="17.6018997">
        <ele>42.4354</ele>
        <time>2013-05-09T12:00:37Z</time>
      </trkpt>
      <trkpt lat="59.9784997" lon="17.602022">
        <ele>42.4354</ele>
        <time>2013-05-09T12:00:38Z</time>
      </trkpt>
      <trkpt lat="59.9784506" lon="17.6021453">
        <ele>42.4354</ele>
        <time>2013-05-09T12:00:39Z</time>
      </trkpt>
      <trkpt lat="59.9784019" lon="17.6022676">
        <ele>42.4354</ele>
        <time>2013-05-09T12:00:40Z</time>
      </trkpt>
      <trkpt lat="59.9783528" lon="17.6023879">
        <ele>41.9547</ele>
        <time>2013-05-09T12:00:41Z</time>
      </trkpt>
      <trkpt lat="59.9783041" lon="17.6025086">
        <ele>41.9547</ele>
        <time>2013-05-09T12:00:42Z</time>
      </trkpt>
      <trkpt lat="59.9782558" lon="17.6026302">
        <ele>41.9547</ele>
        <time>2013-05-09T12:00:43Z</time>
      </trkpt>
      <trkpt lat="59.978207" lon="17.6027516">
        <ele>41.9547</ele>
        <time>2013-05-09T12:00:44Z</time>
      </trkpt>
      <trkpt lat="59.9781578" lon="17.6028727">
        <ele>41.9547</ele>
        <time>2013-05-09T12:00:45Z</time>
      </trkpt>
      <trkpt lat="59.9781078" lon="17.6029949">
        <ele>41.474</ele>
        <time>2013-05-09T12:00:46Z</time>
      </trkpt>
      <trkpt lat="59.9780582" lon="17.6031172">
        <ele>41.474</ele>
        <time>2013-05-09T12:00:47Z</time>
      </trkpt>
      <trkpt lat="59.9780088" lon="17.6032409">
        <ele>41.474</ele>
        <time>2013-05-09T12:00:48Z</time>
      </trkpt>
      <trkpt lat="59.9779585" lon="17.6033653">
        <ele>40.9934</ele>
        <time>2013-05-09T12:00:49Z</time>
      </trkpt>
      <trkpt lat="59.9779069" lon="17.6034891">
        <ele>40.9934</ele>
        <time>2013-05-09T12:00:50Z</time>
      </trkpt>
      <trkpt lat="59.9778554" lon="17.6036145">
        <ele>40.5128</ele>
        <time>2013-05-09T12:00:51Z</time>
      </trkpt>
      <trkpt lat="59.9778038" lon="17.6037409">
        <ele>40.5128</ele>
        <time>2013-05-09T12:00:52Z</time>
      </trkpt>
      <trkpt lat="59.9777519" lon="17.6038681">
        <ele>40.5128</ele>
        <time>2013-05-09T12:00:53Z</time>
      </trkpt>
      <trkpt lat="59.9777001" lon="17.6039984">
        <ele>40.0321</ele>
        <time>2013-05-09T12:00:54Z</time>
      </trkpt>
      <trkpt lat="59.9776488" lon="17.6041307">
        <ele>40.0321</ele>
        <time>2013-05-09T12:00:55Z</time>
      </trkpt>
      <trkpt lat="59.9775973" lon="17.6042599">
        <ele>40.0321</ele>
        <time>2013-05-09T12:00:56Z</time>
      </trkpt>
      <trkpt lat="59.9775458" lon="17.6043847">
        <ele>39.5513</ele>
        <time>2013-05-09T12:00:57Z</time>
      </trkpt>
      <trkpt lat="59.977495" lon="17.6045091">
        <ele>39.5513</ele>
        <time>2013-05-09T12:00:58Z</time>
      </trkpt>
      <trkpt lat="59.9774442" lon="17.6046334">
        <ele>39.5513</ele>
        <time>2013-05-09T12:00:59Z</time>
      </trkpt>
      <trkpt lat="59.977393" lon="17.6047568">
        <ele>39.0707</ele>
        <time>2013-05-09T12:01:00Z</time>
      </trkpt>
      <trkpt lat="59.9773422" lon="17.6048804">
        <ele>39.0707</ele>
        <time>2013-05-09T12:01:01Z</time>
      </trkpt>
      <trkpt lat="59.9772922" lon="17.6050042">
        <ele>39.0707</ele>
        <time>2013-05-09T12:01:02Z</time>
      </trkpt>
      <trkpt lat="59.9772431" lon="17.605128">
        <ele>39.0707</ele>
        <time>2013-05-09T12:01:03Z</time>
      </trkpt>
      <trkpt lat="59.9771935" lon="17.6052509">
        <ele>39.0707</ele>
        <time>2013-05-09T12:01:04Z</time>
      </trkpt>
      <trkpt lat="59.9771431" lon="17.605373">
        <ele>38.5901</ele>
        <time>2013-05-09T12:01:05Z</time>
      </trkpt>
      <trkpt lat="59.9770926" lon="17.6054953">
        <ele>38.5901</ele>
        <time>2013-05-09T12:01:06Z</time>
      </trkpt>
      <trkpt lat="59.9770429" lon="17.6056181">
        <ele>38.5901</ele>
        <time>2013-05-09T12:01:07Z</time>
      </trkpt>
      <trkpt lat="59.9769936" lon="17.6057408">
        <ele>38.5901</ele>
        <time>2013-05-09T12:01:08Z</time>
      </trkpt>
      <trkpt lat="59.9769442" lon="17.6058616">
        <ele>38.5901</ele>
        <time>2013-05-09T12:01:09Z</time>
      </trkpt>
      <trkpt lat="59.9768947" lon="17.6059818">
        <ele>38.5901</ele>
        <time>2013-05-09T12:01:10Z</time>
      </trkpt>
      <trkpt lat="59.9768463" lon="17.6061015">
        <ele>38.5901</ele>
        <time>2013-05-09T12:01:11Z</time>
      </trkpt>
      <trkpt lat="59.9767975" lon="17.6062206">
        <ele>38.5901</ele>
        <time>2013-05-09T12:01:12Z</time>
      </trkpt>
      <trkpt lat="59.9767483" lon="17.6063392">
        <ele>38.5901</ele>
        <time>2013-05-09T12:01:13Z</time>
      </trkpt>
      <trkpt lat="59.9766989" lon="17.6064574">
        <ele>38.5901</ele>
        <time>2013-05-09T12:01:14Z</time>
      </trkpt>
      <trkpt lat="59.97665" lon="17.6065764">
        <ele>38.5901</ele>
        <time>2013-05-09T12:01:15Z</time>
      </trkpt>
      <trkpt lat="59.9766014" lon="17.6066957">
        <ele>38.5901</ele>
        <time>2013-05-09T12:01:16Z</time>
      </trkpt>
      <trkpt lat="59.9765531" lon="17.6068162">
        <ele>38.5901</ele>
        <time>2013-05-09T12:01:17Z</time>
      </trkpt>
      <trkpt lat="59.976505" lon="17.6069371">
        <ele>38.5901</ele>
        <time>2013-05-09T12:01:18Z</time>
      </trkpt>
      <trkpt lat="59.9764558" lon="17.6070564">
        <ele>38.5901</ele>
        <time>2013-05-09T12:01:19Z</time>
      </trkpt>
      <trkpt lat="59.9764055" lon="17.607173">
        <ele>38.5901</ele>
        <time>2013-05-09T12:01:20Z</time>
      </trkpt>
      <trkpt lat="59.9763553" lon="17.6072911">
        <ele>38.5901</ele>
        <time>2013-05-09T12:01:21Z</time>
      </trkpt>
      <trkpt lat="59.9763072" lon="17.6074125">
        <ele>38.5901</ele>
        <time>2013-05-09T12:01:22Z</time>
      </trkpt>
      <trkpt lat="59.9762609" lon="17.6075363">
        <ele>38.5901</ele>
        <time>2013-05-09T12:01:23Z</time>
      </trkpt>
      <trkpt lat="59.9762159" lon="17.6076625">
        <ele>38.5901</ele>
        <time>2013-05-09T12:01:24Z</time>
      </trkpt>
      <trkpt lat="59.9761725" lon="17.6077911">
        <ele>38.5901</ele>
        <time>2013-05-09T12:01:25Z</time>
      </trkpt>
      <trkpt lat="59.9761317" lon="17.6079242">
        <ele>38.5901</ele>
        <time>2013-05-09T12:01:26Z</time>
      </trkpt>
      <trkpt lat="59.9760938" lon="17.6080619">
        <ele>38.5901</ele>
        <time>2013-05-09T12:01:27Z</time>
      </trkpt>
      <trkpt lat="59.9760592" lon="17.6082046">
        <ele>38.5901</ele>
        <time>2013-05-09T12:01:28Z</time>
      </trkpt>
      <trkpt lat="59.9760285" lon="17.6083496">
        <ele>38.5901</ele>
        <time>2013-05-09T12:01:29Z</time>
      </trkpt>
      <trkpt lat="59.9759972" lon="17.6084965">
        <ele>39.0707</ele>
        <time>2013-05-09T12:01:30Z</time>
      </trkpt>
      <trkpt lat="59.9759777" lon="17.6086584">
        <ele>39.5513</ele>
        <time>2013-05-09T12:01:31Z</time>
      </trkpt>
      <trkpt lat="59.975953" lon="17.6088168">
        <ele>39.5513</ele>
        <time>2013-05-09T12:01:32Z</time>
      </trkpt>
      <trkpt lat="59.9759382" lon="17.6089708">
        <ele>40.0321</ele>
        <time>2013-05-09T12:01:33Z</time>
      </trkpt>
      <trkpt lat="59.9759221" lon="17.6091318">
        <ele>39.5513</ele>
        <time>2013-05-09T12:01:34Z</time>
      </trkpt>
      <trkpt lat="59.9759118" lon="17.6092908">
        <ele>39.5513</ele>
        <time>2013-05-09T12:01:35Z</time>
      </trkpt>
      <trkpt lat="59.9759073" lon="17.6094458">
        <ele>39.5513</ele>
        <time>2013-05-09T12:01:36Z</time>
      </trkpt>
      <trkpt lat="59.9759036" lon="17.6095981">
        <ele>40.0321</ele>
        <time>2013-05-09T12:01:37Z</time>
      </trkpt>
      <trkpt lat="59.9759003" lon="17.6097504">
        <ele>40.0321</ele>
        <time>2013-05-09T12:01:38Z</time>
      </trkpt>
      <trkpt lat="59.9758975" lon="17.6099078">
        <ele>40.0321</ele>
        <time>2013-05-09T12:01:39Z</time>
      </trkpt>
      <trkpt lat="59.9758974" lon="17.6100673">
        <ele>40.5128</ele>
        <time>2013-05-09T12:01:40Z</time>
      </trkpt>
      <trkpt lat="59.9758996" lon="17.6102294">
        <ele>40.5128</ele>
        <time>2013-05-09T12:01:41Z</time>
      </trkpt>
      <trkpt lat="59.9759026" lon="17.6103953">
        <ele>40.5128</ele>
        <time>2013-05-09T12:01:42Z</time>
      </trkpt>
      <trkpt lat="59.9759057" lon="17.610561">
        <ele>40.5128</ele>
        <time>2013-05-09T12:01:43Z</time>
      </trkpt>
      <trkpt lat="59.9759093" lon="17.6107221">
        <ele>40.5128</ele>
        <time>2013-05-09T12:01:44Z</time>
      </trkpt>
      <trkpt lat="59.9759149" lon="17.6108806">
        <ele>40.5128</ele>
        <time>2013-05-09T12:01:45Z</time>
      </trkpt>
      <trkpt lat="59.9759213" lon="17.6110412">
        <ele>40.5128</ele>
        <time>2013-05-09T12:01:46Z</time>
      </trkpt>
      <trkpt lat="59.9759518" lon="17.6113448">
        <ele>40.5128</ele>
        <time>2013-05-09T12:01:48Z</time>
      </trkpt>
      <trkpt lat="59.9759751" lon="17.6114958">
        <ele>40.5128</ele>
        <time>2013-05-09T12:01:49Z</time>
      </trkpt>
      <trkpt lat="59.9759954" lon="17.611641">
        <ele>40.5128</ele>
        <time>2013-05-09T12:01:50Z</time>
      </trkpt>
      <trkpt lat="59.9760174" lon="17.6118006">
        <ele>40.9934</ele>
        <time>2013-05-09T12:01:51Z</time>
      </trkpt>
      <trkpt lat="59.9760373" lon="17.6119613">
        <ele>40.9934</ele>
        <time>2013-05-09T12:01:52Z</time>
      </trkpt>
      <trkpt lat="59.9760606" lon="17.6121223">
        <ele>40.5128</ele>
        <time>2013-05-09T12:01:53Z</time>
      </trkpt>
      <trkpt lat="59.9760844" lon="17.6122866">
        <ele>40.5128</ele>
        <time>2013-05-09T12:01:54Z</time>
      </trkpt>
      <trkpt lat="59.9761077" lon="17.6124541">
        <ele>40.9934</ele>
        <time>2013-05-09T12:01:55Z</time>
      </trkpt>
      <trkpt lat="59.9761309" lon="17.612619">
        <ele>40.9934</ele>
        <time>2013-05-09T12:01:56Z</time>
      </trkpt>
      <trkpt lat="59.9761557" lon="17.6127822">
        <ele>40.9934</ele>
        <time>2013-05-09T12:01:57Z</time>
      </trkpt>
      <trkpt lat="59.9761809" lon="17.6129454">
        <ele>40.9934</ele>
        <time>2013-05-09T12:01:58Z</time>
      </trkpt>
      <trkpt lat="59.9762056" lon="17.6131091">
        <ele>40.9934</ele>
        <time>2013-05-09T12:01:59Z</time>
      </trkpt>
      <trkpt lat="59.97623" lon="17.6132711">
        <ele>40.9934</ele>
        <time>2013-05-09T12:02:00Z</time>
      </trkpt>
      <trkpt lat="59.9762538" lon="17.6134317">
        <ele>40.9934</ele>
        <time>2013-05-09T12:02:01Z</time>
      </trkpt>
      <trkpt lat="59.9762787" lon="17.6135944">
        <ele>40.9934</ele>
        <time>2013-05-09T12:02:02Z</time>
      </trkpt>
      <trkpt lat="59.9763041" lon="17.6137593">
        <ele>40.9934</ele>
        <time>2013-05-09T12:02:03Z</time>
      </trkpt>
      <trkpt lat="59.9763305" lon="17.6139218">
        <ele>41.474</ele>
        <time>2013-05-09T12:02:04Z</time>
      </trkpt>
      <trkpt lat="59.9763601" lon="17.6140789">
        <ele>41.474</ele>
        <time>2013-05-09T12:02:05Z</time>
      </trkpt>
      <trkpt lat="59.9763925" lon="17.6142338">
        <ele>41.474</ele>
        <time>2013-05-09T12:02:06Z</time>
      </trkpt>
      <trkpt lat="59.9764275" lon="17.6143891">
        <ele>41.474</ele>
        <time>2013-05-09T12:02:07Z</time>
      </trkpt>
      <trkpt lat="59.9764665" lon="17.6145409">
        <ele>41.474</ele>
        <time>2013-05-09T12:02:08Z</time>
      </trkpt>
      <trkpt lat="59.9765085" lon="17.6146911">
        <ele>41.474</ele>
        <time>2013-05-09T12:02:09Z</time>
      </trkpt>
      <trkpt lat="59.9765538" lon="17.6148383">
        <ele>41.9547</ele>
        <time>2013-05-09T12:02:10Z</time>
      </trkpt>
      <trkpt lat="59.9766019" lon="17.614981">
        <ele>41.9547</ele>
        <time>2013-05-09T12:02:11Z</time>
      </trkpt>
      <trkpt lat="59.9766531" lon="17.615121">
        <ele>41.9547</ele>
        <time>2013-05-09T12:02:12Z</time>
      </trkpt>
      <trkpt lat="59.9767079" lon="17.6152541">
        <ele>41.9547</ele>
        <time>2013-05-09T12:02:13Z</time>
      </trkpt>
      <trkpt lat="59.9767666" lon="17.6153785">
        <ele>41.9547</ele>
        <time>2013-05-09T12:02:14Z</time>
      </trkpt>
      <trkpt lat="59.9768273" lon="17.6154974">
        <ele>41.9547</ele>
        <time>2013-05-09T12:02:15Z</time>
      </trkpt>
      <trkpt lat="59.9768908" lon="17.6156114">
        <ele>42.4354</ele>
        <time>2013-05-09T12:02:16Z</time>
      </trkpt>
      <trkpt lat="59.9769555" lon="17.6157218">
        <ele>41.9547</ele>
        <time>2013-05-09T12:02:17Z</time>
      </trkpt>
      <trkpt lat="59.9770249" lon="17.6158329">
        <ele>41.9547</ele>
        <time>2013-05-09T12:02:18Z</time>
      </trkpt>
      <trkpt lat="59.9770982" lon="17.6159359">
        <ele>41.9547</ele>
        <time>2013-05-09T12:02:19Z</time>
      </trkpt>
      <trkpt lat="59.9771753" lon="17.6160326">
        <ele>41.9547</ele>
        <time>2013-05-09T12:02:20Z</time>
      </trkpt>
      <trkpt lat="59.9772484" lon="17.616097">
        <ele>41.474</ele>
        <time>2013-05-09T12:02:21Z</time>
      </trkpt>
      <trkpt lat="59.9773316" lon="17.6161836">
        <ele>41.474</ele>
        <time>2013-05-09T12:02:22Z</time>
      </trkpt>
      <trkpt lat="59.9774085" lon="17.6162464">
        <ele>40.9934</ele>
        <time>2013-05-09T12:02:23Z</time>
      </trkpt>
      <trkpt lat="59.9774889" lon="17.6163084">
        <ele>40.5128</ele>
        <time>2013-05-09T12:02:24Z</time>
      </trkpt>
      <trkpt lat="59.9775704" lon="17.6163664">
        <ele>40.0321</ele>
        <time>2013-05-09T12:02:25Z</time>
      </trkpt>
      <trkpt lat="59.9776548" lon="17.6164197">
        <ele>39.5513</ele>
        <time>2013-05-09T12:02:26Z</time>
      </trkpt>
      <trkpt lat="59.9777365" lon="17.6164751">
        <ele>38.5901</ele>
        <time>2013-05-09T12:02:27Z</time>
      </trkpt>
      <trkpt lat="59.9778191" lon="17.6165339">
        <ele>38.1094</ele>
        <time>2013-05-09T12:02:28Z</time>
      </trkpt>
      <trkpt lat="59.9779043" lon="17.6165879">
        <ele>37.6287</ele>
        <time>2013-05-09T12:02:29Z</time>
      </trkpt>
      <trkpt lat="59.9779884" lon="17.6166408">
        <ele>37.1481</ele>
        <time>2013-05-09T12:02:30Z</time>
      </trkpt>
      <trkpt lat="59.9780737" lon="17.6166942">
        <ele>37.1481</ele>
        <time>2013-05-09T12:02:31Z</time>
      </trkpt>
      <trkpt lat="59.9781584" lon="17.6167499">
        <ele>37.1481</ele>
        <time>2013-05-09T12:02:32Z</time>
      </trkpt>
      <trkpt lat="59.9782446" lon="17.6168056">
        <ele>37.1481</ele>
        <time>2013-05-09T12:02:33Z</time>
      </trkpt>
      <trkpt lat="59.9783332" lon="17.6168621">
        <ele>37.1481</ele>
        <time>2013-05-09T12:02:34Z</time>
      </trkpt>
      <trkpt lat="59.9784207" lon="17.6169221">
        <ele>37.1481</ele>
        <time>2013-05-09T12:02:35Z</time>
      </trkpt>
      <trkpt lat="59.9785067" lon="17.6169849">
        <ele>37.1481</ele>
        <time>2013-05-09T12:02:36Z</time>
      </trkpt>
      <trkpt lat="59.9786003" lon="17.6170553">
        <ele>37.1481</ele>
        <time>2013-05-09T12:02:37Z</time>
      </trkpt>
      <trkpt lat="59.9786823" lon="17.6171227">
        <ele>37.1481</ele>
        <time>2013-05-09T12:02:38Z</time>
      </trkpt>
      <trkpt lat="59.9787708" lon="17.6171857">
        <ele>37.6287</ele>
        <time>2013-05-09T12:02:39Z</time>
      </trkpt>
      <trkpt lat="59.9788558" lon="17.6172509">
        <ele>37.6287</ele>
        <time>2013-05-09T12:02:40Z</time>
      </trkpt>
      <trkpt lat="59.978941" lon="17.6173118">
        <ele>37.6287</ele>
        <time>2013-05-09T12:02:41Z</time>
      </trkpt>
      <trkpt lat="59.9790205" lon="17.6173867">
        <ele>37.6287</ele>
        <time>2013-05-09T12:02:42Z</time>
      </trkpt>
      <trkpt lat="59.9791034" lon="17.6174552">
        <ele>37.6287</ele>
        <time>2013-05-09T12:02:43Z</time>
      </trkpt>
      <trkpt lat="59.9791859" lon="17.6175178">
        <ele>37.6287</ele>
        <time>2013-05-09T12:02:44Z</time>
      </trkpt>
      <trkpt lat="59.9792648" lon="17.6175868">
        <ele>37.6287</ele>
        <time>2013-05-09T12:02:45Z</time>
      </trkpt>
      <trkpt lat="59.9793392" lon="17.6176386">
        <ele>37.6287</ele>
        <time>2013-05-09T12:02:46Z</time>
      </trkpt>
      <trkpt lat="59.9794233" lon="17.6177162">
        <ele>37.6287</ele>
        <time>2013-05-09T12:02:47Z</time>
      </trkpt>
      <trkpt lat="59.9795084" lon="17.6177763">
        <ele>37.1481</ele>
        <time>2013-05-09T12:02:48Z</time>
      </trkpt>
      <trkpt lat="59.9795914" lon="17.617844">
        <ele>37.1481</ele>
        <time>2013-05-09T12:02:49Z</time>
      </trkpt>
      <trkpt lat="59.9796756" lon="17.6179139">
        <ele>37.1481</ele>
        <time>2013-05-09T12:02:50Z</time>
      </trkpt>
      <trkpt lat="59.9797564" lon="17.6179896">
        <ele>37.1481</ele>
        <time>2013-05-09T12:02:51Z</time>
      </trkpt>
      <trkpt lat="59.9798408" lon="17.6180638">
        <ele>36.6675</ele>
        <time>2013-05-09T12:02:52Z</time>
      </trkpt>
      <trkpt lat="59.9799261" lon="17.6181199">
        <ele>36.6675</ele>
        <time>2013-05-09T12:02:53Z</time>
      </trkpt>
      <trkpt lat="59.9800079" lon="17.6181699">
        <ele>36.6675</ele>
        <time>2013-05-09T12:02:54Z</time>
      </trkpt>
      <trkpt lat="59.9800903" lon="17.6182313">
        <ele>36.6675</ele>
        <time>2013-05-09T12:02:55Z</time>
      </trkpt>
      <trkpt lat="59.9801715" lon="17.6182973">
        <ele>36.6675</ele>
        <time>2013-05-09T12:02:56Z</time>
      </trkpt>
      <trkpt lat="59.9802526" lon="17.6183678">
        <ele>36.6675</ele>
        <time>2013-05-09T12:02:57Z</time>
      </trkpt>
      <trkpt lat="59.9803364" lon="17.6184433">
        <ele>36.6675</ele>
        <time>2013-05-09T12:02:58Z</time>
      </trkpt>
      <trkpt lat="59.9804184" lon="17.618526">
        <ele>36.6675</ele>
        <time>2013-05-09T12:02:59Z</time>
      </trkpt>
      <trkpt lat="59.9805005" lon="17.6186167">
        <ele>36.6675</ele>
        <time>2013-05-09T12:03:00Z</time>
      </trkpt>
      <trkpt lat="59.9805813" lon="17.6187139">
        <ele>36.1868</ele>
        <time>2013-05-09T12:03:01Z</time>
      </trkpt>
      <trkpt lat="59.9806596" lon="17.6188197">
        <ele>36.1868</ele>
        <time>2013-05-09T12:03:02Z</time>
      </trkpt>
      <trkpt lat="59.9807339" lon="17.6189371">
        <ele>36.1868</ele>
        <time>2013-05-09T12:03:03Z</time>
      </trkpt>
      <trkpt lat="59.9808034" lon="17.6190671">
        <ele>36.1868</ele>
        <time>2013-05-09T12:03:04Z</time>
      </trkpt>
      <trkpt lat="59.9808668" lon="17.6192087">
        <ele>36.1868</ele>
        <time>2013-05-09T12:03:05Z</time>
      </trkpt>
      <trkpt lat="59.9809263" lon="17.6193581">
        <ele>36.1868</ele>
        <time>2013-05-09T12:03:06Z</time>
      </trkpt>
      <trkpt lat="59.9809805" lon="17.6195131">
        <ele>36.1868</ele>
        <time>2013-05-09T12:03:07Z</time>
      </trkpt>
      <trkpt lat="59.9810299" lon="17.6196743">
        <ele>36.1868</ele>
        <time>2013-05-09T12:03:08Z</time>
      </trkpt>
      <trkpt lat="59.9810737" lon="17.6198428">
        <ele>36.1868</ele>
        <time>2013-05-09T12:03:09Z</time>
      </trkpt>
      <trkpt lat="59.9811103" lon="17.6200212">
        <ele>36.1868</ele>
        <time>2013-05-09T12:03:10Z</time>
      </trkpt>
      <trkpt lat="59.9811428" lon="17.6202028">
        <ele>35.7061</ele>
        <time>2013-05-09T12:03:11Z</time>
      </trkpt>
      <trkpt lat="59.9811707" lon="17.6203898">
        <ele>35.7061</ele>
        <time>2013-05-09T12:03:12Z</time>
      </trkpt>
      <trkpt lat="59.9811936" lon="17.6205824">
        <ele>35.2255</ele>
        <time>2013-05-09T12:03:13Z</time>
      </trkpt>
      <trkpt lat="59.981212" lon="17.6207796">
        <ele>35.2255</ele>
        <time>2013-05-09T12:03:14Z</time>
      </trkpt>
      <trkpt lat="59.981227" lon="17.6209785">
        <ele>35.2255</ele>
        <time>2013-05-09T12:03:15Z</time>
      </trkpt>
      <trkpt lat="59.9812412" lon="17.6211785">
        <ele>34.7449</ele>
        <time>2013-05-09T12:03:16Z</time>
      </trkpt>
      <trkpt lat="59.9812558" lon="17.6213812">
        <ele>34.7449</ele>
        <time>2013-05-09T12:03:17Z</time>
      </trkpt>
      <trkpt lat="59.9812697" lon="17.6215871">
        <ele>34.7449</ele>
        <time>2013-05-09T12:03:18Z</time>
      </trkpt>
      <trkpt lat="59.9812786" lon="17.6217946">
        <ele>34.2642</ele>
        <time>2013-05-09T12:03:19Z</time>
      </trkpt>
      <trkpt lat="59.9812904" lon="17.6220067">
        <ele>33.7834</ele>
        <time>2013-05-09T12:03:20Z</time>
      </trkpt>
      <trkpt lat="59.9813045" lon="17.6222205">
        <ele>33.3029</ele>
        <time>2013-05-09T12:03:21Z</time>
      </trkpt>
      <trkpt lat="59.9813189" lon="17.6224357">
        <ele>33.3029</ele>
        <time>2013-05-09T12:03:22Z</time>
      </trkpt>
      <trkpt lat="59.9813334" lon="17.6226529">
        <ele>32.8223</ele>
        <time>2013-05-09T12:03:23Z</time>
      </trkpt>
      <trkpt lat="59.9813494" lon="17.6228715">
        <ele>32.8223</ele>
        <time>2013-05-09T12:03:24Z</time>
      </trkpt>
      <trkpt lat="59.9813655" lon="17.6230912">
        <ele>32.8223</ele>
        <time>2013-05-09T12:03:25Z</time>
      </trkpt>
      <trkpt lat="59.9813814" lon="17.6233114">
        <ele>32.3416</ele>
        <time>2013-05-09T12:03:26Z</time>
      </trkpt>
      <trkpt lat="59.9813972" lon="17.6235314">
        <ele>32.3416</ele>
        <time>2013-05-09T12:03:27Z</time>
      </trkpt>
      <trkpt lat="59.9814148" lon="17.6237498">
        <ele>32.3416</ele>
        <time>2013-05-09T12:03:28Z</time>
      </trkpt>
      <trkpt lat="59.9814316" lon="17.6239676">
        <ele>32.8223</ele>
        <time>2013-05-09T12:03:29Z</time>
      </trkpt>
      <trkpt lat="59.9814479" lon="17.6241842">
        <ele>32.8223</ele>
        <time>2013-05-09T12:03:30Z</time>
      </trkpt>
      <trkpt lat="59.9814653" lon="17.6243986">
        <ele>32.8223</ele>
        <time>2013-05-09T12:03:31Z</time>
      </trkpt>
      <trkpt lat="59.9814824" lon="17.624611">
        <ele>32.8223</ele>
        <time>2013-05-09T12:03:32Z</time>
      </trkpt>
      <trkpt lat="59.9814986" lon="17.6248218">
        <ele>33.3029</ele>
        <time>2013-05-09T12:03:33Z</time>
      </trkpt>
      <trkpt lat="59.9815153" lon="17.6250316">
        <ele>33.3029</ele>
        <time>2013-05-09T12:03:34Z</time>
      </trkpt>
      <trkpt lat="59.9815327" lon="17.6252399">
        <ele>33.3029</ele>
        <time>2013-05-09T12:03:35Z</time>
      </trkpt>
      <trkpt lat="59.9815495" lon="17.6254482">
        <ele>33.3029</ele>
        <time>2013-05-09T12:03:36Z</time>
      </trkpt>
      <trkpt lat="59.9815655" lon="17.6256573">
        <ele>32.8223</ele>
        <time>2013-05-09T12:03:37Z</time>
      </trkpt>
      <trkpt lat="59.9815806" lon="17.6258671">
        <ele>32.8223</ele>
        <time>2013-05-09T12:03:38Z</time>
      </trkpt>
      <trkpt lat="59.981596" lon="17.626076">
        <ele>32.8223</ele>
        <time>2013-05-09T12:03:39Z</time>
      </trkpt>
      <trkpt lat="59.9816106" lon="17.6262816">
        <ele>32.8223</ele>
        <time>2013-05-09T12:03:40Z</time>
      </trkpt>
      <trkpt lat="59.9816228" lon="17.6264832">
        <ele>32.8223</ele>
        <time>2013-05-09T12:03:41Z</time>
      </trkpt>
      <trkpt lat="59.9816324" lon="17.626682">
        <ele>32.8223</ele>
        <time>2013-05-09T12:03:42Z</time>
      </trkpt>
      <trkpt lat="59.981641" lon="17.6268772">
        <ele>32.8223</ele>
        <time>2013-05-09T12:03:43Z</time>
      </trkpt>
      <trkpt lat="59.9816484" lon="17.62707">
        <ele>32.3416</ele>
        <time>2013-05-09T12:03:44Z</time>
      </trkpt>
      <trkpt lat="59.9816557" lon="17.6272626">
        <ele>32.3416</ele>
        <time>2013-05-09T12:03:45Z</time>
      </trkpt>
      <trkpt lat="59.9816629" lon="17.6274538">
        <ele>32.3416</ele>
        <time>2013-05-09T12:03:46Z</time>
      </trkpt>
      <trkpt lat="59.9816691" lon="17.6276453">
        <ele>32.3416</ele>
        <time>2013-05-09T12:03:47Z</time>
      </trkpt>
      <trkpt lat="59.9816743" lon="17.6278361">
        <ele>32.3416</ele>
        <time>2013-05-09T12:03:48Z</time>
      </trkpt>
      <trkpt lat="59.9816789" lon="17.6280265">
        <ele>31.8607</ele>
        <time>2013-05-09T12:03:49Z</time>
      </trkpt>
      <trkpt lat="59.981683" lon="17.6282163">
        <ele>31.8607</ele>
        <time>2013-05-09T12:03:50Z</time>
      </trkpt>
      <trkpt lat="59.9816877" lon="17.6284067">
        <ele>31.3801</ele>
        <time>2013-05-09T12:03:51Z</time>
      </trkpt>
      <trkpt lat="59.9816935" lon="17.6285976">
        <ele>31.3801</ele>
        <time>2013-05-09T12:03:52Z</time>
      </trkpt>
      <trkpt lat="59.9817002" lon="17.6287902">
        <ele>31.3801</ele>
        <time>2013-05-09T12:03:53Z</time>
      </trkpt>
      <trkpt lat="59.9817059" lon="17.6289818">
        <ele>30.8995</ele>
        <time>2013-05-09T12:03:54Z</time>
      </trkpt>
      <trkpt lat="59.9817108" lon="17.6291725">
        <ele>30.8995</ele>
        <time>2013-05-09T12:03:55Z</time>
      </trkpt>
      <trkpt lat="59.9817157" lon="17.6293616">
        <ele>30.8995</ele>
        <time>2013-05-09T12:03:56Z</time>
      </trkpt>
      <trkpt lat="59.981721" lon="17.6295497">
        <ele>30.8995</ele>
        <time>2013-05-09T12:03:57Z</time>
      </trkpt>
      <trkpt lat="59.9817266" lon="17.6297359">
        <ele>30.8995</ele>
        <time>2013-05-09T12:03:58Z</time>
      </trkpt>
      <trkpt lat="59.9817319" lon="17.6299206">
        <ele>30.8995</ele>
        <time>2013-05-09T12:03:59Z</time>
      </trkpt>
      <trkpt lat="59.9817375" lon="17.630105">
        <ele>30.8995</ele>
        <time>2013-05-09T12:04:00Z</time>
      </trkpt>
      <trkpt lat="59.9817436" lon="17.630289">
        <ele>30.8995</ele>
        <time>2013-05-09T12:04:01Z</time>
      </trkpt>
      <trkpt lat="59.9817497" lon="17.6304712">
        <ele>30.8995</ele>
        <time>2013-05-09T12:04:02Z</time>
      </trkpt>
      <trkpt lat="59.9817556" lon="17.630652">
        <ele>31.3801</ele>
        <time>2013-05-09T12:04:03Z</time>
      </trkpt>
      <trkpt lat="59.9817609" lon="17.6308324">
        <ele>31.3801</ele>
        <time>2013-05-09T12:04:04Z</time>
      </trkpt>
      <trkpt lat="59.9817661" lon="17.6310141">
        <ele>31.3801</ele>
        <time>2013-05-09T12:04:05Z</time>
      </trkpt>
      <trkpt lat="59.9817713" lon="17.6311973">
        <ele>30.8995</ele>
        <time>2013-05-09T12:04:06Z</time>
      </trkpt>
      <trkpt lat="59.9817759" lon="17.6313801">
        <ele>30.8995</ele>
        <time>2013-05-09T12:04:07Z</time>
      </trkpt>
      <trkpt lat="59.9817804" lon="17.6315611">
        <ele>30.8995</ele>
        <time>2013-05-09T12:04:08Z</time>
      </trkpt>
      <trkpt lat="59.9817858" lon="17.6317402">
        <ele>30.8995</ele>
        <time>2013-05-09T12:04:09Z</time>
      </trkpt>
      <trkpt lat="59.981792" lon="17.6319175">
        <ele>30.8995</ele>
        <time>2013-05-09T12:04:10Z</time>
      </trkpt>
      <trkpt lat="59.9817982" lon="17.6320935">
        <ele>30.8995</ele>
        <time>2013-05-09T12:04:11Z</time>
      </trkpt>
      <trkpt lat="59.9818042" lon="17.6322692">
        <ele>30.8995</ele>
        <time>2013-05-09T12:04:12Z</time>
      </trkpt>
      <trkpt lat="59.98181" lon="17.6324444">
        <ele>30.8995</ele>
        <time>2013-05-09T12:04:13Z</time>
      </trkpt>
      <trkpt lat="59.9818158" lon="17.6326194">
        <ele>30.8995</ele>
        <time>2013-05-09T12:04:14Z</time>
      </trkpt>
      <trkpt lat="59.9818214" lon="17.6327941">
        <ele>30.8995</ele>
        <time>2013-05-09T12:04:15Z</time>
      </trkpt>
      <trkpt lat="59.9818261" lon="17.6329681">
        <ele>30.8995</ele>
        <time>2013-05-09T12:04:16Z</time>
      </trkpt>
      <trkpt lat="59.9818297" lon="17.6331401">
        <ele>30.8995</ele>
        <time>2013-05-09T12:04:17Z</time>
      </trkpt>
      <trkpt lat="59.9818322" lon="17.6333069">
        <ele>31.3801</ele>
        <time>2013-05-09T12:04:18Z</time>
      </trkpt>
      <trkpt lat="59.9818315" lon="17.6334709">
        <ele>31.3801</ele>
        <time>2013-05-09T12:04:19Z</time>
      </trkpt>
      <trkpt lat="59.9818276" lon="17.6336336">
        <ele>31.8607</ele>
        <time>2013-05-09T12:04:20Z</time>
      </trkpt>
      <trkpt lat="59.9818209" lon="17.6337945">
        <ele>32.3416</ele>
        <time>2013-05-09T12:04:21Z</time>
      </trkpt>
      <trkpt lat="59.9818117" lon="17.6339531">
        <ele>32.3416</ele>
        <time>2013-05-09T12:04:22Z</time>
      </trkpt>
      <trkpt lat="59.9818011" lon="17.6341101">
        <ele>32.8223</ele>
        <time>2013-05-09T12:04:23Z</time>
      </trkpt>
      <trkpt lat="59.9817887" lon="17.6342641">
        <ele>33.7834</ele>
        <time>2013-05-09T12:04:24Z</time>
      </trkpt>
      <trkpt lat="59.9817743" lon="17.6344163">
        <ele>33.7834</ele>
        <time>2013-05-09T12:04:25Z</time>
      </trkpt>
      <trkpt lat="59.9817592" lon="17.6345679">
        <ele>34.2642</ele>
        <time>2013-05-09T12:04:26Z</time>
      </trkpt>
      <trkpt lat="59.981742" lon="17.6347194">
        <ele>34.7449</ele>
        <time>2013-05-09T12:04:27Z</time>
      </trkpt>
      <trkpt lat="59.9817224" lon="17.6348675">
        <ele>34.7449</ele>
        <time>2013-05-09T12:04:28Z</time>
      </trkpt>
      <trkpt lat="59.9817007" lon="17.6350119">
        <ele>35.2255</ele>
        <time>2013-05-09T12:04:29Z</time>
      </trkpt>
      <trkpt lat="59.9816767" lon="17.6351529">
        <ele>35.2255</ele>
        <time>2013-05-09T12:04:30Z</time>
      </trkpt>
      <trkpt lat="59.9816509" lon="17.6352914">
        <ele>35.2255</ele>
        <time>2013-05-09T12:04:31Z</time>
      </trkpt>
      <trkpt lat="59.981623" lon="17.6354276">
        <ele>35.2255</ele>
        <time>2013-05-09T12:04:32Z</time>
      </trkpt>
      <trkpt lat="59.9815925" lon="17.6355613">
        <ele>34.7449</ele>
        <time>2013-05-09T12:04:33Z</time>
      </trkpt>
      <trkpt lat="59.9815602" lon="17.6356932">
        <ele>34.7449</ele>
        <time>2013-05-09T12:04:34Z</time>
      </trkpt>
      <trkpt lat="59.9815266" lon="17.6358238">
        <ele>34.7449</ele>
        <time>2013-05-09T12:04:35Z</time>
      </trkpt>
      <trkpt lat="59.981491" lon="17.6359524">
        <ele>34.7449</ele>
        <time>2013-05-09T12:04:36Z</time>
      </trkpt>
      <trkpt lat="59.9814531" lon="17.6360785">
        <ele>34.2642</ele>
        <time>2013-05-09T12:04:37Z</time>
      </trkpt>
      <trkpt lat="59.9814137" lon="17.6362036">
        <ele>34.2642</ele>
        <time>2013-05-09T12:04:38Z</time>
      </trkpt>
      <trkpt lat="59.9813723" lon="17.6363277">
        <ele>34.2642</ele>
        <time>2013-05-09T12:04:39Z</time>
      </trkpt>
      <trkpt lat="59.9813291" lon="17.6364502">
        <ele>34.2642</ele>
        <time>2013-05-09T12:04:40Z</time>
      </trkpt>
      <trkpt lat="59.9812838" lon="17.6365717">
        <ele>33.7834</ele>
        <time>2013-05-09T12:04:41Z</time>
      </trkpt>
      <trkpt lat="59.9812366" lon="17.6366908">
        <ele>33.7834</ele>
        <time>2013-05-09T12:04:42Z</time>
      </trkpt>
      <trkpt lat="59.9811878" lon="17.6368063">
        <ele>33.7834</ele>
        <time>2013-05-09T12:04:43Z</time>
      </trkpt>
      <trkpt lat="59.9811384" lon="17.6369182">
        <ele>33.7834</ele>
        <time>2013-05-09T12:04:44Z</time>
      </trkpt>
      <trkpt lat="59.9810875" lon="17.6370261">
        <ele>33.7834</ele>
        <time>2013-05-09T12:04:45Z</time>
      </trkpt>
      <trkpt lat="59.981036" lon="17.6371317">
        <ele>33.7834</ele>
        <time>2013-05-09T12:04:46Z</time>
      </trkpt>
      <trkpt lat="59.9809849" lon="17.6372369">
        <ele>33.7834</ele>
        <time>2013-05-09T12:04:47Z</time>
      </trkpt>
      <trkpt lat="59.9809346" lon="17.6373426">
        <ele>33.7834</ele>
        <time>2013-05-09T12:04:48Z</time>
      </trkpt>
      <trkpt lat="59.980886" lon="17.6374415">
        <ele>33.7834</ele>
        <time>2013-05-09T12:04:49Z</time>
      </trkpt>
      <trkpt lat="59.980839" lon="17.6375389">
        <ele>33.7834</ele>
        <time>2013-05-09T12:04:50Z</time>
      </trkpt>
      <trkpt lat="59.980791" lon="17.6376369">
        <ele>34.2642</ele>
        <time>2013-05-09T12:04:51Z</time>
      </trkpt>
      <trkpt lat="59.9807422" lon="17.637735">
        <ele>34.2642</ele>
        <time>2013-05-09T12:04:52Z</time>
      </trkpt>
      <trkpt lat="59.9806942" lon="17.6378333">
        <ele>34.2642</ele>
        <time>2013-05-09T12:04:53Z</time>
      </trkpt>
      <trkpt lat="59.9806467" lon="17.6379325">
        <ele>34.7449</ele>
        <time>2013-05-09T12:04:54Z</time>
      </trkpt>
      <trkpt lat="59.9805994" lon="17.6380304">
        <ele>34.7449</ele>
        <time>2013-05-09T12:04:55Z</time>
      </trkpt>
      <trkpt lat="59.9805523" lon="17.6381298">
        <ele>35.2255</ele>
        <time>2013-05-09T12:04:56Z</time>
      </trkpt>
      <trkpt lat="59.9805067" lon="17.6382284">
        <ele>35.2255</ele>
        <time>2013-05-09T12:04:57Z</time>
      </trkpt>
      <trkpt lat="59.9804617" lon="17.6383263">
        <ele>35.7061</ele>
        <time>2013-05-09T12:04:58Z</time>
      </trkpt>
      <trkpt lat="59.9804179" lon="17.6384228">
        <ele>36.1868</ele>
        <time>2013-05-09T12:04:59Z</time>
      </trkpt>
      <trkpt lat="59.9803749" lon="17.6385176">
        <ele>36.1868</ele>
        <time>2013-05-09T12:05:00Z</time>
      </trkpt>
      <trkpt lat="59.980332" lon="17.6386133">
        <ele>36.6675</ele>
        <time>2013-05-09T12:05:01Z</time>
      </trkpt>
      <trkpt lat="59.9802912" lon="17.6387054">
        <ele>37.1481</ele>
        <time>2013-05-09T12:05:02Z</time>
      </trkpt>
      <trkpt lat="59.9802539" lon="17.6387959">
        <ele>37.1481</ele>
        <time>2013-05-09T12:05:03Z</time>
      </trkpt>
      <trkpt lat="59.9802182" lon="17.6388866">
        <ele>37.6287</ele>
        <time>2013-05-09T12:05:04Z</time>
      </trkpt>
      <trkpt lat="59.9801836" lon="17.6389779">
        <ele>37.6287</ele>
        <time>2013-05-09T12:05:05Z</time>
      </trkpt>
      <trkpt lat="59.9801511" lon="17.6390701">
        <ele>37.6287</ele>
        <time>2013-05-09T12:05:06Z</time>
      </trkpt>
      <trkpt lat="59.9801202" lon="17.6391617">
        <ele>38.1094</ele>
        <time>2013-05-09T12:05:07Z</time>
      </trkpt>
      <trkpt lat="59.9800902" lon="17.6392515">
        <ele>38.1094</ele>
        <time>2013-05-09T12:05:08Z</time>
      </trkpt>
      <trkpt lat="59.9800611" lon="17.6393401">
        <ele>38.5901</ele>
        <time>2013-05-09T12:05:09Z</time>
      </trkpt>
      <trkpt lat="59.980034" lon="17.6394292">
        <ele>38.5901</ele>
        <time>2013-05-09T12:05:10Z</time>
      </trkpt>
      <trkpt lat="59.9800089" lon="17.6395203">
        <ele>38.5901</ele>
        <time>2013-05-09T12:05:11Z</time>
      </trkpt>
      <trkpt lat="59.9799845" lon="17.6396128">
        <ele>39.0707</ele>
        <time>2013-05-09T12:05:12Z</time>
      </trkpt>
      <trkpt lat="59.9799597" lon="17.6397042">
        <ele>39.0707</ele>
        <time>2013-05-09T12:05:13Z</time>
      </trkpt>
      <trkpt lat="59.9799364" lon="17.6397959">
        <ele>39.0707</ele>
        <time>2013-05-09T12:05:14Z</time>
      </trkpt>
      <trkpt lat="59.9799145" lon="17.6398881">
        <ele>39.0707</ele>
        <time>2013-05-09T12:05:15Z</time>
      </trkpt>
      <trkpt lat="59.9798931" lon="17.6399813">
        <ele>39.5513</ele>
        <time>2013-05-09T12:05:16Z</time>
      </trkpt>
      <trkpt lat="59.9798727" lon="17.6400766">
        <ele>39.5513</ele>
        <time>2013-05-09T12:05:17Z</time>
      </trkpt>
      <trkpt lat="59.979853" lon="17.640174">
        <ele>39.5513</ele>
        <time>2013-05-09T12:05:18Z</time>
      </trkpt>
      <trkpt lat="59.9798334" lon="17.6402745">
        <ele>39.5513</ele>
        <time>2013-05-09T12:05:19Z</time>
      </trkpt>
      <trkpt lat="59.9798144" lon="17.6403788">
        <ele>40.0321</ele>
        <time>2013-05-09T12:05:20Z</time>
      </trkpt>
      <trkpt lat="59.9797947" lon="17.640486">
        <ele>40.0321</ele>
        <time>2013-05-09T12:05:21Z</time>
      </trkpt>
      <trkpt lat="59.9797752" lon="17.6405936">
        <ele>40.0321</ele>
        <time>2013-05-09T12:05:22Z</time>
      </trkpt>
      <trkpt lat="59.9797571" lon="17.6407017">
        <ele>40.0321</ele>
        <time>2013-05-09T12:05:23Z</time>
      </trkpt>
      <trkpt lat="59.97974" lon="17.6408117">
        <ele>40.5128</ele>
        <time>2013-05-09T12:05:24Z</time>
      </trkpt>
      <trkpt lat="59.9797235" lon="17.6409244">
        <ele>40.5128</ele>
        <time>2013-05-09T12:05:25Z</time>
      </trkpt>
      <trkpt lat="59.9797064" lon="17.6410391">
        <ele>40.5128</ele>
        <time>2013-05-09T12:05:26Z</time>
      </trkpt>
      <trkpt lat="59.9796893" lon="17.6411571">
        <ele>40.5128</ele>
        <time>2013-05-09T12:05:27Z</time>
      </trkpt>
      <trkpt lat="59.9796731" lon="17.6412785">
        <ele>40.5128</ele>
        <time>2013-05-09T12:05:28Z</time>
      </trkpt>
      <trkpt lat="59.9796575" lon="17.6414039">
        <ele>40.5128</ele>
        <time>2013-05-09T12:05:29Z</time>
      </trkpt>
      <trkpt lat="59.9796416" lon="17.6415339">
        <ele>40.5128</ele>
        <time>2013-05-09T12:05:30Z</time>
      </trkpt>
      <trkpt lat="59.9796253" lon="17.6416678">
        <ele>40.5128</ele>
        <time>2013-05-09T12:05:31Z</time>
      </trkpt>
      <trkpt lat="59.9796095" lon="17.6418041">
        <ele>40.5128</ele>
        <time>2013-05-09T12:05:32Z</time>
      </trkpt>
      <trkpt lat="59.9795955" lon="17.6419428">
        <ele>40.0321</ele>
        <time>2013-05-09T12:05:33Z</time>
      </trkpt>
      <trkpt lat="59.979582" lon="17.6420834">
        <ele>40.0321</ele>
        <time>2013-05-09T12:05:34Z</time>
      </trkpt>
      <trkpt lat="59.9795678" lon="17.6422257">
        <ele>40.0321</ele>
        <time>2013-05-09T12:05:35Z</time>
      </trkpt>
      <trkpt lat="59.9795536" lon="17.6423698">
        <ele>40.0321</ele>
        <time>2013-05-09T12:05:36Z</time>
      </trkpt>
      <trkpt lat="59.9795401" lon="17.6425163">
        <ele>39.5513</ele>
        <time>2013-05-09T12:05:37Z</time>
      </trkpt>
      <trkpt lat="59.9795276" lon="17.6426653">
        <ele>39.5513</ele>
        <time>2013-05-09T12:05:38Z</time>
      </trkpt>
      <trkpt lat="59.979516" lon="17.642818">
        <ele>39.0707</ele>
        <time>2013-05-09T12:05:39Z</time>
      </trkpt>
      <trkpt lat="59.9795031" lon="17.6429739">
        <ele>39.0707</ele>
        <time>2013-05-09T12:05:40Z</time>
      </trkpt>
      <trkpt lat="59.9794892" lon="17.6431334">
        <ele>38.5901</ele>
        <time>2013-05-09T12:05:41Z</time>
      </trkpt>
      <trkpt lat="59.9794748" lon="17.6432985">
        <ele>38.1094</ele>
        <time>2013-05-09T12:05:42Z</time>
      </trkpt>
      <trkpt lat="59.9794589" lon="17.6434687">
        <ele>38.1094</ele>
        <time>2013-05-09T12:05:43Z</time>
      </trkpt>
      <trkpt lat="59.9794422" lon="17.6436443">
        <ele>37.6287</ele>
        <time>2013-05-09T12:05:44Z</time>
      </trkpt>
      <trkpt lat="59.9794265" lon="17.6438245">
        <ele>37.6287</ele>
        <time>2013-05-09T12:05:45Z</time>
      </trkpt>
      <trkpt lat="59.9794106" lon="17.6440073">
        <ele>37.1481</ele>
        <time>2013-05-09T12:05:46Z</time>
      </trkpt>
      <trkpt lat="59.9793939" lon="17.6441928">
        <ele>37.1481</ele>
        <time>2013-05-09T12:05:47Z</time>
      </trkpt>
      <trkpt lat="59.9793759" lon="17.6443803">
        <ele>36.6675</ele>
        <time>2013-05-09T12:05:48Z</time>
      </trkpt>
      <trkpt lat="59.9793561" lon="17.6445693">
        <ele>36.6675</ele>
        <time>2013-05-09T12:05:49Z</time>
      </trkpt>
      <trkpt lat="59.9793339" lon="17.6447582">
        <ele>36.6675</ele>
        <time>2013-05-09T12:05:50Z</time>
      </trkpt>
      <trkpt lat="59.9793089" lon="17.6449455">
        <ele>36.1868</ele>
        <time>2013-05-09T12:05:51Z</time>
      </trkpt>
      <trkpt lat="59.97928" lon="17.6451304">
        <ele>36.1868</ele>
        <time>2013-05-09T12:05:52Z</time>
      </trkpt>
      <trkpt lat="59.9792477" lon="17.6453127">
        <ele>36.1868</ele>
        <time>2013-05-09T12:05:53Z</time>
      </trkpt>
      <trkpt lat="59.979212" lon="17.6454917">
        <ele>36.1868</ele>
        <time>2013-05-09T12:05:54Z</time>
      </trkpt>
      <trkpt lat="59.9791728" lon="17.6456666">
        <ele>36.1868</ele>
        <time>2013-05-09T12:05:55Z</time>
      </trkpt>
      <trkpt lat="59.9791309" lon="17.645837">
        <ele>36.1868</ele>
        <time>2013-05-09T12:05:56Z</time>
      </trkpt>
      <trkpt lat="59.9790861" lon="17.6460027">
        <ele>35.7061</ele>
        <time>2013-05-09T12:05:57Z</time>
      </trkpt>
      <trkpt lat="59.9790384" lon="17.6461641">
        <ele>35.7061</ele>
        <time>2013-05-09T12:05:58Z</time>
      </trkpt>
      <trkpt lat="59.9789893" lon="17.6463227">
        <ele>35.2255</ele>
        <time>2013-05-09T12:05:59Z</time>
      </trkpt>
      <trkpt lat="59.9789376" lon="17.6464791">
        <ele>35.2255</ele>
        <time>2013-05-09T12:06:00Z</time>
      </trkpt>
      <trkpt lat="59.9788826" lon="17.6466301">
        <ele>34.7449</ele>
        <time>2013-05-09T12:06:01Z</time>
      </trkpt>
      <trkpt lat="59.9788247" lon="17.6467754">
        <ele>34.2642</ele>
        <time>2013-05-09T12:06:02Z</time>
      </trkpt>
      <trkpt lat="59.9787651" lon="17.646917">
        <ele>34.2642</ele>
        <time>2013-05-09T12:06:03Z</time>
      </trkpt>
      <trkpt lat="59.978704" lon="17.6470548">
        <ele>33.7834</ele>
        <time>2013-05-09T12:06:04Z</time>
      </trkpt>
      <trkpt lat="59.9786417" lon="17.6471868">
        <ele>33.3029</ele>
        <time>2013-05-09T12:06:05Z</time>
      </trkpt>
      <trkpt lat="59.978579" lon="17.6473131">
        <ele>33.3029</ele>
        <time>2013-05-09T12:06:06Z</time>
      </trkpt>
      <trkpt lat="59.9785158" lon="17.6474349">
        <ele>32.8223</ele>
        <time>2013-05-09T12:06:07Z</time>
      </trkpt>
      <trkpt lat="59.9784532" lon="17.6475545">
        <ele>32.8223</ele>
        <time>2013-05-09T12:06:08Z</time>
      </trkpt>
      <trkpt lat="59.9783914" lon="17.6476728">
        <ele>32.8223</ele>
        <time>2013-05-09T12:06:09Z</time>
      </trkpt>
      <trkpt lat="59.978331" lon="17.6477904">
        <ele>32.8223</ele>
        <time>2013-05-09T12:06:10Z</time>
      </trkpt>
      <trkpt lat="59.9782725" lon="17.6479095">
        <ele>32.8223</ele>
        <time>2013-05-09T12:06:11Z</time>
      </trkpt>
      <trkpt lat="59.9782154" lon="17.6480302">
        <ele>32.3416</ele>
        <time>2013-05-09T12:06:12Z</time>
      </trkpt>
      <trkpt lat="59.9781595" lon="17.648153">
        <ele>32.3416</ele>
        <time>2013-05-09T12:06:13Z</time>
      </trkpt>
      <trkpt lat="59.9781052" lon="17.6482798">
        <ele>32.3416</ele>
        <time>2013-05-09T12:06:14Z</time>
      </trkpt>
      <trkpt lat="59.9780529" lon="17.6484118">
        <ele>32.3416</ele>
        <time>2013-05-09T12:06:15Z</time>
      </trkpt>
      <trkpt lat="59.9780022" lon="17.648548">
        <ele>31.8607</ele>
        <time>2013-05-09T12:06:16Z</time>
      </trkpt>
      <trkpt lat="59.9779528" lon="17.6486858">
        <ele>31.8607</ele>
        <time>2013-05-09T12:06:17Z</time>
      </trkpt>
      <trkpt lat="59.977905" lon="17.6488248">
        <ele>31.8607</ele>
        <time>2013-05-09T12:06:18Z</time>
      </trkpt>
      <trkpt lat="59.9778596" lon="17.6489668">
        <ele>31.8607</ele>
        <time>2013-05-09T12:06:19Z</time>
      </trkpt>
      <trkpt lat="59.9778167" lon="17.6491137">
        <ele>31.8607</ele>
        <time>2013-05-09T12:06:20Z</time>
      </trkpt>
      <trkpt lat="59.9777751" lon="17.6492636">
        <ele>31.8607</ele>
        <time>2013-05-09T12:06:21Z</time>
      </trkpt>
      <trkpt lat="59.9777353" lon="17.6494165">
        <ele>31.8607</ele>
        <time>2013-05-09T12:06:22Z</time>
      </trkpt>
      <trkpt lat="59.9776979" lon="17.6495723">
        <ele>32.3416</ele>
        <time>2013-05-09T12:06:23Z</time>
      </trkpt>
      <trkpt lat="59.9776636" lon="17.6497324">
        <ele>32.3416</ele>
        <time>2013-05-09T12:06:24Z</time>
      </trkpt>
      <trkpt lat="59.9776332" lon="17.6498967">
        <ele>32.3416</ele>
        <time>2013-05-09T12:06:25Z</time>
      </trkpt>
      <trkpt lat="59.9776052" lon="17.6500645">
        <ele>32.3416</ele>
        <time>2013-05-09T12:06:26Z</time>
      </trkpt>
      <trkpt lat="59.9775778" lon="17.6502342">
        <ele>32.3416</ele>
        <time>2013-05-09T12:06:27Z</time>
      </trkpt>
      <trkpt lat="59.9775509" lon="17.6504042">
        <ele>32.3416</ele>
        <time>2013-05-09T12:06:28Z</time>
      </trkpt>
      <trkpt lat="59.9775249" lon="17.650576">
        <ele>32.3416</ele>
        <time>2013-05-09T12:06:29Z</time>
      </trkpt>
      <trkpt lat="59.9774996" lon="17.6507493">
        <ele>32.3416</ele>
        <time>2013-05-09T12:06:30Z</time>
      </trkpt>
      <trkpt lat="59.9774741" lon="17.6509233">
        <ele>32.3416</ele>
        <time>2013-05-09T12:06:31Z</time>
      </trkpt>
      <trkpt lat="59.9774484" lon="17.6510971">
        <ele>32.8223</ele>
        <time>2013-05-09T12:06:32Z</time>
      </trkpt>
      <trkpt lat="59.9774238" lon="17.6512703">
        <ele>32.8223</ele>
        <time>2013-05-09T12:06:33Z</time>
      </trkpt>
      <trkpt lat="59.9773997" lon="17.6514426">
        <ele>32.8223</ele>
        <time>2013-05-09T12:06:34Z</time>
      </trkpt>
      <trkpt lat="59.9773748" lon="17.6516154">
        <ele>33.3029</ele>
        <time>2013-05-09T12:06:35Z</time>
      </trkpt>
      <trkpt lat="59.97735" lon="17.6517857">
        <ele>33.3029</ele>
        <time>2013-05-09T12:06:36Z</time>
      </trkpt>
      <trkpt lat="59.9773267" lon="17.6519557">
        <ele>33.3029</ele>
        <time>2013-05-09T12:06:37Z</time>
      </trkpt>
      <trkpt lat="59.9773037" lon="17.6521257">
        <ele>33.7834</ele>
        <time>2013-05-09T12:06:38Z</time>
      </trkpt>
      <trkpt lat="59.9772795" lon="17.6522954">
        <ele>33.7834</ele>
        <time>2013-05-09T12:06:39Z</time>
      </trkpt>
      <trkpt lat="59.977255" lon="17.6524648">
        <ele>33.7834</ele>
        <time>2013-05-09T12:06:40Z</time>
      </trkpt>
      <trkpt lat="59.9772303" lon="17.6526347">
        <ele>34.2642</ele>
        <time>2013-05-09T12:06:41Z</time>
      </trkpt>
      <trkpt lat="59.9772064" lon="17.6528051">
        <ele>34.2642</ele>
        <time>2013-05-09T12:06:42Z</time>
      </trkpt>
      <trkpt lat="59.9771831" lon="17.6529763">
        <ele>34.2642</ele>
        <time>2013-05-09T12:06:43Z</time>
      </trkpt>
      <trkpt lat="59.9771588" lon="17.6531482">
        <ele>34.7449</ele>
        <time>2013-05-09T12:06:44Z</time>
      </trkpt>
      <trkpt lat="59.9771334" lon="17.6533206">
        <ele>34.7449</ele>
        <time>2013-05-09T12:06:45Z</time>
      </trkpt>
      <trkpt lat="59.977108" lon="17.6534931">
        <ele>34.7449</ele>
        <time>2013-05-09T12:06:46Z</time>
      </trkpt>
      <trkpt lat="59.9770826" lon="17.6536667">
        <ele>34.7449</ele>
        <time>2013-05-09T12:06:47Z</time>
      </trkpt>
      <trkpt lat="59.9770579" lon="17.6538412">
        <ele>35.2255</ele>
        <time>2013-05-09T12:06:48Z</time>
      </trkpt>
      <trkpt lat="59.9770349" lon="17.6540161">
        <ele>35.2255</ele>
        <time>2013-05-09T12:06:49Z</time>
      </trkpt>
      <trkpt lat="59.9770118" lon="17.6541897">
        <ele>35.2255</ele>
        <time>2013-05-09T12:06:50Z</time>
      </trkpt>
      <trkpt lat="59.9769872" lon="17.6543618">
        <ele>35.7061</ele>
        <time>2013-05-09T12:06:51Z</time>
      </trkpt>
      <trkpt lat="59.976963" lon="17.65453">
        <ele>35.7061</ele>
        <time>2013-05-09T12:06:52Z</time>
      </trkpt>
      <trkpt lat="59.9769392" lon="17.6546975">
        <ele>36.1868</ele>
        <time>2013-05-09T12:06:53Z</time>
      </trkpt>
      <trkpt lat="59.9769154" lon="17.6548646">
        <ele>36.1868</ele>
        <time>2013-05-09T12:06:54Z</time>
      </trkpt>
      <trkpt lat="59.9768916" lon="17.6550311">
        <ele>36.6675</ele>
        <time>2013-05-09T12:06:55Z</time>
      </trkpt>
      <trkpt lat="59.9768685" lon="17.6551989">
        <ele>36.6675</ele>
        <time>2013-05-09T12:06:56Z</time>
      </trkpt>
      <trkpt lat="59.9768463" lon="17.6553676">
        <ele>36.6675</ele>
        <time>2013-05-09T12:06:57Z</time>
      </trkpt>
      <trkpt lat="59.9768234" lon="17.6555331">
        <ele>37.1481</ele>
        <time>2013-05-09T12:06:58Z</time>
      </trkpt>
      <trkpt lat="59.9768003" lon="17.6556932">
        <ele>36.6675</ele>
        <time>2013-05-09T12:06:59Z</time>
      </trkpt>
      <trkpt lat="59.9767775" lon="17.6558501">
        <ele>36.1868</ele>
        <time>2013-05-09T12:07:00Z</time>
      </trkpt>
      <trkpt lat="59.976754" lon="17.6560056">
        <ele>36.1868</ele>
        <time>2013-05-09T12:07:01Z</time>
      </trkpt>
      <trkpt lat="59.9767304" lon="17.6561612">
        <ele>35.7061</ele>
        <time>2013-05-09T12:07:02Z</time>
      </trkpt>
      <trkpt lat="59.9767071" lon="17.6563153">
        <ele>35.2255</ele>
        <time>2013-05-09T12:07:03Z</time>
      </trkpt>
      <trkpt lat="59.9766843" lon="17.6564733">
        <ele>34.7449</ele>
        <time>2013-05-09T12:07:04Z</time>
      </trkpt>
      <trkpt lat="59.9766615" lon="17.6566333">
        <ele>34.2642</ele>
        <time>2013-05-09T12:07:05Z</time>
      </trkpt>
      <trkpt lat="59.9766377" lon="17.6567934">
        <ele>33.7834</ele>
        <time>2013-05-09T12:07:06Z</time>
      </trkpt>
      <trkpt lat="59.9766136" lon="17.6569534">
        <ele>33.3029</ele>
        <time>2013-05-09T12:07:07Z</time>
      </trkpt>
      <trkpt lat="59.9765884" lon="17.6571131">
        <ele>33.3029</ele>
        <time>2013-05-09T12:07:08Z</time>
      </trkpt>
      <trkpt lat="59.976561" lon="17.6572684">
        <ele>31.8607</ele>
        <time>2013-05-09T12:07:09Z</time>
      </trkpt>
      <trkpt lat="59.976536" lon="17.6574238">
        <ele>30.4188</ele>
        <time>2013-05-09T12:07:10Z</time>
      </trkpt>
      <trkpt lat="59.9765114" lon="17.6575821">
        <ele>29.4575</ele>
        <time>2013-05-09T12:07:11Z</time>
      </trkpt>
      <trkpt lat="59.9764863" lon="17.6577434">
        <ele>28.9769</ele>
        <time>2013-05-09T12:07:12Z</time>
      </trkpt>
      <trkpt lat="59.9764603" lon="17.657905">
        <ele>28.9769</ele>
        <time>2013-05-09T12:07:13Z</time>
      </trkpt>
      <trkpt lat="59.9764341" lon="17.6580682">
        <ele>28.9769</ele>
        <time>2013-05-09T12:07:14Z</time>
      </trkpt>
      <trkpt lat="59.9764077" lon="17.6582313">
        <ele>28.4962</ele>
        <time>2013-05-09T12:07:15Z</time>
      </trkpt>
      <trkpt lat="59.9763814" lon="17.658395">
        <ele>28.4962</ele>
        <time>2013-05-09T12:07:16Z</time>
      </trkpt>
      <trkpt lat="59.9763548" lon="17.6585594">
        <ele>28.4962</ele>
        <time>2013-05-09T12:07:17Z</time>
      </trkpt>
      <trkpt lat="59.9763263" lon="17.6587255">
        <ele>28.4962</ele>
        <time>2013-05-09T12:07:18Z</time>
      </trkpt>
      <trkpt lat="59.9762976" lon="17.6588913">
        <ele>28.0155</ele>
        <time>2013-05-09T12:07:19Z</time>
      </trkpt>
      <trkpt lat="59.9762689" lon="17.6590571">
        <ele>28.0155</ele>
        <time>2013-05-09T12:07:20Z</time>
      </trkpt>
      <trkpt lat="59.9762399" lon="17.6592226">
        <ele>27.5349</ele>
        <time>2013-05-09T12:07:21Z</time>
      </trkpt>
      <trkpt lat="59.9762103" lon="17.6593886">
        <ele>27.5349</ele>
        <time>2013-05-09T12:07:22Z</time>
      </trkpt>
      <trkpt lat="59.9761806" lon="17.659555">
        <ele>27.0543</ele>
        <time>2013-05-09T12:07:23Z</time>
      </trkpt>
      <trkpt lat="59.976151" lon="17.6597223">
        <ele>27.0543</ele>
        <time>2013-05-09T12:07:24Z</time>
      </trkpt>
      <trkpt lat="59.9761218" lon="17.6598907">
        <ele>26.5736</ele>
        <time>2013-05-09T12:07:25Z</time>
      </trkpt>
      <trkpt lat="59.9760935" lon="17.6600595">
        <ele>26.5736</ele>
        <time>2013-05-09T12:07:26Z</time>
      </trkpt>
      <trkpt lat="59.9760642" lon="17.660226">
        <ele>26.0929</ele>
        <time>2013-05-09T12:07:27Z</time>
      </trkpt>
      <trkpt lat="59.9760352" lon="17.6603909">
        <ele>26.0929</ele>
        <time>2013-05-09T12:07:28Z</time>
      </trkpt>
      <trkpt lat="59.9760061" lon="17.6605534">
        <ele>25.6123</ele>
        <time>2013-05-09T12:07:29Z</time>
      </trkpt>
      <trkpt lat="59.9759766" lon="17.6607186">
        <ele>25.6123</ele>
        <time>2013-05-09T12:07:30Z</time>
      </trkpt>
      <trkpt lat="59.975947" lon="17.6608815">
        <ele>26.0929</ele>
        <time>2013-05-09T12:07:31Z</time>
      </trkpt>
      <trkpt lat="59.9759164" lon="17.6610415">
        <ele>26.0929</ele>
        <time>2013-05-09T12:07:32Z</time>
      </trkpt>
      <trkpt lat="59.9758834" lon="17.6611958">
        <ele>26.5736</ele>
        <time>2013-05-09T12:07:33Z</time>
      </trkpt>
      <trkpt lat="59.9758501" lon="17.6613486">
        <ele>26.5736</ele>
        <time>2013-05-09T12:07:34Z</time>
      </trkpt>
      <trkpt lat="59.9758154" lon="17.6615">
        <ele>27.0543</ele>
        <time>2013-05-09T12:07:35Z</time>
      </trkpt>
      <trkpt lat="59.9757783" lon="17.6616467">
        <ele>27.0543</ele>
        <time>2013-05-09T12:07:36Z</time>
      </trkpt>
      <trkpt lat="59.9757377" lon="17.6617932">
        <ele>27.5349</ele>
        <time>2013-05-09T12:07:37Z</time>
      </trkpt>
      <trkpt lat="59.9756975" lon="17.6619425">
        <ele>27.5349</ele>
        <time>2013-05-09T12:07:38Z</time>
      </trkpt>
      <trkpt lat="59.9756566" lon="17.6620942">
        <ele>28.0155</ele>
        <time>2013-05-09T12:07:39Z</time>
      </trkpt>
      <trkpt lat="59.9756135" lon="17.662246">
        <ele>28.0155</ele>
        <time>2013-05-09T12:07:40Z</time>
      </trkpt>
      <trkpt lat="59.9755685" lon="17.6623827">
        <ele>25.6123</ele>
        <time>2013-05-09T12:07:41Z</time>
      </trkpt>
      <trkpt lat="59.9755244" lon="17.6625276">
        <ele>24.651</ele>
        <time>2013-05-09T12:07:42Z</time>
      </trkpt>
      <trkpt lat="59.9754818" lon="17.6626738">
        <ele>24.651</ele>
        <time>2013-05-09T12:07:43Z</time>
      </trkpt>
      <trkpt lat="59.9754384" lon="17.6628171">
        <ele>23.6896</ele>
        <time>2013-05-09T12:07:44Z</time>
      </trkpt>
      <trkpt lat="59.9753947" lon="17.6629643">
        <ele>22.7283</ele>
        <time>2013-05-09T12:07:45Z</time>
      </trkpt>
      <trkpt lat="59.9753508" lon="17.6631197">
        <ele>22.7283</ele>
        <time>2013-05-09T12:07:46Z</time>
      </trkpt>
      <trkpt lat="59.9753073" lon="17.6632761">
        <ele>22.7283</ele>
        <time>2013-05-09T12:07:47Z</time>
      </trkpt>
      <trkpt lat="59.9752643" lon="17.6634358">
        <ele>22.7283</ele>
        <time>2013-05-09T12:07:48Z</time>
      </trkpt>
      <trkpt lat="59.9752202" lon="17.6635972">
        <ele>23.209</ele>
        <time>2013-05-09T12:07:49Z</time>
      </trkpt>
      <trkpt lat="59.9751764" lon="17.6637579">
        <ele>23.209</ele>
        <time>2013-05-09T12:07:50Z</time>
      </trkpt>
      <trkpt lat="59.9751334" lon="17.6639139">
        <ele>23.209</ele>
        <time>2013-05-09T12:07:51Z</time>
      </trkpt>
      <trkpt lat="59.9750904" lon="17.664065">
        <ele>23.6896</ele>
        <time>2013-05-09T12:07:52Z</time>
      </trkpt>
      <trkpt lat="59.9750485" lon="17.6642128">
        <ele>24.1703</ele>
        <time>2013-05-09T12:07:53Z</time>
      </trkpt>
      <trkpt lat="59.9750074" lon="17.6643587">
        <ele>24.651</ele>
        <time>2013-05-09T12:07:54Z</time>
      </trkpt>
      <trkpt lat="59.9749665" lon="17.6645033">
        <ele>25.6123</ele>
        <time>2013-05-09T12:07:55Z</time>
      </trkpt>
      <trkpt lat="59.9749232" lon="17.6646432">
        <ele>25.6123</ele>
        <time>2013-05-09T12:07:56Z</time>
      </trkpt>
      <trkpt lat="59.9748784" lon="17.6647783">
        <ele>25.6123</ele>
        <time>2013-05-09T12:07:57Z</time>
      </trkpt>
      <trkpt lat="59.9748384" lon="17.6649163">
        <ele>26.5736</ele>
        <time>2013-05-09T12:07:58Z</time>
      </trkpt>
      <trkpt lat="59.9747994" lon="17.6650525">
        <ele>27.5349</ele>
        <time>2013-05-09T12:07:59Z</time>
      </trkpt>
      <trkpt lat="59.9747602" lon="17.6651836">
        <ele>28.0155</ele>
        <time>2013-05-09T12:08:00Z</time>
      </trkpt>
      <trkpt lat="59.974722" lon="17.6653151">
        <ele>28.9769</ele>
        <time>2013-05-09T12:08:01Z</time>
      </trkpt>
      <trkpt lat="59.9746879" lon="17.6654502">
        <ele>29.9381</ele>
        <time>2013-05-09T12:08:02Z</time>
      </trkpt>
      <trkpt lat="59.9746558" lon="17.6655812">
        <ele>30.8995</ele>
        <time>2013-05-09T12:08:03Z</time>
      </trkpt>
      <trkpt lat="59.9746225" lon="17.6657145">
        <ele>31.8607</ele>
        <time>2013-05-09T12:08:04Z</time>
      </trkpt>
      <trkpt lat="59.9745927" lon="17.6658452">
        <ele>32.8223</ele>
        <time>2013-05-09T12:08:05Z</time>
      </trkpt>
      <trkpt lat="59.9745645" lon="17.6659702">
        <ele>32.3416</ele>
        <time>2013-05-09T12:08:06Z</time>
      </trkpt>
      <trkpt lat="59.9745375" lon="17.6661015">
        <ele>32.8223</ele>
        <time>2013-05-09T12:08:07Z</time>
      </trkpt>
      <trkpt lat="59.9745111" lon="17.6662284">
        <ele>33.3029</ele>
        <time>2013-05-09T12:08:08Z</time>
      </trkpt>
      <trkpt lat="59.9744885" lon="17.6663684">
        <ele>33.7834</ele>
        <time>2013-05-09T12:08:09Z</time>
      </trkpt>
      <trkpt lat="59.9744639" lon="17.6665131">
        <ele>34.2642</ele>
        <time>2013-05-09T12:08:10Z</time>
      </trkpt>
      <trkpt lat="59.974435" lon="17.666673">
        <ele>33.7834</ele>
        <time>2013-05-09T12:08:11Z</time>
      </trkpt>
      <trkpt lat="59.9744033" lon="17.666835">
        <ele>33.3029</ele>
        <time>2013-05-09T12:08:12Z</time>
      </trkpt>
      <trkpt lat="59.9743748" lon="17.6670122">
        <ele>32.3416</ele>
        <time>2013-05-09T12:08:13Z</time>
      </trkpt>
      <trkpt lat="59.9743522" lon="17.6671925">
        <ele>32.3416</ele>
        <time>2013-05-09T12:08:14Z</time>
      </trkpt>
      <trkpt lat="59.9743284" lon="17.6673701">
        <ele>32.3416</ele>
        <time>2013-05-09T12:08:15Z</time>
      </trkpt>
      <trkpt lat="59.9743046" lon="17.6675421">
        <ele>31.8607</ele>
        <time>2013-05-09T12:08:16Z</time>
      </trkpt>
      <trkpt lat="59.9742812" lon="17.6677185">
        <ele>31.8607</ele>
        <time>2013-05-09T12:08:17Z</time>
      </trkpt>
      <trkpt lat="59.974257" lon="17.6678965">
        <ele>31.8607</ele>
        <time>2013-05-09T12:08:18Z</time>
      </trkpt>
      <trkpt lat="59.974232" lon="17.6680716">
        <ele>31.8607</ele>
        <time>2013-05-09T12:08:19Z</time>
      </trkpt>
      <trkpt lat="59.9742083" lon="17.668243">
        <ele>31.8607</ele>
        <time>2013-05-09T12:08:20Z</time>
      </trkpt>
      <trkpt lat="59.9741819" lon="17.6684139">
        <ele>31.8607</ele>
        <time>2013-05-09T12:08:21Z</time>
      </trkpt>
      <trkpt lat="59.9741541" lon="17.6685838">
        <ele>32.3416</ele>
        <time>2013-05-09T12:08:22Z</time>
      </trkpt>
      <trkpt lat="59.9741247" lon="17.6687511">
        <ele>32.3416</ele>
        <time>2013-05-09T12:08:23Z</time>
      </trkpt>
      <trkpt lat="59.9740921" lon="17.6689138">
        <ele>32.3416</ele>
        <time>2013-05-09T12:08:24Z</time>
      </trkpt>
      <trkpt lat="59.9740579" lon="17.6690733">
        <ele>32.3416</ele>
        <time>2013-05-09T12:08:25Z</time>
      </trkpt>
      <trkpt lat="59.9740239" lon="17.6692302">
        <ele>32.8223</ele>
        <time>2013-05-09T12:08:26Z</time>
      </trkpt>
      <trkpt lat="59.9739912" lon="17.6693849">
        <ele>33.3029</ele>
        <time>2013-05-09T12:08:27Z</time>
      </trkpt>
      <trkpt lat="59.973957" lon="17.6695358">
        <ele>33.3029</ele>
        <time>2013-05-09T12:08:28Z</time>
      </trkpt>
      <trkpt lat="59.9739234" lon="17.6696849">
        <ele>33.3029</ele>
        <time>2013-05-09T12:08:29Z</time>
      </trkpt>
      <trkpt lat="59.9738896" lon="17.6698305">
        <ele>33.3029</ele>
        <time>2013-05-09T12:08:30Z</time>
      </trkpt>
      <trkpt lat="59.9738538" lon="17.6699782">
        <ele>33.3029</ele>
        <time>2013-05-09T12:08:31Z</time>
      </trkpt>
      <trkpt lat="59.9738144" lon="17.6701269">
        <ele>33.7834</ele>
        <time>2013-05-09T12:08:32Z</time>
      </trkpt>
      <trkpt lat="59.9737719" lon="17.6702689">
        <ele>33.7834</ele>
        <time>2013-05-09T12:08:33Z</time>
      </trkpt>
      <trkpt lat="59.9737242" lon="17.6704112">
        <ele>33.3029</ele>
        <time>2013-05-09T12:08:34Z</time>
      </trkpt>
      <trkpt lat="59.9736746" lon="17.6705518">
        <ele>33.7834</ele>
        <time>2013-05-09T12:08:35Z</time>
      </trkpt>
      <trkpt lat="59.9736222" lon="17.6706878">
        <ele>33.7834</ele>
        <time>2013-05-09T12:08:36Z</time>
      </trkpt>
      <trkpt lat="59.9735669" lon="17.6708185">
        <ele>33.7834</ele>
        <time>2013-05-09T12:08:37Z</time>
      </trkpt>
      <trkpt lat="59.9735085" lon="17.6709418">
        <ele>33.7834</ele>
        <time>2013-05-09T12:08:38Z</time>
      </trkpt>
      <trkpt lat="59.9734484" lon="17.6710625">
        <ele>33.7834</ele>
        <time>2013-05-09T12:08:39Z</time>
      </trkpt>
      <trkpt lat="59.9733862" lon="17.6711773">
        <ele>33.7834</ele>
        <time>2013-05-09T12:08:40Z</time>
      </trkpt>
      <trkpt lat="59.973323" lon="17.6712841">
        <ele>33.7834</ele>
        <time>2013-05-09T12:08:41Z</time>
      </trkpt>
      <trkpt lat="59.9732566" lon="17.6713842">
        <ele>33.7834</ele>
        <time>2013-05-09T12:08:42Z</time>
      </trkpt>
      <trkpt lat="59.9731876" lon="17.6714777">
        <ele>33.7834</ele>
        <time>2013-05-09T12:08:43Z</time>
      </trkpt>
      <trkpt lat="59.9731163" lon="17.671566">
        <ele>33.7834</ele>
        <time>2013-05-09T12:08:44Z</time>
      </trkpt>
      <trkpt lat="59.9730431" lon="17.6716473">
        <ele>33.7834</ele>
        <time>2013-05-09T12:08:45Z</time>
      </trkpt>
      <trkpt lat="59.9729677" lon="17.6717155">
        <ele>33.7834</ele>
        <time>2013-05-09T12:08:46Z</time>
      </trkpt>
      <trkpt lat="59.9728893" lon="17.6717779">
        <ele>34.2642</ele>
        <time>2013-05-09T12:08:47Z</time>
      </trkpt>
      <trkpt lat="59.972809" lon="17.6718342">
        <ele>34.2642</ele>
        <time>2013-05-09T12:08:48Z</time>
      </trkpt>
      <trkpt lat="59.9727273" lon="17.6718857">
        <ele>34.7449</ele>
        <time>2013-05-09T12:08:49Z</time>
      </trkpt>
      <trkpt lat="59.9726453" lon="17.6719343">
        <ele>34.7449</ele>
        <time>2013-05-09T12:08:50Z</time>
      </trkpt>
      <trkpt lat="59.9725629" lon="17.6719804">
        <ele>35.2255</ele>
        <time>2013-05-09T12:08:51Z</time>
      </trkpt>
      <trkpt lat="59.9724796" lon="17.6720271">
        <ele>34.7449</ele>
        <time>2013-05-09T12:08:52Z</time>
      </trkpt>
      <trkpt lat="59.9723973" lon="17.6720742">
        <ele>34.7449</ele>
        <time>2013-05-09T12:08:53Z</time>
      </trkpt>
      <trkpt lat="59.9723159" lon="17.6721269">
        <ele>35.2255</ele>
        <time>2013-05-09T12:08:54Z</time>
      </trkpt>
      <trkpt lat="59.9722361" lon="17.6721824">
        <ele>35.2255</ele>
        <time>2013-05-09T12:08:55Z</time>
      </trkpt>
      <trkpt lat="59.9721574" lon="17.6722388">
        <ele>35.2255</ele>
        <time>2013-05-09T12:08:56Z</time>
      </trkpt>
      <trkpt lat="59.9720792" lon="17.6722952">
        <ele>35.2255</ele>
        <time>2013-05-09T12:08:57Z</time>
      </trkpt>
      <trkpt lat="59.9720028" lon="17.6723555">
        <ele>35.2255</ele>
        <time>2013-05-09T12:08:58Z</time>
      </trkpt>
      <trkpt lat="59.9719282" lon="17.672422">
        <ele>35.2255</ele>
        <time>2013-05-09T12:08:59Z</time>
      </trkpt>
      <trkpt lat="59.9718552" lon="17.6724937">
        <ele>35.2255</ele>
        <time>2013-05-09T12:09:00Z</time>
      </trkpt>
      <trkpt lat="59.9717833" lon="17.67257">
        <ele>35.2255</ele>
        <time>2013-05-09T12:09:01Z</time>
      </trkpt>
      <trkpt lat="59.9717123" lon="17.6726521">
        <ele>35.2255</ele>
        <time>2013-05-09T12:09:02Z</time>
      </trkpt>
      <trkpt lat="59.9716425" lon="17.6727373">
        <ele>35.2255</ele>
        <time>2013-05-09T12:09:03Z</time>
      </trkpt>
      <trkpt lat="59.9715744" lon="17.6728268">
        <ele>35.2255</ele>
        <time>2013-05-09T12:09:04Z</time>
      </trkpt>
      <trkpt lat="59.9715073" lon="17.6729189">
        <ele>35.2255</ele>
        <time>2013-05-09T12:09:05Z</time>
      </trkpt>
      <trkpt lat="59.9714416" lon="17.6730139">
        <ele>35.2255</ele>
        <time>2013-05-09T12:09:06Z</time>
      </trkpt>
      <trkpt lat="59.9713773" lon="17.6731138">
        <ele>35.2255</ele>
        <time>2013-05-09T12:09:07Z</time>
      </trkpt>
      <trkpt lat="59.9713141" lon="17.6732198">
        <ele>35.2255</ele>
        <time>2013-05-09T12:09:08Z</time>
      </trkpt>
      <trkpt lat="59.971252" lon="17.6733353">
        <ele>35.7061</ele>
        <time>2013-05-09T12:09:09Z</time>
      </trkpt>
      <trkpt lat="59.9711899" lon="17.6734442">
        <ele>35.2255</ele>
        <time>2013-05-09T12:09:10Z</time>
      </trkpt>
      <trkpt lat="59.9711279" lon="17.6735531">
        <ele>34.7449</ele>
        <time>2013-05-09T12:09:11Z</time>
      </trkpt>
      <trkpt lat="59.9710654" lon="17.6736618">
        <ele>34.7449</ele>
        <time>2013-05-09T12:09:12Z</time>
      </trkpt>
      <trkpt lat="59.9710041" lon="17.6737699">
        <ele>34.7449</ele>
        <time>2013-05-09T12:09:13Z</time>
      </trkpt>
      <trkpt lat="59.9709443" lon="17.6738797">
        <ele>34.7449</ele>
        <time>2013-05-09T12:09:14Z</time>
      </trkpt>
      <trkpt lat="59.9708847" lon="17.6739831">
        <ele>34.2642</ele>
        <time>2013-05-09T12:09:15Z</time>
      </trkpt>
      <trkpt lat="59.9708256" lon="17.6740902">
        <ele>34.2642</ele>
        <time>2013-05-09T12:09:16Z</time>
      </trkpt>
      <trkpt lat="59.9707674" lon="17.674197">
        <ele>34.2642</ele>
        <time>2013-05-09T12:09:17Z</time>
      </trkpt>
      <trkpt lat="59.9707096" lon="17.674305">
        <ele>34.2642</ele>
        <time>2013-05-09T12:09:18Z</time>
      </trkpt>
      <trkpt lat="59.9706519" lon="17.6744123">
        <ele>34.7449</ele>
        <time>2013-05-09T12:09:19Z</time>
      </trkpt>
      <trkpt lat="59.9705944" lon="17.6745164">
        <ele>34.7449</ele>
        <time>2013-05-09T12:09:20Z</time>
      </trkpt>
      <trkpt lat="59.9705366" lon="17.6746189">
        <ele>34.7449</ele>
        <time>2013-05-09T12:09:21Z</time>
      </trkpt>
      <trkpt lat="59.9704785" lon="17.6747218">
        <ele>34.7449</ele>
        <time>2013-05-09T12:09:22Z</time>
      </trkpt>
      <trkpt lat="59.97042" lon="17.6748258">
        <ele>34.7449</ele>
        <time>2013-05-09T12:09:23Z</time>
      </trkpt>
      <trkpt lat="59.970362" lon="17.6749326">
        <ele>35.2255</ele>
        <time>2013-05-09T12:09:24Z</time>
      </trkpt>
      <trkpt lat="59.9703039" lon="17.6750397">
        <ele>35.2255</ele>
        <time>2013-05-09T12:09:25Z</time>
      </trkpt>
      <trkpt lat="59.9702453" lon="17.6751474">
        <ele>35.2255</ele>
        <time>2013-05-09T12:09:26Z</time>
      </trkpt>
      <trkpt lat="59.9701859" lon="17.6752521">
        <ele>35.2255</ele>
        <time>2013-05-09T12:09:27Z</time>
      </trkpt>
      <trkpt lat="59.9701263" lon="17.6753568">
        <ele>35.2255</ele>
        <time>2013-05-09T12:09:28Z</time>
      </trkpt>
      <trkpt lat="59.9700673" lon="17.6754609">
        <ele>35.2255</ele>
        <time>2013-05-09T12:09:29Z</time>
      </trkpt>
      <trkpt lat="59.9700081" lon="17.6755645">
        <ele>34.2642</ele>
        <time>2013-05-09T12:09:30Z</time>
      </trkpt>
      <trkpt lat="59.9699505" lon="17.6756752">
        <ele>34.7449</ele>
        <time>2013-05-09T12:09:31Z</time>
      </trkpt>
      <trkpt lat="59.9698926" lon="17.675786">
        <ele>35.2255</ele>
        <time>2013-05-09T12:09:32Z</time>
      </trkpt>
      <trkpt lat="59.9698326" lon="17.6758953">
        <ele>35.2255</ele>
        <time>2013-05-09T12:09:33Z</time>
      </trkpt>
      <trkpt lat="59.9697718" lon="17.6759935">
        <ele>34.2642</ele>
        <time>2013-05-09T12:09:34Z</time>
      </trkpt>
      <trkpt lat="59.969712" lon="17.6760987">
        <ele>33.7834</ele>
        <time>2013-05-09T12:09:35Z</time>
      </trkpt>
      <trkpt lat="59.9696523" lon="17.6762064">
        <ele>33.7834</ele>
        <time>2013-05-09T12:09:36Z</time>
      </trkpt>
      <trkpt lat="59.969593" lon="17.6763131">
        <ele>33.7834</ele>
        <time>2013-05-09T12:09:37Z</time>
      </trkpt>
      <trkpt lat="59.9695347" lon="17.6764223">
        <ele>33.7834</ele>
        <time>2013-05-09T12:09:38Z</time>
      </trkpt>
      <trkpt lat="59.9694782" lon="17.6765394">
        <ele>34.7449</ele>
        <time>2013-05-09T12:09:39Z</time>
      </trkpt>
      <trkpt lat="59.9694232" lon="17.6766552">
        <ele>34.7449</ele>
        <time>2013-05-09T12:09:40Z</time>
      </trkpt>
      <trkpt lat="59.9693683" lon="17.6767725">
        <ele>34.7449</ele>
        <time>2013-05-09T12:09:41Z</time>
      </trkpt>
      <trkpt lat="59.9693151" lon="17.6768926">
        <ele>35.2255</ele>
        <time>2013-05-09T12:09:42Z</time>
      </trkpt>
      <trkpt lat="59.9692643" lon="17.6770168">
        <ele>35.2255</ele>
        <time>2013-05-09T12:09:43Z</time>
      </trkpt>
      <trkpt lat="59.9692161" lon="17.677145">
        <ele>35.2255</ele>
        <time>2013-05-09T12:09:44Z</time>
      </trkpt>
      <trkpt lat="59.9691695" lon="17.6772754">
        <ele>35.2255</ele>
        <time>2013-05-09T12:09:45Z</time>
      </trkpt>
      <trkpt lat="59.9691251" lon="17.6774091">
        <ele>35.2255</ele>
        <time>2013-05-09T12:09:46Z</time>
      </trkpt>
      <trkpt lat="59.969084" lon="17.6775475">
        <ele>36.1868</ele>
        <time>2013-05-09T12:09:47Z</time>
      </trkpt>
      <trkpt lat="59.9690426" lon="17.6776814">
        <ele>34.7449</ele>
        <time>2013-05-09T12:09:48Z</time>
      </trkpt>
      <trkpt lat="59.9690051" lon="17.677819">
        <ele>34.7449</ele>
        <time>2013-05-09T12:09:49Z</time>
      </trkpt>
      <trkpt lat="59.9689696" lon="17.6779576">
        <ele>35.2255</ele>
        <time>2013-05-09T12:09:50Z</time>
      </trkpt>
      <trkpt lat="59.9689364" lon="17.6780975">
        <ele>35.2255</ele>
        <time>2013-05-09T12:09:51Z</time>
      </trkpt>
      <trkpt lat="59.9689046" lon="17.678239">
        <ele>35.2255</ele>
        <time>2013-05-09T12:09:52Z</time>
      </trkpt>
      <trkpt lat="59.9688737" lon="17.6783824">
        <ele>35.2255</ele>
        <time>2013-05-09T12:09:53Z</time>
      </trkpt>
      <trkpt lat="59.9688437" lon="17.678528">
        <ele>35.7061</ele>
        <time>2013-05-09T12:09:54Z</time>
      </trkpt>
      <trkpt lat="59.9688142" lon="17.6786767">
        <ele>35.7061</ele>
        <time>2013-05-09T12:09:55Z</time>
      </trkpt>
      <trkpt lat="59.9687863" lon="17.678827">
        <ele>35.2255</ele>
        <time>2013-05-09T12:09:56Z</time>
      </trkpt>
      <trkpt lat="59.9687578" lon="17.6789792">
        <ele>35.2255</ele>
        <time>2013-05-09T12:09:57Z</time>
      </trkpt>
      <trkpt lat="59.9687305" lon="17.679132">
        <ele>35.2255</ele>
        <time>2013-05-09T12:09:58Z</time>
      </trkpt>
      <trkpt lat="59.9687031" lon="17.6792869">
        <ele>35.2255</ele>
        <time>2013-05-09T12:09:59Z</time>
      </trkpt>
      <trkpt lat="59.9686748" lon="17.6794443">
        <ele>34.7449</ele>
        <time>2013-05-09T12:10:00Z</time>
      </trkpt>
      <trkpt lat="59.9686451" lon="17.6796013">
        <ele>34.7449</ele>
        <time>2013-05-09T12:10:01Z</time>
      </trkpt>
      <trkpt lat="59.9686156" lon="17.6797599">
        <ele>34.7449</ele>
        <time>2013-05-09T12:10:02Z</time>
      </trkpt>
      <trkpt lat="59.9685868" lon="17.6799225">
        <ele>35.2255</ele>
        <time>2013-05-09T12:10:03Z</time>
      </trkpt>
      <trkpt lat="59.9685599" lon="17.6800842">
        <ele>35.2255</ele>
        <time>2013-05-09T12:10:04Z</time>
      </trkpt>
      <trkpt lat="59.9685344" lon="17.6802443">
        <ele>35.7061</ele>
        <time>2013-05-09T12:10:05Z</time>
      </trkpt>
      <trkpt lat="59.9685065" lon="17.6804037">
        <ele>35.7061</ele>
        <time>2013-05-09T12:10:06Z</time>
      </trkpt>
      <trkpt lat="59.9684767" lon="17.6805637">
        <ele>36.1868</ele>
        <time>2013-05-09T12:10:07Z</time>
      </trkpt>
      <trkpt lat="59.9684464" lon="17.6807234">
        <ele>36.1868</ele>
        <time>2013-05-09T12:10:08Z</time>
      </trkpt>
      <trkpt lat="59.9684174" lon="17.6808838">
        <ele>36.6675</ele>
        <time>2013-05-09T12:10:09Z</time>
      </trkpt>
      <trkpt lat="59.9683895" lon="17.6810445">
        <ele>36.6675</ele>
        <time>2013-05-09T12:10:10Z</time>
      </trkpt>
      <trkpt lat="59.9683614" lon="17.6812051">
        <ele>37.1481</ele>
        <time>2013-05-09T12:10:11Z</time>
      </trkpt>
      <trkpt lat="59.9683325" lon="17.6813648">
        <ele>37.1481</ele>
        <time>2013-05-09T12:10:12Z</time>
      </trkpt>
      <trkpt lat="59.9683018" lon="17.6815257">
        <ele>37.1481</ele>
        <time>2013-05-09T12:10:13Z</time>
      </trkpt>
      <trkpt lat="59.9682726" lon="17.6816868">
        <ele>36.6675</ele>
        <time>2013-05-09T12:10:14Z</time>
      </trkpt>
      <trkpt lat="59.9682438" lon="17.681847">
        <ele>36.1868</ele>
        <time>2013-05-09T12:10:15Z</time>
      </trkpt>
      <trkpt lat="59.9682139" lon="17.682004">
        <ele>36.1868</ele>
        <time>2013-05-09T12:10:16Z</time>
      </trkpt>
      <trkpt lat="59.9681828" lon="17.6821592">
        <ele>35.7061</ele>
        <time>2013-05-09T12:10:17Z</time>
      </trkpt>
      <trkpt lat="59.9681542" lon="17.6823157">
        <ele>35.7061</ele>
        <time>2013-05-09T12:10:18Z</time>
      </trkpt>
      <trkpt lat="59.9681258" lon="17.6824721">
        <ele>36.1868</ele>
        <time>2013-05-09T12:10:19Z</time>
      </trkpt>
      <trkpt lat="59.9680977" lon="17.6826305">
        <ele>36.6675</ele>
        <time>2013-05-09T12:10:20Z</time>
      </trkpt>
      <trkpt lat="59.9680693" lon="17.6827886">
        <ele>37.1481</ele>
        <time>2013-05-09T12:10:21Z</time>
      </trkpt>
      <trkpt lat="59.9680403" lon="17.6829456">
        <ele>37.1481</ele>
        <time>2013-05-09T12:10:22Z</time>
      </trkpt>
      <trkpt lat="59.9680123" lon="17.6831041">
        <ele>37.1481</ele>
        <time>2013-05-09T12:10:23Z</time>
      </trkpt>
      <trkpt lat="59.9679848" lon="17.6832614">
        <ele>37.6287</ele>
        <time>2013-05-09T12:10:24Z</time>
      </trkpt>
      <trkpt lat="59.9679587" lon="17.6834143">
        <ele>38.1094</ele>
        <time>2013-05-09T12:10:25Z</time>
      </trkpt>
      <trkpt lat="59.9679313" lon="17.6835683">
        <ele>38.1094</ele>
        <time>2013-05-09T12:10:26Z</time>
      </trkpt>
      <trkpt lat="59.9679055" lon="17.6837214">
        <ele>38.5901</ele>
        <time>2013-05-09T12:10:27Z</time>
      </trkpt>
      <trkpt lat="59.9678801" lon="17.6838729">
        <ele>38.5901</ele>
        <time>2013-05-09T12:10:28Z</time>
      </trkpt>
      <trkpt lat="59.9678507" lon="17.6840208">
        <ele>38.1094</ele>
        <time>2013-05-09T12:10:29Z</time>
      </trkpt>
      <trkpt lat="59.9678227" lon="17.6841661">
        <ele>38.1094</ele>
        <time>2013-05-09T12:10:30Z</time>
      </trkpt>
      <trkpt lat="59.9677937" lon="17.6843085">
        <ele>37.6287</ele>
        <time>2013-05-09T12:10:31Z</time>
      </trkpt>
      <trkpt lat="59.9677645" lon="17.6844453">
        <ele>37.1481</ele>
        <time>2013-05-09T12:10:32Z</time>
      </trkpt>
      <trkpt lat="59.9677346" lon="17.6845824">
        <ele>35.7061</ele>
        <time>2013-05-09T12:10:33Z</time>
      </trkpt>
      <trkpt lat="59.9677061" lon="17.6847218">
        <ele>34.2642</ele>
        <time>2013-05-09T12:10:34Z</time>
      </trkpt>
      <trkpt lat="59.9676783" lon="17.6848639">
        <ele>33.7834</ele>
        <time>2013-05-09T12:10:35Z</time>
      </trkpt>
      <trkpt lat="59.9676544" lon="17.6850043">
        <ele>33.7834</ele>
        <time>2013-05-09T12:10:36Z</time>
      </trkpt>
      <trkpt lat="59.9676305" lon="17.6851449">
        <ele>34.2642</ele>
        <time>2013-05-09T12:10:37Z</time>
      </trkpt>
      <trkpt lat="59.9676073" lon="17.6852854">
        <ele>34.2642</ele>
        <time>2013-05-09T12:10:38Z</time>
      </trkpt>
      <trkpt lat="59.967584" lon="17.6854269">
        <ele>34.7449</ele>
        <time>2013-05-09T12:10:39Z</time>
      </trkpt>
      <trkpt lat="59.9675616" lon="17.6855692">
        <ele>35.2255</ele>
        <time>2013-05-09T12:10:40Z</time>
      </trkpt>
      <trkpt lat="59.9675382" lon="17.6857086">
        <ele>35.2255</ele>
        <time>2013-05-09T12:10:41Z</time>
      </trkpt>
      <trkpt lat="59.9675123" lon="17.6858464">
        <ele>35.2255</ele>
        <time>2013-05-09T12:10:42Z</time>
      </trkpt>
      <trkpt lat="59.9674875" lon="17.6859854">
        <ele>35.2255</ele>
        <time>2013-05-09T12:10:43Z</time>
      </trkpt>
      <trkpt lat="59.9674632" lon="17.6861253">
        <ele>35.2255</ele>
        <time>2013-05-09T12:10:44Z</time>
      </trkpt>
      <trkpt lat="59.96744" lon="17.6862674">
        <ele>35.2255</ele>
        <time>2013-05-09T12:10:45Z</time>
      </trkpt>
      <trkpt lat="59.9674161" lon="17.6864075">
        <ele>35.2255</ele>
        <time>2013-05-09T12:10:46Z</time>
      </trkpt>
      <trkpt lat="59.96739" lon="17.6865392">
        <ele>34.7449</ele>
        <time>2013-05-09T12:10:47Z</time>
      </trkpt>
      <trkpt lat="59.9673623" lon="17.6866686">
        <ele>34.7449</ele>
        <time>2013-05-09T12:10:48Z</time>
      </trkpt>
      <trkpt lat="59.9673361" lon="17.6867965">
        <ele>34.7449</ele>
        <time>2013-05-09T12:10:49Z</time>
      </trkpt>
      <trkpt lat="59.9673113" lon="17.6869213">
        <ele>34.7449</ele>
        <time>2013-05-09T12:10:50Z</time>
      </trkpt>
      <trkpt lat="59.9672871" lon="17.6870424">
        <ele>34.7449</ele>
        <time>2013-05-09T12:10:51Z</time>
      </trkpt>
      <trkpt lat="59.9672647" lon="17.6871564">
        <ele>35.2255</ele>
        <time>2013-05-09T12:10:52Z</time>
      </trkpt>
      <trkpt lat="59.9672496" lon="17.6872719">
        <ele>35.7061</ele>
        <time>2013-05-09T12:10:53Z</time>
      </trkpt>
      <trkpt lat="59.967234" lon="17.6873907">
        <ele>35.7061</ele>
        <time>2013-05-09T12:10:54Z</time>
      </trkpt>
      <trkpt lat="59.9672087" lon="17.6875109">
        <ele>35.7061</ele>
        <time>2013-05-09T12:10:55Z</time>
      </trkpt>
      <trkpt lat="59.9671782" lon="17.6876263">
        <ele>36.1868</ele>
        <time>2013-05-09T12:10:56Z</time>
      </trkpt>
      <trkpt lat="59.9671446" lon="17.6877423">
        <ele>36.1868</ele>
        <time>2013-05-09T12:10:57Z</time>
      </trkpt>
      <trkpt lat="59.9671064" lon="17.687862">
        <ele>35.2255</ele>
        <time>2013-05-09T12:10:58Z</time>
      </trkpt>
      <trkpt lat="59.9670685" lon="17.6879839">
        <ele>34.2642</ele>
        <time>2013-05-09T12:10:59Z</time>
      </trkpt>
      <trkpt lat="59.9670326" lon="17.6881055">
        <ele>33.7834</ele>
        <time>2013-05-09T12:11:00Z</time>
      </trkpt>
      <trkpt lat="59.9669976" lon="17.6882309">
        <ele>33.7834</ele>
        <time>2013-05-09T12:11:01Z</time>
      </trkpt>
      <trkpt lat="59.9669663" lon="17.6883597">
        <ele>33.7834</ele>
        <time>2013-05-09T12:11:02Z</time>
      </trkpt>
      <trkpt lat="59.9669365" lon="17.6884935">
        <ele>33.7834</ele>
        <time>2013-05-09T12:11:03Z</time>
      </trkpt>
      <trkpt lat="59.9669078" lon="17.6886334">
        <ele>34.2642</ele>
        <time>2013-05-09T12:11:04Z</time>
      </trkpt>
      <trkpt lat="59.9668788" lon="17.6887733">
        <ele>34.7449</ele>
        <time>2013-05-09T12:11:05Z</time>
      </trkpt>
      <trkpt lat="59.9668525" lon="17.6889165">
        <ele>34.7449</ele>
        <time>2013-05-09T12:11:06Z</time>
      </trkpt>
      <trkpt lat="59.9668293" lon="17.6890626">
        <ele>35.2255</ele>
        <time>2013-05-09T12:11:07Z</time>
      </trkpt>
      <trkpt lat="59.9668082" lon="17.6892099">
        <ele>35.2255</ele>
        <time>2013-05-09T12:11:08Z</time>
      </trkpt>
      <trkpt lat="59.9667898" lon="17.6893595">
        <ele>35.2255</ele>
        <time>2013-05-09T12:11:09Z</time>
      </trkpt>
      <trkpt lat="59.9667747" lon="17.6895107">
        <ele>35.7061</ele>
        <time>2013-05-09T12:11:10Z</time>
      </trkpt>
      <trkpt lat="59.9667616" lon="17.6896626">
        <ele>35.7061</ele>
        <time>2013-05-09T12:11:11Z</time>
      </trkpt>
      <trkpt lat="59.9667482" lon="17.6898158">
        <ele>36.1868</ele>
        <time>2013-05-09T12:11:12Z</time>
      </trkpt>
      <trkpt lat="59.9667342" lon="17.6899701">
        <ele>35.7061</ele>
        <time>2013-05-09T12:11:13Z</time>
      </trkpt>
      <trkpt lat="59.9667208" lon="17.6901283">
        <ele>35.7061</ele>
        <time>2013-05-09T12:11:14Z</time>
      </trkpt>
      <trkpt lat="59.9667083" lon="17.6902926">
        <ele>35.7061</ele>
        <time>2013-05-09T12:11:15Z</time>
      </trkpt>
      <trkpt lat="59.9666941" lon="17.6904662">
        <ele>34.7449</ele>
        <time>2013-05-09T12:11:16Z</time>
      </trkpt>
      <trkpt lat="59.9666793" lon="17.6906448">
        <ele>34.2642</ele>
        <time>2013-05-09T12:11:17Z</time>
      </trkpt>
      <trkpt lat="59.9666619" lon="17.690828">
        <ele>33.3029</ele>
        <time>2013-05-09T12:11:18Z</time>
      </trkpt>
      <trkpt lat="59.966639" lon="17.6910163">
        <ele>32.8223</ele>
        <time>2013-05-09T12:11:19Z</time>
      </trkpt>
      <trkpt lat="59.9666111" lon="17.6912061">
        <ele>32.3416</ele>
        <time>2013-05-09T12:11:20Z</time>
      </trkpt>
      <trkpt lat="59.9665762" lon="17.6913941">
        <ele>32.3416</ele>
        <time>2013-05-09T12:11:21Z</time>
      </trkpt>
      <trkpt lat="59.966536" lon="17.6915783">
        <ele>32.3416</ele>
        <time>2013-05-09T12:11:22Z</time>
      </trkpt>
      <trkpt lat="59.966494" lon="17.6917606">
        <ele>32.3416</ele>
        <time>2013-05-09T12:11:23Z</time>
      </trkpt>
      <trkpt lat="59.9664523" lon="17.6919438">
        <ele>32.3416</ele>
        <time>2013-05-09T12:11:24Z</time>
      </trkpt>
      <trkpt lat="59.9664085" lon="17.6921246">
        <ele>32.3416</ele>
        <time>2013-05-09T12:11:25Z</time>
      </trkpt>
      <trkpt lat="59.9663648" lon="17.6923028">
        <ele>32.8223</ele>
        <time>2013-05-09T12:11:26Z</time>
      </trkpt>
      <trkpt lat="59.9663236" lon="17.6924795">
        <ele>33.3029</ele>
        <time>2013-05-09T12:11:27Z</time>
      </trkpt>
      <trkpt lat="59.9662837" lon="17.6926537">
        <ele>33.7834</ele>
        <time>2013-05-09T12:11:28Z</time>
      </trkpt>
      <trkpt lat="59.9662443" lon="17.6928242">
        <ele>33.7834</ele>
        <time>2013-05-09T12:11:29Z</time>
      </trkpt>
      <trkpt lat="59.9662044" lon="17.6929908">
        <ele>33.7834</ele>
        <time>2013-05-09T12:11:30Z</time>
      </trkpt>
      <trkpt lat="59.9661667" lon="17.693154">
        <ele>34.2642</ele>
        <time>2013-05-09T12:11:31Z</time>
      </trkpt>
      <trkpt lat="59.9661304" lon="17.6933151">
        <ele>34.7449</ele>
        <time>2013-05-09T12:11:32Z</time>
      </trkpt>
      <trkpt lat="59.9660957" lon="17.6934734">
        <ele>35.2255</ele>
        <time>2013-05-09T12:11:33Z</time>
      </trkpt>
      <trkpt lat="59.9660621" lon="17.6936288">
        <ele>35.7061</ele>
        <time>2013-05-09T12:11:34Z</time>
      </trkpt>
      <trkpt lat="59.9660277" lon="17.6937834">
        <ele>35.7061</ele>
        <time>2013-05-09T12:11:35Z</time>
      </trkpt>
      <trkpt lat="59.9659914" lon="17.6939371">
        <ele>35.2255</ele>
        <time>2013-05-09T12:11:36Z</time>
      </trkpt>
      <trkpt lat="59.9659521" lon="17.6940905">
        <ele>34.7449</ele>
        <time>2013-05-09T12:11:37Z</time>
      </trkpt>
      <trkpt lat="59.9659117" lon="17.6942433">
        <ele>33.7834</ele>
        <time>2013-05-09T12:11:38Z</time>
      </trkpt>
      <trkpt lat="59.9658713" lon="17.6943896">
        <ele>32.8223</ele>
        <time>2013-05-09T12:11:39Z</time>
      </trkpt>
      <trkpt lat="59.9658308" lon="17.694539">
        <ele>32.3416</ele>
        <time>2013-05-09T12:11:40Z</time>
      </trkpt>
      <trkpt lat="59.9657869" lon="17.6946827">
        <ele>31.8607</ele>
        <time>2013-05-09T12:11:41Z</time>
      </trkpt>
      <trkpt lat="59.965737" lon="17.6948262">
        <ele>31.3801</ele>
        <time>2013-05-09T12:11:42Z</time>
      </trkpt>
      <trkpt lat="59.9656836" lon="17.6949712">
        <ele>30.4188</ele>
        <time>2013-05-09T12:11:43Z</time>
      </trkpt>
      <trkpt lat="59.9656292" lon="17.6951163">
        <ele>30.4188</ele>
        <time>2013-05-09T12:11:44Z</time>
      </trkpt>
      <trkpt lat="59.965574" lon="17.6952601">
        <ele>30.4188</ele>
        <time>2013-05-09T12:11:45Z</time>
      </trkpt>
      <trkpt lat="59.9655156" lon="17.6953994">
        <ele>30.4188</ele>
        <time>2013-05-09T12:11:46Z</time>
      </trkpt>
      <trkpt lat="59.9654538" lon="17.6955313">
        <ele>29.9381</ele>
        <time>2013-05-09T12:11:47Z</time>
      </trkpt>
      <trkpt lat="59.96539" lon="17.6956574">
        <ele>29.9381</ele>
        <time>2013-05-09T12:11:48Z</time>
      </trkpt>
      <trkpt lat="59.9653239" lon="17.6957787">
        <ele>29.9381</ele>
        <time>2013-05-09T12:11:49Z</time>
      </trkpt>
      <trkpt lat="59.9652549" lon="17.6958928">
        <ele>28.4962</ele>
        <time>2013-05-09T12:11:50Z</time>
      </trkpt>
      <trkpt lat="59.965187" lon="17.6960035">
        <ele>26.5736</ele>
        <time>2013-05-09T12:11:51Z</time>
      </trkpt>
      <trkpt lat="59.9651218" lon="17.6961151">
        <ele>26.0929</ele>
        <time>2013-05-09T12:11:52Z</time>
      </trkpt>
      <trkpt lat="59.9650556" lon="17.6962232">
        <ele>25.1317</ele>
        <time>2013-05-09T12:11:53Z</time>
      </trkpt>
      <trkpt lat="59.9649917" lon="17.6963305">
        <ele>24.651</ele>
        <time>2013-05-09T12:11:54Z</time>
      </trkpt>
      <trkpt lat="59.9649291" lon="17.6964391">
        <ele>24.651</ele>
        <time>2013-05-09T12:11:55Z</time>
      </trkpt>
      <trkpt lat="59.9648669" lon="17.6965465">
        <ele>24.1703</ele>
        <time>2013-05-09T12:11:56Z</time>
      </trkpt>
      <trkpt lat="59.9648047" lon="17.6966533">
        <ele>23.6896</ele>
        <time>2013-05-09T12:11:57Z</time>
      </trkpt>
      <trkpt lat="59.9647432" lon="17.6967588">
        <ele>23.6896</ele>
        <time>2013-05-09T12:11:58Z</time>
      </trkpt>
      <trkpt lat="59.9646814" lon="17.6968599">
        <ele>22.7283</ele>
        <time>2013-05-09T12:11:59Z</time>
      </trkpt>
      <trkpt lat="59.9646207" lon="17.6969588">
        <ele>22.7283</ele>
        <time>2013-05-09T12:12:00Z</time>
      </trkpt>
      <trkpt lat="59.9645612" lon="17.6970539">
        <ele>22.7283</ele>
        <time>2013-05-09T12:12:01Z</time>
      </trkpt>
      <trkpt lat="59.9645062" lon="17.6971518">
        <ele>23.6896</ele>
        <time>2013-05-09T12:12:02Z</time>
      </trkpt>
      <trkpt lat="59.9644524" lon="17.6972484">
        <ele>23.6896</ele>
        <time>2013-05-09T12:12:03Z</time>
      </trkpt>
      <trkpt lat="59.9643979" lon="17.69734">
        <ele>22.7283</ele>
        <time>2013-05-09T12:12:04Z</time>
      </trkpt>
      <trkpt lat="59.9643453" lon="17.6974333">
        <ele>22.7283</ele>
        <time>2013-05-09T12:12:05Z</time>
      </trkpt>
      <trkpt lat="59.9642924" lon="17.6975249">
        <ele>22.7283</ele>
        <time>2013-05-09T12:12:06Z</time>
      </trkpt>
      <trkpt lat="59.9642379" lon="17.6976101">
        <ele>22.7283</ele>
        <time>2013-05-09T12:12:07Z</time>
      </trkpt>
      <trkpt lat="59.964184" lon="17.697699">
        <ele>22.2476</ele>
        <time>2013-05-09T12:12:08Z</time>
      </trkpt>
      <trkpt lat="59.9641304" lon="17.6977923">
        <ele>21.767</ele>
        <time>2013-05-09T12:12:09Z</time>
      </trkpt>
      <trkpt lat="59.9640789" lon="17.6978774">
        <ele>21.767</ele>
        <time>2013-05-09T12:12:10Z</time>
      </trkpt>
      <trkpt lat="59.9640279" lon="17.6979638">
        <ele>22.2476</ele>
        <time>2013-05-09T12:12:11Z</time>
      </trkpt>
      <trkpt lat="59.9639757" lon="17.6980444">
        <ele>22.2476</ele>
        <time>2013-05-09T12:12:12Z</time>
      </trkpt>
      <trkpt lat="59.9639236" lon="17.6981269">
        <ele>22.2476</ele>
        <time>2013-05-09T12:12:13Z</time>
      </trkpt>
      <trkpt lat="59.9638725" lon="17.6982127">
        <ele>22.2476</ele>
        <time>2013-05-09T12:12:14Z</time>
      </trkpt>
      <trkpt lat="59.9638211" lon="17.6982989">
        <ele>22.7283</ele>
        <time>2013-05-09T12:12:15Z</time>
      </trkpt>
      <trkpt lat="59.9637688" lon="17.6983891">
        <ele>23.209</ele>
        <time>2013-05-09T12:12:16Z</time>
      </trkpt>
      <trkpt lat="59.963716" lon="17.6984823">
        <ele>23.209</ele>
        <time>2013-05-09T12:12:17Z</time>
      </trkpt>
      <trkpt lat="59.963663" lon="17.6985772">
        <ele>23.6896</ele>
        <time>2013-05-09T12:12:18Z</time>
      </trkpt>
      <trkpt lat="59.9636091" lon="17.6986732">
        <ele>23.6896</ele>
        <time>2013-05-09T12:12:19Z</time>
      </trkpt>
      <trkpt lat="59.9635542" lon="17.6987698">
        <ele>23.6896</ele>
        <time>2013-05-09T12:12:20Z</time>
      </trkpt>
      <trkpt lat="59.9634989" lon="17.6988682">
        <ele>23.6896</ele>
        <time>2013-05-09T12:12:21Z</time>
      </trkpt>
      <trkpt lat="59.9634451" lon="17.6989634">
        <ele>24.1703</ele>
        <time>2013-05-09T12:12:22Z</time>
      </trkpt>
      <trkpt lat="59.963394" lon="17.6990552">
        <ele>24.1703</ele>
        <time>2013-05-09T12:12:23Z</time>
      </trkpt>
      <trkpt lat="59.9633433" lon="17.6991423">
        <ele>24.651</ele>
        <time>2013-05-09T12:12:24Z</time>
      </trkpt>
      <trkpt lat="59.9632932" lon="17.6992265">
        <ele>24.651</ele>
        <time>2013-05-09T12:12:25Z</time>
      </trkpt>
      <trkpt lat="59.9632451" lon="17.6993096">
        <ele>24.651</ele>
        <time>2013-05-09T12:12:26Z</time>
      </trkpt>
      <trkpt lat="59.9631993" lon="17.6993919">
        <ele>25.1317</ele>
        <time>2013-05-09T12:12:27Z</time>
      </trkpt>
      <trkpt lat="59.9631543" lon="17.6994717">
        <ele>25.1317</ele>
        <time>2013-05-09T12:12:28Z</time>
      </trkpt>
      <trkpt lat="59.9631093" lon="17.6995468">
        <ele>25.6123</ele>
        <time>2013-05-09T12:12:29Z</time>
      </trkpt>
      <trkpt lat="59.9630652" lon="17.6996217">
        <ele>25.6123</ele>
        <time>2013-05-09T12:12:30Z</time>
      </trkpt>
      <trkpt lat="59.9630222" lon="17.6996976">
        <ele>26.0929</ele>
        <time>2013-05-09T12:12:31Z</time>
      </trkpt>
      <trkpt lat="59.9629787" lon="17.6997712">
        <ele>26.5736</ele>
        <time>2013-05-09T12:12:32Z</time>
      </trkpt>
      <trkpt lat="59.9629347" lon="17.6998401">
        <ele>26.5736</ele>
        <time>2013-05-09T12:12:33Z</time>
      </trkpt>
      <trkpt lat="59.9628917" lon="17.6999072">
        <ele>26.5736</ele>
        <time>2013-05-09T12:12:34Z</time>
      </trkpt>
      <trkpt lat="59.9628507" lon="17.6999722">
        <ele>26.5736</ele>
        <time>2013-05-09T12:12:35Z</time>
      </trkpt>
      <trkpt lat="59.9628094" lon="17.7000384">
        <ele>26.5736</ele>
        <time>2013-05-09T12:12:36Z</time>
      </trkpt>
      <trkpt lat="59.9627695" lon="17.7001061">
        <ele>26.5736</ele>
        <time>2013-05-09T12:12:37Z</time>
      </trkpt>
      <trkpt lat="59.9627307" lon="17.7001772">
        <ele>26.5736</ele>
        <time>2013-05-09T12:12:38Z</time>
      </trkpt>
      <trkpt lat="59.9626929" lon="17.700243">
        <ele>27.0543</ele>
        <time>2013-05-09T12:12:39Z</time>
      </trkpt>
      <trkpt lat="59.9626545" lon="17.7003057">
        <ele>27.5349</ele>
        <time>2013-05-09T12:12:40Z</time>
      </trkpt>
      <trkpt lat="59.9626144" lon="17.700368">
        <ele>27.5349</ele>
        <time>2013-05-09T12:12:41Z</time>
      </trkpt>
      <trkpt lat="59.9625743" lon="17.7004259">
        <ele>27.5349</ele>
        <time>2013-05-09T12:12:42Z</time>
      </trkpt>
      <trkpt lat="59.9625355" lon="17.7004927">
        <ele>27.0543</ele>
        <time>2013-05-09T12:12:43Z</time>
      </trkpt>
      <trkpt lat="59.9624959" lon="17.7005574">
        <ele>27.0543</ele>
        <time>2013-05-09T12:12:44Z</time>
      </trkpt>
      <trkpt lat="59.9624546" lon="17.7006233">
        <ele>27.0543</ele>
        <time>2013-05-09T12:12:45Z</time>
      </trkpt>
      <trkpt lat="59.962413" lon="17.7006899">
        <ele>27.0543</ele>
        <time>2013-05-09T12:12:46Z</time>
      </trkpt>
      <trkpt lat="59.9623644" lon="17.7007458">
        <ele>27.0543</ele>
        <time>2013-05-09T12:12:47Z</time>
      </trkpt>
      <trkpt lat="59.9623213" lon="17.70081">
        <ele>27.0543</ele>
        <time>2013-05-09T12:12:48Z</time>
      </trkpt>
      <trkpt lat="59.9622774" lon="17.7008758">
        <ele>26.5736</ele>
        <time>2013-05-09T12:12:49Z</time>
      </trkpt>
      <trkpt lat="59.9622339" lon="17.7009463">
        <ele>26.5736</ele>
        <time>2013-05-09T12:12:50Z</time>
      </trkpt>
      <trkpt lat="59.9621893" lon="17.7010147">
        <ele>27.0543</ele>
        <time>2013-05-09T12:12:51Z</time>
      </trkpt>
      <trkpt lat="59.9621454" lon="17.7010843">
        <ele>27.0543</ele>
        <time>2013-05-09T12:12:52Z</time>
      </trkpt>
      <trkpt lat="59.9620996" lon="17.7011465">
        <ele>26.5736</ele>
        <time>2013-05-09T12:12:53Z</time>
      </trkpt>
      <trkpt lat="59.9620521" lon="17.7012102">
        <ele>26.0929</ele>
        <time>2013-05-09T12:12:54Z</time>
      </trkpt>
      <trkpt lat="59.9620049" lon="17.7012789">
        <ele>26.5736</ele>
        <time>2013-05-09T12:12:55Z</time>
      </trkpt>
      <trkpt lat="59.9619547" lon="17.7013407">
        <ele>26.0929</ele>
        <time>2013-05-09T12:12:56Z</time>
      </trkpt>
      <trkpt lat="59.9619044" lon="17.7014024">
        <ele>26.5736</ele>
        <time>2013-05-09T12:12:57Z</time>
      </trkpt>
      <trkpt lat="59.961854" lon="17.7014572">
        <ele>26.5736</ele>
        <time>2013-05-09T12:12:58Z</time>
      </trkpt>
      <trkpt lat="59.9618039" lon="17.7015166">
        <ele>26.0929</ele>
        <time>2013-05-09T12:12:59Z</time>
      </trkpt>
      <trkpt lat="59.9617531" lon="17.7015748">
        <ele>26.0929</ele>
        <time>2013-05-09T12:13:00Z</time>
      </trkpt>
      <trkpt lat="59.9617024" lon="17.7016251">
        <ele>26.0929</ele>
        <time>2013-05-09T12:13:01Z</time>
      </trkpt>
      <trkpt lat="59.9616515" lon="17.7016809">
        <ele>25.6123</ele>
        <time>2013-05-09T12:13:02Z</time>
      </trkpt>
      <trkpt lat="59.9616013" lon="17.7017458">
        <ele>26.0929</ele>
        <time>2013-05-09T12:13:03Z</time>
      </trkpt>
      <trkpt lat="59.9615521" lon="17.7018131">
        <ele>26.5736</ele>
        <time>2013-05-09T12:13:04Z</time>
      </trkpt>
      <trkpt lat="59.9615044" lon="17.7018714">
        <ele>26.5736</ele>
        <time>2013-05-09T12:13:05Z</time>
      </trkpt>
      <trkpt lat="59.9614579" lon="17.7019265">
        <ele>26.5736</ele>
        <time>2013-05-09T12:13:06Z</time>
      </trkpt>
      <trkpt lat="59.9614123" lon="17.701986">
        <ele>26.5736</ele>
        <time>2013-05-09T12:13:07Z</time>
      </trkpt>
      <trkpt lat="59.9613667" lon="17.7020493">
        <ele>26.5736</ele>
        <time>2013-05-09T12:13:08Z</time>
      </trkpt>
      <trkpt lat="59.9613206" lon="17.7021207">
        <ele>27.0543</ele>
        <time>2013-05-09T12:13:09Z</time>
      </trkpt>
      <trkpt lat="59.9612759" lon="17.7021876">
        <ele>27.0543</ele>
        <time>2013-05-09T12:13:10Z</time>
      </trkpt>
      <trkpt lat="59.9612315" lon="17.7022539">
        <ele>27.5349</ele>
        <time>2013-05-09T12:13:11Z</time>
      </trkpt>
      <trkpt lat="59.9611884" lon="17.7023149">
        <ele>27.5349</ele>
        <time>2013-05-09T12:13:12Z</time>
      </trkpt>
      <trkpt lat="59.9611429" lon="17.7023887">
        <ele>27.5349</ele>
        <time>2013-05-09T12:13:13Z</time>
      </trkpt>
      <trkpt lat="59.9610993" lon="17.7024641">
        <ele>27.5349</ele>
        <time>2013-05-09T12:13:14Z</time>
      </trkpt>
      <trkpt lat="59.9610554" lon="17.7025316">
        <ele>28.0155</ele>
        <time>2013-05-09T12:13:15Z</time>
      </trkpt>
      <trkpt lat="59.961013" lon="17.702599">
        <ele>28.0155</ele>
        <time>2013-05-09T12:13:16Z</time>
      </trkpt>
      <trkpt lat="59.9609736" lon="17.7026593">
        <ele>27.5349</ele>
        <time>2013-05-09T12:13:17Z</time>
      </trkpt>
      <trkpt lat="59.9609304" lon="17.7027122">
        <ele>27.5349</ele>
        <time>2013-05-09T12:13:18Z</time>
      </trkpt>
      <trkpt lat="59.9608917" lon="17.7027638">
        <ele>27.5349</ele>
        <time>2013-05-09T12:13:19Z</time>
      </trkpt>
      <trkpt lat="59.9608542" lon="17.7028314">
        <ele>27.5349</ele>
        <time>2013-05-09T12:13:20Z</time>
      </trkpt>
      <trkpt lat="59.9608136" lon="17.702904">
        <ele>27.5349</ele>
        <time>2013-05-09T12:13:21Z</time>
      </trkpt>
      <trkpt lat="59.9607674" lon="17.7029878">
        <ele>28.0155</ele>
        <time>2013-05-09T12:13:22Z</time>
      </trkpt>
      <trkpt lat="59.9607235" lon="17.7030631">
        <ele>28.0155</ele>
        <time>2013-05-09T12:13:23Z</time>
      </trkpt>
      <trkpt lat="59.9606798" lon="17.7031435">
        <ele>28.4962</ele>
        <time>2013-05-09T12:13:24Z</time>
      </trkpt>
      <trkpt lat="59.9606356" lon="17.7032261">
        <ele>28.4962</ele>
        <time>2013-05-09T12:13:25Z</time>
      </trkpt>
      <trkpt lat="59.9605907" lon="17.7033138">
        <ele>28.9769</ele>
        <time>2013-05-09T12:13:26Z</time>
      </trkpt>
      <trkpt lat="59.9605471" lon="17.7033952">
        <ele>29.4575</ele>
        <time>2013-05-09T12:13:27Z</time>
      </trkpt>
      <trkpt lat="59.9605025" lon="17.7034736">
        <ele>29.4575</ele>
        <time>2013-05-09T12:13:28Z</time>
      </trkpt>
      <trkpt lat="59.9604588" lon="17.7035501">
        <ele>29.9381</ele>
        <time>2013-05-09T12:13:29Z</time>
      </trkpt>
      <trkpt lat="59.9604183" lon="17.703608">
        <ele>29.4575</ele>
        <time>2013-05-09T12:13:30Z</time>
      </trkpt>
      <trkpt lat="59.9603778" lon="17.7036539">
        <ele>29.4575</ele>
        <time>2013-05-09T12:13:31Z</time>
      </trkpt>
      <trkpt lat="59.9603336" lon="17.7037335">
        <ele>29.4575</ele>
        <time>2013-05-09T12:13:32Z</time>
      </trkpt>
      <trkpt lat="59.9602987" lon="17.7038127">
        <ele>29.4575</ele>
        <time>2013-05-09T12:13:33Z</time>
      </trkpt>
      <trkpt lat="59.9602654" lon="17.7038844">
        <ele>29.4575</ele>
        <time>2013-05-09T12:13:34Z</time>
      </trkpt>
      <trkpt lat="59.9602308" lon="17.7039483">
        <ele>29.9381</ele>
        <time>2013-05-09T12:13:35Z</time>
      </trkpt>
      <trkpt lat="59.9602038" lon="17.7040245">
        <ele>29.4575</ele>
        <time>2013-05-09T12:13:36Z</time>
      </trkpt>
      <trkpt lat="59.9601904" lon="17.7041249">
        <ele>29.9381</ele>
        <time>2013-05-09T12:13:37Z</time>
      </trkpt>
      <trkpt lat="59.9602" lon="17.7042264">
        <ele>30.4188</ele>
        <time>2013-05-09T12:13:38Z</time>
      </trkpt>
      <trkpt lat="59.9602272" lon="17.7043252">
        <ele>30.4188</ele>
        <time>2013-05-09T12:13:39Z</time>
      </trkpt>
      <trkpt lat="59.9602649" lon="17.7044138">
        <ele>30.8995</ele>
        <time>2013-05-09T12:13:40Z</time>
      </trkpt>
      <trkpt lat="59.9603122" lon="17.7044897">
        <ele>31.3801</ele>
        <time>2013-05-09T12:13:41Z</time>
      </trkpt>
      <trkpt lat="59.9603633" lon="17.704562">
        <ele>31.3801</ele>
        <time>2013-05-09T12:13:42Z</time>
      </trkpt>
      <trkpt lat="59.9604187" lon="17.7046305">
        <ele>31.8607</ele>
        <time>2013-05-09T12:13:43Z</time>
      </trkpt>
      <trkpt lat="59.9604768" lon="17.7046974">
        <ele>31.8607</ele>
        <time>2013-05-09T12:13:44Z</time>
      </trkpt>
      <trkpt lat="59.9605378" lon="17.7047646">
        <ele>32.3416</ele>
        <time>2013-05-09T12:13:45Z</time>
      </trkpt>
      <trkpt lat="59.960599" lon="17.7048345">
        <ele>32.8223</ele>
        <time>2013-05-09T12:13:46Z</time>
      </trkpt>
      <trkpt lat="59.9606595" lon="17.7049103">
        <ele>33.3029</ele>
        <time>2013-05-09T12:13:47Z</time>
      </trkpt>
      <trkpt lat="59.9607208" lon="17.7049909">
        <ele>33.7834</ele>
        <time>2013-05-09T12:13:48Z</time>
      </trkpt>
      <trkpt lat="59.9607845" lon="17.7050696">
        <ele>34.2642</ele>
        <time>2013-05-09T12:13:49Z</time>
      </trkpt>
      <trkpt lat="59.9608488" lon="17.7051505">
        <ele>34.7449</ele>
        <time>2013-05-09T12:13:50Z</time>
      </trkpt>
      <trkpt lat="59.9609135" lon="17.7052341">
        <ele>35.2255</ele>
        <time>2013-05-09T12:13:51Z</time>
      </trkpt>
      <trkpt lat="59.9609782" lon="17.7053209">
        <ele>35.2255</ele>
        <time>2013-05-09T12:13:52Z</time>
      </trkpt>
      <trkpt lat="59.9610409" lon="17.7054133">
        <ele>35.7061</ele>
        <time>2013-05-09T12:13:53Z</time>
      </trkpt>
      <trkpt lat="59.9611032" lon="17.7055105">
        <ele>36.1868</ele>
        <time>2013-05-09T12:13:54Z</time>
      </trkpt>
      <trkpt lat="59.9611622" lon="17.7056102">
        <ele>36.1868</ele>
        <time>2013-05-09T12:13:55Z</time>
      </trkpt>
      <trkpt lat="59.9612182" lon="17.7057153">
        <ele>36.1868</ele>
        <time>2013-05-09T12:13:56Z</time>
      </trkpt>
      <trkpt lat="59.9612756" lon="17.7058257">
        <ele>36.6675</ele>
        <time>2013-05-09T12:13:57Z</time>
      </trkpt>
      <trkpt lat="59.9613344" lon="17.7059375">
        <ele>37.1481</ele>
        <time>2013-05-09T12:13:58Z</time>
      </trkpt>
      <trkpt lat="59.9613919" lon="17.7060531">
        <ele>37.1481</ele>
        <time>2013-05-09T12:13:59Z</time>
      </trkpt>
      <trkpt lat="59.9614506" lon="17.7061655">
        <ele>37.6287</ele>
        <time>2013-05-09T12:14:00Z</time>
      </trkpt>
      <trkpt lat="59.9615131" lon="17.7062738">
        <ele>37.6287</ele>
        <time>2013-05-09T12:14:01Z</time>
      </trkpt>
      <trkpt lat="59.961577" lon="17.70638">
        <ele>38.1094</ele>
        <time>2013-05-09T12:14:02Z</time>
      </trkpt>
      <trkpt lat="59.9616444" lon="17.7064793">
        <ele>38.1094</ele>
        <time>2013-05-09T12:14:03Z</time>
      </trkpt>
      <trkpt lat="59.9617141" lon="17.7065719">
        <ele>38.1094</ele>
        <time>2013-05-09T12:14:04Z</time>
      </trkpt>
      <trkpt lat="59.961788" lon="17.7066558">
        <ele>38.1094</ele>
        <time>2013-05-09T12:14:05Z</time>
      </trkpt>
      <trkpt lat="59.9618661" lon="17.7067293">
        <ele>38.5901</ele>
        <time>2013-05-09T12:14:06Z</time>
      </trkpt>
      <trkpt lat="59.9619455" lon="17.7067943">
        <ele>38.1094</ele>
        <time>2013-05-09T12:14:07Z</time>
      </trkpt>
      <trkpt lat="59.9620272" lon="17.7068547">
        <ele>38.1094</ele>
        <time>2013-05-09T12:14:08Z</time>
      </trkpt>
      <trkpt lat="59.9621115" lon="17.7069113">
        <ele>38.1094</ele>
        <time>2013-05-09T12:14:09Z</time>
      </trkpt>
      <trkpt lat="59.9621955" lon="17.7069647">
        <ele>37.6287</ele>
        <time>2013-05-09T12:14:10Z</time>
      </trkpt>
      <trkpt lat="59.9622785" lon="17.7070158">
        <ele>37.6287</ele>
        <time>2013-05-09T12:14:11Z</time>
      </trkpt>
      <trkpt lat="59.9623642" lon="17.7070621">
        <ele>37.6287</ele>
        <time>2013-05-09T12:14:12Z</time>
      </trkpt>
      <trkpt lat="59.9624526" lon="17.7071034">
        <ele>37.6287</ele>
        <time>2013-05-09T12:14:13Z</time>
      </trkpt>
      <trkpt lat="59.9625426" lon="17.7071398">
        <ele>37.1481</ele>
        <time>2013-05-09T12:14:14Z</time>
      </trkpt>
      <trkpt lat="59.9626341" lon="17.7071724">
        <ele>36.6675</ele>
        <time>2013-05-09T12:14:15Z</time>
      </trkpt>
      <trkpt lat="59.962726" lon="17.7071986">
        <ele>36.1868</ele>
        <time>2013-05-09T12:14:16Z</time>
      </trkpt>
      <trkpt lat="59.9628182" lon="17.7072168">
        <ele>35.7061</ele>
        <time>2013-05-09T12:14:17Z</time>
      </trkpt>
      <trkpt lat="59.9629141" lon="17.7072294">
        <ele>35.7061</ele>
        <time>2013-05-09T12:14:18Z</time>
      </trkpt>
      <trkpt lat="59.9630108" lon="17.7072329">
        <ele>35.2255</ele>
        <time>2013-05-09T12:14:19Z</time>
      </trkpt>
      <trkpt lat="59.9631093" lon="17.7072311">
        <ele>34.7449</ele>
        <time>2013-05-09T12:14:20Z</time>
      </trkpt>
      <trkpt lat="59.9632055" lon="17.7072035">
        <ele>34.2642</ele>
        <time>2013-05-09T12:14:21Z</time>
      </trkpt>
      <trkpt lat="59.9633059" lon="17.7071962">
        <ele>33.7834</ele>
        <time>2013-05-09T12:14:22Z</time>
      </trkpt>
      <trkpt lat="59.9634068" lon="17.70719">
        <ele>33.7834</ele>
        <time>2013-05-09T12:14:23Z</time>
      </trkpt>
      <trkpt lat="59.9635062" lon="17.7071875">
        <ele>33.3029</ele>
        <time>2013-05-09T12:14:24Z</time>
      </trkpt>
      <trkpt lat="59.9636066" lon="17.7071916">
        <ele>33.3029</ele>
        <time>2013-05-09T12:14:25Z</time>
      </trkpt>
      <trkpt lat="59.9637075" lon="17.707201">
        <ele>32.8223</ele>
        <time>2013-05-09T12:14:26Z</time>
      </trkpt>
      <trkpt lat="59.9638084" lon="17.7072144">
        <ele>32.3416</ele>
        <time>2013-05-09T12:14:27Z</time>
      </trkpt>
      <trkpt lat="59.9639113" lon="17.7072266">
        <ele>32.3416</ele>
        <time>2013-05-09T12:14:28Z</time>
      </trkpt>
      <trkpt lat="59.9640127" lon="17.7072372">
        <ele>31.8607</ele>
        <time>2013-05-09T12:14:29Z</time>
      </trkpt>
      <trkpt lat="59.964117" lon="17.7072559">
        <ele>31.8607</ele>
        <time>2013-05-09T12:14:30Z</time>
      </trkpt>
      <trkpt lat="59.9642194" lon="17.7072776">
        <ele>31.8607</ele>
        <time>2013-05-09T12:14:31Z</time>
      </trkpt>
      <trkpt lat="59.9643208" lon="17.7073061">
        <ele>31.3801</ele>
        <time>2013-05-09T12:14:32Z</time>
      </trkpt>
      <trkpt lat="59.9644204" lon="17.7073434">
        <ele>30.8995</ele>
        <time>2013-05-09T12:14:33Z</time>
      </trkpt>
      <trkpt lat="59.964521" lon="17.70739">
        <ele>30.8995</ele>
        <time>2013-05-09T12:14:34Z</time>
      </trkpt>
      <trkpt lat="59.9646205" lon="17.7074448">
        <ele>30.8995</ele>
        <time>2013-05-09T12:14:35Z</time>
      </trkpt>
      <trkpt lat="59.9647175" lon="17.7075094">
        <ele>30.4188</ele>
        <time>2013-05-09T12:14:36Z</time>
      </trkpt>
      <trkpt lat="59.9648156" lon="17.707576">
        <ele>30.4188</ele>
        <time>2013-05-09T12:14:37Z</time>
      </trkpt>
      <trkpt lat="59.9649115" lon="17.7076484">
        <ele>30.4188</ele>
        <time>2013-05-09T12:14:38Z</time>
      </trkpt>
      <trkpt lat="59.9650083" lon="17.707721">
        <ele>30.4188</ele>
        <time>2013-05-09T12:14:39Z</time>
      </trkpt>
      <trkpt lat="59.9651048" lon="17.7077957">
        <ele>29.9381</ele>
        <time>2013-05-09T12:14:40Z</time>
      </trkpt>
      <trkpt lat="59.9652016" lon="17.7078727">
        <ele>29.9381</ele>
        <time>2013-05-09T12:14:41Z</time>
      </trkpt>
      <trkpt lat="59.9652974" lon="17.707954">
        <ele>29.9381</ele>
        <time>2013-05-09T12:14:42Z</time>
      </trkpt>
      <trkpt lat="59.965392" lon="17.7080402">
        <ele>29.9381</ele>
        <time>2013-05-09T12:14:43Z</time>
      </trkpt>
      <trkpt lat="59.9654927" lon="17.7081283">
        <ele>30.4188</ele>
        <time>2013-05-09T12:14:44Z</time>
      </trkpt>
      <trkpt lat="59.9655829" lon="17.7082303">
        <ele>30.4188</ele>
        <time>2013-05-09T12:14:45Z</time>
      </trkpt>
      <trkpt lat="59.9656688" lon="17.7083473">
        <ele>30.4188</ele>
        <time>2013-05-09T12:14:46Z</time>
      </trkpt>
      <trkpt lat="59.9657495" lon="17.7084815">
        <ele>30.4188</ele>
        <time>2013-05-09T12:14:47Z</time>
      </trkpt>
      <trkpt lat="59.9658253" lon="17.7086313">
        <ele>30.8995</ele>
        <time>2013-05-09T12:14:48Z</time>
      </trkpt>
      <trkpt lat="59.9658952" lon="17.7087922">
        <ele>30.8995</ele>
        <time>2013-05-09T12:14:49Z</time>
      </trkpt>
      <trkpt lat="59.9659598" lon="17.7089605">
        <ele>31.3801</ele>
        <time>2013-05-09T12:14:50Z</time>
      </trkpt>
      <trkpt lat="59.9660184" lon="17.7091358">
        <ele>31.8607</ele>
        <time>2013-05-09T12:14:51Z</time>
      </trkpt>
      <trkpt lat="59.966073" lon="17.709313">
        <ele>31.8607</ele>
        <time>2013-05-09T12:14:52Z</time>
      </trkpt>
      <trkpt lat="59.9661246" lon="17.7094893">
        <ele>32.3416</ele>
        <time>2013-05-09T12:14:53Z</time>
      </trkpt>
      <trkpt lat="59.9661744" lon="17.7096635">
        <ele>32.3416</ele>
        <time>2013-05-09T12:14:54Z</time>
      </trkpt>
      <trkpt lat="59.9662216" lon="17.7098364">
        <ele>32.3416</ele>
        <time>2013-05-09T12:14:55Z</time>
      </trkpt>
      <trkpt lat="59.9662657" lon="17.710008">
        <ele>32.3416</ele>
        <time>2013-05-09T12:14:56Z</time>
      </trkpt>
      <trkpt lat="59.9663127" lon="17.7101763">
        <ele>32.3416</ele>
        <time>2013-05-09T12:14:57Z</time>
      </trkpt>
      <trkpt lat="59.9663604" lon="17.7103425">
        <ele>32.8223</ele>
        <time>2013-05-09T12:14:58Z</time>
      </trkpt>
      <trkpt lat="59.9664073" lon="17.7105068">
        <ele>32.8223</ele>
        <time>2013-05-09T12:14:59Z</time>
      </trkpt>
      <trkpt lat="59.9664516" lon="17.7106695">
        <ele>32.8223</ele>
        <time>2013-05-09T12:15:00Z</time>
      </trkpt>
      <trkpt lat="59.9664982" lon="17.7108242">
        <ele>32.8223</ele>
        <time>2013-05-09T12:15:01Z</time>
      </trkpt>
      <trkpt lat="59.9665478" lon="17.7109688">
        <ele>33.3029</ele>
        <time>2013-05-09T12:15:02Z</time>
      </trkpt>
      <trkpt lat="59.9665929" lon="17.7111109">
        <ele>33.7834</ele>
        <time>2013-05-09T12:15:03Z</time>
      </trkpt>
      <trkpt lat="59.9666333" lon="17.7112533">
        <ele>33.7834</ele>
        <time>2013-05-09T12:15:04Z</time>
      </trkpt>
      <trkpt lat="59.9666694" lon="17.7113937">
        <ele>33.3029</ele>
        <time>2013-05-09T12:15:05Z</time>
      </trkpt>
      <trkpt lat="59.9667072" lon="17.711524">
        <ele>33.3029</ele>
        <time>2013-05-09T12:15:06Z</time>
      </trkpt>
      <trkpt lat="59.9667513" lon="17.7116455">
        <ele>33.7834</ele>
        <time>2013-05-09T12:15:07Z</time>
      </trkpt>
      <trkpt lat="59.966796" lon="17.7117654">
        <ele>33.7834</ele>
        <time>2013-05-09T12:15:08Z</time>
      </trkpt>
      <trkpt lat="59.9668395" lon="17.7118856">
        <ele>34.2642</ele>
        <time>2013-05-09T12:15:09Z</time>
      </trkpt>
      <trkpt lat="59.9668829" lon="17.7120056">
        <ele>34.2642</ele>
        <time>2013-05-09T12:15:10Z</time>
      </trkpt>
      <trkpt lat="59.966927" lon="17.7121256">
        <ele>34.2642</ele>
        <time>2013-05-09T12:15:11Z</time>
      </trkpt>
      <trkpt lat="59.9669709" lon="17.7122474">
        <ele>34.7449</ele>
        <time>2013-05-09T12:15:12Z</time>
      </trkpt>
      <trkpt lat="59.9670129" lon="17.7123721">
        <ele>34.7449</ele>
        <time>2013-05-09T12:15:13Z</time>
      </trkpt>
      <trkpt lat="59.9670541" lon="17.7124987">
        <ele>35.2255</ele>
        <time>2013-05-09T12:15:14Z</time>
      </trkpt>
      <trkpt lat="59.9670967" lon="17.7126266">
        <ele>34.7449</ele>
        <time>2013-05-09T12:15:15Z</time>
      </trkpt>
      <trkpt lat="59.9671389" lon="17.7127588">
        <ele>34.7449</ele>
        <time>2013-05-09T12:15:16Z</time>
      </trkpt>
      <trkpt lat="59.9671784" lon="17.7128965">
        <ele>34.2642</ele>
        <time>2013-05-09T12:15:17Z</time>
      </trkpt>
      <trkpt lat="59.967214" lon="17.7130394">
        <ele>34.2642</ele>
        <time>2013-05-09T12:15:18Z</time>
      </trkpt>
      <trkpt lat="59.9672472" lon="17.7131886">
        <ele>33.7834</ele>
        <time>2013-05-09T12:15:19Z</time>
      </trkpt>
      <trkpt lat="59.9672783" lon="17.7133414">
        <ele>33.3029</ele>
        <time>2013-05-09T12:15:20Z</time>
      </trkpt>
      <trkpt lat="59.9673068" lon="17.7134989">
        <ele>32.8223</ele>
        <time>2013-05-09T12:15:21Z</time>
      </trkpt>
      <trkpt lat="59.967332" lon="17.7136627">
        <ele>31.8607</ele>
        <time>2013-05-09T12:15:22Z</time>
      </trkpt>
      <trkpt lat="59.9673539" lon="17.713833">
        <ele>31.3801</ele>
        <time>2013-05-09T12:15:23Z</time>
      </trkpt>
      <trkpt lat="59.9673766" lon="17.7140079">
        <ele>30.4188</ele>
        <time>2013-05-09T12:15:24Z</time>
      </trkpt>
      <trkpt lat="59.9674022" lon="17.7141876">
        <ele>29.9381</ele>
        <time>2013-05-09T12:15:25Z</time>
      </trkpt>
      <trkpt lat="59.9674291" lon="17.7143727">
        <ele>29.4575</ele>
        <time>2013-05-09T12:15:26Z</time>
      </trkpt>
      <trkpt lat="59.9674564" lon="17.7145621">
        <ele>28.9769</ele>
        <time>2013-05-09T12:15:27Z</time>
      </trkpt>
      <trkpt lat="59.9674832" lon="17.714754">
        <ele>28.4962</ele>
        <time>2013-05-09T12:15:28Z</time>
      </trkpt>
      <trkpt lat="59.9675087" lon="17.7149514">
        <ele>28.4962</ele>
        <time>2013-05-09T12:15:29Z</time>
      </trkpt>
      <trkpt lat="59.967536" lon="17.7151524">
        <ele>28.0155</ele>
        <time>2013-05-09T12:15:30Z</time>
      </trkpt>
      <trkpt lat="59.9675655" lon="17.7153557">
        <ele>28.0155</ele>
        <time>2013-05-09T12:15:31Z</time>
      </trkpt>
      <trkpt lat="59.9676001" lon="17.7155528">
        <ele>28.0155</ele>
        <time>2013-05-09T12:15:32Z</time>
      </trkpt>
      <trkpt lat="59.9676393" lon="17.7157394">
        <ele>28.0155</ele>
        <time>2013-05-09T12:15:33Z</time>
      </trkpt>
      <trkpt lat="59.9676802" lon="17.7159195">
        <ele>28.4962</ele>
        <time>2013-05-09T12:15:34Z</time>
      </trkpt>
      <trkpt lat="59.9677263" lon="17.7160851">
        <ele>28.4962</ele>
        <time>2013-05-09T12:15:35Z</time>
      </trkpt>
      <trkpt lat="59.9677831" lon="17.7162341">
        <ele>29.4575</ele>
        <time>2013-05-09T12:15:36Z</time>
      </trkpt>
      <trkpt lat="59.9678424" lon="17.7163687">
        <ele>30.4188</ele>
        <time>2013-05-09T12:15:37Z</time>
      </trkpt>
      <trkpt lat="59.9679008" lon="17.7164919">
        <ele>30.8995</ele>
        <time>2013-05-09T12:15:38Z</time>
      </trkpt>
      <trkpt lat="59.9679614" lon="17.7165997">
        <ele>31.8607</ele>
        <time>2013-05-09T12:15:39Z</time>
      </trkpt>
      <trkpt lat="59.9680211" lon="17.7166969">
        <ele>32.3416</ele>
        <time>2013-05-09T12:15:40Z</time>
      </trkpt>
      <trkpt lat="59.9680786" lon="17.7167835">
        <ele>32.8223</ele>
        <time>2013-05-09T12:15:41Z</time>
      </trkpt>
      <trkpt lat="59.9681356" lon="17.7168603">
        <ele>33.3029</ele>
        <time>2013-05-09T12:15:42Z</time>
      </trkpt>
      <trkpt lat="59.9681911" lon="17.7169328">
        <ele>33.3029</ele>
        <time>2013-05-09T12:15:43Z</time>
      </trkpt>
      <trkpt lat="59.9682462" lon="17.7169987">
        <ele>33.7834</ele>
        <time>2013-05-09T12:15:44Z</time>
      </trkpt>
      <trkpt lat="59.9683023" lon="17.7170555">
        <ele>33.7834</ele>
        <time>2013-05-09T12:15:45Z</time>
      </trkpt>
      <trkpt lat="59.9683583" lon="17.7171048">
        <ele>34.2642</ele>
        <time>2013-05-09T12:15:46Z</time>
      </trkpt>
      <trkpt lat="59.9684142" lon="17.7171477">
        <ele>34.2642</ele>
        <time>2013-05-09T12:15:47Z</time>
      </trkpt>
      <trkpt lat="59.9684728" lon="17.7171846">
        <ele>34.7449</ele>
        <time>2013-05-09T12:15:48Z</time>
      </trkpt>
      <trkpt lat="59.9685304" lon="17.717219">
        <ele>34.7449</ele>
        <time>2013-05-09T12:15:49Z</time>
      </trkpt>
      <trkpt lat="59.9685888" lon="17.7172524">
        <ele>35.2255</ele>
        <time>2013-05-09T12:15:50Z</time>
      </trkpt>
      <trkpt lat="59.9686463" lon="17.7172783">
        <ele>35.2255</ele>
        <time>2013-05-09T12:15:51Z</time>
      </trkpt>
      <trkpt lat="59.9687043" lon="17.7173021">
        <ele>35.7061</ele>
        <time>2013-05-09T12:15:52Z</time>
      </trkpt>
      <trkpt lat="59.9687611" lon="17.7173265">
        <ele>35.2255</ele>
        <time>2013-05-09T12:15:53Z</time>
      </trkpt>
      <trkpt lat="59.9688196" lon="17.7173509">
        <ele>35.2255</ele>
        <time>2013-05-09T12:15:54Z</time>
      </trkpt>
      <trkpt lat="59.9688798" lon="17.7173715">
        <ele>35.2255</ele>
        <time>2013-05-09T12:15:55Z</time>
      </trkpt>
      <trkpt lat="59.9689412" lon="17.7173889">
        <ele>34.7449</ele>
        <time>2013-05-09T12:15:56Z</time>
      </trkpt>
      <trkpt lat="59.9690035" lon="17.7174077">
        <ele>34.7449</ele>
        <time>2013-05-09T12:15:57Z</time>
      </trkpt>
      <trkpt lat="59.9690662" lon="17.7174283">
        <ele>34.2642</ele>
        <time>2013-05-09T12:15:58Z</time>
      </trkpt>
      <trkpt lat="59.9691294" lon="17.7174499">
        <ele>34.2642</ele>
        <time>2013-05-09T12:15:59Z</time>
      </trkpt>
      <trkpt lat="59.9691931" lon="17.7174699">
        <ele>33.7834</ele>
        <time>2013-05-09T12:16:00Z</time>
      </trkpt>
      <trkpt lat="59.9692568" lon="17.7174949">
        <ele>33.7834</ele>
        <time>2013-05-09T12:16:01Z</time>
      </trkpt>
      <trkpt lat="59.9693213" lon="17.7175259">
        <ele>33.3029</ele>
        <time>2013-05-09T12:16:02Z</time>
      </trkpt>
      <trkpt lat="59.9693891" lon="17.7175588">
        <ele>33.3029</ele>
        <time>2013-05-09T12:16:03Z</time>
      </trkpt>
      <trkpt lat="59.9694591" lon="17.7175962">
        <ele>32.8223</ele>
        <time>2013-05-09T12:16:04Z</time>
      </trkpt>
      <trkpt lat="59.9695305" lon="17.7176399">
        <ele>32.3416</ele>
        <time>2013-05-09T12:16:05Z</time>
      </trkpt>
      <trkpt lat="59.9696044" lon="17.717688">
        <ele>31.8607</ele>
        <time>2013-05-09T12:16:06Z</time>
      </trkpt>
      <trkpt lat="59.9696788" lon="17.717741">
        <ele>31.3801</ele>
        <time>2013-05-09T12:16:07Z</time>
      </trkpt>
      <trkpt lat="59.9697533" lon="17.7177984">
        <ele>31.3801</ele>
        <time>2013-05-09T12:16:08Z</time>
      </trkpt>
      <trkpt lat="59.9698289" lon="17.7178577">
        <ele>30.8995</ele>
        <time>2013-05-09T12:16:09Z</time>
      </trkpt>
      <trkpt lat="59.969906" lon="17.7179171">
        <ele>30.4188</ele>
        <time>2013-05-09T12:16:10Z</time>
      </trkpt>
      <trkpt lat="59.9699837" lon="17.7179808">
        <ele>30.4188</ele>
        <time>2013-05-09T12:16:11Z</time>
      </trkpt>
      <trkpt lat="59.9700631" lon="17.7180507">
        <ele>30.4188</ele>
        <time>2013-05-09T12:16:12Z</time>
      </trkpt>
      <trkpt lat="59.9701417" lon="17.7181264">
        <ele>30.4188</ele>
        <time>2013-05-09T12:16:13Z</time>
      </trkpt>
      <trkpt lat="59.9702216" lon="17.7182019">
        <ele>29.9381</ele>
        <time>2013-05-09T12:16:14Z</time>
      </trkpt>
      <trkpt lat="59.9703032" lon="17.718275">
        <ele>29.9381</ele>
        <time>2013-05-09T12:16:15Z</time>
      </trkpt>
      <trkpt lat="59.9703853" lon="17.7183479">
        <ele>29.9381</ele>
        <time>2013-05-09T12:16:16Z</time>
      </trkpt>
      <trkpt lat="59.9704682" lon="17.7184231">
        <ele>29.9381</ele>
        <time>2013-05-09T12:16:17Z</time>
      </trkpt>
      <trkpt lat="59.9705524" lon="17.7185008">
        <ele>29.9381</ele>
        <time>2013-05-09T12:16:18Z</time>
      </trkpt>
      <trkpt lat="59.9706387" lon="17.7185785">
        <ele>29.9381</ele>
        <time>2013-05-09T12:16:19Z</time>
      </trkpt>
      <trkpt lat="59.9707262" lon="17.7186579">
        <ele>29.9381</ele>
        <time>2013-05-09T12:16:20Z</time>
      </trkpt>
      <trkpt lat="59.970814" lon="17.7187391">
        <ele>29.4575</ele>
        <time>2013-05-09T12:16:21Z</time>
      </trkpt>
      <trkpt lat="59.9709017" lon="17.7188213">
        <ele>29.4575</ele>
        <time>2013-05-09T12:16:22Z</time>
      </trkpt>
      <trkpt lat="59.9709893" lon="17.7189034">
        <ele>29.4575</ele>
        <time>2013-05-09T12:16:23Z</time>
      </trkpt>
      <trkpt lat="59.9710783" lon="17.7189831">
        <ele>28.9769</ele>
        <time>2013-05-09T12:16:24Z</time>
      </trkpt>
      <trkpt lat="59.9711688" lon="17.7190618">
        <ele>28.9769</ele>
        <time>2013-05-09T12:16:25Z</time>
      </trkpt>
      <trkpt lat="59.9712597" lon="17.7191426">
        <ele>28.9769</ele>
        <time>2013-05-09T12:16:26Z</time>
      </trkpt>
      <trkpt lat="59.9713509" lon="17.7192277">
        <ele>28.4962</ele>
        <time>2013-05-09T12:16:27Z</time>
      </trkpt>
      <trkpt lat="59.9714431" lon="17.7193141">
        <ele>28.4962</ele>
        <time>2013-05-09T12:16:28Z</time>
      </trkpt>
      <trkpt lat="59.9715371" lon="17.7194006">
        <ele>28.4962</ele>
        <time>2013-05-09T12:16:29Z</time>
      </trkpt>
      <trkpt lat="59.9716321" lon="17.7194881">
        <ele>28.4962</ele>
        <time>2013-05-09T12:16:30Z</time>
      </trkpt>
      <trkpt lat="59.9717269" lon="17.7195751">
        <ele>28.0155</ele>
        <time>2013-05-09T12:16:31Z</time>
      </trkpt>
      <trkpt lat="59.9718202" lon="17.7196595">
        <ele>28.0155</ele>
        <time>2013-05-09T12:16:32Z</time>
      </trkpt>
      <trkpt lat="59.9719132" lon="17.719741">
        <ele>28.0155</ele>
        <time>2013-05-09T12:16:33Z</time>
      </trkpt>
      <trkpt lat="59.9720056" lon="17.7198228">
        <ele>28.0155</ele>
        <time>2013-05-09T12:16:34Z</time>
      </trkpt>
      <trkpt lat="59.9720979" lon="17.7199061">
        <ele>28.0155</ele>
        <time>2013-05-09T12:16:35Z</time>
      </trkpt>
      <trkpt lat="59.9721906" lon="17.7199894">
        <ele>28.0155</ele>
        <time>2013-05-09T12:16:36Z</time>
      </trkpt>
      <trkpt lat="59.9722834" lon="17.7200744">
        <ele>27.5349</ele>
        <time>2013-05-09T12:16:37Z</time>
      </trkpt>
      <trkpt lat="59.9723764" lon="17.720161">
        <ele>27.5349</ele>
        <time>2013-05-09T12:16:38Z</time>
      </trkpt>
      <trkpt lat="59.9724692" lon="17.7202491">
        <ele>27.5349</ele>
        <time>2013-05-09T12:16:39Z</time>
      </trkpt>
      <trkpt lat="59.9725616" lon="17.7203372">
        <ele>27.5349</ele>
        <time>2013-05-09T12:16:40Z</time>
      </trkpt>
      <trkpt lat="59.9726542" lon="17.720425">
        <ele>27.5349</ele>
        <time>2013-05-09T12:16:41Z</time>
      </trkpt>
      <trkpt lat="59.9727462" lon="17.7205147">
        <ele>27.0543</ele>
        <time>2013-05-09T12:16:42Z</time>
      </trkpt>
      <trkpt lat="59.9728361" lon="17.7206131">
        <ele>27.0543</ele>
        <time>2013-05-09T12:16:43Z</time>
      </trkpt>
      <trkpt lat="59.9729238" lon="17.7207206">
        <ele>27.0543</ele>
        <time>2013-05-09T12:16:44Z</time>
      </trkpt>
      <trkpt lat="59.9730121" lon="17.7208327">
        <ele>27.5349</ele>
        <time>2013-05-09T12:16:45Z</time>
      </trkpt>
      <trkpt lat="59.9730986" lon="17.7209505">
        <ele>27.5349</ele>
        <time>2013-05-09T12:16:46Z</time>
      </trkpt>
      <trkpt lat="59.9731831" lon="17.7210744">
        <ele>28.0155</ele>
        <time>2013-05-09T12:16:47Z</time>
      </trkpt>
      <trkpt lat="59.9732653" lon="17.7212042">
        <ele>28.0155</ele>
        <time>2013-05-09T12:16:48Z</time>
      </trkpt>
      <trkpt lat="59.9733457" lon="17.7213405">
        <ele>28.4962</ele>
        <time>2013-05-09T12:16:49Z</time>
      </trkpt>
      <trkpt lat="59.9734234" lon="17.7214849">
        <ele>28.4962</ele>
        <time>2013-05-09T12:16:50Z</time>
      </trkpt>
      <trkpt lat="59.9734974" lon="17.7216327">
        <ele>28.9769</ele>
        <time>2013-05-09T12:16:51Z</time>
      </trkpt>
      <trkpt lat="59.9735675" lon="17.7217834">
        <ele>28.9769</ele>
        <time>2013-05-09T12:16:52Z</time>
      </trkpt>
      <trkpt lat="59.9736337" lon="17.7219376">
        <ele>29.4575</ele>
        <time>2013-05-09T12:16:53Z</time>
      </trkpt>
      <trkpt lat="59.9736947" lon="17.7220961">
        <ele>29.4575</ele>
        <time>2013-05-09T12:16:54Z</time>
      </trkpt>
      <trkpt lat="59.9737507" lon="17.7222596">
        <ele>29.4575</ele>
        <time>2013-05-09T12:16:55Z</time>
      </trkpt>
      <trkpt lat="59.9738021" lon="17.7224263">
        <ele>29.4575</ele>
        <time>2013-05-09T12:16:56Z</time>
      </trkpt>
      <trkpt lat="59.9738487" lon="17.7225947">
        <ele>29.4575</ele>
        <time>2013-05-09T12:16:57Z</time>
      </trkpt>
      <trkpt lat="59.9738922" lon="17.7227669">
        <ele>29.4575</ele>
        <time>2013-05-09T12:16:58Z</time>
      </trkpt>
      <trkpt lat="59.9739334" lon="17.7229405">
        <ele>29.4575</ele>
        <time>2013-05-09T12:16:59Z</time>
      </trkpt>
      <trkpt lat="59.973972" lon="17.7231169">
        <ele>29.4575</ele>
        <time>2013-05-09T12:17:00Z</time>
      </trkpt>
      <trkpt lat="59.9740082" lon="17.7232968">
        <ele>28.9769</ele>
        <time>2013-05-09T12:17:01Z</time>
      </trkpt>
      <trkpt lat="59.9740414" lon="17.7234785">
        <ele>28.9769</ele>
        <time>2013-05-09T12:17:02Z</time>
      </trkpt>
      <trkpt lat="59.9740718" lon="17.7236618">
        <ele>28.9769</ele>
        <time>2013-05-09T12:17:03Z</time>
      </trkpt>
      <trkpt lat="59.974101" lon="17.7238459">
        <ele>28.9769</ele>
        <time>2013-05-09T12:17:04Z</time>
      </trkpt>
      <trkpt lat="59.9741289" lon="17.7240306">
        <ele>29.4575</ele>
        <time>2013-05-09T12:17:05Z</time>
      </trkpt>
      <trkpt lat="59.974155" lon="17.724216">
        <ele>29.4575</ele>
        <time>2013-05-09T12:17:06Z</time>
      </trkpt>
      <trkpt lat="59.9741806" lon="17.724401">
        <ele>29.4575</ele>
        <time>2013-05-09T12:17:07Z</time>
      </trkpt>
      <trkpt lat="59.9742052" lon="17.7245857">
        <ele>29.4575</ele>
        <time>2013-05-09T12:17:08Z</time>
      </trkpt>
      <trkpt lat="59.9742248" lon="17.7247702">
        <ele>29.4575</ele>
        <time>2013-05-09T12:17:09Z</time>
      </trkpt>
      <trkpt lat="59.9742492" lon="17.7249527">
        <ele>29.4575</ele>
        <time>2013-05-09T12:17:10Z</time>
      </trkpt>
      <trkpt lat="59.9742722" lon="17.7251352">
        <ele>29.4575</ele>
        <time>2013-05-09T12:17:11Z</time>
      </trkpt>
      <trkpt lat="59.9742922" lon="17.7253195">
        <ele>29.4575</ele>
        <time>2013-05-09T12:17:12Z</time>
      </trkpt>
      <trkpt lat="59.9743103" lon="17.7255052">
        <ele>28.9769</ele>
        <time>2013-05-09T12:17:13Z</time>
      </trkpt>
      <trkpt lat="59.9743261" lon="17.7256908">
        <ele>28.9769</ele>
        <time>2013-05-09T12:17:14Z</time>
      </trkpt>
      <trkpt lat="59.9743449" lon="17.7258787">
        <ele>28.9769</ele>
        <time>2013-05-09T12:17:15Z</time>
      </trkpt>
      <trkpt lat="59.9743605" lon="17.7260625">
        <ele>28.9769</ele>
        <time>2013-05-09T12:17:16Z</time>
      </trkpt>
      <trkpt lat="59.9743714" lon="17.7262474">
        <ele>28.9769</ele>
        <time>2013-05-09T12:17:17Z</time>
      </trkpt>
      <trkpt lat="59.9743807" lon="17.7264335">
        <ele>28.9769</ele>
        <time>2013-05-09T12:17:18Z</time>
      </trkpt>
      <trkpt lat="59.9743859" lon="17.7266171">
        <ele>28.9769</ele>
        <time>2013-05-09T12:17:19Z</time>
      </trkpt>
      <trkpt lat="59.9743896" lon="17.7268014">
        <ele>28.9769</ele>
        <time>2013-05-09T12:17:20Z</time>
      </trkpt>
      <trkpt lat="59.974392" lon="17.7269882">
        <ele>28.9769</ele>
        <time>2013-05-09T12:17:21Z</time>
      </trkpt>
      <trkpt lat="59.9743955" lon="17.7271773">
        <ele>28.9769</ele>
        <time>2013-05-09T12:17:22Z</time>
      </trkpt>
      <trkpt lat="59.9743983" lon="17.7273681">
        <ele>28.9769</ele>
        <time>2013-05-09T12:17:23Z</time>
      </trkpt>
      <trkpt lat="59.9744012" lon="17.7275592">
        <ele>28.9769</ele>
        <time>2013-05-09T12:17:24Z</time>
      </trkpt>
      <trkpt lat="59.9744039" lon="17.7277507">
        <ele>28.9769</ele>
        <time>2013-05-09T12:17:25Z</time>
      </trkpt>
      <trkpt lat="59.974408" lon="17.7279434">
        <ele>28.4962</ele>
        <time>2013-05-09T12:17:26Z</time>
      </trkpt>
      <trkpt lat="59.9744139" lon="17.7281341">
        <ele>28.4962</ele>
        <time>2013-05-09T12:17:27Z</time>
      </trkpt>
      <trkpt lat="59.9744191" lon="17.728322">
        <ele>28.4962</ele>
        <time>2013-05-09T12:17:28Z</time>
      </trkpt>
      <trkpt lat="59.9744237" lon="17.7285057">
        <ele>28.4962</ele>
        <time>2013-05-09T12:17:29Z</time>
      </trkpt>
      <trkpt lat="59.9744281" lon="17.7286885">
        <ele>28.4962</ele>
        <time>2013-05-09T12:17:30Z</time>
      </trkpt>
      <trkpt lat="59.9744336" lon="17.7288696">
        <ele>28.4962</ele>
        <time>2013-05-09T12:17:31Z</time>
      </trkpt>
      <trkpt lat="59.9744432" lon="17.7290471">
        <ele>28.9769</ele>
        <time>2013-05-09T12:17:32Z</time>
      </trkpt>
      <trkpt lat="59.9744495" lon="17.7292253">
        <ele>29.4575</ele>
        <time>2013-05-09T12:17:33Z</time>
      </trkpt>
      <trkpt lat="59.9744496" lon="17.7294048">
        <ele>29.4575</ele>
        <time>2013-05-09T12:17:34Z</time>
      </trkpt>
      <trkpt lat="59.9744434" lon="17.7295834">
        <ele>29.4575</ele>
        <time>2013-05-09T12:17:35Z</time>
      </trkpt>
      <trkpt lat="59.9744334" lon="17.7297592">
        <ele>29.4575</ele>
        <time>2013-05-09T12:17:36Z</time>
      </trkpt>
      <trkpt lat="59.9744217" lon="17.7299332">
        <ele>29.4575</ele>
        <time>2013-05-09T12:17:37Z</time>
      </trkpt>
      <trkpt lat="59.9744087" lon="17.7301056">
        <ele>29.4575</ele>
        <time>2013-05-09T12:17:38Z</time>
      </trkpt>
      <trkpt lat="59.9743948" lon="17.7302763">
        <ele>29.4575</ele>
        <time>2013-05-09T12:17:39Z</time>
      </trkpt>
      <trkpt lat="59.9743812" lon="17.7304451">
        <ele>29.9381</ele>
        <time>2013-05-09T12:17:40Z</time>
      </trkpt>
      <trkpt lat="59.9743673" lon="17.7306153">
        <ele>29.9381</ele>
        <time>2013-05-09T12:17:41Z</time>
      </trkpt>
      <trkpt lat="59.974353" lon="17.7307863">
        <ele>29.4575</ele>
        <time>2013-05-09T12:17:42Z</time>
      </trkpt>
      <trkpt lat="59.9743412" lon="17.7309579">
        <ele>29.4575</ele>
        <time>2013-05-09T12:17:43Z</time>
      </trkpt>
      <trkpt lat="59.9743325" lon="17.7311289">
        <ele>28.9769</ele>
        <time>2013-05-09T12:17:44Z</time>
      </trkpt>
      <trkpt lat="59.9743267" lon="17.7312987">
        <ele>28.9769</ele>
        <time>2013-05-09T12:17:45Z</time>
      </trkpt>
      <trkpt lat="59.9743227" lon="17.7314671">
        <ele>28.4962</ele>
        <time>2013-05-09T12:17:46Z</time>
      </trkpt>
      <trkpt lat="59.9743211" lon="17.7316333">
        <ele>28.0155</ele>
        <time>2013-05-09T12:17:47Z</time>
      </trkpt>
      <trkpt lat="59.974321" lon="17.7317979">
        <ele>28.0155</ele>
        <time>2013-05-09T12:17:48Z</time>
      </trkpt>
      <trkpt lat="59.9743222" lon="17.7319627">
        <ele>28.0155</ele>
        <time>2013-05-09T12:17:49Z</time>
      </trkpt>
      <trkpt lat="59.9743247" lon="17.7321287">
        <ele>28.0155</ele>
        <time>2013-05-09T12:17:50Z</time>
      </trkpt>
      <trkpt lat="59.974328" lon="17.7322954">
        <ele>28.0155</ele>
        <time>2013-05-09T12:17:51Z</time>
      </trkpt>
      <trkpt lat="59.974331" lon="17.7324628">
        <ele>28.0155</ele>
        <time>2013-05-09T12:17:52Z</time>
      </trkpt>
      <trkpt lat="59.974335" lon="17.7326319">
        <ele>27.5349</ele>
        <time>2013-05-09T12:17:53Z</time>
      </trkpt>
      <trkpt lat="59.9743375" lon="17.7328002">
        <ele>28.0155</ele>
        <time>2013-05-09T12:17:54Z</time>
      </trkpt>
      <trkpt lat="59.9743347" lon="17.7329684">
        <ele>28.0155</ele>
        <time>2013-05-09T12:17:55Z</time>
      </trkpt>
      <trkpt lat="59.9743262" lon="17.7331395">
        <ele>27.5349</ele>
        <time>2013-05-09T12:17:56Z</time>
      </trkpt>
      <trkpt lat="59.9743171" lon="17.7333113">
        <ele>27.5349</ele>
        <time>2013-05-09T12:17:57Z</time>
      </trkpt>
      <trkpt lat="59.9743087" lon="17.7334832">
        <ele>27.0543</ele>
        <time>2013-05-09T12:17:58Z</time>
      </trkpt>
      <trkpt lat="59.9743015" lon="17.7336534">
        <ele>27.0543</ele>
        <time>2013-05-09T12:17:59Z</time>
      </trkpt>
      <trkpt lat="59.9742963" lon="17.7338221">
        <ele>27.0543</ele>
        <time>2013-05-09T12:18:00Z</time>
      </trkpt>
      <trkpt lat="59.9742902" lon="17.7339893">
        <ele>27.0543</ele>
        <time>2013-05-09T12:18:01Z</time>
      </trkpt>
      <trkpt lat="59.9742844" lon="17.7341541">
        <ele>27.0543</ele>
        <time>2013-05-09T12:18:02Z</time>
      </trkpt>
      <trkpt lat="59.9742797" lon="17.7343198">
        <ele>27.5349</ele>
        <time>2013-05-09T12:18:03Z</time>
      </trkpt>
      <trkpt lat="59.9742758" lon="17.7344865">
        <ele>27.5349</ele>
        <time>2013-05-09T12:18:04Z</time>
      </trkpt>
      <trkpt lat="59.974275" lon="17.7346534">
        <ele>27.0543</ele>
        <time>2013-05-09T12:18:05Z</time>
      </trkpt>
      <trkpt lat="59.9742786" lon="17.7348212">
        <ele>27.0543</ele>
        <time>2013-05-09T12:18:06Z</time>
      </trkpt>
      <trkpt lat="59.9742865" lon="17.7349865">
        <ele>27.0543</ele>
        <time>2013-05-09T12:18:07Z</time>
      </trkpt>
      <trkpt lat="59.9742983" lon="17.735151">
        <ele>27.0543</ele>
        <time>2013-05-09T12:18:08Z</time>
      </trkpt>
      <trkpt lat="59.9743126" lon="17.7353129">
        <ele>27.0543</ele>
        <time>2013-05-09T12:18:09Z</time>
      </trkpt>
      <trkpt lat="59.9743283" lon="17.7354721">
        <ele>27.0543</ele>
        <time>2013-05-09T12:18:10Z</time>
      </trkpt>
      <trkpt lat="59.9743455" lon="17.7356289">
        <ele>27.0543</ele>
        <time>2013-05-09T12:18:11Z</time>
      </trkpt>
      <trkpt lat="59.9743666" lon="17.7357826">
        <ele>27.0543</ele>
        <time>2013-05-09T12:18:12Z</time>
      </trkpt>
      <trkpt lat="59.9743906" lon="17.7359335">
        <ele>27.0543</ele>
        <time>2013-05-09T12:18:13Z</time>
      </trkpt>
      <trkpt lat="59.974418" lon="17.7360818">
        <ele>27.0543</ele>
        <time>2013-05-09T12:18:14Z</time>
      </trkpt>
      <trkpt lat="59.974449" lon="17.736227">
        <ele>27.0543</ele>
        <time>2013-05-09T12:18:15Z</time>
      </trkpt>
      <trkpt lat="59.9744853" lon="17.736367">
        <ele>27.5349</ele>
        <time>2013-05-09T12:18:16Z</time>
      </trkpt>
      <trkpt lat="59.9745242" lon="17.7365058">
        <ele>27.5349</ele>
        <time>2013-05-09T12:18:17Z</time>
      </trkpt>
      <trkpt lat="59.9745667" lon="17.7366411">
        <ele>28.0155</ele>
        <time>2013-05-09T12:18:18Z</time>
      </trkpt>
      <trkpt lat="59.9746103" lon="17.7367731">
        <ele>28.4962</ele>
        <time>2013-05-09T12:18:19Z</time>
      </trkpt>
      <trkpt lat="59.9746548" lon="17.7369024">
        <ele>28.9769</ele>
        <time>2013-05-09T12:18:20Z</time>
      </trkpt>
      <trkpt lat="59.9747009" lon="17.7370294">
        <ele>28.9769</ele>
        <time>2013-05-09T12:18:21Z</time>
      </trkpt>
      <trkpt lat="59.9747495" lon="17.7371539">
        <ele>29.4575</ele>
        <time>2013-05-09T12:18:22Z</time>
      </trkpt>
      <trkpt lat="59.9748004" lon="17.7372722">
        <ele>29.9381</ele>
        <time>2013-05-09T12:18:23Z</time>
      </trkpt>
      <trkpt lat="59.9748514" lon="17.737386">
        <ele>30.8995</ele>
        <time>2013-05-09T12:18:24Z</time>
      </trkpt>
      <trkpt lat="59.9749022" lon="17.7374958">
        <ele>31.3801</ele>
        <time>2013-05-09T12:18:25Z</time>
      </trkpt>
      <trkpt lat="59.9749562" lon="17.7375983">
        <ele>31.3801</ele>
        <time>2013-05-09T12:18:26Z</time>
      </trkpt>
      <trkpt lat="59.9750137" lon="17.7376941">
        <ele>31.8607</ele>
        <time>2013-05-09T12:18:27Z</time>
      </trkpt>
      <trkpt lat="59.9750715" lon="17.7377925">
        <ele>32.3416</ele>
        <time>2013-05-09T12:18:28Z</time>
      </trkpt>
      <trkpt lat="59.9751287" lon="17.737894">
        <ele>32.3416</ele>
        <time>2013-05-09T12:18:29Z</time>
      </trkpt>
      <trkpt lat="59.9751866" lon="17.7379967">
        <ele>32.3416</ele>
        <time>2013-05-09T12:18:30Z</time>
      </trkpt>
      <trkpt lat="59.9752453" lon="17.7381002">
        <ele>32.8223</ele>
        <time>2013-05-09T12:18:31Z</time>
      </trkpt>
      <trkpt lat="59.9753058" lon="17.7382011">
        <ele>32.8223</ele>
        <time>2013-05-09T12:18:32Z</time>
      </trkpt>
      <trkpt lat="59.9753679" lon="17.7383011">
        <ele>33.3029</ele>
        <time>2013-05-09T12:18:33Z</time>
      </trkpt>
      <trkpt lat="59.97543" lon="17.7384042">
        <ele>33.3029</ele>
        <time>2013-05-09T12:18:34Z</time>
      </trkpt>
      <trkpt lat="59.9754919" lon="17.7385114">
        <ele>33.3029</ele>
        <time>2013-05-09T12:18:35Z</time>
      </trkpt>
      <trkpt lat="59.9755546" lon="17.7386199">
        <ele>33.7834</ele>
        <time>2013-05-09T12:18:36Z</time>
      </trkpt>
      <trkpt lat="59.9756178" lon="17.7387294">
        <ele>33.7834</ele>
        <time>2013-05-09T12:18:37Z</time>
      </trkpt>
      <trkpt lat="59.9756808" lon="17.7388405">
        <ele>34.2642</ele>
        <time>2013-05-09T12:18:38Z</time>
      </trkpt>
      <trkpt lat="59.975744" lon="17.7389509">
        <ele>34.2642</ele>
        <time>2013-05-09T12:18:39Z</time>
      </trkpt>
      <trkpt lat="59.9758081" lon="17.739059">
        <ele>34.7449</ele>
        <time>2013-05-09T12:18:40Z</time>
      </trkpt>
      <trkpt lat="59.9758716" lon="17.7391638">
        <ele>34.7449</ele>
        <time>2013-05-09T12:18:41Z</time>
      </trkpt>
      <trkpt lat="59.9759338" lon="17.7392655">
        <ele>34.7449</ele>
        <time>2013-05-09T12:18:42Z</time>
      </trkpt>
      <trkpt lat="59.9759943" lon="17.7393693">
        <ele>35.2255</ele>
        <time>2013-05-09T12:18:43Z</time>
      </trkpt>
      <trkpt lat="59.9760527" lon="17.7394703">
        <ele>35.2255</ele>
        <time>2013-05-09T12:18:44Z</time>
      </trkpt>
      <trkpt lat="59.9761072" lon="17.7395642">
        <ele>35.7061</ele>
        <time>2013-05-09T12:18:45Z</time>
      </trkpt>
      <trkpt lat="59.9761581" lon="17.7396531">
        <ele>35.7061</ele>
        <time>2013-05-09T12:18:46Z</time>
      </trkpt>
      <trkpt lat="59.9762085" lon="17.7397297">
        <ele>36.1868</ele>
        <time>2013-05-09T12:18:47Z</time>
      </trkpt>
      <trkpt lat="59.9762631" lon="17.7397821">
        <ele>36.6675</ele>
        <time>2013-05-09T12:18:48Z</time>
      </trkpt>
      <trkpt lat="59.9763199" lon="17.7398046">
        <ele>37.1481</ele>
        <time>2013-05-09T12:18:49Z</time>
      </trkpt>
      <trkpt lat="59.9763771" lon="17.7397978">
        <ele>37.6287</ele>
        <time>2013-05-09T12:18:50Z</time>
      </trkpt>
      <trkpt lat="59.9764356" lon="17.7397666">
        <ele>37.6287</ele>
        <time>2013-05-09T12:18:51Z</time>
      </trkpt>
      <trkpt lat="59.9765034" lon="17.7396704">
        <ele>37.6287</ele>
        <time>2013-05-09T12:18:52Z</time>
      </trkpt>
      <trkpt lat="59.9765585" lon="17.7395937">
        <ele>38.1094</ele>
        <time>2013-05-09T12:18:53Z</time>
      </trkpt>
      <trkpt lat="59.9766142" lon="17.7395293">
        <ele>37.6287</ele>
        <time>2013-05-09T12:18:54Z</time>
      </trkpt>
      <trkpt lat="59.9766733" lon="17.7394694">
        <ele>37.6287</ele>
        <time>2013-05-09T12:18:55Z</time>
      </trkpt>
      <trkpt lat="59.9767341" lon="17.7394248">
        <ele>38.1094</ele>
        <time>2013-05-09T12:18:56Z</time>
      </trkpt>
      <trkpt lat="59.9767936" lon="17.7393885">
        <ele>37.6287</ele>
        <time>2013-05-09T12:18:57Z</time>
      </trkpt>
      <trkpt lat="59.976852" lon="17.7393614">
        <ele>37.6287</ele>
        <time>2013-05-09T12:18:58Z</time>
      </trkpt>
      <trkpt lat="59.9769085" lon="17.7393396">
        <ele>37.6287</ele>
        <time>2013-05-09T12:18:59Z</time>
      </trkpt>
      <trkpt lat="59.9769656" lon="17.7393185">
        <ele>37.6287</ele>
        <time>2013-05-09T12:19:00Z</time>
      </trkpt>
      <trkpt lat="59.9770231" lon="17.739289">
        <ele>37.6287</ele>
        <time>2013-05-09T12:19:01Z</time>
      </trkpt>
      <trkpt lat="59.9770795" lon="17.739255">
        <ele>37.6287</ele>
        <time>2013-05-09T12:19:02Z</time>
      </trkpt>
      <trkpt lat="59.9771339" lon="17.7392238">
        <ele>37.6287</ele>
        <time>2013-05-09T12:19:03Z</time>
      </trkpt>
      <trkpt lat="59.9771883" lon="17.7391915">
        <ele>38.1094</ele>
        <time>2013-05-09T12:19:04Z</time>
      </trkpt>
      <trkpt lat="59.9772417" lon="17.739158">
        <ele>38.1094</ele>
        <time>2013-05-09T12:19:05Z</time>
      </trkpt>
      <trkpt lat="59.977296" lon="17.7391264">
        <ele>37.6287</ele>
        <time>2013-05-09T12:19:06Z</time>
      </trkpt>
      <trkpt lat="59.977348" lon="17.7391">
        <ele>37.6287</ele>
        <time>2013-05-09T12:19:07Z</time>
      </trkpt>
      <trkpt lat="59.9773989" lon="17.7390746">
        <ele>37.6287</ele>
        <time>2013-05-09T12:19:08Z</time>
      </trkpt>
      <trkpt lat="59.977449" lon="17.7390488">
        <ele>37.6287</ele>
        <time>2013-05-09T12:19:09Z</time>
      </trkpt>
      <trkpt lat="59.9774977" lon="17.7390259">
        <ele>37.6287</ele>
        <time>2013-05-09T12:19:10Z</time>
      </trkpt>
      <trkpt lat="59.9775457" lon="17.7390112">
        <ele>37.6287</ele>
        <time>2013-05-09T12:19:11Z</time>
      </trkpt>
      <trkpt lat="59.9775913" lon="17.7390052">
        <ele>37.6287</ele>
        <time>2013-05-09T12:19:12Z</time>
      </trkpt>
      <trkpt lat="59.9776367" lon="17.7390026">
        <ele>37.6287</ele>
        <time>2013-05-09T12:19:13Z</time>
      </trkpt>
      <trkpt lat="59.9776792" lon="17.7389964">
        <ele>38.1094</ele>
        <time>2013-05-09T12:19:14Z</time>
      </trkpt>
      <trkpt lat="59.9777214" lon="17.7389977">
        <ele>38.1094</ele>
        <time>2013-05-09T12:19:15Z</time>
      </trkpt>
      <trkpt lat="59.9777648" lon="17.739001">
        <ele>38.5901</ele>
        <time>2013-05-09T12:19:16Z</time>
      </trkpt>
      <trkpt lat="59.977804" lon="17.7390088">
        <ele>38.5901</ele>
        <time>2013-05-09T12:19:17Z</time>
      </trkpt>
      <trkpt lat="59.977842" lon="17.7390211">
        <ele>38.5901</ele>
        <time>2013-05-09T12:19:18Z</time>
      </trkpt>
      <trkpt lat="59.9778817" lon="17.7390347">
        <ele>39.0707</ele>
        <time>2013-05-09T12:19:19Z</time>
      </trkpt>
      <trkpt lat="59.9779183" lon="17.739057">
        <ele>39.5513</ele>
        <time>2013-05-09T12:19:20Z</time>
      </trkpt>
      <trkpt lat="59.9779574" lon="17.7390798">
        <ele>40.0321</ele>
        <time>2013-05-09T12:19:21Z</time>
      </trkpt>
      <trkpt lat="59.977996" lon="17.7390992">
        <ele>40.5128</ele>
        <time>2013-05-09T12:19:22Z</time>
      </trkpt>
      <trkpt lat="59.9780362" lon="17.7391232">
        <ele>40.9934</ele>
        <time>2013-05-09T12:19:23Z</time>
      </trkpt>
      <trkpt lat="59.9780767" lon="17.73915">
        <ele>41.9547</ele>
        <time>2013-05-09T12:19:24Z</time>
      </trkpt>
      <trkpt lat="59.9781187" lon="17.7391694">
        <ele>42.4354</ele>
        <time>2013-05-09T12:19:25Z</time>
      </trkpt>
      <trkpt lat="59.9781538" lon="17.7391891">
        <ele>42.916</ele>
        <time>2013-05-09T12:19:26Z</time>
      </trkpt>
      <trkpt lat="59.9781922" lon="17.739199">
        <ele>43.3966</ele>
        <time>2013-05-09T12:19:27Z</time>
      </trkpt>
      <trkpt lat="59.9782307" lon="17.7392106">
        <ele>42.916</ele>
        <time>2013-05-09T12:19:28Z</time>
      </trkpt>
      <trkpt lat="59.9782773" lon="17.7392127">
        <ele>43.8773</ele>
        <time>2013-05-09T12:19:29Z</time>
      </trkpt>
      <trkpt lat="59.9783161" lon="17.7392243">
        <ele>43.3966</ele>
        <time>2013-05-09T12:19:30Z</time>
      </trkpt>
      <trkpt lat="59.9783563" lon="17.7392372">
        <ele>43.3966</ele>
        <time>2013-05-09T12:19:31Z</time>
      </trkpt>
      <trkpt lat="59.9783973" lon="17.7392498">
        <ele>42.916</ele>
        <time>2013-05-09T12:19:32Z</time>
      </trkpt>
      <trkpt lat="59.9784378" lon="17.7392575">
        <ele>42.916</ele>
        <time>2013-05-09T12:19:33Z</time>
      </trkpt>
      <trkpt lat="59.9784782" lon="17.7392645">
        <ele>42.916</ele>
        <time>2013-05-09T12:19:34Z</time>
      </trkpt>
      <trkpt lat="59.978518" lon="17.7392769">
        <ele>42.916</ele>
        <time>2013-05-09T12:19:35Z</time>
      </trkpt>
      <trkpt lat="59.9785595" lon="17.7392885">
        <ele>42.4354</ele>
        <time>2013-05-09T12:19:36Z</time>
      </trkpt>
      <trkpt lat="59.9786039" lon="17.7392937">
        <ele>42.4354</ele>
        <time>2013-05-09T12:19:37Z</time>
      </trkpt>
      <trkpt lat="59.9786481" lon="17.7393014">
        <ele>41.9547</ele>
        <time>2013-05-09T12:19:38Z</time>
      </trkpt>
    </trkseg>
  </trk>
</gpx>